<?xml version="1.0" encoding="UTF-8" standalone="no" ?>
<gpx xmlns="http://www.topografix.com/GPX/1/1" xmlns:xsi="http://www.w3.org/2001/XMLSchema-instance" xsi:schemaLocation="http://www.topografix.com/GPX/1/1 http://www.topografix.com/GPX/1/1/gpx.xsd" version="1.1" creator="VisuGPX - https://www.visugpx.com">
  <metadata>
    <name>Les chalets du Mont D'or</name>
  </metadata>
  <trk>
    <name><![CDATA[Les chalets du Mont D'or_1]]></name>
    <extensions>
      <line xmlns="http://www.topografix.com/GPX/gpx_style/0/2">
        <color>0000FF</color>
        <width>4</width>
      </line>
    </extensions>
    <trkseg>
      <trkpt lat="46.7251" lon="6.30098">
        <ele>1120.7</ele>
        <time>2022-07-05T07:05:58Z</time>
      </trkpt>
      <trkpt lat="46.72505" lon="6.30098">
        <ele>1137.1</ele>
        <time>2022-07-05T07:06:05Z</time>
      </trkpt>
      <trkpt lat="46.72504" lon="6.30106">
        <ele>1141.9</ele>
        <time>2022-07-05T07:06:13Z</time>
      </trkpt>
      <trkpt lat="46.72502" lon="6.30113">
        <ele>1143</ele>
        <time>2022-07-05T07:06:18Z</time>
      </trkpt>
      <trkpt lat="46.725" lon="6.30119">
        <ele>1143</ele>
        <time>2022-07-05T07:06:25Z</time>
      </trkpt>
      <trkpt lat="46.72497" lon="6.30126">
        <ele>1142.6</ele>
        <time>2022-07-05T07:06:30Z</time>
      </trkpt>
      <trkpt lat="46.72493" lon="6.30132">
        <ele>1142.1</ele>
        <time>2022-07-05T07:06:34Z</time>
      </trkpt>
      <trkpt lat="46.7249" lon="6.30136">
        <ele>1141.9</ele>
        <time>2022-07-05T07:06:40Z</time>
      </trkpt>
      <trkpt lat="46.72486" lon="6.3014">
        <ele>1143.1</ele>
        <time>2022-07-05T07:06:46Z</time>
      </trkpt>
      <trkpt lat="46.72482" lon="6.30145">
        <ele>1144.4</ele>
        <time>2022-07-05T07:06:52Z</time>
      </trkpt>
      <trkpt lat="46.72481" lon="6.30152">
        <ele>1145</ele>
        <time>2022-07-05T07:06:57Z</time>
      </trkpt>
      <trkpt lat="46.72479" lon="6.30158">
        <ele>1145</ele>
        <time>2022-07-05T07:07:03Z</time>
      </trkpt>
      <trkpt lat="46.72476" lon="6.30164">
        <ele>1145.6</ele>
        <time>2022-07-05T07:07:08Z</time>
      </trkpt>
      <trkpt lat="46.72475" lon="6.30172">
        <ele>1145.8</ele>
        <time>2022-07-05T07:07:13Z</time>
      </trkpt>
      <trkpt lat="46.72474" lon="6.30179">
        <ele>1145.2</ele>
        <time>2022-07-05T07:07:19Z</time>
      </trkpt>
      <trkpt lat="46.72475" lon="6.30187">
        <ele>1143.7</ele>
        <time>2022-07-05T07:07:25Z</time>
      </trkpt>
      <trkpt lat="46.72475" lon="6.30194">
        <ele>1141.5</ele>
        <time>2022-07-05T07:07:31Z</time>
      </trkpt>
      <trkpt lat="46.72474" lon="6.30201">
        <ele>1140.3</ele>
        <time>2022-07-05T07:07:36Z</time>
      </trkpt>
      <trkpt lat="46.72472" lon="6.30207">
        <ele>1139.1</ele>
        <time>2022-07-05T07:07:41Z</time>
      </trkpt>
      <trkpt lat="46.72471" lon="6.30214">
        <ele>1138.7</ele>
        <time>2022-07-05T07:07:47Z</time>
      </trkpt>
      <trkpt lat="46.72469" lon="6.30221">
        <ele>1138.5</ele>
        <time>2022-07-05T07:07:53Z</time>
      </trkpt>
      <trkpt lat="46.72466" lon="6.30228">
        <ele>1138.6</ele>
        <time>2022-07-05T07:07:58Z</time>
      </trkpt>
      <trkpt lat="46.72463" lon="6.30234">
        <ele>1139.3</ele>
        <time>2022-07-05T07:08:03Z</time>
      </trkpt>
      <trkpt lat="46.72461" lon="6.30241">
        <ele>1140</ele>
        <time>2022-07-05T07:08:08Z</time>
      </trkpt>
      <trkpt lat="46.72459" lon="6.30248">
        <ele>1140.9</ele>
        <time>2022-07-05T07:08:13Z</time>
      </trkpt>
      <trkpt lat="46.72457" lon="6.30255">
        <ele>1141.6</ele>
        <time>2022-07-05T07:08:19Z</time>
      </trkpt>
      <trkpt lat="46.72456" lon="6.30262">
        <ele>1141.9</ele>
        <time>2022-07-05T07:08:25Z</time>
      </trkpt>
      <trkpt lat="46.72454" lon="6.30269">
        <ele>1141.7</ele>
        <time>2022-07-05T07:08:30Z</time>
      </trkpt>
      <trkpt lat="46.72452" lon="6.30276">
        <ele>1141.8</ele>
        <time>2022-07-05T07:08:35Z</time>
      </trkpt>
      <trkpt lat="46.72451" lon="6.30282">
        <ele>1142.1</ele>
        <time>2022-07-05T07:08:39Z</time>
      </trkpt>
      <trkpt lat="46.7245" lon="6.30289">
        <ele>1142.5</ele>
        <time>2022-07-05T07:08:43Z</time>
      </trkpt>
      <trkpt lat="46.72449" lon="6.30297">
        <ele>1143.4</ele>
        <time>2022-07-05T07:08:48Z</time>
      </trkpt>
      <trkpt lat="46.72448" lon="6.30303">
        <ele>1144.2</ele>
        <time>2022-07-05T07:08:52Z</time>
      </trkpt>
      <trkpt lat="46.72446" lon="6.3031">
        <ele>1145</ele>
        <time>2022-07-05T07:08:57Z</time>
      </trkpt>
      <trkpt lat="46.72445" lon="6.30318">
        <ele>1144.9</ele>
        <time>2022-07-05T07:09:02Z</time>
      </trkpt>
      <trkpt lat="46.72444" lon="6.30325">
        <ele>1144.6</ele>
        <time>2022-07-05T07:09:08Z</time>
      </trkpt>
      <trkpt lat="46.72442" lon="6.30332">
        <ele>1144.3</ele>
        <time>2022-07-05T07:09:13Z</time>
      </trkpt>
      <trkpt lat="46.72441" lon="6.3034">
        <ele>1143.9</ele>
        <time>2022-07-05T07:09:18Z</time>
      </trkpt>
      <trkpt lat="46.72439" lon="6.30347">
        <ele>1144.2</ele>
        <time>2022-07-05T07:09:23Z</time>
      </trkpt>
      <trkpt lat="46.72439" lon="6.30354">
        <ele>1144.6</ele>
        <time>2022-07-05T07:09:29Z</time>
      </trkpt>
      <trkpt lat="46.72438" lon="6.30362">
        <ele>1144.7</ele>
        <time>2022-07-05T07:09:34Z</time>
      </trkpt>
      <trkpt lat="46.72438" lon="6.30369">
        <ele>1144.7</ele>
        <time>2022-07-05T07:09:39Z</time>
      </trkpt>
      <trkpt lat="46.72437" lon="6.30375">
        <ele>1144.7</ele>
        <time>2022-07-05T07:09:43Z</time>
      </trkpt>
      <trkpt lat="46.72436" lon="6.30383">
        <ele>1144.6</ele>
        <time>2022-07-05T07:09:48Z</time>
      </trkpt>
      <trkpt lat="46.72435" lon="6.3039">
        <ele>1144.5</ele>
        <time>2022-07-05T07:09:53Z</time>
      </trkpt>
      <trkpt lat="46.72434" lon="6.30398">
        <ele>1143.9</ele>
        <time>2022-07-05T07:09:59Z</time>
      </trkpt>
      <trkpt lat="46.72434" lon="6.30405">
        <ele>1143.3</ele>
        <time>2022-07-05T07:10:04Z</time>
      </trkpt>
      <trkpt lat="46.72433" lon="6.30412">
        <ele>1143.2</ele>
        <time>2022-07-05T07:10:08Z</time>
      </trkpt>
      <trkpt lat="46.72432" lon="6.30418">
        <ele>1143.2</ele>
        <time>2022-07-05T07:10:12Z</time>
      </trkpt>
      <trkpt lat="46.72432" lon="6.30425">
        <ele>1143.4</ele>
        <time>2022-07-05T07:10:17Z</time>
      </trkpt>
      <trkpt lat="46.72431" lon="6.30433">
        <ele>1143.9</ele>
        <time>2022-07-05T07:10:23Z</time>
      </trkpt>
      <trkpt lat="46.7243" lon="6.3044">
        <ele>1144.3</ele>
        <time>2022-07-05T07:10:27Z</time>
      </trkpt>
      <trkpt lat="46.72429" lon="6.30447">
        <ele>1144.5</ele>
        <time>2022-07-05T07:10:30Z</time>
      </trkpt>
      <trkpt lat="46.72429" lon="6.30454">
        <ele>1145.3</ele>
        <time>2022-07-05T07:10:36Z</time>
      </trkpt>
      <trkpt lat="46.72429" lon="6.30462">
        <ele>1145</ele>
        <time>2022-07-05T07:10:42Z</time>
      </trkpt>
      <trkpt lat="46.72428" lon="6.30468">
        <ele>1144.9</ele>
        <time>2022-07-05T07:10:47Z</time>
      </trkpt>
      <trkpt lat="46.72427" lon="6.30475">
        <ele>1145.9</ele>
        <time>2022-07-05T07:10:52Z</time>
      </trkpt>
      <trkpt lat="46.72425" lon="6.30483">
        <ele>1147.5</ele>
        <time>2022-07-05T07:10:57Z</time>
      </trkpt>
      <trkpt lat="46.72425" lon="6.30491">
        <ele>1149.1</ele>
        <time>2022-07-05T07:11:02Z</time>
      </trkpt>
      <trkpt lat="46.72424" lon="6.30497">
        <ele>1150.8</ele>
        <time>2022-07-05T07:11:08Z</time>
      </trkpt>
      <trkpt lat="46.72422" lon="6.30504">
        <ele>1150.4</ele>
        <time>2022-07-05T07:11:14Z</time>
      </trkpt>
      <trkpt lat="46.72422" lon="6.30511">
        <ele>1149.8</ele>
        <time>2022-07-05T07:11:19Z</time>
      </trkpt>
      <trkpt lat="46.72422" lon="6.30519">
        <ele>1150.4</ele>
        <time>2022-07-05T07:11:25Z</time>
      </trkpt>
      <trkpt lat="46.72421" lon="6.30526">
        <ele>1151.6</ele>
        <time>2022-07-05T07:11:29Z</time>
      </trkpt>
      <trkpt lat="46.72419" lon="6.30533">
        <ele>1153.9</ele>
        <time>2022-07-05T07:11:34Z</time>
      </trkpt>
      <trkpt lat="46.72417" lon="6.3054">
        <ele>1155.2</ele>
        <time>2022-07-05T07:11:39Z</time>
      </trkpt>
      <trkpt lat="46.72417" lon="6.30546">
        <ele>1155</ele>
        <time>2022-07-05T07:11:44Z</time>
      </trkpt>
      <trkpt lat="46.72415" lon="6.30553">
        <ele>1154.4</ele>
        <time>2022-07-05T07:11:48Z</time>
      </trkpt>
      <trkpt lat="46.72413" lon="6.30558">
        <ele>1153.2</ele>
        <time>2022-07-05T07:11:53Z</time>
      </trkpt>
      <trkpt lat="46.72412" lon="6.30566">
        <ele>1151.5</ele>
        <time>2022-07-05T07:11:58Z</time>
      </trkpt>
      <trkpt lat="46.72411" lon="6.30573">
        <ele>1151.1</ele>
        <time>2022-07-05T07:12:02Z</time>
      </trkpt>
      <trkpt lat="46.7241" lon="6.30581">
        <ele>1151.6</ele>
        <time>2022-07-05T07:12:06Z</time>
      </trkpt>
      <trkpt lat="46.72409" lon="6.30587">
        <ele>1152.3</ele>
        <time>2022-07-05T07:12:09Z</time>
      </trkpt>
      <trkpt lat="46.72408" lon="6.30594">
        <ele>1153.1</ele>
        <time>2022-07-05T07:12:13Z</time>
      </trkpt>
      <trkpt lat="46.72407" lon="6.30601">
        <ele>1154.1</ele>
        <time>2022-07-05T07:12:17Z</time>
      </trkpt>
      <trkpt lat="46.72408" lon="6.30608">
        <ele>1155</ele>
        <time>2022-07-05T07:12:21Z</time>
      </trkpt>
      <trkpt lat="46.72411" lon="6.30614">
        <ele>1156</ele>
        <time>2022-07-05T07:12:26Z</time>
      </trkpt>
      <trkpt lat="46.72415" lon="6.3062">
        <ele>1156.7</ele>
        <time>2022-07-05T07:12:31Z</time>
      </trkpt>
      <trkpt lat="46.72418" lon="6.30625">
        <ele>1157.2</ele>
        <time>2022-07-05T07:12:36Z</time>
      </trkpt>
      <trkpt lat="46.7242" lon="6.30632">
        <ele>1157.1</ele>
        <time>2022-07-05T07:12:42Z</time>
      </trkpt>
      <trkpt lat="46.7242" lon="6.30639">
        <ele>1157.9</ele>
        <time>2022-07-05T07:12:48Z</time>
      </trkpt>
      <trkpt lat="46.7242" lon="6.30645">
        <ele>1158.7</ele>
        <time>2022-07-05T07:12:56Z</time>
      </trkpt>
      <trkpt lat="46.72422" lon="6.30652">
        <ele>1158.6</ele>
        <time>2022-07-05T07:13:04Z</time>
      </trkpt>
      <trkpt lat="46.72425" lon="6.30658">
        <ele>1158.6</ele>
        <time>2022-07-05T07:13:11Z</time>
      </trkpt>
      <trkpt lat="46.72428" lon="6.30664">
        <ele>1159.1</ele>
        <time>2022-07-05T07:13:16Z</time>
      </trkpt>
      <trkpt lat="46.72431" lon="6.3067">
        <ele>1160.1</ele>
        <time>2022-07-05T07:13:22Z</time>
      </trkpt>
      <trkpt lat="46.7243" lon="6.30677">
        <ele>1161.6</ele>
        <time>2022-07-05T07:13:31Z</time>
      </trkpt>
      <trkpt lat="46.72429" lon="6.30685">
        <ele>1162.7</ele>
        <time>2022-07-05T07:13:37Z</time>
      </trkpt>
      <trkpt lat="46.72431" lon="6.30692">
        <ele>1163.1</ele>
        <time>2022-07-05T07:13:42Z</time>
      </trkpt>
      <trkpt lat="46.72431" lon="6.30699">
        <ele>1164.1</ele>
        <time>2022-07-05T07:13:49Z</time>
      </trkpt>
      <trkpt lat="46.72432" lon="6.30706">
        <ele>1164.8</ele>
        <time>2022-07-05T07:13:53Z</time>
      </trkpt>
      <trkpt lat="46.72433" lon="6.30712">
        <ele>1165.7</ele>
        <time>2022-07-05T07:14:00Z</time>
      </trkpt>
      <trkpt lat="46.72432" lon="6.30705">
        <ele>1162.9</ele>
        <time>2022-07-05T07:14:14Z</time>
      </trkpt>
      <trkpt lat="46.72435" lon="6.307">
        <ele>1160.9</ele>
        <time>2022-07-05T07:14:20Z</time>
      </trkpt>
      <trkpt lat="46.72439" lon="6.30704">
        <ele>1158.8</ele>
        <time>2022-07-05T07:14:27Z</time>
      </trkpt>
      <trkpt lat="46.72443" lon="6.30708">
        <ele>1158.9</ele>
        <time>2022-07-05T07:14:32Z</time>
      </trkpt>
      <trkpt lat="46.72445" lon="6.30714">
        <ele>1159.7</ele>
        <time>2022-07-05T07:14:37Z</time>
      </trkpt>
      <trkpt lat="46.72448" lon="6.3072">
        <ele>1161.2</ele>
        <time>2022-07-05T07:14:41Z</time>
      </trkpt>
      <trkpt lat="46.72448" lon="6.30727">
        <ele>1163</ele>
        <time>2022-07-05T07:14:46Z</time>
      </trkpt>
      <trkpt lat="46.72448" lon="6.30734">
        <ele>1164</ele>
        <time>2022-07-05T07:14:51Z</time>
      </trkpt>
      <trkpt lat="46.72447" lon="6.30741">
        <ele>1164.4</ele>
        <time>2022-07-05T07:14:58Z</time>
      </trkpt>
      <trkpt lat="46.72447" lon="6.30748">
        <ele>1164.1</ele>
        <time>2022-07-05T07:15:05Z</time>
      </trkpt>
      <trkpt lat="46.7245" lon="6.30754">
        <ele>1163.2</ele>
        <time>2022-07-05T07:15:12Z</time>
      </trkpt>
      <trkpt lat="46.72453" lon="6.3076">
        <ele>1163</ele>
        <time>2022-07-05T07:15:17Z</time>
      </trkpt>
      <trkpt lat="46.72452" lon="6.30766">
        <ele>1163.9</ele>
        <time>2022-07-05T07:15:21Z</time>
      </trkpt>
      <trkpt lat="46.72452" lon="6.30773">
        <ele>1165.6</ele>
        <time>2022-07-05T07:15:28Z</time>
      </trkpt>
      <trkpt lat="46.72452" lon="6.3078">
        <ele>1167.2</ele>
        <time>2022-07-05T07:15:33Z</time>
      </trkpt>
      <trkpt lat="46.72451" lon="6.30787">
        <ele>1167.5</ele>
        <time>2022-07-05T07:15:38Z</time>
      </trkpt>
      <trkpt lat="46.72449" lon="6.30794">
        <ele>1167.7</ele>
        <time>2022-07-05T07:15:44Z</time>
      </trkpt>
      <trkpt lat="46.72449" lon="6.30801">
        <ele>1168.1</ele>
        <time>2022-07-05T07:15:49Z</time>
      </trkpt>
      <trkpt lat="46.7245" lon="6.30808">
        <ele>1168.4</ele>
        <time>2022-07-05T07:15:54Z</time>
      </trkpt>
      <trkpt lat="46.72449" lon="6.30814">
        <ele>1168.7</ele>
        <time>2022-07-05T07:15:59Z</time>
      </trkpt>
      <trkpt lat="46.72449" lon="6.30822">
        <ele>1169.1</ele>
        <time>2022-07-05T07:16:03Z</time>
      </trkpt>
      <trkpt lat="46.7245" lon="6.30829">
        <ele>1169.4</ele>
        <time>2022-07-05T07:16:07Z</time>
      </trkpt>
      <trkpt lat="46.72452" lon="6.30836">
        <ele>1169.7</ele>
        <time>2022-07-05T07:16:12Z</time>
      </trkpt>
      <trkpt lat="46.72453" lon="6.30844">
        <ele>1169.8</ele>
        <time>2022-07-05T07:16:17Z</time>
      </trkpt>
      <trkpt lat="46.72457" lon="6.30849">
        <ele>1169.4</ele>
        <time>2022-07-05T07:16:23Z</time>
      </trkpt>
      <trkpt lat="46.72462" lon="6.30853">
        <ele>1169.6</ele>
        <time>2022-07-05T07:16:28Z</time>
      </trkpt>
      <trkpt lat="46.72465" lon="6.30859">
        <ele>1169.3</ele>
        <time>2022-07-05T07:16:35Z</time>
      </trkpt>
      <trkpt lat="46.72465" lon="6.30866">
        <ele>1168.9</ele>
        <time>2022-07-05T07:16:42Z</time>
      </trkpt>
      <trkpt lat="46.72467" lon="6.30873">
        <ele>1168.6</ele>
        <time>2022-07-05T07:16:50Z</time>
      </trkpt>
      <trkpt lat="46.72468" lon="6.3088">
        <ele>1169.2</ele>
        <time>2022-07-05T07:16:58Z</time>
      </trkpt>
      <trkpt lat="46.72468" lon="6.30887">
        <ele>1169.8</ele>
        <time>2022-07-05T07:17:04Z</time>
      </trkpt>
      <trkpt lat="46.72469" lon="6.30893">
        <ele>1170.4</ele>
        <time>2022-07-05T07:17:10Z</time>
      </trkpt>
      <trkpt lat="46.72472" lon="6.30898">
        <ele>1170.9</ele>
        <time>2022-07-05T07:17:16Z</time>
      </trkpt>
      <trkpt lat="46.72476" lon="6.30902">
        <ele>1171.9</ele>
        <time>2022-07-05T07:17:22Z</time>
      </trkpt>
      <trkpt lat="46.72481" lon="6.30904">
        <ele>1173.3</ele>
        <time>2022-07-05T07:17:28Z</time>
      </trkpt>
      <trkpt lat="46.72485" lon="6.30908">
        <ele>1174.7</ele>
        <time>2022-07-05T07:17:34Z</time>
      </trkpt>
      <trkpt lat="46.72488" lon="6.30913">
        <ele>1176.4</ele>
        <time>2022-07-05T07:17:40Z</time>
      </trkpt>
      <trkpt lat="46.72493" lon="6.30916">
        <ele>1178.1</ele>
        <time>2022-07-05T07:17:46Z</time>
      </trkpt>
      <trkpt lat="46.72497" lon="6.30919">
        <ele>1178.9</ele>
        <time>2022-07-05T07:17:52Z</time>
      </trkpt>
      <trkpt lat="46.72502" lon="6.30922">
        <ele>1179.4</ele>
        <time>2022-07-05T07:17:58Z</time>
      </trkpt>
      <trkpt lat="46.72506" lon="6.30927">
        <ele>1179.7</ele>
        <time>2022-07-05T07:18:04Z</time>
      </trkpt>
      <trkpt lat="46.7251" lon="6.30931">
        <ele>1180</ele>
        <time>2022-07-05T07:18:10Z</time>
      </trkpt>
      <trkpt lat="46.72511" lon="6.30938">
        <ele>1180.4</ele>
        <time>2022-07-05T07:18:15Z</time>
      </trkpt>
      <trkpt lat="46.7251" lon="6.30945">
        <ele>1180.8</ele>
        <time>2022-07-05T07:18:22Z</time>
      </trkpt>
      <trkpt lat="46.72509" lon="6.30954">
        <ele>1183</ele>
        <time>2022-07-05T07:18:51Z</time>
      </trkpt>
      <trkpt lat="46.72509" lon="6.30961">
        <ele>1182.2</ele>
        <time>2022-07-05T07:18:56Z</time>
      </trkpt>
      <trkpt lat="46.72513" lon="6.30965">
        <ele>1182</ele>
        <time>2022-07-05T07:19:01Z</time>
      </trkpt>
      <trkpt lat="46.72518" lon="6.30969">
        <ele>1182.1</ele>
        <time>2022-07-05T07:19:06Z</time>
      </trkpt>
      <trkpt lat="46.72521" lon="6.30974">
        <ele>1182.7</ele>
        <time>2022-07-05T07:19:13Z</time>
      </trkpt>
      <trkpt lat="46.72523" lon="6.30981">
        <ele>1182.8</ele>
        <time>2022-07-05T07:19:20Z</time>
      </trkpt>
      <trkpt lat="46.72525" lon="6.30986">
        <ele>1183.4</ele>
        <time>2022-07-05T07:19:25Z</time>
      </trkpt>
      <trkpt lat="46.72528" lon="6.30993">
        <ele>1184.2</ele>
        <time>2022-07-05T07:19:32Z</time>
      </trkpt>
      <trkpt lat="46.72532" lon="6.30997">
        <ele>1184.6</ele>
        <time>2022-07-05T07:19:37Z</time>
      </trkpt>
      <trkpt lat="46.72535" lon="6.31002">
        <ele>1184.8</ele>
        <time>2022-07-05T07:19:43Z</time>
      </trkpt>
      <trkpt lat="46.72537" lon="6.31009">
        <ele>1184.9</ele>
        <time>2022-07-05T07:19:50Z</time>
      </trkpt>
      <trkpt lat="46.72541" lon="6.31014">
        <ele>1184.1</ele>
        <time>2022-07-05T07:19:56Z</time>
      </trkpt>
      <trkpt lat="46.72545" lon="6.31018">
        <ele>1184.4</ele>
        <time>2022-07-05T07:20:00Z</time>
      </trkpt>
      <trkpt lat="46.72549" lon="6.31022">
        <ele>1185.1</ele>
        <time>2022-07-05T07:20:06Z</time>
      </trkpt>
      <trkpt lat="46.72554" lon="6.31024">
        <ele>1184.6</ele>
        <time>2022-07-05T07:20:13Z</time>
      </trkpt>
      <trkpt lat="46.72559" lon="6.31023">
        <ele>1184.5</ele>
        <time>2022-07-05T07:20:19Z</time>
      </trkpt>
      <trkpt lat="46.72564" lon="6.31022">
        <ele>1184.6</ele>
        <time>2022-07-05T07:20:23Z</time>
      </trkpt>
      <trkpt lat="46.72569" lon="6.31023">
        <ele>1185</ele>
        <time>2022-07-05T07:20:27Z</time>
      </trkpt>
      <trkpt lat="46.72574" lon="6.31022">
        <ele>1185.7</ele>
        <time>2022-07-05T07:20:33Z</time>
      </trkpt>
      <trkpt lat="46.72578" lon="6.31023">
        <ele>1185.9</ele>
        <time>2022-07-05T07:20:40Z</time>
      </trkpt>
      <trkpt lat="46.7258" lon="6.31029">
        <ele>1186</ele>
        <time>2022-07-05T07:20:48Z</time>
      </trkpt>
      <trkpt lat="46.7258" lon="6.31036">
        <ele>1186.3</ele>
        <time>2022-07-05T07:20:56Z</time>
      </trkpt>
      <trkpt lat="46.72581" lon="6.31042">
        <ele>1187.6</ele>
        <time>2022-07-05T07:21:03Z</time>
      </trkpt>
      <trkpt lat="46.72583" lon="6.31049">
        <ele>1188.6</ele>
        <time>2022-07-05T07:21:10Z</time>
      </trkpt>
      <trkpt lat="46.72585" lon="6.31056">
        <ele>1189.5</ele>
        <time>2022-07-05T07:21:16Z</time>
      </trkpt>
      <trkpt lat="46.72586" lon="6.31062">
        <ele>1190.6</ele>
        <time>2022-07-05T07:21:22Z</time>
      </trkpt>
      <trkpt lat="46.72588" lon="6.31068">
        <ele>1191.4</ele>
        <time>2022-07-05T07:21:28Z</time>
      </trkpt>
      <trkpt lat="46.7259" lon="6.31075">
        <ele>1191.7</ele>
        <time>2022-07-05T07:21:34Z</time>
      </trkpt>
      <trkpt lat="46.72591" lon="6.31082">
        <ele>1191.8</ele>
        <time>2022-07-05T07:21:41Z</time>
      </trkpt>
      <trkpt lat="46.72594" lon="6.31088">
        <ele>1192.8</ele>
        <time>2022-07-05T07:21:48Z</time>
      </trkpt>
      <trkpt lat="46.72597" lon="6.31092">
        <ele>1193.6</ele>
        <time>2022-07-05T07:21:54Z</time>
      </trkpt>
      <trkpt lat="46.72598" lon="6.31099">
        <ele>1194.6</ele>
        <time>2022-07-05T07:22:00Z</time>
      </trkpt>
      <trkpt lat="46.726" lon="6.31106">
        <ele>1194.8</ele>
        <time>2022-07-05T07:22:06Z</time>
      </trkpt>
      <trkpt lat="46.72602" lon="6.31112">
        <ele>1194.8</ele>
        <time>2022-07-05T07:22:11Z</time>
      </trkpt>
      <trkpt lat="46.72605" lon="6.31118">
        <ele>1196</ele>
        <time>2022-07-05T07:22:34Z</time>
      </trkpt>
      <trkpt lat="46.72606" lon="6.31125">
        <ele>1195.8</ele>
        <time>2022-07-05T07:22:39Z</time>
      </trkpt>
      <trkpt lat="46.72607" lon="6.31132">
        <ele>1196.5</ele>
        <time>2022-07-05T07:22:44Z</time>
      </trkpt>
      <trkpt lat="46.72608" lon="6.3114">
        <ele>1196.7</ele>
        <time>2022-07-05T07:22:49Z</time>
      </trkpt>
      <trkpt lat="46.72607" lon="6.31148">
        <ele>1196.1</ele>
        <time>2022-07-05T07:22:54Z</time>
      </trkpt>
      <trkpt lat="46.72607" lon="6.31155">
        <ele>1195.3</ele>
        <time>2022-07-05T07:22:59Z</time>
      </trkpt>
      <trkpt lat="46.72609" lon="6.31162">
        <ele>1195.1</ele>
        <time>2022-07-05T07:23:04Z</time>
      </trkpt>
      <trkpt lat="46.72609" lon="6.31168">
        <ele>1195.7</ele>
        <time>2022-07-05T07:23:09Z</time>
      </trkpt>
      <trkpt lat="46.72611" lon="6.31176">
        <ele>1196.2</ele>
        <time>2022-07-05T07:23:14Z</time>
      </trkpt>
      <trkpt lat="46.72612" lon="6.31182">
        <ele>1196.5</ele>
        <time>2022-07-05T07:23:19Z</time>
      </trkpt>
      <trkpt lat="46.72615" lon="6.31188">
        <ele>1196.4</ele>
        <time>2022-07-05T07:23:23Z</time>
      </trkpt>
      <trkpt lat="46.72618" lon="6.31194">
        <ele>1196.8</ele>
        <time>2022-07-05T07:23:28Z</time>
      </trkpt>
      <trkpt lat="46.72621" lon="6.312">
        <ele>1197.4</ele>
        <time>2022-07-05T07:23:33Z</time>
      </trkpt>
      <trkpt lat="46.72623" lon="6.31207">
        <ele>1197.5</ele>
        <time>2022-07-05T07:23:38Z</time>
      </trkpt>
      <trkpt lat="46.72625" lon="6.31214">
        <ele>1197.4</ele>
        <time>2022-07-05T07:23:44Z</time>
      </trkpt>
      <trkpt lat="46.72627" lon="6.3122">
        <ele>1198.1</ele>
        <time>2022-07-05T07:23:49Z</time>
      </trkpt>
      <trkpt lat="46.72627" lon="6.31227">
        <ele>1198.5</ele>
        <time>2022-07-05T07:23:54Z</time>
      </trkpt>
      <trkpt lat="46.72629" lon="6.31234">
        <ele>1198.1</ele>
        <time>2022-07-05T07:23:59Z</time>
      </trkpt>
      <trkpt lat="46.72631" lon="6.31241">
        <ele>1197.8</ele>
        <time>2022-07-05T07:24:05Z</time>
      </trkpt>
      <trkpt lat="46.72631" lon="6.31248">
        <ele>1198.2</ele>
        <time>2022-07-05T07:24:11Z</time>
      </trkpt>
      <trkpt lat="46.7263" lon="6.31256">
        <ele>1198.5</ele>
        <time>2022-07-05T07:24:16Z</time>
      </trkpt>
      <trkpt lat="46.72631" lon="6.31262">
        <ele>1200.1</ele>
        <time>2022-07-05T07:24:22Z</time>
      </trkpt>
      <trkpt lat="46.72634" lon="6.31268">
        <ele>1202.6</ele>
        <time>2022-07-05T07:24:30Z</time>
      </trkpt>
      <trkpt lat="46.72636" lon="6.31275">
        <ele>1204.7</ele>
        <time>2022-07-05T07:24:37Z</time>
      </trkpt>
      <trkpt lat="46.72639" lon="6.31281">
        <ele>1207.3</ele>
        <time>2022-07-05T07:24:43Z</time>
      </trkpt>
      <trkpt lat="46.72641" lon="6.31288">
        <ele>1209.4</ele>
        <time>2022-07-05T07:24:49Z</time>
      </trkpt>
      <trkpt lat="46.72644" lon="6.31294">
        <ele>1210.4</ele>
        <time>2022-07-05T07:24:54Z</time>
      </trkpt>
      <trkpt lat="46.72646" lon="6.313">
        <ele>1210.1</ele>
        <time>2022-07-05T07:25:00Z</time>
      </trkpt>
      <trkpt lat="46.72647" lon="6.31307">
        <ele>1209.1</ele>
        <time>2022-07-05T07:25:06Z</time>
      </trkpt>
      <trkpt lat="46.72648" lon="6.31314">
        <ele>1208.1</ele>
        <time>2022-07-05T07:25:13Z</time>
      </trkpt>
      <trkpt lat="46.7265" lon="6.31321">
        <ele>1207.6</ele>
        <time>2022-07-05T07:25:20Z</time>
      </trkpt>
      <trkpt lat="46.72652" lon="6.31328">
        <ele>1207.6</ele>
        <time>2022-07-05T07:25:25Z</time>
      </trkpt>
      <trkpt lat="46.72654" lon="6.31334">
        <ele>1207.1</ele>
        <time>2022-07-05T07:25:29Z</time>
      </trkpt>
      <trkpt lat="46.72655" lon="6.31342">
        <ele>1206.8</ele>
        <time>2022-07-05T07:25:34Z</time>
      </trkpt>
      <trkpt lat="46.72657" lon="6.31348">
        <ele>1206.5</ele>
        <time>2022-07-05T07:25:39Z</time>
      </trkpt>
      <trkpt lat="46.72659" lon="6.31355">
        <ele>1207</ele>
        <time>2022-07-05T07:25:44Z</time>
      </trkpt>
      <trkpt lat="46.72661" lon="6.31362">
        <ele>1207.4</ele>
        <time>2022-07-05T07:25:50Z</time>
      </trkpt>
      <trkpt lat="46.72664" lon="6.31369">
        <ele>1207.9</ele>
        <time>2022-07-05T07:25:55Z</time>
      </trkpt>
      <trkpt lat="46.72665" lon="6.31375">
        <ele>1208.4</ele>
        <time>2022-07-05T07:26:00Z</time>
      </trkpt>
      <trkpt lat="46.72667" lon="6.31382">
        <ele>1208.7</ele>
        <time>2022-07-05T07:26:06Z</time>
      </trkpt>
      <trkpt lat="46.7267" lon="6.31388">
        <ele>1209.1</ele>
        <time>2022-07-05T07:26:11Z</time>
      </trkpt>
      <trkpt lat="46.72671" lon="6.31395">
        <ele>1209.5</ele>
        <time>2022-07-05T07:26:16Z</time>
      </trkpt>
      <trkpt lat="46.72673" lon="6.31402">
        <ele>1210</ele>
        <time>2022-07-05T07:26:21Z</time>
      </trkpt>
      <trkpt lat="46.72676" lon="6.31407">
        <ele>1210.6</ele>
        <time>2022-07-05T07:26:25Z</time>
      </trkpt>
      <trkpt lat="46.72679" lon="6.31413">
        <ele>1211.3</ele>
        <time>2022-07-05T07:26:31Z</time>
      </trkpt>
      <trkpt lat="46.72682" lon="6.31419">
        <ele>1211.1</ele>
        <time>2022-07-05T07:26:39Z</time>
      </trkpt>
      <trkpt lat="46.72685" lon="6.31424">
        <ele>1210.6</ele>
        <time>2022-07-05T07:26:43Z</time>
      </trkpt>
      <trkpt lat="46.72686" lon="6.31431">
        <ele>1210.1</ele>
        <time>2022-07-05T07:26:47Z</time>
      </trkpt>
      <trkpt lat="46.72688" lon="6.31438">
        <ele>1209.3</ele>
        <time>2022-07-05T07:26:52Z</time>
      </trkpt>
      <trkpt lat="46.7269" lon="6.31444">
        <ele>1209.4</ele>
        <time>2022-07-05T07:26:56Z</time>
      </trkpt>
      <trkpt lat="46.7269" lon="6.31451">
        <ele>1209.3</ele>
        <time>2022-07-05T07:27:00Z</time>
      </trkpt>
      <trkpt lat="46.72691" lon="6.31458">
        <ele>1209.1</ele>
        <time>2022-07-05T07:27:05Z</time>
      </trkpt>
      <trkpt lat="46.72692" lon="6.31464">
        <ele>1209</ele>
        <time>2022-07-05T07:27:11Z</time>
      </trkpt>
      <trkpt lat="46.72694" lon="6.31471">
        <ele>1209.1</ele>
        <time>2022-07-05T07:27:17Z</time>
      </trkpt>
      <trkpt lat="46.72695" lon="6.31478">
        <ele>1209.1</ele>
        <time>2022-07-05T07:27:22Z</time>
      </trkpt>
      <trkpt lat="46.72695" lon="6.31484">
        <ele>1208.2</ele>
        <time>2022-07-05T07:27:28Z</time>
      </trkpt>
      <trkpt lat="46.72696" lon="6.31491">
        <ele>1207.3</ele>
        <time>2022-07-05T07:27:32Z</time>
      </trkpt>
      <trkpt lat="46.72698" lon="6.31497">
        <ele>1207.1</ele>
        <time>2022-07-05T07:27:36Z</time>
      </trkpt>
      <trkpt lat="46.727" lon="6.31504">
        <ele>1208</ele>
        <time>2022-07-05T07:27:41Z</time>
      </trkpt>
      <trkpt lat="46.72701" lon="6.31511">
        <ele>1209.1</ele>
        <time>2022-07-05T07:27:45Z</time>
      </trkpt>
      <trkpt lat="46.72703" lon="6.31519">
        <ele>1210.6</ele>
        <time>2022-07-05T07:27:50Z</time>
      </trkpt>
      <trkpt lat="46.72704" lon="6.31526">
        <ele>1211.7</ele>
        <time>2022-07-05T07:27:54Z</time>
      </trkpt>
      <trkpt lat="46.72705" lon="6.31532">
        <ele>1212.1</ele>
        <time>2022-07-05T07:27:58Z</time>
      </trkpt>
      <trkpt lat="46.72706" lon="6.31539">
        <ele>1212.5</ele>
        <time>2022-07-05T07:28:03Z</time>
      </trkpt>
      <trkpt lat="46.72708" lon="6.31546">
        <ele>1212.3</ele>
        <time>2022-07-05T07:28:08Z</time>
      </trkpt>
      <trkpt lat="46.7271" lon="6.31553">
        <ele>1212.1</ele>
        <time>2022-07-05T07:28:13Z</time>
      </trkpt>
      <trkpt lat="46.72712" lon="6.3156">
        <ele>1212.7</ele>
        <time>2022-07-05T07:28:19Z</time>
      </trkpt>
      <trkpt lat="46.72714" lon="6.31566">
        <ele>1213.1</ele>
        <time>2022-07-05T07:28:25Z</time>
      </trkpt>
      <trkpt lat="46.72715" lon="6.31573">
        <ele>1212.7</ele>
        <time>2022-07-05T07:28:30Z</time>
      </trkpt>
      <trkpt lat="46.72716" lon="6.3158">
        <ele>1211.9</ele>
        <time>2022-07-05T07:28:34Z</time>
      </trkpt>
      <trkpt lat="46.72717" lon="6.31587">
        <ele>1211.1</ele>
        <time>2022-07-05T07:28:39Z</time>
      </trkpt>
      <trkpt lat="46.72718" lon="6.31594">
        <ele>1210.2</ele>
        <time>2022-07-05T07:28:44Z</time>
      </trkpt>
      <trkpt lat="46.72719" lon="6.31601">
        <ele>1209.4</ele>
        <time>2022-07-05T07:28:49Z</time>
      </trkpt>
      <trkpt lat="46.7272" lon="6.31608">
        <ele>1209.1</ele>
        <time>2022-07-05T07:28:55Z</time>
      </trkpt>
      <trkpt lat="46.72721" lon="6.31615">
        <ele>1209.1</ele>
        <time>2022-07-05T07:29:00Z</time>
      </trkpt>
      <trkpt lat="46.72722" lon="6.31623">
        <ele>1209.7</ele>
        <time>2022-07-05T07:29:06Z</time>
      </trkpt>
      <trkpt lat="46.72723" lon="6.3163">
        <ele>1209.7</ele>
        <time>2022-07-05T07:29:10Z</time>
      </trkpt>
      <trkpt lat="46.72722" lon="6.31637">
        <ele>1209.7</ele>
        <time>2022-07-05T07:29:16Z</time>
      </trkpt>
      <trkpt lat="46.72725" lon="6.31643">
        <ele>1209.6</ele>
        <time>2022-07-05T07:29:24Z</time>
      </trkpt>
      <trkpt lat="46.72728" lon="6.31646">
        <ele>1210.8</ele>
        <time>2022-07-05T07:29:35Z</time>
      </trkpt>
      <trkpt lat="46.72731" lon="6.31653">
        <ele>1215.1</ele>
        <time>2022-07-05T07:29:54Z</time>
      </trkpt>
      <trkpt lat="46.72731" lon="6.3166">
        <ele>1215.2</ele>
        <time>2022-07-05T07:29:59Z</time>
      </trkpt>
      <trkpt lat="46.72733" lon="6.31666">
        <ele>1214.2</ele>
        <time>2022-07-05T07:30:04Z</time>
      </trkpt>
      <trkpt lat="46.72735" lon="6.31674">
        <ele>1212.2</ele>
        <time>2022-07-05T07:30:10Z</time>
      </trkpt>
      <trkpt lat="46.72739" lon="6.3168">
        <ele>1211.3</ele>
        <time>2022-07-05T07:30:15Z</time>
      </trkpt>
      <trkpt lat="46.7274" lon="6.31687">
        <ele>1210.8</ele>
        <time>2022-07-05T07:30:20Z</time>
      </trkpt>
      <trkpt lat="46.72743" lon="6.31693">
        <ele>1210.7</ele>
        <time>2022-07-05T07:30:24Z</time>
      </trkpt>
      <trkpt lat="46.72744" lon="6.31699">
        <ele>1210.4</ele>
        <time>2022-07-05T07:30:29Z</time>
      </trkpt>
      <trkpt lat="46.72746" lon="6.31706">
        <ele>1209.1</ele>
        <time>2022-07-05T07:30:34Z</time>
      </trkpt>
      <trkpt lat="46.72747" lon="6.31713">
        <ele>1207.5</ele>
        <time>2022-07-05T07:30:39Z</time>
      </trkpt>
      <trkpt lat="46.72748" lon="6.31721">
        <ele>1205.7</ele>
        <time>2022-07-05T07:30:44Z</time>
      </trkpt>
      <trkpt lat="46.72752" lon="6.31725">
        <ele>1205.9</ele>
        <time>2022-07-05T07:30:49Z</time>
      </trkpt>
      <trkpt lat="46.72756" lon="6.31727">
        <ele>1207.5</ele>
        <time>2022-07-05T07:30:53Z</time>
      </trkpt>
      <trkpt lat="46.7276" lon="6.31731">
        <ele>1210.5</ele>
        <time>2022-07-05T07:30:58Z</time>
      </trkpt>
      <trkpt lat="46.72762" lon="6.31739">
        <ele>1213.4</ele>
        <time>2022-07-05T07:31:03Z</time>
      </trkpt>
      <trkpt lat="46.72763" lon="6.31746">
        <ele>1215.6</ele>
        <time>2022-07-05T07:31:07Z</time>
      </trkpt>
      <trkpt lat="46.72764" lon="6.31753">
        <ele>1217.8</ele>
        <time>2022-07-05T07:31:12Z</time>
      </trkpt>
      <trkpt lat="46.72764" lon="6.3176">
        <ele>1219.4</ele>
        <time>2022-07-05T07:31:16Z</time>
      </trkpt>
      <trkpt lat="46.72763" lon="6.31768">
        <ele>1221.5</ele>
        <time>2022-07-05T07:31:21Z</time>
      </trkpt>
      <trkpt lat="46.72766" lon="6.31775">
        <ele>1223.4</ele>
        <time>2022-07-05T07:31:26Z</time>
      </trkpt>
      <trkpt lat="46.72769" lon="6.31781">
        <ele>1225</ele>
        <time>2022-07-05T07:31:32Z</time>
      </trkpt>
      <trkpt lat="46.72771" lon="6.31788">
        <ele>1225.8</ele>
        <time>2022-07-05T07:31:36Z</time>
      </trkpt>
      <trkpt lat="46.72771" lon="6.31794">
        <ele>1226.1</ele>
        <time>2022-07-05T07:31:41Z</time>
      </trkpt>
      <trkpt lat="46.72772" lon="6.31801">
        <ele>1226.3</ele>
        <time>2022-07-05T07:31:46Z</time>
      </trkpt>
      <trkpt lat="46.72773" lon="6.31808">
        <ele>1226.4</ele>
        <time>2022-07-05T07:31:52Z</time>
      </trkpt>
      <trkpt lat="46.72775" lon="6.31814">
        <ele>1226.9</ele>
        <time>2022-07-05T07:31:57Z</time>
      </trkpt>
      <trkpt lat="46.72776" lon="6.31821">
        <ele>1227.8</ele>
        <time>2022-07-05T07:32:02Z</time>
      </trkpt>
      <trkpt lat="46.72778" lon="6.31828">
        <ele>1228.6</ele>
        <time>2022-07-05T07:32:08Z</time>
      </trkpt>
      <trkpt lat="46.7278" lon="6.31834">
        <ele>1228.8</ele>
        <time>2022-07-05T07:32:13Z</time>
      </trkpt>
      <trkpt lat="46.72781" lon="6.31841">
        <ele>1229.1</ele>
        <time>2022-07-05T07:32:18Z</time>
      </trkpt>
      <trkpt lat="46.72782" lon="6.31848">
        <ele>1229.3</ele>
        <time>2022-07-05T07:32:25Z</time>
      </trkpt>
      <trkpt lat="46.72783" lon="6.31855">
        <ele>1229.7</ele>
        <time>2022-07-05T07:32:30Z</time>
      </trkpt>
      <trkpt lat="46.72784" lon="6.31862">
        <ele>1229.6</ele>
        <time>2022-07-05T07:32:37Z</time>
      </trkpt>
      <trkpt lat="46.72786" lon="6.31869">
        <ele>1229</ele>
        <time>2022-07-05T07:32:43Z</time>
      </trkpt>
      <trkpt lat="46.72788" lon="6.31876">
        <ele>1229.1</ele>
        <time>2022-07-05T07:32:47Z</time>
      </trkpt>
      <trkpt lat="46.7279" lon="6.31883">
        <ele>1229.8</ele>
        <time>2022-07-05T07:32:52Z</time>
      </trkpt>
      <trkpt lat="46.72793" lon="6.31889">
        <ele>1230.9</ele>
        <time>2022-07-05T07:32:57Z</time>
      </trkpt>
      <trkpt lat="46.72794" lon="6.31896">
        <ele>1230.8</ele>
        <time>2022-07-05T07:33:04Z</time>
      </trkpt>
      <trkpt lat="46.72797" lon="6.31903">
        <ele>1230.1</ele>
        <time>2022-07-05T07:33:10Z</time>
      </trkpt>
      <trkpt lat="46.72798" lon="6.3191">
        <ele>1229.6</ele>
        <time>2022-07-05T07:33:15Z</time>
      </trkpt>
      <trkpt lat="46.72801" lon="6.31916">
        <ele>1229.6</ele>
        <time>2022-07-05T07:33:19Z</time>
      </trkpt>
      <trkpt lat="46.72803" lon="6.31922">
        <ele>1229.9</ele>
        <time>2022-07-05T07:33:23Z</time>
      </trkpt>
      <trkpt lat="46.72804" lon="6.31929">
        <ele>1230.4</ele>
        <time>2022-07-05T07:33:29Z</time>
      </trkpt>
      <trkpt lat="46.72804" lon="6.31936">
        <ele>1230.8</ele>
        <time>2022-07-05T07:33:34Z</time>
      </trkpt>
      <trkpt lat="46.72804" lon="6.31942">
        <ele>1231.8</ele>
        <time>2022-07-05T07:33:38Z</time>
      </trkpt>
      <trkpt lat="46.72806" lon="6.31949">
        <ele>1232.6</ele>
        <time>2022-07-05T07:33:43Z</time>
      </trkpt>
      <trkpt lat="46.72808" lon="6.31957">
        <ele>1233</ele>
        <time>2022-07-05T07:33:48Z</time>
      </trkpt>
      <trkpt lat="46.7281" lon="6.31963">
        <ele>1233.3</ele>
        <time>2022-07-05T07:33:53Z</time>
      </trkpt>
      <trkpt lat="46.72814" lon="6.31969">
        <ele>1233.5</ele>
        <time>2022-07-05T07:33:58Z</time>
      </trkpt>
      <trkpt lat="46.72817" lon="6.31975">
        <ele>1233.9</ele>
        <time>2022-07-05T07:34:04Z</time>
      </trkpt>
      <trkpt lat="46.7282" lon="6.3198">
        <ele>1234.2</ele>
        <time>2022-07-05T07:34:10Z</time>
      </trkpt>
      <trkpt lat="46.72823" lon="6.31985">
        <ele>1234</ele>
        <time>2022-07-05T07:34:15Z</time>
      </trkpt>
      <trkpt lat="46.72826" lon="6.31991">
        <ele>1233</ele>
        <time>2022-07-05T07:34:20Z</time>
      </trkpt>
      <trkpt lat="46.7283" lon="6.31997">
        <ele>1232</ele>
        <time>2022-07-05T07:34:24Z</time>
      </trkpt>
      <trkpt lat="46.72834" lon="6.32003">
        <ele>1231.4</ele>
        <time>2022-07-05T07:34:29Z</time>
      </trkpt>
      <trkpt lat="46.72837" lon="6.32008">
        <ele>1231.9</ele>
        <time>2022-07-05T07:34:45Z</time>
      </trkpt>
      <trkpt lat="46.72836" lon="6.32015">
        <ele>1231.7</ele>
        <time>2022-07-05T07:34:51Z</time>
      </trkpt>
      <trkpt lat="46.72833" lon="6.32022">
        <ele>1231</ele>
        <time>2022-07-05T07:34:56Z</time>
      </trkpt>
      <trkpt lat="46.72833" lon="6.32028">
        <ele>1230.7</ele>
        <time>2022-07-05T07:35:00Z</time>
      </trkpt>
      <trkpt lat="46.72833" lon="6.32035">
        <ele>1230</ele>
        <time>2022-07-05T07:35:05Z</time>
      </trkpt>
      <trkpt lat="46.72831" lon="6.32043">
        <ele>1229</ele>
        <time>2022-07-05T07:35:10Z</time>
      </trkpt>
      <trkpt lat="46.72829" lon="6.3205">
        <ele>1228.3</ele>
        <time>2022-07-05T07:35:15Z</time>
      </trkpt>
      <trkpt lat="46.72826" lon="6.32055">
        <ele>1227.7</ele>
        <time>2022-07-05T07:35:19Z</time>
      </trkpt>
      <trkpt lat="46.72821" lon="6.32058">
        <ele>1227.5</ele>
        <time>2022-07-05T07:35:24Z</time>
      </trkpt>
      <trkpt lat="46.72818" lon="6.32064">
        <ele>1227.3</ele>
        <time>2022-07-05T07:35:28Z</time>
      </trkpt>
      <trkpt lat="46.72815" lon="6.32069">
        <ele>1227</ele>
        <time>2022-07-05T07:35:33Z</time>
      </trkpt>
      <trkpt lat="46.7281" lon="6.32071">
        <ele>1226.6</ele>
        <time>2022-07-05T07:35:40Z</time>
      </trkpt>
      <trkpt lat="46.72805" lon="6.32073">
        <ele>1226.9</ele>
        <time>2022-07-05T07:35:45Z</time>
      </trkpt>
      <trkpt lat="46.728" lon="6.32076">
        <ele>1231.5</ele>
        <time>2022-07-05T07:36:05Z</time>
      </trkpt>
      <trkpt lat="46.728" lon="6.32084">
        <ele>1231.5</ele>
        <time>2022-07-05T07:36:10Z</time>
      </trkpt>
      <trkpt lat="46.72801" lon="6.32091">
        <ele>1231.4</ele>
        <time>2022-07-05T07:36:14Z</time>
      </trkpt>
      <trkpt lat="46.72803" lon="6.32098">
        <ele>1231.3</ele>
        <time>2022-07-05T07:36:20Z</time>
      </trkpt>
      <trkpt lat="46.72805" lon="6.32104">
        <ele>1232.2</ele>
        <time>2022-07-05T07:36:25Z</time>
      </trkpt>
      <trkpt lat="46.72806" lon="6.32111">
        <ele>1232.7</ele>
        <time>2022-07-05T07:36:31Z</time>
      </trkpt>
      <trkpt lat="46.72807" lon="6.32117">
        <ele>1232</ele>
        <time>2022-07-05T07:36:37Z</time>
      </trkpt>
      <trkpt lat="46.72809" lon="6.32123">
        <ele>1231.1</ele>
        <time>2022-07-05T07:36:43Z</time>
      </trkpt>
      <trkpt lat="46.7281" lon="6.3213">
        <ele>1230.6</ele>
        <time>2022-07-05T07:36:48Z</time>
      </trkpt>
      <trkpt lat="46.72812" lon="6.32137">
        <ele>1230.6</ele>
        <time>2022-07-05T07:36:53Z</time>
      </trkpt>
      <trkpt lat="46.72816" lon="6.32144">
        <ele>1230.7</ele>
        <time>2022-07-05T07:36:59Z</time>
      </trkpt>
      <trkpt lat="46.72817" lon="6.3215">
        <ele>1230.4</ele>
        <time>2022-07-05T07:37:04Z</time>
      </trkpt>
      <trkpt lat="46.72818" lon="6.32157">
        <ele>1229.5</ele>
        <time>2022-07-05T07:37:15Z</time>
      </trkpt>
      <trkpt lat="46.72819" lon="6.32163">
        <ele>1228.6</ele>
        <time>2022-07-05T07:37:24Z</time>
      </trkpt>
      <trkpt lat="46.72819" lon="6.3217">
        <ele>1227.4</ele>
        <time>2022-07-05T07:37:30Z</time>
      </trkpt>
      <trkpt lat="46.72818" lon="6.32177">
        <ele>1226.8</ele>
        <time>2022-07-05T07:37:34Z</time>
      </trkpt>
      <trkpt lat="46.72819" lon="6.32184">
        <ele>1226.6</ele>
        <time>2022-07-05T07:37:39Z</time>
      </trkpt>
      <trkpt lat="46.7282" lon="6.32191">
        <ele>1226.3</ele>
        <time>2022-07-05T07:37:45Z</time>
      </trkpt>
      <trkpt lat="46.72821" lon="6.32198">
        <ele>1226.2</ele>
        <time>2022-07-05T07:37:50Z</time>
      </trkpt>
      <trkpt lat="46.72822" lon="6.32205">
        <ele>1226</ele>
        <time>2022-07-05T07:37:55Z</time>
      </trkpt>
      <trkpt lat="46.72821" lon="6.32212">
        <ele>1225</ele>
        <time>2022-07-05T07:38:01Z</time>
      </trkpt>
      <trkpt lat="46.7282" lon="6.32219">
        <ele>1223.7</ele>
        <time>2022-07-05T07:38:06Z</time>
      </trkpt>
      <trkpt lat="46.72819" lon="6.32226">
        <ele>1221.9</ele>
        <time>2022-07-05T07:38:12Z</time>
      </trkpt>
      <trkpt lat="46.72819" lon="6.32234">
        <ele>1220.9</ele>
        <time>2022-07-05T07:38:18Z</time>
      </trkpt>
      <trkpt lat="46.72819" lon="6.32241">
        <ele>1220.7</ele>
        <time>2022-07-05T07:38:23Z</time>
      </trkpt>
      <trkpt lat="46.7282" lon="6.32248">
        <ele>1220.6</ele>
        <time>2022-07-05T07:38:28Z</time>
      </trkpt>
      <trkpt lat="46.72822" lon="6.32256">
        <ele>1221.4</ele>
        <time>2022-07-05T07:38:34Z</time>
      </trkpt>
      <trkpt lat="46.72823" lon="6.32263">
        <ele>1221.3</ele>
        <time>2022-07-05T07:38:41Z</time>
      </trkpt>
      <trkpt lat="46.72822" lon="6.3227">
        <ele>1221</ele>
        <time>2022-07-05T07:38:47Z</time>
      </trkpt>
      <trkpt lat="46.7282" lon="6.32278">
        <ele>1220.9</ele>
        <time>2022-07-05T07:38:52Z</time>
      </trkpt>
      <trkpt lat="46.72819" lon="6.32285">
        <ele>1221.6</ele>
        <time>2022-07-05T07:38:58Z</time>
      </trkpt>
      <trkpt lat="46.72821" lon="6.32291">
        <ele>1221.9</ele>
        <time>2022-07-05T07:39:04Z</time>
      </trkpt>
      <trkpt lat="46.72823" lon="6.32298">
        <ele>1222</ele>
        <time>2022-07-05T07:39:11Z</time>
      </trkpt>
      <trkpt lat="46.72823" lon="6.32305">
        <ele>1222.4</ele>
        <time>2022-07-05T07:39:18Z</time>
      </trkpt>
      <trkpt lat="46.72821" lon="6.32312">
        <ele>1222.1</ele>
        <time>2022-07-05T07:39:23Z</time>
      </trkpt>
      <trkpt lat="46.72823" lon="6.32319">
        <ele>1221.8</ele>
        <time>2022-07-05T07:39:30Z</time>
      </trkpt>
      <trkpt lat="46.72824" lon="6.32325">
        <ele>1222.1</ele>
        <time>2022-07-05T07:39:36Z</time>
      </trkpt>
      <trkpt lat="46.72826" lon="6.32331">
        <ele>1222.8</ele>
        <time>2022-07-05T07:39:44Z</time>
      </trkpt>
      <trkpt lat="46.7283" lon="6.32336">
        <ele>1224</ele>
        <time>2022-07-05T07:39:52Z</time>
      </trkpt>
      <trkpt lat="46.72832" lon="6.32344">
        <ele>1225</ele>
        <time>2022-07-05T07:39:58Z</time>
      </trkpt>
      <trkpt lat="46.72833" lon="6.32351">
        <ele>1226</ele>
        <time>2022-07-05T07:40:05Z</time>
      </trkpt>
      <trkpt lat="46.72833" lon="6.32357">
        <ele>1226.6</ele>
        <time>2022-07-05T07:40:10Z</time>
      </trkpt>
      <trkpt lat="46.72832" lon="6.32364">
        <ele>1227.1</ele>
        <time>2022-07-05T07:40:14Z</time>
      </trkpt>
      <trkpt lat="46.72832" lon="6.32371">
        <ele>1227.4</ele>
        <time>2022-07-05T07:40:18Z</time>
      </trkpt>
      <trkpt lat="46.72832" lon="6.32378">
        <ele>1227.8</ele>
        <time>2022-07-05T07:40:23Z</time>
      </trkpt>
      <trkpt lat="46.72833" lon="6.32385">
        <ele>1228.2</ele>
        <time>2022-07-05T07:40:28Z</time>
      </trkpt>
      <trkpt lat="46.72834" lon="6.32392">
        <ele>1228.2</ele>
        <time>2022-07-05T07:40:33Z</time>
      </trkpt>
      <trkpt lat="46.72834" lon="6.32399">
        <ele>1228.1</ele>
        <time>2022-07-05T07:40:37Z</time>
      </trkpt>
      <trkpt lat="46.72835" lon="6.32407">
        <ele>1227.9</ele>
        <time>2022-07-05T07:40:42Z</time>
      </trkpt>
      <trkpt lat="46.72836" lon="6.32414">
        <ele>1228.4</ele>
        <time>2022-07-05T07:40:47Z</time>
      </trkpt>
      <trkpt lat="46.72836" lon="6.3242">
        <ele>1229.2</ele>
        <time>2022-07-05T07:40:52Z</time>
      </trkpt>
      <trkpt lat="46.72836" lon="6.32428">
        <ele>1229.9</ele>
        <time>2022-07-05T07:40:57Z</time>
      </trkpt>
      <trkpt lat="46.72836" lon="6.32436">
        <ele>1229.6</ele>
        <time>2022-07-05T07:41:03Z</time>
      </trkpt>
      <trkpt lat="46.72836" lon="6.32443">
        <ele>1228.8</ele>
        <time>2022-07-05T07:41:09Z</time>
      </trkpt>
      <trkpt lat="46.72838" lon="6.3245">
        <ele>1228.4</ele>
        <time>2022-07-05T07:41:15Z</time>
      </trkpt>
      <trkpt lat="46.72839" lon="6.32457">
        <ele>1228.3</ele>
        <time>2022-07-05T07:41:20Z</time>
      </trkpt>
      <trkpt lat="46.72838" lon="6.32464">
        <ele>1227.7</ele>
        <time>2022-07-05T07:41:24Z</time>
      </trkpt>
      <trkpt lat="46.72836" lon="6.32472">
        <ele>1227.1</ele>
        <time>2022-07-05T07:41:28Z</time>
      </trkpt>
      <trkpt lat="46.72835" lon="6.3248">
        <ele>1226.3</ele>
        <time>2022-07-05T07:41:32Z</time>
      </trkpt>
      <trkpt lat="46.72836" lon="6.32487">
        <ele>1224.6</ele>
        <time>2022-07-05T07:41:37Z</time>
      </trkpt>
      <trkpt lat="46.72837" lon="6.32494">
        <ele>1223.5</ele>
        <time>2022-07-05T07:41:41Z</time>
      </trkpt>
      <trkpt lat="46.72838" lon="6.32501">
        <ele>1222.1</ele>
        <time>2022-07-05T07:41:47Z</time>
      </trkpt>
      <trkpt lat="46.72836" lon="6.32509">
        <ele>1221.5</ele>
        <time>2022-07-05T07:41:52Z</time>
      </trkpt>
      <trkpt lat="46.72835" lon="6.32515">
        <ele>1221.4</ele>
        <time>2022-07-05T07:41:56Z</time>
      </trkpt>
      <trkpt lat="46.72836" lon="6.32523">
        <ele>1221.9</ele>
        <time>2022-07-05T07:42:01Z</time>
      </trkpt>
      <trkpt lat="46.72836" lon="6.3253">
        <ele>1221.9</ele>
        <time>2022-07-05T07:42:06Z</time>
      </trkpt>
      <trkpt lat="46.72837" lon="6.32537">
        <ele>1221.6</ele>
        <time>2022-07-05T07:42:11Z</time>
      </trkpt>
      <trkpt lat="46.72836" lon="6.32545">
        <ele>1220.7</ele>
        <time>2022-07-05T07:42:17Z</time>
      </trkpt>
      <trkpt lat="46.72838" lon="6.32551">
        <ele>1219.9</ele>
        <time>2022-07-05T07:42:23Z</time>
      </trkpt>
      <trkpt lat="46.7284" lon="6.3256">
        <ele>1219.7</ele>
        <time>2022-07-05T07:42:49Z</time>
      </trkpt>
      <trkpt lat="46.7284" lon="6.32567">
        <ele>1220.4</ele>
        <time>2022-07-05T07:42:53Z</time>
      </trkpt>
      <trkpt lat="46.72839" lon="6.32574">
        <ele>1220.7</ele>
        <time>2022-07-05T07:42:58Z</time>
      </trkpt>
      <trkpt lat="46.7284" lon="6.32581">
        <ele>1221.2</ele>
        <time>2022-07-05T07:43:06Z</time>
      </trkpt>
      <trkpt lat="46.72841" lon="6.32587">
        <ele>1220.9</ele>
        <time>2022-07-05T07:43:12Z</time>
      </trkpt>
      <trkpt lat="46.72843" lon="6.32595">
        <ele>1220.5</ele>
        <time>2022-07-05T07:43:17Z</time>
      </trkpt>
      <trkpt lat="46.72845" lon="6.32602">
        <ele>1220.3</ele>
        <time>2022-07-05T07:43:22Z</time>
      </trkpt>
      <trkpt lat="46.72846" lon="6.32609">
        <ele>1220.3</ele>
        <time>2022-07-05T07:43:26Z</time>
      </trkpt>
      <trkpt lat="46.72848" lon="6.32615">
        <ele>1220.8</ele>
        <time>2022-07-05T07:43:30Z</time>
      </trkpt>
      <trkpt lat="46.72845" lon="6.32622">
        <ele>1221.5</ele>
        <time>2022-07-05T07:43:35Z</time>
      </trkpt>
      <trkpt lat="46.72843" lon="6.32628">
        <ele>1222.4</ele>
        <time>2022-07-05T07:43:42Z</time>
      </trkpt>
      <trkpt lat="46.72841" lon="6.32634">
        <ele>1224.6</ele>
        <time>2022-07-05T07:44:16Z</time>
      </trkpt>
      <trkpt lat="46.72844" lon="6.32629">
        <ele>1222.6</ele>
        <time>2022-07-05T07:46:02Z</time>
      </trkpt>
      <trkpt lat="46.72841" lon="6.32634">
        <ele>1221.6</ele>
        <time>2022-07-05T07:46:52Z</time>
      </trkpt>
      <trkpt lat="46.72838" lon="6.3264">
        <ele>1221.4</ele>
        <time>2022-07-05T07:46:56Z</time>
      </trkpt>
      <trkpt lat="46.72836" lon="6.32646">
        <ele>1221.6</ele>
        <time>2022-07-05T07:47:06Z</time>
      </trkpt>
      <trkpt lat="46.72836" lon="6.32652">
        <ele>1222.1</ele>
        <time>2022-07-05T07:47:24Z</time>
      </trkpt>
      <trkpt lat="46.72835" lon="6.32645">
        <ele>1223.6</ele>
        <time>2022-07-05T07:47:40Z</time>
      </trkpt>
      <trkpt lat="46.72833" lon="6.32638">
        <ele>1224.4</ele>
        <time>2022-07-05T07:47:49Z</time>
      </trkpt>
      <trkpt lat="46.72838" lon="6.32639">
        <ele>1223.6</ele>
        <time>2022-07-05T07:47:59Z</time>
      </trkpt>
      <trkpt lat="46.72843" lon="6.32638">
        <ele>1221.7</ele>
        <time>2022-07-05T07:48:15Z</time>
      </trkpt>
      <trkpt lat="46.72847" lon="6.3264">
        <ele>1220</ele>
        <time>2022-07-05T07:50:49Z</time>
      </trkpt>
      <trkpt lat="46.72851" lon="6.32639">
        <ele>1224.3</ele>
        <time>2022-07-05T07:51:35Z</time>
      </trkpt>
      <trkpt lat="46.72847" lon="6.32636">
        <ele>1224.8</ele>
        <time>2022-07-05T07:51:44Z</time>
      </trkpt>
      <trkpt lat="46.72851" lon="6.32642">
        <ele>1225</ele>
        <time>2022-07-05T07:52:05Z</time>
      </trkpt>
      <trkpt lat="46.72853" lon="6.32648">
        <ele>1224.4</ele>
        <time>2022-07-05T07:52:09Z</time>
      </trkpt>
      <trkpt lat="46.72855" lon="6.32655">
        <ele>1223.6</ele>
        <time>2022-07-05T07:52:15Z</time>
      </trkpt>
      <trkpt lat="46.72856" lon="6.32662">
        <ele>1223.7</ele>
        <time>2022-07-05T07:52:22Z</time>
      </trkpt>
      <trkpt lat="46.72858" lon="6.32668">
        <ele>1223.5</ele>
        <time>2022-07-05T07:52:27Z</time>
      </trkpt>
      <trkpt lat="46.72856" lon="6.32675">
        <ele>1223.8</ele>
        <time>2022-07-05T07:52:36Z</time>
      </trkpt>
      <trkpt lat="46.72855" lon="6.32682">
        <ele>1224</ele>
        <time>2022-07-05T07:52:42Z</time>
      </trkpt>
      <trkpt lat="46.72856" lon="6.3269">
        <ele>1225.2</ele>
        <time>2022-07-05T07:52:49Z</time>
      </trkpt>
      <trkpt lat="46.72855" lon="6.32697">
        <ele>1226.5</ele>
        <time>2022-07-05T07:52:57Z</time>
      </trkpt>
      <trkpt lat="46.72855" lon="6.32704">
        <ele>1226.3</ele>
        <time>2022-07-05T07:53:04Z</time>
      </trkpt>
      <trkpt lat="46.72857" lon="6.32711">
        <ele>1226.8</ele>
        <time>2022-07-05T07:53:08Z</time>
      </trkpt>
      <trkpt lat="46.72858" lon="6.32718">
        <ele>1227.3</ele>
        <time>2022-07-05T07:53:12Z</time>
      </trkpt>
      <trkpt lat="46.72859" lon="6.32725">
        <ele>1228.2</ele>
        <time>2022-07-05T07:53:17Z</time>
      </trkpt>
      <trkpt lat="46.72857" lon="6.32731">
        <ele>1229.3</ele>
        <time>2022-07-05T07:53:24Z</time>
      </trkpt>
      <trkpt lat="46.72859" lon="6.32737">
        <ele>1229.9</ele>
        <time>2022-07-05T07:53:31Z</time>
      </trkpt>
      <trkpt lat="46.72859" lon="6.32745">
        <ele>1231.3</ele>
        <time>2022-07-05T07:53:38Z</time>
      </trkpt>
      <trkpt lat="46.72859" lon="6.32753">
        <ele>1232.4</ele>
        <time>2022-07-05T07:53:45Z</time>
      </trkpt>
      <trkpt lat="46.7286" lon="6.32759">
        <ele>1232.7</ele>
        <time>2022-07-05T07:53:53Z</time>
      </trkpt>
      <trkpt lat="46.7286" lon="6.32766">
        <ele>1232.9</ele>
        <time>2022-07-05T07:53:59Z</time>
      </trkpt>
      <trkpt lat="46.72859" lon="6.32773">
        <ele>1233</ele>
        <time>2022-07-05T07:54:04Z</time>
      </trkpt>
      <trkpt lat="46.7286" lon="6.3278">
        <ele>1233.5</ele>
        <time>2022-07-05T07:54:10Z</time>
      </trkpt>
      <trkpt lat="46.72861" lon="6.32787">
        <ele>1233.1</ele>
        <time>2022-07-05T07:54:16Z</time>
      </trkpt>
      <trkpt lat="46.72863" lon="6.32793">
        <ele>1233</ele>
        <time>2022-07-05T07:54:22Z</time>
      </trkpt>
      <trkpt lat="46.72864" lon="6.32801">
        <ele>1234.4</ele>
        <time>2022-07-05T07:54:29Z</time>
      </trkpt>
      <trkpt lat="46.72864" lon="6.32808">
        <ele>1234.8</ele>
        <time>2022-07-05T07:54:36Z</time>
      </trkpt>
      <trkpt lat="46.72864" lon="6.32815">
        <ele>1234.6</ele>
        <time>2022-07-05T07:54:41Z</time>
      </trkpt>
      <trkpt lat="46.72863" lon="6.32822">
        <ele>1234.3</ele>
        <time>2022-07-05T07:54:47Z</time>
      </trkpt>
      <trkpt lat="46.72863" lon="6.3283">
        <ele>1233.9</ele>
        <time>2022-07-05T07:54:53Z</time>
      </trkpt>
      <trkpt lat="46.72863" lon="6.32837">
        <ele>1233.9</ele>
        <time>2022-07-05T07:54:58Z</time>
      </trkpt>
      <trkpt lat="46.72864" lon="6.32844">
        <ele>1234</ele>
        <time>2022-07-05T07:55:05Z</time>
      </trkpt>
      <trkpt lat="46.72866" lon="6.32851">
        <ele>1234.5</ele>
        <time>2022-07-05T07:55:13Z</time>
      </trkpt>
      <trkpt lat="46.72867" lon="6.32858">
        <ele>1235.1</ele>
        <time>2022-07-05T07:55:17Z</time>
      </trkpt>
      <trkpt lat="46.72868" lon="6.32864">
        <ele>1235.6</ele>
        <time>2022-07-05T07:55:24Z</time>
      </trkpt>
      <trkpt lat="46.72868" lon="6.32872">
        <ele>1235.8</ele>
        <time>2022-07-05T07:55:33Z</time>
      </trkpt>
      <trkpt lat="46.7287" lon="6.32879">
        <ele>1235.9</ele>
        <time>2022-07-05T07:55:38Z</time>
      </trkpt>
      <trkpt lat="46.72871" lon="6.32885">
        <ele>1236.3</ele>
        <time>2022-07-05T07:55:42Z</time>
      </trkpt>
      <trkpt lat="46.72871" lon="6.32892">
        <ele>1237.1</ele>
        <time>2022-07-05T07:55:47Z</time>
      </trkpt>
      <trkpt lat="46.72871" lon="6.32899">
        <ele>1238.1</ele>
        <time>2022-07-05T07:55:52Z</time>
      </trkpt>
      <trkpt lat="46.72871" lon="6.32907">
        <ele>1239.6</ele>
        <time>2022-07-05T07:55:57Z</time>
      </trkpt>
      <trkpt lat="46.72871" lon="6.32914">
        <ele>1241.1</ele>
        <time>2022-07-05T07:56:02Z</time>
      </trkpt>
      <trkpt lat="46.72871" lon="6.32922">
        <ele>1242.6</ele>
        <time>2022-07-05T07:56:07Z</time>
      </trkpt>
      <trkpt lat="46.7287" lon="6.32928">
        <ele>1243.5</ele>
        <time>2022-07-05T07:56:12Z</time>
      </trkpt>
      <trkpt lat="46.72868" lon="6.32935">
        <ele>1243.6</ele>
        <time>2022-07-05T07:56:31Z</time>
      </trkpt>
      <trkpt lat="46.72868" lon="6.32941">
        <ele>1242.7</ele>
        <time>2022-07-05T07:56:40Z</time>
      </trkpt>
      <trkpt lat="46.72867" lon="6.32948">
        <ele>1242.4</ele>
        <time>2022-07-05T07:56:47Z</time>
      </trkpt>
      <trkpt lat="46.72868" lon="6.32955">
        <ele>1242.1</ele>
        <time>2022-07-05T07:56:54Z</time>
      </trkpt>
      <trkpt lat="46.72872" lon="6.3296">
        <ele>1242.4</ele>
        <time>2022-07-05T07:57:01Z</time>
      </trkpt>
      <trkpt lat="46.72872" lon="6.32966">
        <ele>1243.4</ele>
        <time>2022-07-05T07:57:07Z</time>
      </trkpt>
      <trkpt lat="46.72872" lon="6.32973">
        <ele>1244.9</ele>
        <time>2022-07-05T07:57:13Z</time>
      </trkpt>
      <trkpt lat="46.72871" lon="6.3298">
        <ele>1246.5</ele>
        <time>2022-07-05T07:57:18Z</time>
      </trkpt>
      <trkpt lat="46.7287" lon="6.32986">
        <ele>1247.9</ele>
        <time>2022-07-05T07:57:26Z</time>
      </trkpt>
      <trkpt lat="46.72869" lon="6.32993">
        <ele>1248.3</ele>
        <time>2022-07-05T07:57:32Z</time>
      </trkpt>
      <trkpt lat="46.72869" lon="6.33">
        <ele>1248.6</ele>
        <time>2022-07-05T07:57:37Z</time>
      </trkpt>
      <trkpt lat="46.72869" lon="6.33007">
        <ele>1249.1</ele>
        <time>2022-07-05T07:57:43Z</time>
      </trkpt>
      <trkpt lat="46.7287" lon="6.33013">
        <ele>1249.5</ele>
        <time>2022-07-05T07:57:50Z</time>
      </trkpt>
      <trkpt lat="46.72871" lon="6.3302">
        <ele>1250.5</ele>
        <time>2022-07-05T07:57:57Z</time>
      </trkpt>
      <trkpt lat="46.72868" lon="6.33027">
        <ele>1251.1</ele>
        <time>2022-07-05T07:58:03Z</time>
      </trkpt>
      <trkpt lat="46.72867" lon="6.33034">
        <ele>1250.6</ele>
        <time>2022-07-05T07:58:09Z</time>
      </trkpt>
      <trkpt lat="46.72867" lon="6.33042">
        <ele>1250.2</ele>
        <time>2022-07-05T07:58:14Z</time>
      </trkpt>
      <trkpt lat="46.72868" lon="6.33048">
        <ele>1250.3</ele>
        <time>2022-07-05T07:58:20Z</time>
      </trkpt>
      <trkpt lat="46.72872" lon="6.33053">
        <ele>1251.1</ele>
        <time>2022-07-05T07:58:26Z</time>
      </trkpt>
      <trkpt lat="46.72871" lon="6.3306">
        <ele>1253.6</ele>
        <time>2022-07-05T07:58:34Z</time>
      </trkpt>
      <trkpt lat="46.7287" lon="6.33066">
        <ele>1255.2</ele>
        <time>2022-07-05T07:58:41Z</time>
      </trkpt>
      <trkpt lat="46.72868" lon="6.33072">
        <ele>1256.2</ele>
        <time>2022-07-05T07:58:47Z</time>
      </trkpt>
      <trkpt lat="46.72866" lon="6.33079">
        <ele>1256.9</ele>
        <time>2022-07-05T07:58:54Z</time>
      </trkpt>
      <trkpt lat="46.72867" lon="6.33086">
        <ele>1257.9</ele>
        <time>2022-07-05T07:59:01Z</time>
      </trkpt>
      <trkpt lat="46.72867" lon="6.33093">
        <ele>1259.3</ele>
        <time>2022-07-05T07:59:10Z</time>
      </trkpt>
      <trkpt lat="46.7287" lon="6.33098">
        <ele>1260</ele>
        <time>2022-07-05T07:59:16Z</time>
      </trkpt>
      <trkpt lat="46.72871" lon="6.33106">
        <ele>1260.4</ele>
        <time>2022-07-05T07:59:24Z</time>
      </trkpt>
      <trkpt lat="46.72871" lon="6.33113">
        <ele>1260.8</ele>
        <time>2022-07-05T07:59:31Z</time>
      </trkpt>
      <trkpt lat="46.72875" lon="6.33118">
        <ele>1260.7</ele>
        <time>2022-07-05T07:59:40Z</time>
      </trkpt>
      <trkpt lat="46.72879" lon="6.33122">
        <ele>1261.7</ele>
        <time>2022-07-05T07:59:49Z</time>
      </trkpt>
      <trkpt lat="46.72881" lon="6.33128">
        <ele>1262.4</ele>
        <time>2022-07-05T07:59:59Z</time>
      </trkpt>
      <trkpt lat="46.72883" lon="6.33134">
        <ele>1263.5</ele>
        <time>2022-07-05T08:00:06Z</time>
      </trkpt>
      <trkpt lat="46.72882" lon="6.33141">
        <ele>1263.3</ele>
        <time>2022-07-05T08:00:16Z</time>
      </trkpt>
      <trkpt lat="46.72881" lon="6.33148">
        <ele>1263.2</ele>
        <time>2022-07-05T08:00:22Z</time>
      </trkpt>
      <trkpt lat="46.72881" lon="6.33154">
        <ele>1264</ele>
        <time>2022-07-05T08:00:27Z</time>
      </trkpt>
      <trkpt lat="46.72881" lon="6.33161">
        <ele>1264.9</ele>
        <time>2022-07-05T08:00:32Z</time>
      </trkpt>
      <trkpt lat="46.7288" lon="6.33168">
        <ele>1265.1</ele>
        <time>2022-07-05T08:00:38Z</time>
      </trkpt>
      <trkpt lat="46.72878" lon="6.33176">
        <ele>1265.8</ele>
        <time>2022-07-05T08:00:44Z</time>
      </trkpt>
      <trkpt lat="46.72877" lon="6.33183">
        <ele>1266.6</ele>
        <time>2022-07-05T08:00:49Z</time>
      </trkpt>
      <trkpt lat="46.72877" lon="6.3319">
        <ele>1267.9</ele>
        <time>2022-07-05T08:00:55Z</time>
      </trkpt>
      <trkpt lat="46.72879" lon="6.33197">
        <ele>1268.7</ele>
        <time>2022-07-05T08:01:02Z</time>
      </trkpt>
      <trkpt lat="46.72883" lon="6.332">
        <ele>1268.8</ele>
        <time>2022-07-05T08:01:16Z</time>
      </trkpt>
      <trkpt lat="46.72886" lon="6.33206">
        <ele>1271.3</ele>
        <time>2022-07-05T08:01:31Z</time>
      </trkpt>
      <trkpt lat="46.72889" lon="6.33212">
        <ele>1272.8</ele>
        <time>2022-07-05T08:01:39Z</time>
      </trkpt>
      <trkpt lat="46.72891" lon="6.33218">
        <ele>1273.5</ele>
        <time>2022-07-05T08:01:45Z</time>
      </trkpt>
      <trkpt lat="46.72889" lon="6.33224">
        <ele>1273.5</ele>
        <time>2022-07-05T08:01:52Z</time>
      </trkpt>
      <trkpt lat="46.72886" lon="6.3323">
        <ele>1274.8</ele>
        <time>2022-07-05T08:02:00Z</time>
      </trkpt>
      <trkpt lat="46.72888" lon="6.33236">
        <ele>1276.3</ele>
        <time>2022-07-05T08:02:10Z</time>
      </trkpt>
      <trkpt lat="46.72891" lon="6.33243">
        <ele>1277.1</ele>
        <time>2022-07-05T08:02:18Z</time>
      </trkpt>
      <trkpt lat="46.7289" lon="6.33249">
        <ele>1278</ele>
        <time>2022-07-05T08:02:25Z</time>
      </trkpt>
      <trkpt lat="46.7289" lon="6.33256">
        <ele>1278.1</ele>
        <time>2022-07-05T08:02:32Z</time>
      </trkpt>
      <trkpt lat="46.72892" lon="6.33262">
        <ele>1278.3</ele>
        <time>2022-07-05T08:02:41Z</time>
      </trkpt>
      <trkpt lat="46.72897" lon="6.33265">
        <ele>1278.6</ele>
        <time>2022-07-05T08:02:48Z</time>
      </trkpt>
      <trkpt lat="46.72898" lon="6.33273">
        <ele>1279.1</ele>
        <time>2022-07-05T08:02:54Z</time>
      </trkpt>
      <trkpt lat="46.729" lon="6.33279">
        <ele>1279.6</ele>
        <time>2022-07-05T08:03:01Z</time>
      </trkpt>
      <trkpt lat="46.72904" lon="6.33284">
        <ele>1280.7</ele>
        <time>2022-07-05T08:03:09Z</time>
      </trkpt>
      <trkpt lat="46.72905" lon="6.33291">
        <ele>1281.9</ele>
        <time>2022-07-05T08:03:17Z</time>
      </trkpt>
      <trkpt lat="46.72903" lon="6.33299">
        <ele>1281.6</ele>
        <time>2022-07-05T08:03:23Z</time>
      </trkpt>
      <trkpt lat="46.72904" lon="6.33306">
        <ele>1280.3</ele>
        <time>2022-07-05T08:03:27Z</time>
      </trkpt>
      <trkpt lat="46.72904" lon="6.33312">
        <ele>1277.7</ele>
        <time>2022-07-05T08:03:36Z</time>
      </trkpt>
      <trkpt lat="46.72905" lon="6.3332">
        <ele>1276.5</ele>
        <time>2022-07-05T08:03:46Z</time>
      </trkpt>
      <trkpt lat="46.72904" lon="6.33327">
        <ele>1276.2</ele>
        <time>2022-07-05T08:03:53Z</time>
      </trkpt>
      <trkpt lat="46.72904" lon="6.33334">
        <ele>1276.4</ele>
        <time>2022-07-05T08:03:59Z</time>
      </trkpt>
      <trkpt lat="46.72903" lon="6.33341">
        <ele>1276.6</ele>
        <time>2022-07-05T08:04:05Z</time>
      </trkpt>
      <trkpt lat="46.729" lon="6.33346">
        <ele>1277</ele>
        <time>2022-07-05T08:04:18Z</time>
      </trkpt>
      <trkpt lat="46.72901" lon="6.33353">
        <ele>1276.4</ele>
        <time>2022-07-05T08:04:27Z</time>
      </trkpt>
      <trkpt lat="46.72901" lon="6.33361">
        <ele>1275.7</ele>
        <time>2022-07-05T08:04:32Z</time>
      </trkpt>
      <trkpt lat="46.72901" lon="6.33369">
        <ele>1275.3</ele>
        <time>2022-07-05T08:04:36Z</time>
      </trkpt>
      <trkpt lat="46.72902" lon="6.33376">
        <ele>1274.7</ele>
        <time>2022-07-05T08:04:40Z</time>
      </trkpt>
      <trkpt lat="46.72902" lon="6.33383">
        <ele>1274</ele>
        <time>2022-07-05T08:04:45Z</time>
      </trkpt>
      <trkpt lat="46.72902" lon="6.33391">
        <ele>1273.2</ele>
        <time>2022-07-05T08:04:50Z</time>
      </trkpt>
      <trkpt lat="46.72903" lon="6.33398">
        <ele>1272.9</ele>
        <time>2022-07-05T08:04:54Z</time>
      </trkpt>
      <trkpt lat="46.72903" lon="6.33405">
        <ele>1273</ele>
        <time>2022-07-05T08:04:58Z</time>
      </trkpt>
      <trkpt lat="46.72904" lon="6.33412">
        <ele>1273.2</ele>
        <time>2022-07-05T08:05:02Z</time>
      </trkpt>
      <trkpt lat="46.72904" lon="6.3342">
        <ele>1272.6</ele>
        <time>2022-07-05T08:05:07Z</time>
      </trkpt>
      <trkpt lat="46.72905" lon="6.33427">
        <ele>1271.9</ele>
        <time>2022-07-05T08:05:12Z</time>
      </trkpt>
      <trkpt lat="46.72905" lon="6.33435">
        <ele>1271.3</ele>
        <time>2022-07-05T08:05:17Z</time>
      </trkpt>
      <trkpt lat="46.72905" lon="6.33443">
        <ele>1270.8</ele>
        <time>2022-07-05T08:05:21Z</time>
      </trkpt>
      <trkpt lat="46.72905" lon="6.3345">
        <ele>1270.5</ele>
        <time>2022-07-05T08:05:25Z</time>
      </trkpt>
      <trkpt lat="46.72906" lon="6.33458">
        <ele>1270.4</ele>
        <time>2022-07-05T08:05:30Z</time>
      </trkpt>
      <trkpt lat="46.72908" lon="6.33464">
        <ele>1270.4</ele>
        <time>2022-07-05T08:05:35Z</time>
      </trkpt>
      <trkpt lat="46.72909" lon="6.33471">
        <ele>1270.1</ele>
        <time>2022-07-05T08:05:40Z</time>
      </trkpt>
      <trkpt lat="46.7291" lon="6.33478">
        <ele>1270.1</ele>
        <time>2022-07-05T08:05:44Z</time>
      </trkpt>
      <trkpt lat="46.7291" lon="6.33486">
        <ele>1270.2</ele>
        <time>2022-07-05T08:05:48Z</time>
      </trkpt>
      <trkpt lat="46.72911" lon="6.33493">
        <ele>1270.6</ele>
        <time>2022-07-05T08:05:53Z</time>
      </trkpt>
      <trkpt lat="46.72912" lon="6.335">
        <ele>1270.5</ele>
        <time>2022-07-05T08:05:58Z</time>
      </trkpt>
      <trkpt lat="46.72913" lon="6.33506">
        <ele>1270.5</ele>
        <time>2022-07-05T08:06:02Z</time>
      </trkpt>
      <trkpt lat="46.72913" lon="6.33514">
        <ele>1270.2</ele>
        <time>2022-07-05T08:06:07Z</time>
      </trkpt>
      <trkpt lat="46.72914" lon="6.33521">
        <ele>1269.9</ele>
        <time>2022-07-05T08:06:12Z</time>
      </trkpt>
      <trkpt lat="46.72915" lon="6.33527">
        <ele>1269.8</ele>
        <time>2022-07-05T08:06:16Z</time>
      </trkpt>
      <trkpt lat="46.72916" lon="6.33534">
        <ele>1270</ele>
        <time>2022-07-05T08:06:20Z</time>
      </trkpt>
      <trkpt lat="46.72917" lon="6.3354">
        <ele>1270.5</ele>
        <time>2022-07-05T08:06:24Z</time>
      </trkpt>
      <trkpt lat="46.72918" lon="6.33548">
        <ele>1271.1</ele>
        <time>2022-07-05T08:06:29Z</time>
      </trkpt>
      <trkpt lat="46.7292" lon="6.33555">
        <ele>1271.4</ele>
        <time>2022-07-05T08:06:33Z</time>
      </trkpt>
      <trkpt lat="46.72921" lon="6.33561">
        <ele>1271.6</ele>
        <time>2022-07-05T08:06:37Z</time>
      </trkpt>
      <trkpt lat="46.72923" lon="6.33569">
        <ele>1271.9</ele>
        <time>2022-07-05T08:06:42Z</time>
      </trkpt>
      <trkpt lat="46.72924" lon="6.33576">
        <ele>1271.9</ele>
        <time>2022-07-05T08:06:47Z</time>
      </trkpt>
      <trkpt lat="46.72926" lon="6.33583">
        <ele>1272.1</ele>
        <time>2022-07-05T08:06:52Z</time>
      </trkpt>
      <trkpt lat="46.72928" lon="6.3359">
        <ele>1272.1</ele>
        <time>2022-07-05T08:06:57Z</time>
      </trkpt>
      <trkpt lat="46.72931" lon="6.33596">
        <ele>1272.4</ele>
        <time>2022-07-05T08:07:02Z</time>
      </trkpt>
      <trkpt lat="46.72933" lon="6.33603">
        <ele>1272.9</ele>
        <time>2022-07-05T08:07:07Z</time>
      </trkpt>
      <trkpt lat="46.72934" lon="6.3361">
        <ele>1273.2</ele>
        <time>2022-07-05T08:07:12Z</time>
      </trkpt>
      <trkpt lat="46.72936" lon="6.33616">
        <ele>1273.2</ele>
        <time>2022-07-05T08:07:17Z</time>
      </trkpt>
      <trkpt lat="46.72938" lon="6.33623">
        <ele>1272.8</ele>
        <time>2022-07-05T08:07:22Z</time>
      </trkpt>
      <trkpt lat="46.72941" lon="6.3363">
        <ele>1272.5</ele>
        <time>2022-07-05T08:07:28Z</time>
      </trkpt>
      <trkpt lat="46.72943" lon="6.33636">
        <ele>1272.5</ele>
        <time>2022-07-05T08:07:32Z</time>
      </trkpt>
      <trkpt lat="46.72946" lon="6.33642">
        <ele>1272.3</ele>
        <time>2022-07-05T08:07:37Z</time>
      </trkpt>
      <trkpt lat="46.72947" lon="6.33649">
        <ele>1271.8</ele>
        <time>2022-07-05T08:07:42Z</time>
      </trkpt>
      <trkpt lat="46.72949" lon="6.33655">
        <ele>1271.7</ele>
        <time>2022-07-05T08:07:47Z</time>
      </trkpt>
      <trkpt lat="46.7295" lon="6.33663">
        <ele>1272</ele>
        <time>2022-07-05T08:07:53Z</time>
      </trkpt>
      <trkpt lat="46.72952" lon="6.33669">
        <ele>1272.9</ele>
        <time>2022-07-05T08:07:58Z</time>
      </trkpt>
      <trkpt lat="46.72955" lon="6.33675">
        <ele>1273.8</ele>
        <time>2022-07-05T08:08:03Z</time>
      </trkpt>
      <trkpt lat="46.72957" lon="6.33681">
        <ele>1274.7</ele>
        <time>2022-07-05T08:08:08Z</time>
      </trkpt>
      <trkpt lat="46.72959" lon="6.33688">
        <ele>1275.2</ele>
        <time>2022-07-05T08:08:13Z</time>
      </trkpt>
      <trkpt lat="46.72962" lon="6.33693">
        <ele>1275.3</ele>
        <time>2022-07-05T08:08:18Z</time>
      </trkpt>
      <trkpt lat="46.72964" lon="6.33699">
        <ele>1275.7</ele>
        <time>2022-07-05T08:08:22Z</time>
      </trkpt>
      <trkpt lat="46.72966" lon="6.33705">
        <ele>1276.4</ele>
        <time>2022-07-05T08:08:27Z</time>
      </trkpt>
      <trkpt lat="46.72968" lon="6.33711">
        <ele>1277</ele>
        <time>2022-07-05T08:08:32Z</time>
      </trkpt>
      <trkpt lat="46.7297" lon="6.33718">
        <ele>1277.5</ele>
        <time>2022-07-05T08:08:37Z</time>
      </trkpt>
      <trkpt lat="46.72973" lon="6.33724">
        <ele>1278.3</ele>
        <time>2022-07-05T08:08:43Z</time>
      </trkpt>
      <trkpt lat="46.72975" lon="6.3373">
        <ele>1278.8</ele>
        <time>2022-07-05T08:08:48Z</time>
      </trkpt>
      <trkpt lat="46.72978" lon="6.33735">
        <ele>1279.1</ele>
        <time>2022-07-05T08:08:53Z</time>
      </trkpt>
      <trkpt lat="46.72981" lon="6.33741">
        <ele>1279.4</ele>
        <time>2022-07-05T08:08:59Z</time>
      </trkpt>
      <trkpt lat="46.72984" lon="6.33747">
        <ele>1279.7</ele>
        <time>2022-07-05T08:09:04Z</time>
      </trkpt>
      <trkpt lat="46.72986" lon="6.33754">
        <ele>1279</ele>
        <time>2022-07-05T08:09:20Z</time>
      </trkpt>
      <trkpt lat="46.72988" lon="6.33761">
        <ele>1278.9</ele>
        <time>2022-07-05T08:09:25Z</time>
      </trkpt>
      <trkpt lat="46.7299" lon="6.33768">
        <ele>1278.8</ele>
        <time>2022-07-05T08:09:30Z</time>
      </trkpt>
      <trkpt lat="46.72991" lon="6.33775">
        <ele>1279.5</ele>
        <time>2022-07-05T08:09:35Z</time>
      </trkpt>
      <trkpt lat="46.72991" lon="6.33783">
        <ele>1280.2</ele>
        <time>2022-07-05T08:09:40Z</time>
      </trkpt>
      <trkpt lat="46.72991" lon="6.3379">
        <ele>1280.7</ele>
        <time>2022-07-05T08:09:45Z</time>
      </trkpt>
      <trkpt lat="46.72992" lon="6.33797">
        <ele>1281</ele>
        <time>2022-07-05T08:09:49Z</time>
      </trkpt>
      <trkpt lat="46.72993" lon="6.33804">
        <ele>1281.9</ele>
        <time>2022-07-05T08:09:54Z</time>
      </trkpt>
      <trkpt lat="46.72993" lon="6.33812">
        <ele>1283.3</ele>
        <time>2022-07-05T08:10:01Z</time>
      </trkpt>
      <trkpt lat="46.72991" lon="6.33818">
        <ele>1284.5</ele>
        <time>2022-07-05T08:10:08Z</time>
      </trkpt>
      <trkpt lat="46.72992" lon="6.33825">
        <ele>1285</ele>
        <time>2022-07-05T08:10:14Z</time>
      </trkpt>
      <trkpt lat="46.72995" lon="6.33831">
        <ele>1285.2</ele>
        <time>2022-07-05T08:10:21Z</time>
      </trkpt>
      <trkpt lat="46.72998" lon="6.33838">
        <ele>1285.7</ele>
        <time>2022-07-05T08:10:29Z</time>
      </trkpt>
      <trkpt lat="46.73001" lon="6.33843">
        <ele>1285.9</ele>
        <time>2022-07-05T08:10:36Z</time>
      </trkpt>
      <trkpt lat="46.73005" lon="6.33847">
        <ele>1285.8</ele>
        <time>2022-07-05T08:10:41Z</time>
      </trkpt>
      <trkpt lat="46.73009" lon="6.3385">
        <ele>1285.8</ele>
        <time>2022-07-05T08:10:46Z</time>
      </trkpt>
      <trkpt lat="46.73006" lon="6.33857">
        <ele>1286.1</ele>
        <time>2022-07-05T08:10:53Z</time>
      </trkpt>
      <trkpt lat="46.73007" lon="6.33864">
        <ele>1286.5</ele>
        <time>2022-07-05T08:11:03Z</time>
      </trkpt>
      <trkpt lat="46.73011" lon="6.33868">
        <ele>1286.8</ele>
        <time>2022-07-05T08:11:21Z</time>
      </trkpt>
      <trkpt lat="46.73011" lon="6.33876">
        <ele>1287.9</ele>
        <time>2022-07-05T08:11:27Z</time>
      </trkpt>
      <trkpt lat="46.7301" lon="6.33883">
        <ele>1288.8</ele>
        <time>2022-07-05T08:11:31Z</time>
      </trkpt>
      <trkpt lat="46.7301" lon="6.3389">
        <ele>1290.3</ele>
        <time>2022-07-05T08:11:38Z</time>
      </trkpt>
      <trkpt lat="46.7301" lon="6.33897">
        <ele>1291.2</ele>
        <time>2022-07-05T08:11:44Z</time>
      </trkpt>
      <trkpt lat="46.73012" lon="6.33903">
        <ele>1292.4</ele>
        <time>2022-07-05T08:11:51Z</time>
      </trkpt>
      <trkpt lat="46.73012" lon="6.3391">
        <ele>1293.1</ele>
        <time>2022-07-05T08:11:59Z</time>
      </trkpt>
      <trkpt lat="46.73012" lon="6.33917">
        <ele>1293.8</ele>
        <time>2022-07-05T08:12:07Z</time>
      </trkpt>
      <trkpt lat="46.73014" lon="6.33923">
        <ele>1294.6</ele>
        <time>2022-07-05T08:12:15Z</time>
      </trkpt>
      <trkpt lat="46.73017" lon="6.33928">
        <ele>1295.6</ele>
        <time>2022-07-05T08:12:23Z</time>
      </trkpt>
      <trkpt lat="46.73021" lon="6.33933">
        <ele>1296.6</ele>
        <time>2022-07-05T08:12:31Z</time>
      </trkpt>
      <trkpt lat="46.73025" lon="6.33937">
        <ele>1297.5</ele>
        <time>2022-07-05T08:12:38Z</time>
      </trkpt>
      <trkpt lat="46.73025" lon="6.33944">
        <ele>1298.7</ele>
        <time>2022-07-05T08:12:48Z</time>
      </trkpt>
      <trkpt lat="46.73027" lon="6.3395">
        <ele>1299.8</ele>
        <time>2022-07-05T08:12:57Z</time>
      </trkpt>
      <trkpt lat="46.7303" lon="6.33956">
        <ele>1301.2</ele>
        <time>2022-07-05T08:13:07Z</time>
      </trkpt>
      <trkpt lat="46.73032" lon="6.33963">
        <ele>1302.4</ele>
        <time>2022-07-05T08:13:15Z</time>
      </trkpt>
      <trkpt lat="46.73033" lon="6.33969">
        <ele>1304</ele>
        <time>2022-07-05T08:13:23Z</time>
      </trkpt>
      <trkpt lat="46.73036" lon="6.33976">
        <ele>1305.4</ele>
        <time>2022-07-05T08:13:30Z</time>
      </trkpt>
      <trkpt lat="46.73039" lon="6.33982">
        <ele>1306.7</ele>
        <time>2022-07-05T08:13:37Z</time>
      </trkpt>
      <trkpt lat="46.73041" lon="6.33987">
        <ele>1307.5</ele>
        <time>2022-07-05T08:13:43Z</time>
      </trkpt>
      <trkpt lat="46.73043" lon="6.33994">
        <ele>1308.4</ele>
        <time>2022-07-05T08:13:50Z</time>
      </trkpt>
      <trkpt lat="46.73045" lon="6.34">
        <ele>1309.4</ele>
        <time>2022-07-05T08:13:57Z</time>
      </trkpt>
      <trkpt lat="46.73048" lon="6.34006">
        <ele>1310.2</ele>
        <time>2022-07-05T08:14:04Z</time>
      </trkpt>
      <trkpt lat="46.73051" lon="6.34012">
        <ele>1310.8</ele>
        <time>2022-07-05T08:14:11Z</time>
      </trkpt>
      <trkpt lat="46.73053" lon="6.34019">
        <ele>1311.6</ele>
        <time>2022-07-05T08:14:18Z</time>
      </trkpt>
      <trkpt lat="46.73057" lon="6.34026">
        <ele>1312</ele>
        <time>2022-07-05T08:14:41Z</time>
      </trkpt>
      <trkpt lat="46.73062" lon="6.3403">
        <ele>1311.8</ele>
        <time>2022-07-05T08:14:47Z</time>
      </trkpt>
      <trkpt lat="46.73066" lon="6.34032">
        <ele>1311.3</ele>
        <time>2022-07-05T08:14:52Z</time>
      </trkpt>
      <trkpt lat="46.73071" lon="6.34036">
        <ele>1310.8</ele>
        <time>2022-07-05T08:14:58Z</time>
      </trkpt>
      <trkpt lat="46.73072" lon="6.34043">
        <ele>1310.6</ele>
        <time>2022-07-05T08:15:05Z</time>
      </trkpt>
      <trkpt lat="46.73074" lon="6.34049">
        <ele>1310.9</ele>
        <time>2022-07-05T08:15:12Z</time>
      </trkpt>
      <trkpt lat="46.73075" lon="6.34056">
        <ele>1310.9</ele>
        <time>2022-07-05T08:15:19Z</time>
      </trkpt>
      <trkpt lat="46.73075" lon="6.34063">
        <ele>1311.1</ele>
        <time>2022-07-05T08:15:27Z</time>
      </trkpt>
      <trkpt lat="46.73074" lon="6.34069">
        <ele>1311.2</ele>
        <time>2022-07-05T08:15:33Z</time>
      </trkpt>
      <trkpt lat="46.73076" lon="6.34076">
        <ele>1311.6</ele>
        <time>2022-07-05T08:15:39Z</time>
      </trkpt>
      <trkpt lat="46.73078" lon="6.34082">
        <ele>1312.1</ele>
        <time>2022-07-05T08:15:46Z</time>
      </trkpt>
      <trkpt lat="46.7308" lon="6.34088">
        <ele>1312</ele>
        <time>2022-07-05T08:15:52Z</time>
      </trkpt>
      <trkpt lat="46.73082" lon="6.34095">
        <ele>1311.8</ele>
        <time>2022-07-05T08:15:59Z</time>
      </trkpt>
      <trkpt lat="46.73083" lon="6.34102">
        <ele>1311.5</ele>
        <time>2022-07-05T08:16:06Z</time>
      </trkpt>
      <trkpt lat="46.73081" lon="6.34109">
        <ele>1311.2</ele>
        <time>2022-07-05T08:16:12Z</time>
      </trkpt>
      <trkpt lat="46.7308" lon="6.34116">
        <ele>1311</ele>
        <time>2022-07-05T08:16:19Z</time>
      </trkpt>
      <trkpt lat="46.73081" lon="6.34123">
        <ele>1311.1</ele>
        <time>2022-07-05T08:16:26Z</time>
      </trkpt>
      <trkpt lat="46.73082" lon="6.34131">
        <ele>1310.6</ele>
        <time>2022-07-05T08:16:32Z</time>
      </trkpt>
      <trkpt lat="46.73082" lon="6.34138">
        <ele>1309.3</ele>
        <time>2022-07-05T08:16:38Z</time>
      </trkpt>
      <trkpt lat="46.73082" lon="6.34145">
        <ele>1308.1</ele>
        <time>2022-07-05T08:16:49Z</time>
      </trkpt>
      <trkpt lat="46.73084" lon="6.34151">
        <ele>1307.7</ele>
        <time>2022-07-05T08:16:57Z</time>
      </trkpt>
      <trkpt lat="46.73085" lon="6.34158">
        <ele>1307.7</ele>
        <time>2022-07-05T08:17:02Z</time>
      </trkpt>
      <trkpt lat="46.73086" lon="6.34165">
        <ele>1307.3</ele>
        <time>2022-07-05T08:17:08Z</time>
      </trkpt>
      <trkpt lat="46.73089" lon="6.34171">
        <ele>1307.1</ele>
        <time>2022-07-05T08:17:14Z</time>
      </trkpt>
      <trkpt lat="46.73092" lon="6.34176">
        <ele>1306.9</ele>
        <time>2022-07-05T08:17:22Z</time>
      </trkpt>
      <trkpt lat="46.73094" lon="6.34182">
        <ele>1306.6</ele>
        <time>2022-07-05T08:23:38Z</time>
      </trkpt>
      <trkpt lat="46.73097" lon="6.34189">
        <ele>1306.2</ele>
        <time>2022-07-05T08:23:44Z</time>
      </trkpt>
      <trkpt lat="46.731" lon="6.34194">
        <ele>1305.8</ele>
        <time>2022-07-05T08:23:51Z</time>
      </trkpt>
      <trkpt lat="46.73103" lon="6.342">
        <ele>1306</ele>
        <time>2022-07-05T08:23:56Z</time>
      </trkpt>
      <trkpt lat="46.73106" lon="6.34206">
        <ele>1306.6</ele>
        <time>2022-07-05T08:24:01Z</time>
      </trkpt>
      <trkpt lat="46.73106" lon="6.34213">
        <ele>1307.3</ele>
        <time>2022-07-05T08:24:09Z</time>
      </trkpt>
      <trkpt lat="46.73109" lon="6.34219">
        <ele>1308.8</ele>
        <time>2022-07-05T08:24:17Z</time>
      </trkpt>
      <trkpt lat="46.73112" lon="6.34225">
        <ele>1309.9</ele>
        <time>2022-07-05T08:24:28Z</time>
      </trkpt>
      <trkpt lat="46.73114" lon="6.34232">
        <ele>1309.7</ele>
        <time>2022-07-05T08:24:35Z</time>
      </trkpt>
      <trkpt lat="46.73117" lon="6.34236">
        <ele>1309.3</ele>
        <time>2022-07-05T08:24:41Z</time>
      </trkpt>
      <trkpt lat="46.73121" lon="6.34241">
        <ele>1308.8</ele>
        <time>2022-07-05T08:24:46Z</time>
      </trkpt>
      <trkpt lat="46.73124" lon="6.34247">
        <ele>1308.5</ele>
        <time>2022-07-05T08:24:51Z</time>
      </trkpt>
      <trkpt lat="46.73127" lon="6.34252">
        <ele>1308.4</ele>
        <time>2022-07-05T08:24:56Z</time>
      </trkpt>
      <trkpt lat="46.7313" lon="6.34257">
        <ele>1308.7</ele>
        <time>2022-07-05T08:25:01Z</time>
      </trkpt>
      <trkpt lat="46.73133" lon="6.34262">
        <ele>1309</ele>
        <time>2022-07-05T08:25:08Z</time>
      </trkpt>
      <trkpt lat="46.73134" lon="6.34269">
        <ele>1309.3</ele>
        <time>2022-07-05T08:25:14Z</time>
      </trkpt>
      <trkpt lat="46.73134" lon="6.34276">
        <ele>1309.2</ele>
        <time>2022-07-05T08:25:19Z</time>
      </trkpt>
      <trkpt lat="46.73133" lon="6.34284">
        <ele>1309.5</ele>
        <time>2022-07-05T08:25:25Z</time>
      </trkpt>
      <trkpt lat="46.73135" lon="6.3429">
        <ele>1310</ele>
        <time>2022-07-05T08:25:30Z</time>
      </trkpt>
      <trkpt lat="46.73137" lon="6.34296">
        <ele>1310.8</ele>
        <time>2022-07-05T08:25:36Z</time>
      </trkpt>
      <trkpt lat="46.73139" lon="6.34304">
        <ele>1311.1</ele>
        <time>2022-07-05T08:25:42Z</time>
      </trkpt>
      <trkpt lat="46.73141" lon="6.3431">
        <ele>1310.8</ele>
        <time>2022-07-05T08:25:47Z</time>
      </trkpt>
      <trkpt lat="46.73142" lon="6.34316">
        <ele>1310.5</ele>
        <time>2022-07-05T08:25:55Z</time>
      </trkpt>
      <trkpt lat="46.73147" lon="6.34319">
        <ele>1311.1</ele>
        <time>2022-07-05T08:26:02Z</time>
      </trkpt>
      <trkpt lat="46.73151" lon="6.34323">
        <ele>1312.9</ele>
        <time>2022-07-05T08:26:09Z</time>
      </trkpt>
      <trkpt lat="46.73155" lon="6.34323">
        <ele>1313.7</ele>
        <time>2022-07-05T08:26:17Z</time>
      </trkpt>
      <trkpt lat="46.73161" lon="6.34322">
        <ele>1313.9</ele>
        <time>2022-07-05T08:26:22Z</time>
      </trkpt>
      <trkpt lat="46.73166" lon="6.34323">
        <ele>1314.1</ele>
        <time>2022-07-05T08:26:27Z</time>
      </trkpt>
      <trkpt lat="46.73167" lon="6.34329">
        <ele>1314.5</ele>
        <time>2022-07-05T08:26:35Z</time>
      </trkpt>
      <trkpt lat="46.73167" lon="6.34337">
        <ele>1313.5</ele>
        <time>2022-07-05T08:26:41Z</time>
      </trkpt>
      <trkpt lat="46.73167" lon="6.34344">
        <ele>1312</ele>
        <time>2022-07-05T08:26:47Z</time>
      </trkpt>
      <trkpt lat="46.73168" lon="6.34351">
        <ele>1312</ele>
        <time>2022-07-05T08:26:54Z</time>
      </trkpt>
      <trkpt lat="46.73171" lon="6.34356">
        <ele>1313.3</ele>
        <time>2022-07-05T08:27:01Z</time>
      </trkpt>
      <trkpt lat="46.73171" lon="6.34363">
        <ele>1314.9</ele>
        <time>2022-07-05T08:27:09Z</time>
      </trkpt>
      <trkpt lat="46.73172" lon="6.34369">
        <ele>1315.8</ele>
        <time>2022-07-05T08:27:17Z</time>
      </trkpt>
      <trkpt lat="46.73177" lon="6.34372">
        <ele>1315.8</ele>
        <time>2022-07-05T08:27:22Z</time>
      </trkpt>
      <trkpt lat="46.73179" lon="6.34377">
        <ele>1316.3</ele>
        <time>2022-07-05T08:27:28Z</time>
      </trkpt>
      <trkpt lat="46.73183" lon="6.34383">
        <ele>1317</ele>
        <time>2022-07-05T08:27:34Z</time>
      </trkpt>
      <trkpt lat="46.73185" lon="6.34389">
        <ele>1317.2</ele>
        <time>2022-07-05T08:27:40Z</time>
      </trkpt>
      <trkpt lat="46.73186" lon="6.34396">
        <ele>1317.6</ele>
        <time>2022-07-05T08:27:47Z</time>
      </trkpt>
      <trkpt lat="46.73186" lon="6.34403">
        <ele>1317.6</ele>
        <time>2022-07-05T08:27:53Z</time>
      </trkpt>
      <trkpt lat="46.73186" lon="6.3441">
        <ele>1317.3</ele>
        <time>2022-07-05T08:28:01Z</time>
      </trkpt>
      <trkpt lat="46.73189" lon="6.34415">
        <ele>1316.9</ele>
        <time>2022-07-05T08:28:08Z</time>
      </trkpt>
      <trkpt lat="46.73191" lon="6.34421">
        <ele>1316.8</ele>
        <time>2022-07-05T08:28:14Z</time>
      </trkpt>
      <trkpt lat="46.73192" lon="6.34428">
        <ele>1316.7</ele>
        <time>2022-07-05T08:28:21Z</time>
      </trkpt>
      <trkpt lat="46.73194" lon="6.34434">
        <ele>1316.6</ele>
        <time>2022-07-05T08:28:30Z</time>
      </trkpt>
      <trkpt lat="46.73195" lon="6.34441">
        <ele>1315.6</ele>
        <time>2022-07-05T08:28:39Z</time>
      </trkpt>
      <trkpt lat="46.73195" lon="6.34448">
        <ele>1315.3</ele>
        <time>2022-07-05T08:28:45Z</time>
      </trkpt>
      <trkpt lat="46.73196" lon="6.34455">
        <ele>1315</ele>
        <time>2022-07-05T08:28:52Z</time>
      </trkpt>
      <trkpt lat="46.73197" lon="6.34461">
        <ele>1314.4</ele>
        <time>2022-07-05T08:29:01Z</time>
      </trkpt>
      <trkpt lat="46.732" lon="6.34466">
        <ele>1314.1</ele>
        <time>2022-07-05T08:29:13Z</time>
      </trkpt>
      <trkpt lat="46.73202" lon="6.34473">
        <ele>1314.3</ele>
        <time>2022-07-05T08:29:26Z</time>
      </trkpt>
      <trkpt lat="46.73205" lon="6.34478">
        <ele>1314.4</ele>
        <time>2022-07-05T08:29:33Z</time>
      </trkpt>
      <trkpt lat="46.73208" lon="6.34483">
        <ele>1314</ele>
        <time>2022-07-05T08:29:40Z</time>
      </trkpt>
      <trkpt lat="46.73209" lon="6.3449">
        <ele>1313.2</ele>
        <time>2022-07-05T08:29:49Z</time>
      </trkpt>
      <trkpt lat="46.73211" lon="6.34497">
        <ele>1312.3</ele>
        <time>2022-07-05T08:29:55Z</time>
      </trkpt>
      <trkpt lat="46.73214" lon="6.34503">
        <ele>1311.7</ele>
        <time>2022-07-05T08:30:05Z</time>
      </trkpt>
      <trkpt lat="46.73216" lon="6.34509">
        <ele>1311.6</ele>
        <time>2022-07-05T08:30:10Z</time>
      </trkpt>
      <trkpt lat="46.73218" lon="6.34516">
        <ele>1311.7</ele>
        <time>2022-07-05T08:30:16Z</time>
      </trkpt>
      <trkpt lat="46.73219" lon="6.34523">
        <ele>1311.8</ele>
        <time>2022-07-05T08:30:25Z</time>
      </trkpt>
      <trkpt lat="46.73219" lon="6.3453">
        <ele>1312.3</ele>
        <time>2022-07-05T08:30:34Z</time>
      </trkpt>
      <trkpt lat="46.73221" lon="6.34536">
        <ele>1313.1</ele>
        <time>2022-07-05T08:30:40Z</time>
      </trkpt>
      <trkpt lat="46.73222" lon="6.34543">
        <ele>1314.7</ele>
        <time>2022-07-05T08:30:47Z</time>
      </trkpt>
      <trkpt lat="46.73223" lon="6.34549">
        <ele>1316.4</ele>
        <time>2022-07-05T08:30:57Z</time>
      </trkpt>
      <trkpt lat="46.73226" lon="6.34555">
        <ele>1316.1</ele>
        <time>2022-07-05T08:31:06Z</time>
      </trkpt>
      <trkpt lat="46.73229" lon="6.34562">
        <ele>1316.4</ele>
        <time>2022-07-05T08:31:13Z</time>
      </trkpt>
      <trkpt lat="46.7323" lon="6.34569">
        <ele>1316.6</ele>
        <time>2022-07-05T08:31:21Z</time>
      </trkpt>
      <trkpt lat="46.73233" lon="6.34574">
        <ele>1317.2</ele>
        <time>2022-07-05T08:31:29Z</time>
      </trkpt>
      <trkpt lat="46.73235" lon="6.3458">
        <ele>1318.4</ele>
        <time>2022-07-05T08:31:36Z</time>
      </trkpt>
      <trkpt lat="46.73239" lon="6.34585">
        <ele>1320.9</ele>
        <time>2022-07-05T08:31:46Z</time>
      </trkpt>
      <trkpt lat="46.73242" lon="6.3459">
        <ele>1322.8</ele>
        <time>2022-07-05T08:31:52Z</time>
      </trkpt>
      <trkpt lat="46.73246" lon="6.34595">
        <ele>1324.4</ele>
        <time>2022-07-05T08:31:58Z</time>
      </trkpt>
      <trkpt lat="46.73249" lon="6.34599">
        <ele>1325.9</ele>
        <time>2022-07-05T08:32:06Z</time>
      </trkpt>
      <trkpt lat="46.73251" lon="6.34606">
        <ele>1327.6</ele>
        <time>2022-07-05T08:32:13Z</time>
      </trkpt>
      <trkpt lat="46.73253" lon="6.34613">
        <ele>1328.9</ele>
        <time>2022-07-05T08:32:21Z</time>
      </trkpt>
      <trkpt lat="46.73254" lon="6.3462">
        <ele>1329.1</ele>
        <time>2022-07-05T08:32:28Z</time>
      </trkpt>
      <trkpt lat="46.73252" lon="6.34626">
        <ele>1329</ele>
        <time>2022-07-05T08:32:36Z</time>
      </trkpt>
      <trkpt lat="46.73257" lon="6.34629">
        <ele>1330.7</ele>
        <time>2022-07-05T08:34:11Z</time>
      </trkpt>
      <trkpt lat="46.73262" lon="6.34632">
        <ele>1333.4</ele>
        <time>2022-07-05T08:34:22Z</time>
      </trkpt>
      <trkpt lat="46.73264" lon="6.34637">
        <ele>1334.4</ele>
        <time>2022-07-05T08:34:28Z</time>
      </trkpt>
      <trkpt lat="46.73265" lon="6.34645">
        <ele>1336.1</ele>
        <time>2022-07-05T08:34:36Z</time>
      </trkpt>
      <trkpt lat="46.73268" lon="6.3465">
        <ele>1337.1</ele>
        <time>2022-07-05T08:34:44Z</time>
      </trkpt>
      <trkpt lat="46.73269" lon="6.34656">
        <ele>1337.4</ele>
        <time>2022-07-05T08:34:51Z</time>
      </trkpt>
      <trkpt lat="46.73271" lon="6.34663">
        <ele>1337.8</ele>
        <time>2022-07-05T08:34:58Z</time>
      </trkpt>
      <trkpt lat="46.73272" lon="6.3467">
        <ele>1338.1</ele>
        <time>2022-07-05T08:35:08Z</time>
      </trkpt>
      <trkpt lat="46.73275" lon="6.34676">
        <ele>1338.3</ele>
        <time>2022-07-05T08:35:21Z</time>
      </trkpt>
      <trkpt lat="46.73277" lon="6.34683">
        <ele>1339.9</ele>
        <time>2022-07-05T08:35:27Z</time>
      </trkpt>
      <trkpt lat="46.7328" lon="6.34689">
        <ele>1341.6</ele>
        <time>2022-07-05T08:35:33Z</time>
      </trkpt>
      <trkpt lat="46.73283" lon="6.34695">
        <ele>1343.4</ele>
        <time>2022-07-05T08:35:40Z</time>
      </trkpt>
      <trkpt lat="46.73284" lon="6.34702">
        <ele>1344.7</ele>
        <time>2022-07-05T08:35:47Z</time>
      </trkpt>
      <trkpt lat="46.73288" lon="6.34706">
        <ele>1345.1</ele>
        <time>2022-07-05T08:35:53Z</time>
      </trkpt>
      <trkpt lat="46.73291" lon="6.34712">
        <ele>1346</ele>
        <time>2022-07-05T08:35:59Z</time>
      </trkpt>
      <trkpt lat="46.73294" lon="6.34718">
        <ele>1347.6</ele>
        <time>2022-07-05T08:36:05Z</time>
      </trkpt>
      <trkpt lat="46.73294" lon="6.34725">
        <ele>1350</ele>
        <time>2022-07-05T08:36:12Z</time>
      </trkpt>
      <trkpt lat="46.73293" lon="6.34732">
        <ele>1351.6</ele>
        <time>2022-07-05T08:36:18Z</time>
      </trkpt>
      <trkpt lat="46.73296" lon="6.34738">
        <ele>1352.6</ele>
        <time>2022-07-05T08:36:27Z</time>
      </trkpt>
      <trkpt lat="46.73299" lon="6.34744">
        <ele>1353.1</ele>
        <time>2022-07-05T08:36:35Z</time>
      </trkpt>
      <trkpt lat="46.733" lon="6.3475">
        <ele>1353</ele>
        <time>2022-07-05T08:36:42Z</time>
      </trkpt>
      <trkpt lat="46.733" lon="6.34757">
        <ele>1353.6</ele>
        <time>2022-07-05T08:36:49Z</time>
      </trkpt>
      <trkpt lat="46.733" lon="6.34764">
        <ele>1354.3</ele>
        <time>2022-07-05T08:36:58Z</time>
      </trkpt>
      <trkpt lat="46.73301" lon="6.3477">
        <ele>1354.9</ele>
        <time>2022-07-05T08:37:07Z</time>
      </trkpt>
      <trkpt lat="46.73302" lon="6.34777">
        <ele>1355.2</ele>
        <time>2022-07-05T08:37:15Z</time>
      </trkpt>
      <trkpt lat="46.73302" lon="6.34784">
        <ele>1355.6</ele>
        <time>2022-07-05T08:37:21Z</time>
      </trkpt>
      <trkpt lat="46.73304" lon="6.34791">
        <ele>1355.9</ele>
        <time>2022-07-05T08:37:28Z</time>
      </trkpt>
      <trkpt lat="46.73304" lon="6.34798">
        <ele>1356.4</ele>
        <time>2022-07-05T08:37:34Z</time>
      </trkpt>
      <trkpt lat="46.73304" lon="6.34805">
        <ele>1357.3</ele>
        <time>2022-07-05T08:37:40Z</time>
      </trkpt>
      <trkpt lat="46.73306" lon="6.34811">
        <ele>1359.1</ele>
        <time>2022-07-05T08:37:48Z</time>
      </trkpt>
      <trkpt lat="46.73306" lon="6.34818">
        <ele>1362.6</ele>
        <time>2022-07-05T08:38:08Z</time>
      </trkpt>
      <trkpt lat="46.73307" lon="6.34824">
        <ele>1363.6</ele>
        <time>2022-07-05T08:39:28Z</time>
      </trkpt>
      <trkpt lat="46.73309" lon="6.34831">
        <ele>1364.6</ele>
        <time>2022-07-05T08:40:12Z</time>
      </trkpt>
      <trkpt lat="46.7331" lon="6.34838">
        <ele>1367</ele>
        <time>2022-07-05T08:41:39Z</time>
      </trkpt>
      <trkpt lat="46.73309" lon="6.34845">
        <ele>1368.5</ele>
        <time>2022-07-05T08:41:48Z</time>
      </trkpt>
      <trkpt lat="46.7331" lon="6.34852">
        <ele>1368.8</ele>
        <time>2022-07-05T08:41:57Z</time>
      </trkpt>
      <trkpt lat="46.7331" lon="6.34859">
        <ele>1368.9</ele>
        <time>2022-07-05T08:42:05Z</time>
      </trkpt>
      <trkpt lat="46.7331" lon="6.34866">
        <ele>1368.9</ele>
        <time>2022-07-05T08:42:13Z</time>
      </trkpt>
      <trkpt lat="46.7331" lon="6.34874">
        <ele>1368.6</ele>
        <time>2022-07-05T08:42:20Z</time>
      </trkpt>
      <trkpt lat="46.7331" lon="6.34881">
        <ele>1368.9</ele>
        <time>2022-07-05T08:42:27Z</time>
      </trkpt>
      <trkpt lat="46.73309" lon="6.34888">
        <ele>1369.2</ele>
        <time>2022-07-05T08:42:33Z</time>
      </trkpt>
      <trkpt lat="46.73308" lon="6.34894">
        <ele>1369.6</ele>
        <time>2022-07-05T08:42:38Z</time>
      </trkpt>
      <trkpt lat="46.73307" lon="6.34902">
        <ele>1370.4</ele>
        <time>2022-07-05T08:42:44Z</time>
      </trkpt>
      <trkpt lat="46.73306" lon="6.34909">
        <ele>1377.1</ele>
        <time>2022-07-05T08:43:57Z</time>
      </trkpt>
      <trkpt lat="46.73307" lon="6.34916">
        <ele>1376.7</ele>
        <time>2022-07-05T08:44:02Z</time>
      </trkpt>
      <trkpt lat="46.73309" lon="6.34922">
        <ele>1377.7</ele>
        <time>2022-07-05T08:44:07Z</time>
      </trkpt>
      <trkpt lat="46.73308" lon="6.34929">
        <ele>1378</ele>
        <time>2022-07-05T08:44:13Z</time>
      </trkpt>
      <trkpt lat="46.73307" lon="6.34936">
        <ele>1378.3</ele>
        <time>2022-07-05T08:44:19Z</time>
      </trkpt>
      <trkpt lat="46.73307" lon="6.34944">
        <ele>1378.5</ele>
        <time>2022-07-05T08:44:24Z</time>
      </trkpt>
      <trkpt lat="46.73307" lon="6.34952">
        <ele>1379.5</ele>
        <time>2022-07-05T08:44:28Z</time>
      </trkpt>
      <trkpt lat="46.73309" lon="6.34959">
        <ele>1380.9</ele>
        <time>2022-07-05T08:44:32Z</time>
      </trkpt>
      <trkpt lat="46.7331" lon="6.34966">
        <ele>1382.2</ele>
        <time>2022-07-05T08:44:36Z</time>
      </trkpt>
      <trkpt lat="46.7331" lon="6.34973">
        <ele>1383.4</ele>
        <time>2022-07-05T08:44:39Z</time>
      </trkpt>
      <trkpt lat="46.73309" lon="6.3498">
        <ele>1384.9</ele>
        <time>2022-07-05T08:44:43Z</time>
      </trkpt>
      <trkpt lat="46.7331" lon="6.34987">
        <ele>1386.4</ele>
        <time>2022-07-05T08:44:48Z</time>
      </trkpt>
      <trkpt lat="46.7331" lon="6.34995">
        <ele>1387.2</ele>
        <time>2022-07-05T08:44:54Z</time>
      </trkpt>
      <trkpt lat="46.73312" lon="6.35001">
        <ele>1387.4</ele>
        <time>2022-07-05T08:44:59Z</time>
      </trkpt>
      <trkpt lat="46.73313" lon="6.35008">
        <ele>1387.4</ele>
        <time>2022-07-05T08:45:05Z</time>
      </trkpt>
      <trkpt lat="46.73316" lon="6.35013">
        <ele>1386.8</ele>
        <time>2022-07-05T08:45:12Z</time>
      </trkpt>
      <trkpt lat="46.73319" lon="6.35018">
        <ele>1386.4</ele>
        <time>2022-07-05T08:45:20Z</time>
      </trkpt>
      <trkpt lat="46.73321" lon="6.35025">
        <ele>1386.7</ele>
        <time>2022-07-05T08:45:27Z</time>
      </trkpt>
      <trkpt lat="46.73323" lon="6.35032">
        <ele>1386.7</ele>
        <time>2022-07-05T08:45:33Z</time>
      </trkpt>
      <trkpt lat="46.73325" lon="6.35039">
        <ele>1387.1</ele>
        <time>2022-07-05T08:45:40Z</time>
      </trkpt>
      <trkpt lat="46.73327" lon="6.35045">
        <ele>1388.1</ele>
        <time>2022-07-05T08:45:46Z</time>
      </trkpt>
      <trkpt lat="46.73329" lon="6.35051">
        <ele>1389.4</ele>
        <time>2022-07-05T08:45:51Z</time>
      </trkpt>
      <trkpt lat="46.73332" lon="6.35058">
        <ele>1391.4</ele>
        <time>2022-07-05T08:45:58Z</time>
      </trkpt>
      <trkpt lat="46.73334" lon="6.35064">
        <ele>1390.6</ele>
        <time>2022-07-05T08:46:18Z</time>
      </trkpt>
      <trkpt lat="46.73335" lon="6.35071">
        <ele>1390.6</ele>
        <time>2022-07-05T08:46:22Z</time>
      </trkpt>
      <trkpt lat="46.73338" lon="6.35077">
        <ele>1391.4</ele>
        <time>2022-07-05T08:46:27Z</time>
      </trkpt>
      <trkpt lat="46.73338" lon="6.35083">
        <ele>1392.2</ele>
        <time>2022-07-05T08:46:36Z</time>
      </trkpt>
      <trkpt lat="46.73339" lon="6.3509">
        <ele>1393.6</ele>
        <time>2022-07-05T08:47:15Z</time>
      </trkpt>
      <trkpt lat="46.73342" lon="6.35096">
        <ele>1395</ele>
        <time>2022-07-05T08:47:22Z</time>
      </trkpt>
      <trkpt lat="46.73344" lon="6.35102">
        <ele>1396</ele>
        <time>2022-07-05T08:47:27Z</time>
      </trkpt>
      <trkpt lat="46.73346" lon="6.3511">
        <ele>1397.3</ele>
        <time>2022-07-05T08:47:33Z</time>
      </trkpt>
      <trkpt lat="46.73349" lon="6.35117">
        <ele>1398</ele>
        <time>2022-07-05T08:47:38Z</time>
      </trkpt>
      <trkpt lat="46.73351" lon="6.35123">
        <ele>1398.5</ele>
        <time>2022-07-05T08:47:42Z</time>
      </trkpt>
      <trkpt lat="46.73354" lon="6.35129">
        <ele>1399.3</ele>
        <time>2022-07-05T08:47:48Z</time>
      </trkpt>
      <trkpt lat="46.73357" lon="6.35134">
        <ele>1400.1</ele>
        <time>2022-07-05T08:47:53Z</time>
      </trkpt>
      <trkpt lat="46.7336" lon="6.3514">
        <ele>1401</ele>
        <time>2022-07-05T08:47:59Z</time>
      </trkpt>
      <trkpt lat="46.73363" lon="6.35146">
        <ele>1401.8</ele>
        <time>2022-07-05T08:48:04Z</time>
      </trkpt>
      <trkpt lat="46.73365" lon="6.35152">
        <ele>1402.1</ele>
        <time>2022-07-05T08:48:09Z</time>
      </trkpt>
      <trkpt lat="46.73366" lon="6.35159">
        <ele>1402.6</ele>
        <time>2022-07-05T08:48:15Z</time>
      </trkpt>
      <trkpt lat="46.7337" lon="6.35164">
        <ele>1403.6</ele>
        <time>2022-07-05T08:48:20Z</time>
      </trkpt>
      <trkpt lat="46.73373" lon="6.3517">
        <ele>1404.4</ele>
        <time>2022-07-05T08:48:26Z</time>
      </trkpt>
      <trkpt lat="46.73375" lon="6.35176">
        <ele>1404.7</ele>
        <time>2022-07-05T08:48:31Z</time>
      </trkpt>
      <trkpt lat="46.73378" lon="6.35181">
        <ele>1405.3</ele>
        <time>2022-07-05T08:48:36Z</time>
      </trkpt>
      <trkpt lat="46.73382" lon="6.35186">
        <ele>1406.6</ele>
        <time>2022-07-05T08:48:43Z</time>
      </trkpt>
      <trkpt lat="46.73385" lon="6.35192">
        <ele>1407.3</ele>
        <time>2022-07-05T08:48:50Z</time>
      </trkpt>
      <trkpt lat="46.73389" lon="6.35198">
        <ele>1407.8</ele>
        <time>2022-07-05T08:48:57Z</time>
      </trkpt>
      <trkpt lat="46.73392" lon="6.35202">
        <ele>1408</ele>
        <time>2022-07-05T08:49:03Z</time>
      </trkpt>
      <trkpt lat="46.73395" lon="6.35208">
        <ele>1408.3</ele>
        <time>2022-07-05T08:49:09Z</time>
      </trkpt>
      <trkpt lat="46.73398" lon="6.35214">
        <ele>1408.8</ele>
        <time>2022-07-05T08:49:15Z</time>
      </trkpt>
      <trkpt lat="46.73402" lon="6.35219">
        <ele>1409.5</ele>
        <time>2022-07-05T08:49:21Z</time>
      </trkpt>
      <trkpt lat="46.73405" lon="6.35225">
        <ele>1410.4</ele>
        <time>2022-07-05T08:49:27Z</time>
      </trkpt>
      <trkpt lat="46.73409" lon="6.3523">
        <ele>1411.5</ele>
        <time>2022-07-05T08:49:32Z</time>
      </trkpt>
      <trkpt lat="46.73413" lon="6.35235">
        <ele>1412.6</ele>
        <time>2022-07-05T08:49:37Z</time>
      </trkpt>
      <trkpt lat="46.73416" lon="6.35241">
        <ele>1413.7</ele>
        <time>2022-07-05T08:49:45Z</time>
      </trkpt>
      <trkpt lat="46.73416" lon="6.35247">
        <ele>1413.8</ele>
        <time>2022-07-05T08:49:51Z</time>
      </trkpt>
      <trkpt lat="46.73417" lon="6.35255">
        <ele>1412.9</ele>
        <time>2022-07-05T08:49:57Z</time>
      </trkpt>
      <trkpt lat="46.7342" lon="6.35261">
        <ele>1413.1</ele>
        <time>2022-07-05T08:50:17Z</time>
      </trkpt>
      <trkpt lat="46.7342" lon="6.35268">
        <ele>1413.1</ele>
        <time>2022-07-05T08:50:23Z</time>
      </trkpt>
      <trkpt lat="46.73422" lon="6.35275">
        <ele>1413.2</ele>
        <time>2022-07-05T08:50:28Z</time>
      </trkpt>
      <trkpt lat="46.73425" lon="6.3528">
        <ele>1413.3</ele>
        <time>2022-07-05T08:50:34Z</time>
      </trkpt>
      <trkpt lat="46.73428" lon="6.35284">
        <ele>1413.6</ele>
        <time>2022-07-05T08:50:41Z</time>
      </trkpt>
      <trkpt lat="46.73433" lon="6.35286">
        <ele>1413.8</ele>
        <time>2022-07-05T08:50:48Z</time>
      </trkpt>
      <trkpt lat="46.73438" lon="6.35287">
        <ele>1413.6</ele>
        <time>2022-07-05T08:50:53Z</time>
      </trkpt>
      <trkpt lat="46.73443" lon="6.3529">
        <ele>1413.3</ele>
        <time>2022-07-05T08:50:58Z</time>
      </trkpt>
      <trkpt lat="46.73448" lon="6.35292">
        <ele>1413.2</ele>
        <time>2022-07-05T08:51:03Z</time>
      </trkpt>
      <trkpt lat="46.73453" lon="6.35294">
        <ele>1413.4</ele>
        <time>2022-07-05T08:51:08Z</time>
      </trkpt>
      <trkpt lat="46.73458" lon="6.35296">
        <ele>1413.4</ele>
        <time>2022-07-05T08:51:13Z</time>
      </trkpt>
      <trkpt lat="46.73463" lon="6.35298">
        <ele>1412.9</ele>
        <time>2022-07-05T08:51:19Z</time>
      </trkpt>
      <trkpt lat="46.73468" lon="6.353">
        <ele>1412.3</ele>
        <time>2022-07-05T08:51:24Z</time>
      </trkpt>
      <trkpt lat="46.73473" lon="6.35302">
        <ele>1412.5</ele>
        <time>2022-07-05T08:51:29Z</time>
      </trkpt>
      <trkpt lat="46.73478" lon="6.35304">
        <ele>1412.7</ele>
        <time>2022-07-05T08:51:34Z</time>
      </trkpt>
      <trkpt lat="46.73483" lon="6.35306">
        <ele>1412.8</ele>
        <time>2022-07-05T08:51:39Z</time>
      </trkpt>
      <trkpt lat="46.73488" lon="6.35307">
        <ele>1413.3</ele>
        <time>2022-07-05T08:51:43Z</time>
      </trkpt>
      <trkpt lat="46.73491" lon="6.35311">
        <ele>1414</ele>
        <time>2022-07-05T08:51:49Z</time>
      </trkpt>
      <trkpt lat="46.73496" lon="6.35314">
        <ele>1414.2</ele>
        <time>2022-07-05T08:51:55Z</time>
      </trkpt>
      <trkpt lat="46.73501" lon="6.35317">
        <ele>1414.1</ele>
        <time>2022-07-05T08:52:01Z</time>
      </trkpt>
      <trkpt lat="46.73506" lon="6.35318">
        <ele>1413.6</ele>
        <time>2022-07-05T08:52:07Z</time>
      </trkpt>
      <trkpt lat="46.73511" lon="6.35319">
        <ele>1413.3</ele>
        <time>2022-07-05T08:52:12Z</time>
      </trkpt>
      <trkpt lat="46.73515" lon="6.35323">
        <ele>1413.7</ele>
        <time>2022-07-05T08:52:17Z</time>
      </trkpt>
      <trkpt lat="46.73519" lon="6.35325">
        <ele>1414.3</ele>
        <time>2022-07-05T08:52:22Z</time>
      </trkpt>
      <trkpt lat="46.73524" lon="6.35328">
        <ele>1414.3</ele>
        <time>2022-07-05T08:52:28Z</time>
      </trkpt>
      <trkpt lat="46.73529" lon="6.35329">
        <ele>1414.4</ele>
        <time>2022-07-05T08:52:32Z</time>
      </trkpt>
      <trkpt lat="46.73534" lon="6.3533">
        <ele>1414.9</ele>
        <time>2022-07-05T08:52:37Z</time>
      </trkpt>
      <trkpt lat="46.73539" lon="6.35331">
        <ele>1415.6</ele>
        <time>2022-07-05T08:52:43Z</time>
      </trkpt>
      <trkpt lat="46.73544" lon="6.35333">
        <ele>1417.1</ele>
        <time>2022-07-05T08:52:49Z</time>
      </trkpt>
      <trkpt lat="46.73549" lon="6.35335">
        <ele>1417.9</ele>
        <time>2022-07-05T08:52:55Z</time>
      </trkpt>
      <trkpt lat="46.73554" lon="6.35338">
        <ele>1418</ele>
        <time>2022-07-05T08:53:02Z</time>
      </trkpt>
      <trkpt lat="46.73558" lon="6.3534">
        <ele>1418.1</ele>
        <time>2022-07-05T08:53:08Z</time>
      </trkpt>
      <trkpt lat="46.73562" lon="6.35343">
        <ele>1418.3</ele>
        <time>2022-07-05T08:53:30Z</time>
      </trkpt>
      <trkpt lat="46.73567" lon="6.35343">
        <ele>1417.9</ele>
        <time>2022-07-05T08:53:44Z</time>
      </trkpt>
      <trkpt lat="46.73571" lon="6.35343">
        <ele>1417.4</ele>
        <time>2022-07-05T08:53:49Z</time>
      </trkpt>
      <trkpt lat="46.73577" lon="6.35344">
        <ele>1416.7</ele>
        <time>2022-07-05T08:53:56Z</time>
      </trkpt>
      <trkpt lat="46.73582" lon="6.35346">
        <ele>1416.3</ele>
        <time>2022-07-05T08:54:02Z</time>
      </trkpt>
      <trkpt lat="46.73586" lon="6.35349">
        <ele>1416.1</ele>
        <time>2022-07-05T08:54:08Z</time>
      </trkpt>
      <trkpt lat="46.73591" lon="6.35351">
        <ele>1416.8</ele>
        <time>2022-07-05T08:54:13Z</time>
      </trkpt>
      <trkpt lat="46.73596" lon="6.35354">
        <ele>1417.2</ele>
        <time>2022-07-05T08:54:18Z</time>
      </trkpt>
      <trkpt lat="46.736" lon="6.35357">
        <ele>1417.8</ele>
        <time>2022-07-05T08:54:23Z</time>
      </trkpt>
      <trkpt lat="46.73604" lon="6.3536">
        <ele>1419.1</ele>
        <time>2022-07-05T08:54:28Z</time>
      </trkpt>
      <trkpt lat="46.73607" lon="6.35366">
        <ele>1420.4</ele>
        <time>2022-07-05T08:54:34Z</time>
      </trkpt>
      <trkpt lat="46.73611" lon="6.35371">
        <ele>1421.4</ele>
        <time>2022-07-05T08:54:40Z</time>
      </trkpt>
      <trkpt lat="46.73615" lon="6.35375">
        <ele>1421.7</ele>
        <time>2022-07-05T08:54:46Z</time>
      </trkpt>
      <trkpt lat="46.7362" lon="6.35378">
        <ele>1421.9</ele>
        <time>2022-07-05T08:54:52Z</time>
      </trkpt>
      <trkpt lat="46.73624" lon="6.3538">
        <ele>1422.2</ele>
        <time>2022-07-05T08:54:57Z</time>
      </trkpt>
      <trkpt lat="46.73629" lon="6.35383">
        <ele>1421.7</ele>
        <time>2022-07-05T08:55:07Z</time>
      </trkpt>
      <trkpt lat="46.73634" lon="6.35387">
        <ele>1421.6</ele>
        <time>2022-07-05T08:55:11Z</time>
      </trkpt>
      <trkpt lat="46.73639" lon="6.3539">
        <ele>1421.3</ele>
        <time>2022-07-05T08:55:16Z</time>
      </trkpt>
      <trkpt lat="46.73644" lon="6.35393">
        <ele>1420.7</ele>
        <time>2022-07-05T08:55:21Z</time>
      </trkpt>
      <trkpt lat="46.73648" lon="6.35396">
        <ele>1420.6</ele>
        <time>2022-07-05T08:55:26Z</time>
      </trkpt>
      <trkpt lat="46.73654" lon="6.35398">
        <ele>1420.7</ele>
        <time>2022-07-05T08:55:30Z</time>
      </trkpt>
      <trkpt lat="46.73658" lon="6.35398">
        <ele>1421.4</ele>
        <time>2022-07-05T08:55:34Z</time>
      </trkpt>
      <trkpt lat="46.73663" lon="6.35399">
        <ele>1421.7</ele>
        <time>2022-07-05T08:55:39Z</time>
      </trkpt>
      <trkpt lat="46.73668" lon="6.35399">
        <ele>1421.6</ele>
        <time>2022-07-05T08:55:44Z</time>
      </trkpt>
      <trkpt lat="46.73673" lon="6.35399">
        <ele>1421.3</ele>
        <time>2022-07-05T08:55:49Z</time>
      </trkpt>
      <trkpt lat="46.73678" lon="6.35402">
        <ele>1420.6</ele>
        <time>2022-07-05T08:55:55Z</time>
      </trkpt>
      <trkpt lat="46.73682" lon="6.35405">
        <ele>1421</ele>
        <time>2022-07-05T08:56:00Z</time>
      </trkpt>
      <trkpt lat="46.73687" lon="6.35408">
        <ele>1421.7</ele>
        <time>2022-07-05T08:56:05Z</time>
      </trkpt>
      <trkpt lat="46.7369" lon="6.35411">
        <ele>1422.7</ele>
        <time>2022-07-05T08:56:10Z</time>
      </trkpt>
      <trkpt lat="46.73694" lon="6.35416">
        <ele>1423.7</ele>
        <time>2022-07-05T08:56:15Z</time>
      </trkpt>
      <trkpt lat="46.73698" lon="6.35421">
        <ele>1424.7</ele>
        <time>2022-07-05T08:56:20Z</time>
      </trkpt>
      <trkpt lat="46.73702" lon="6.35426">
        <ele>1426.1</ele>
        <time>2022-07-05T08:56:25Z</time>
      </trkpt>
      <trkpt lat="46.73706" lon="6.3543">
        <ele>1427.1</ele>
        <time>2022-07-05T08:56:30Z</time>
      </trkpt>
      <trkpt lat="46.7371" lon="6.35434">
        <ele>1428</ele>
        <time>2022-07-05T08:56:35Z</time>
      </trkpt>
      <trkpt lat="46.73714" lon="6.35438">
        <ele>1428</ele>
        <time>2022-07-05T08:56:40Z</time>
      </trkpt>
      <trkpt lat="46.73718" lon="6.35441">
        <ele>1427.6</ele>
        <time>2022-07-05T08:56:44Z</time>
      </trkpt>
      <trkpt lat="46.73722" lon="6.35444">
        <ele>1427.6</ele>
        <time>2022-07-05T08:56:50Z</time>
      </trkpt>
      <trkpt lat="46.73719" lon="6.35449">
        <ele>1427.8</ele>
        <time>2022-07-05T08:57:06Z</time>
      </trkpt>
      <trkpt lat="46.73716" lon="6.35445">
        <ele>1426.5</ele>
        <time>2022-07-05T08:57:23Z</time>
      </trkpt>
      <trkpt lat="46.7371" lon="6.35447">
        <ele>1425.6</ele>
        <time>2022-07-05T08:57:27Z</time>
      </trkpt>
      <trkpt lat="46.73705" lon="6.35447">
        <ele>1425.1</ele>
        <time>2022-07-05T08:57:31Z</time>
      </trkpt>
      <trkpt lat="46.73701" lon="6.35445">
        <ele>1424.9</ele>
        <time>2022-07-05T08:57:35Z</time>
      </trkpt>
      <trkpt lat="46.73696" lon="6.35445">
        <ele>1424.4</ele>
        <time>2022-07-05T08:57:40Z</time>
      </trkpt>
      <trkpt lat="46.7369" lon="6.35444">
        <ele>1424.8</ele>
        <time>2022-07-05T08:57:45Z</time>
      </trkpt>
      <trkpt lat="46.73685" lon="6.35443">
        <ele>1425.4</ele>
        <time>2022-07-05T08:57:50Z</time>
      </trkpt>
      <trkpt lat="46.7368" lon="6.35441">
        <ele>1426.1</ele>
        <time>2022-07-05T08:57:55Z</time>
      </trkpt>
      <trkpt lat="46.73675" lon="6.3544">
        <ele>1426.6</ele>
        <time>2022-07-05T08:58:02Z</time>
      </trkpt>
      <trkpt lat="46.7367" lon="6.35439">
        <ele>1426.8</ele>
        <time>2022-07-05T08:58:08Z</time>
      </trkpt>
      <trkpt lat="46.73666" lon="6.35438">
        <ele>1427.1</ele>
        <time>2022-07-05T08:58:13Z</time>
      </trkpt>
      <trkpt lat="46.73661" lon="6.35437">
        <ele>1427.8</ele>
        <time>2022-07-05T08:58:18Z</time>
      </trkpt>
      <trkpt lat="46.73656" lon="6.35437">
        <ele>1428.9</ele>
        <time>2022-07-05T08:58:26Z</time>
      </trkpt>
      <trkpt lat="46.73651" lon="6.35438">
        <ele>1429.3</ele>
        <time>2022-07-05T08:58:33Z</time>
      </trkpt>
      <trkpt lat="46.73646" lon="6.35439">
        <ele>1430.1</ele>
        <time>2022-07-05T08:58:39Z</time>
      </trkpt>
      <trkpt lat="46.73642" lon="6.35439">
        <ele>1430.9</ele>
        <time>2022-07-05T08:58:46Z</time>
      </trkpt>
      <trkpt lat="46.73637" lon="6.3544">
        <ele>1431.5</ele>
        <time>2022-07-05T08:58:53Z</time>
      </trkpt>
      <trkpt lat="46.73632" lon="6.3544">
        <ele>1431.8</ele>
        <time>2022-07-05T08:58:59Z</time>
      </trkpt>
      <trkpt lat="46.73627" lon="6.35441">
        <ele>1432</ele>
        <time>2022-07-05T08:59:05Z</time>
      </trkpt>
      <trkpt lat="46.73623" lon="6.35441">
        <ele>1432.2</ele>
        <time>2022-07-05T08:59:14Z</time>
      </trkpt>
      <trkpt lat="46.73618" lon="6.35441">
        <ele>1431.7</ele>
        <time>2022-07-05T08:59:21Z</time>
      </trkpt>
      <trkpt lat="46.73613" lon="6.35441">
        <ele>1431.4</ele>
        <time>2022-07-05T08:59:26Z</time>
      </trkpt>
      <trkpt lat="46.73608" lon="6.35442">
        <ele>1431</ele>
        <time>2022-07-05T08:59:31Z</time>
      </trkpt>
      <trkpt lat="46.73602" lon="6.35443">
        <ele>1429.5</ele>
        <time>2022-07-05T08:59:37Z</time>
      </trkpt>
      <trkpt lat="46.73598" lon="6.35444">
        <ele>1428.6</ele>
        <time>2022-07-05T08:59:42Z</time>
      </trkpt>
      <trkpt lat="46.73593" lon="6.35446">
        <ele>1427.9</ele>
        <time>2022-07-05T08:59:48Z</time>
      </trkpt>
      <trkpt lat="46.73588" lon="6.35448">
        <ele>1427.1</ele>
        <time>2022-07-05T08:59:53Z</time>
      </trkpt>
      <trkpt lat="46.73584" lon="6.35448">
        <ele>1426.4</ele>
        <time>2022-07-05T08:59:57Z</time>
      </trkpt>
      <trkpt lat="46.73579" lon="6.35448">
        <ele>1426.2</ele>
        <time>2022-07-05T09:00:01Z</time>
      </trkpt>
      <trkpt lat="46.73574" lon="6.3545">
        <ele>1426.5</ele>
        <time>2022-07-05T09:00:05Z</time>
      </trkpt>
      <trkpt lat="46.73569" lon="6.35452">
        <ele>1427.1</ele>
        <time>2022-07-05T09:00:09Z</time>
      </trkpt>
      <trkpt lat="46.73564" lon="6.35452">
        <ele>1427.9</ele>
        <time>2022-07-05T09:00:13Z</time>
      </trkpt>
      <trkpt lat="46.73559" lon="6.35453">
        <ele>1428.5</ele>
        <time>2022-07-05T09:00:17Z</time>
      </trkpt>
      <trkpt lat="46.73554" lon="6.35454">
        <ele>1429.4</ele>
        <time>2022-07-05T09:00:22Z</time>
      </trkpt>
      <trkpt lat="46.73549" lon="6.35454">
        <ele>1430.5</ele>
        <time>2022-07-05T09:00:28Z</time>
      </trkpt>
      <trkpt lat="46.73543" lon="6.35452">
        <ele>1432.5</ele>
        <time>2022-07-05T09:00:35Z</time>
      </trkpt>
      <trkpt lat="46.73538" lon="6.35454">
        <ele>1432.9</ele>
        <time>2022-07-05T09:00:41Z</time>
      </trkpt>
      <trkpt lat="46.73534" lon="6.35457">
        <ele>1432.6</ele>
        <time>2022-07-05T09:00:46Z</time>
      </trkpt>
      <trkpt lat="46.73529" lon="6.35458">
        <ele>1432.6</ele>
        <time>2022-07-05T09:00:51Z</time>
      </trkpt>
      <trkpt lat="46.73524" lon="6.3546">
        <ele>1432.4</ele>
        <time>2022-07-05T09:00:56Z</time>
      </trkpt>
      <trkpt lat="46.73519" lon="6.3546">
        <ele>1432.4</ele>
        <time>2022-07-05T09:01:01Z</time>
      </trkpt>
      <trkpt lat="46.73514" lon="6.35459">
        <ele>1432.6</ele>
        <time>2022-07-05T09:01:06Z</time>
      </trkpt>
      <trkpt lat="46.73509" lon="6.35459">
        <ele>1432.4</ele>
        <time>2022-07-05T09:01:11Z</time>
      </trkpt>
      <trkpt lat="46.73505" lon="6.35459">
        <ele>1432.2</ele>
        <time>2022-07-05T09:01:16Z</time>
      </trkpt>
      <trkpt lat="46.735" lon="6.35457">
        <ele>1430.8</ele>
        <time>2022-07-05T09:01:24Z</time>
      </trkpt>
      <trkpt lat="46.73496" lon="6.35458">
        <ele>1430</ele>
        <time>2022-07-05T09:01:33Z</time>
      </trkpt>
      <trkpt lat="46.73491" lon="6.35461">
        <ele>1430.4</ele>
        <time>2022-07-05T09:01:39Z</time>
      </trkpt>
      <trkpt lat="46.73486" lon="6.35463">
        <ele>1431.7</ele>
        <time>2022-07-05T09:02:14Z</time>
      </trkpt>
      <trkpt lat="46.73482" lon="6.3546">
        <ele>1432.2</ele>
        <time>2022-07-05T09:02:23Z</time>
      </trkpt>
      <trkpt lat="46.73478" lon="6.35464">
        <ele>1431.9</ele>
        <time>2022-07-05T09:03:10Z</time>
      </trkpt>
      <trkpt lat="46.73475" lon="6.35459">
        <ele>1432.8</ele>
        <time>2022-07-05T09:03:22Z</time>
      </trkpt>
      <trkpt lat="46.73471" lon="6.35458">
        <ele>1434.1</ele>
        <time>2022-07-05T09:03:30Z</time>
      </trkpt>
      <trkpt lat="46.73466" lon="6.3546">
        <ele>1434.6</ele>
        <time>2022-07-05T09:03:37Z</time>
      </trkpt>
      <trkpt lat="46.73463" lon="6.35465">
        <ele>1434.5</ele>
        <time>2022-07-05T09:03:47Z</time>
      </trkpt>
      <trkpt lat="46.73459" lon="6.3547">
        <ele>1434.3</ele>
        <time>2022-07-05T09:03:54Z</time>
      </trkpt>
      <trkpt lat="46.73456" lon="6.35476">
        <ele>1434.8</ele>
        <time>2022-07-05T09:04:01Z</time>
      </trkpt>
      <trkpt lat="46.73453" lon="6.35481">
        <ele>1435.8</ele>
        <time>2022-07-05T09:04:07Z</time>
      </trkpt>
      <trkpt lat="46.73449" lon="6.35486">
        <ele>1436.8</ele>
        <time>2022-07-05T09:04:13Z</time>
      </trkpt>
      <trkpt lat="46.73446" lon="6.35492">
        <ele>1437.4</ele>
        <time>2022-07-05T09:04:19Z</time>
      </trkpt>
      <trkpt lat="46.73443" lon="6.35497">
        <ele>1438.3</ele>
        <time>2022-07-05T09:04:24Z</time>
      </trkpt>
      <trkpt lat="46.73441" lon="6.35503">
        <ele>1439.6</ele>
        <time>2022-07-05T09:04:30Z</time>
      </trkpt>
      <trkpt lat="46.73437" lon="6.35508">
        <ele>1441.2</ele>
        <time>2022-07-05T09:04:36Z</time>
      </trkpt>
      <trkpt lat="46.73434" lon="6.35514">
        <ele>1442.1</ele>
        <time>2022-07-05T09:04:42Z</time>
      </trkpt>
      <trkpt lat="46.73431" lon="6.3552">
        <ele>1442.5</ele>
        <time>2022-07-05T09:04:48Z</time>
      </trkpt>
      <trkpt lat="46.73427" lon="6.35525">
        <ele>1443.2</ele>
        <time>2022-07-05T09:04:54Z</time>
      </trkpt>
      <trkpt lat="46.73424" lon="6.3553">
        <ele>1443.6</ele>
        <time>2022-07-05T09:05:00Z</time>
      </trkpt>
      <trkpt lat="46.73421" lon="6.35536">
        <ele>1445.3</ele>
        <time>2022-07-05T09:05:08Z</time>
      </trkpt>
      <trkpt lat="46.73417" lon="6.35541">
        <ele>1447.1</ele>
        <time>2022-07-05T09:05:14Z</time>
      </trkpt>
      <trkpt lat="46.73413" lon="6.35545">
        <ele>1448.6</ele>
        <time>2022-07-05T09:05:21Z</time>
      </trkpt>
      <trkpt lat="46.73409" lon="6.35551">
        <ele>1450.4</ele>
        <time>2022-07-05T09:05:29Z</time>
      </trkpt>
      <trkpt lat="46.73406" lon="6.35556">
        <ele>1451.7</ele>
        <time>2022-07-05T09:05:35Z</time>
      </trkpt>
      <trkpt lat="46.73403" lon="6.35562">
        <ele>1452.9</ele>
        <time>2022-07-05T09:05:41Z</time>
      </trkpt>
      <trkpt lat="46.734" lon="6.35568">
        <ele>1453.8</ele>
        <time>2022-07-05T09:05:47Z</time>
      </trkpt>
      <trkpt lat="46.73397" lon="6.35573">
        <ele>1454.8</ele>
        <time>2022-07-05T09:05:52Z</time>
      </trkpt>
      <trkpt lat="46.73393" lon="6.35578">
        <ele>1455</ele>
        <time>2022-07-05T09:06:28Z</time>
      </trkpt>
      <trkpt lat="46.7339" lon="6.35583">
        <ele>1455.3</ele>
        <time>2022-07-05T09:06:51Z</time>
      </trkpt>
      <trkpt lat="46.73386" lon="6.35587">
        <ele>1456.6</ele>
        <time>2022-07-05T09:07:00Z</time>
      </trkpt>
      <trkpt lat="46.73383" lon="6.35592">
        <ele>1457.3</ele>
        <time>2022-07-05T09:07:08Z</time>
      </trkpt>
      <trkpt lat="46.7338" lon="6.35596">
        <ele>1457</ele>
        <time>2022-07-05T09:07:14Z</time>
      </trkpt>
      <trkpt lat="46.73376" lon="6.35601">
        <ele>1456.9</ele>
        <time>2022-07-05T09:07:19Z</time>
      </trkpt>
      <trkpt lat="46.73373" lon="6.35606">
        <ele>1457.2</ele>
        <time>2022-07-05T09:07:25Z</time>
      </trkpt>
      <trkpt lat="46.7337" lon="6.35611">
        <ele>1457.7</ele>
        <time>2022-07-05T09:07:31Z</time>
      </trkpt>
      <trkpt lat="46.73366" lon="6.35616">
        <ele>1458.4</ele>
        <time>2022-07-05T09:07:37Z</time>
      </trkpt>
      <trkpt lat="46.73364" lon="6.35622">
        <ele>1458.6</ele>
        <time>2022-07-05T09:07:43Z</time>
      </trkpt>
      <trkpt lat="46.73361" lon="6.35629">
        <ele>1458.8</ele>
        <time>2022-07-05T09:07:48Z</time>
      </trkpt>
      <trkpt lat="46.73359" lon="6.35636">
        <ele>1459.6</ele>
        <time>2022-07-05T09:07:53Z</time>
      </trkpt>
      <trkpt lat="46.73357" lon="6.35642">
        <ele>1461.1</ele>
        <time>2022-07-05T09:07:59Z</time>
      </trkpt>
      <trkpt lat="46.73357" lon="6.3565">
        <ele>1462</ele>
        <time>2022-07-05T09:08:06Z</time>
      </trkpt>
      <trkpt lat="46.73357" lon="6.35656">
        <ele>1462.3</ele>
        <time>2022-07-05T09:08:13Z</time>
      </trkpt>
      <trkpt lat="46.73356" lon="6.35663">
        <ele>1462.3</ele>
        <time>2022-07-05T09:08:20Z</time>
      </trkpt>
      <trkpt lat="46.73355" lon="6.3567">
        <ele>1461.5</ele>
        <time>2022-07-05T09:08:28Z</time>
      </trkpt>
      <trkpt lat="46.73352" lon="6.35676">
        <ele>1461.7</ele>
        <time>2022-07-05T09:09:50Z</time>
      </trkpt>
      <trkpt lat="46.73348" lon="6.35676">
        <ele>1463.2</ele>
        <time>2022-07-05T09:09:57Z</time>
      </trkpt>
      <trkpt lat="46.73343" lon="6.35675">
        <ele>1463.2</ele>
        <time>2022-07-05T09:10:21Z</time>
      </trkpt>
      <trkpt lat="46.73338" lon="6.35677">
        <ele>1462.2</ele>
        <time>2022-07-05T09:10:45Z</time>
      </trkpt>
      <trkpt lat="46.73334" lon="6.3568">
        <ele>1462.3</ele>
        <time>2022-07-05T09:10:54Z</time>
      </trkpt>
      <trkpt lat="46.7333" lon="6.35682">
        <ele>1463.5</ele>
        <time>2022-07-05T09:11:07Z</time>
      </trkpt>
      <trkpt lat="46.73325" lon="6.3568">
        <ele>1463.2</ele>
        <time>2022-07-05T09:11:24Z</time>
      </trkpt>
      <trkpt lat="46.7332" lon="6.35681">
        <ele>1463</ele>
        <time>2022-07-05T09:11:32Z</time>
      </trkpt>
      <trkpt lat="46.73315" lon="6.35681">
        <ele>1461.9</ele>
        <time>2022-07-05T09:11:44Z</time>
      </trkpt>
      <trkpt lat="46.73311" lon="6.35678">
        <ele>1459.8</ele>
        <time>2022-07-05T09:12:01Z</time>
      </trkpt>
      <trkpt lat="46.73306" lon="6.35679">
        <ele>1459.4</ele>
        <time>2022-07-05T09:12:08Z</time>
      </trkpt>
      <trkpt lat="46.73302" lon="6.3568">
        <ele>1459.6</ele>
        <time>2022-07-05T09:12:14Z</time>
      </trkpt>
      <trkpt lat="46.73297" lon="6.3568">
        <ele>1459.1</ele>
        <time>2022-07-05T09:12:23Z</time>
      </trkpt>
      <trkpt lat="46.73292" lon="6.35681">
        <ele>1456.7</ele>
        <time>2022-07-05T09:12:48Z</time>
      </trkpt>
      <trkpt lat="46.73288" lon="6.35683">
        <ele>1454.7</ele>
        <time>2022-07-05T09:13:13Z</time>
      </trkpt>
      <trkpt lat="46.73283" lon="6.35685">
        <ele>1454.5</ele>
        <time>2022-07-05T09:13:21Z</time>
      </trkpt>
      <trkpt lat="46.73278" lon="6.35686">
        <ele>1454.5</ele>
        <time>2022-07-05T09:13:29Z</time>
      </trkpt>
      <trkpt lat="46.73273" lon="6.35686">
        <ele>1454.5</ele>
        <time>2022-07-05T09:13:35Z</time>
      </trkpt>
      <trkpt lat="46.73269" lon="6.35687">
        <ele>1454.8</ele>
        <time>2022-07-05T09:13:43Z</time>
      </trkpt>
      <trkpt lat="46.73264" lon="6.35688">
        <ele>1454.2</ele>
        <time>2022-07-05T09:13:51Z</time>
      </trkpt>
      <trkpt lat="46.73259" lon="6.35691">
        <ele>1453.6</ele>
        <time>2022-07-05T09:13:58Z</time>
      </trkpt>
      <trkpt lat="46.73254" lon="6.35693">
        <ele>1451.9</ele>
        <time>2022-07-05T09:14:27Z</time>
      </trkpt>
      <trkpt lat="46.73249" lon="6.35696">
        <ele>1451.2</ele>
        <time>2022-07-05T09:14:33Z</time>
      </trkpt>
      <trkpt lat="46.73244" lon="6.35698">
        <ele>1450.9</ele>
        <time>2022-07-05T09:14:39Z</time>
      </trkpt>
      <trkpt lat="46.73239" lon="6.35698">
        <ele>1450.1</ele>
        <time>2022-07-05T09:14:44Z</time>
      </trkpt>
      <trkpt lat="46.73234" lon="6.35699">
        <ele>1448.5</ele>
        <time>2022-07-05T09:14:49Z</time>
      </trkpt>
      <trkpt lat="46.73229" lon="6.357">
        <ele>1447.6</ele>
        <time>2022-07-05T09:14:54Z</time>
      </trkpt>
      <trkpt lat="46.73224" lon="6.35702">
        <ele>1447.4</ele>
        <time>2022-07-05T09:14:59Z</time>
      </trkpt>
      <trkpt lat="46.73219" lon="6.35703">
        <ele>1447.7</ele>
        <time>2022-07-05T09:15:05Z</time>
      </trkpt>
      <trkpt lat="46.73214" lon="6.35706">
        <ele>1447.7</ele>
        <time>2022-07-05T09:15:13Z</time>
      </trkpt>
      <trkpt lat="46.73209" lon="6.35707">
        <ele>1446.9</ele>
        <time>2022-07-05T09:15:18Z</time>
      </trkpt>
      <trkpt lat="46.73205" lon="6.35707">
        <ele>1445.7</ele>
        <time>2022-07-05T09:15:22Z</time>
      </trkpt>
      <trkpt lat="46.732" lon="6.35708">
        <ele>1443.5</ele>
        <time>2022-07-05T09:15:27Z</time>
      </trkpt>
      <trkpt lat="46.73194" lon="6.3571">
        <ele>1442</ele>
        <time>2022-07-05T09:15:32Z</time>
      </trkpt>
      <trkpt lat="46.7319" lon="6.35712">
        <ele>1441.4</ele>
        <time>2022-07-05T09:15:37Z</time>
      </trkpt>
      <trkpt lat="46.73185" lon="6.35714">
        <ele>1440</ele>
        <time>2022-07-05T09:15:47Z</time>
      </trkpt>
      <trkpt lat="46.7318" lon="6.35715">
        <ele>1438.9</ele>
        <time>2022-07-05T09:15:54Z</time>
      </trkpt>
      <trkpt lat="46.73176" lon="6.35715">
        <ele>1438.2</ele>
        <time>2022-07-05T09:16:00Z</time>
      </trkpt>
      <trkpt lat="46.73171" lon="6.35715">
        <ele>1438.2</ele>
        <time>2022-07-05T09:16:05Z</time>
      </trkpt>
      <trkpt lat="46.73166" lon="6.35715">
        <ele>1438.4</ele>
        <time>2022-07-05T09:16:10Z</time>
      </trkpt>
      <trkpt lat="46.73161" lon="6.35714">
        <ele>1438.5</ele>
        <time>2022-07-05T09:16:16Z</time>
      </trkpt>
      <trkpt lat="46.73156" lon="6.35715">
        <ele>1438.7</ele>
        <time>2022-07-05T09:16:23Z</time>
      </trkpt>
      <trkpt lat="46.73151" lon="6.35715">
        <ele>1438.7</ele>
        <time>2022-07-05T09:16:28Z</time>
      </trkpt>
      <trkpt lat="46.73146" lon="6.35715">
        <ele>1438.7</ele>
        <time>2022-07-05T09:16:32Z</time>
      </trkpt>
      <trkpt lat="46.73141" lon="6.35715">
        <ele>1438.7</ele>
        <time>2022-07-05T09:16:38Z</time>
      </trkpt>
      <trkpt lat="46.73137" lon="6.35716">
        <ele>1437.6</ele>
        <time>2022-07-05T09:16:43Z</time>
      </trkpt>
      <trkpt lat="46.73132" lon="6.35715">
        <ele>1436.9</ele>
        <time>2022-07-05T09:16:47Z</time>
      </trkpt>
      <trkpt lat="46.73127" lon="6.35716">
        <ele>1436.2</ele>
        <time>2022-07-05T09:16:53Z</time>
      </trkpt>
      <trkpt lat="46.73122" lon="6.35718">
        <ele>1435.7</ele>
        <time>2022-07-05T09:16:58Z</time>
      </trkpt>
      <trkpt lat="46.73116" lon="6.35718">
        <ele>1435.4</ele>
        <time>2022-07-05T09:17:03Z</time>
      </trkpt>
      <trkpt lat="46.73111" lon="6.35718">
        <ele>1435</ele>
        <time>2022-07-05T09:17:08Z</time>
      </trkpt>
      <trkpt lat="46.73106" lon="6.35717">
        <ele>1435.1</ele>
        <time>2022-07-05T09:17:13Z</time>
      </trkpt>
      <trkpt lat="46.73101" lon="6.35717">
        <ele>1435.1</ele>
        <time>2022-07-05T09:17:18Z</time>
      </trkpt>
      <trkpt lat="46.73097" lon="6.35719">
        <ele>1434.7</ele>
        <time>2022-07-05T09:17:24Z</time>
      </trkpt>
      <trkpt lat="46.73092" lon="6.3572">
        <ele>1434.3</ele>
        <time>2022-07-05T09:17:30Z</time>
      </trkpt>
      <trkpt lat="46.73087" lon="6.3572">
        <ele>1433.9</ele>
        <time>2022-07-05T09:17:36Z</time>
      </trkpt>
      <trkpt lat="46.73082" lon="6.35723">
        <ele>1434.2</ele>
        <time>2022-07-05T09:17:44Z</time>
      </trkpt>
      <trkpt lat="46.73079" lon="6.35727">
        <ele>1434.5</ele>
        <time>2022-07-05T09:17:50Z</time>
      </trkpt>
      <trkpt lat="46.73074" lon="6.35726">
        <ele>1434.6</ele>
        <time>2022-07-05T09:17:57Z</time>
      </trkpt>
      <trkpt lat="46.73069" lon="6.35723">
        <ele>1434</ele>
        <time>2022-07-05T09:18:02Z</time>
      </trkpt>
      <trkpt lat="46.73064" lon="6.3572">
        <ele>1433.7</ele>
        <time>2022-07-05T09:18:07Z</time>
      </trkpt>
      <trkpt lat="46.7306" lon="6.35719">
        <ele>1433.3</ele>
        <time>2022-07-05T09:18:12Z</time>
      </trkpt>
      <trkpt lat="46.73055" lon="6.3572">
        <ele>1432.8</ele>
        <time>2022-07-05T09:18:18Z</time>
      </trkpt>
      <trkpt lat="46.7305" lon="6.35719">
        <ele>1433.1</ele>
        <time>2022-07-05T09:18:23Z</time>
      </trkpt>
      <trkpt lat="46.73045" lon="6.35718">
        <ele>1434.2</ele>
        <time>2022-07-05T09:18:29Z</time>
      </trkpt>
      <trkpt lat="46.7304" lon="6.35718">
        <ele>1435.5</ele>
        <time>2022-07-05T09:18:36Z</time>
      </trkpt>
      <trkpt lat="46.73036" lon="6.35717">
        <ele>1435.9</ele>
        <time>2022-07-05T09:18:42Z</time>
      </trkpt>
      <trkpt lat="46.7303" lon="6.35715">
        <ele>1436.3</ele>
        <time>2022-07-05T09:18:48Z</time>
      </trkpt>
      <trkpt lat="46.73026" lon="6.35714">
        <ele>1437.1</ele>
        <time>2022-07-05T09:18:54Z</time>
      </trkpt>
      <trkpt lat="46.73021" lon="6.35714">
        <ele>1437.6</ele>
        <time>2022-07-05T09:19:01Z</time>
      </trkpt>
      <trkpt lat="46.73017" lon="6.35712">
        <ele>1438.7</ele>
        <time>2022-07-05T09:19:07Z</time>
      </trkpt>
      <trkpt lat="46.73012" lon="6.35712">
        <ele>1440.5</ele>
        <time>2022-07-05T09:19:15Z</time>
      </trkpt>
      <trkpt lat="46.73007" lon="6.35713">
        <ele>1441.4</ele>
        <time>2022-07-05T09:19:21Z</time>
      </trkpt>
      <trkpt lat="46.73002" lon="6.35713">
        <ele>1441.6</ele>
        <time>2022-07-05T09:19:27Z</time>
      </trkpt>
      <trkpt lat="46.72997" lon="6.35714">
        <ele>1442.6</ele>
        <time>2022-07-05T09:19:34Z</time>
      </trkpt>
      <trkpt lat="46.72993" lon="6.3571">
        <ele>1443.2</ele>
        <time>2022-07-05T09:19:40Z</time>
      </trkpt>
      <trkpt lat="46.72988" lon="6.35711">
        <ele>1443.4</ele>
        <time>2022-07-05T09:19:46Z</time>
      </trkpt>
      <trkpt lat="46.72983" lon="6.35713">
        <ele>1443.7</ele>
        <time>2022-07-05T09:19:52Z</time>
      </trkpt>
      <trkpt lat="46.72978" lon="6.35715">
        <ele>1443.8</ele>
        <time>2022-07-05T09:19:58Z</time>
      </trkpt>
      <trkpt lat="46.72973" lon="6.35715">
        <ele>1443.4</ele>
        <time>2022-07-05T09:20:05Z</time>
      </trkpt>
      <trkpt lat="46.72968" lon="6.35714">
        <ele>1444</ele>
        <time>2022-07-05T09:20:12Z</time>
      </trkpt>
      <trkpt lat="46.72964" lon="6.35713">
        <ele>1444.8</ele>
        <time>2022-07-05T09:20:18Z</time>
      </trkpt>
      <trkpt lat="46.72959" lon="6.35715">
        <ele>1446</ele>
        <time>2022-07-05T09:20:24Z</time>
      </trkpt>
      <trkpt lat="46.72954" lon="6.35716">
        <ele>1448.1</ele>
        <time>2022-07-05T09:20:32Z</time>
      </trkpt>
      <trkpt lat="46.7295" lon="6.35715">
        <ele>1450.2</ele>
        <time>2022-07-05T09:20:39Z</time>
      </trkpt>
      <trkpt lat="46.72945" lon="6.35717">
        <ele>1451.1</ele>
        <time>2022-07-05T09:20:46Z</time>
      </trkpt>
      <trkpt lat="46.7294" lon="6.35716">
        <ele>1451.3</ele>
        <time>2022-07-05T09:20:51Z</time>
      </trkpt>
      <trkpt lat="46.72935" lon="6.35713">
        <ele>1453.1</ele>
        <time>2022-07-05T09:21:01Z</time>
      </trkpt>
      <trkpt lat="46.72931" lon="6.35712">
        <ele>1454.8</ele>
        <time>2022-07-05T09:21:10Z</time>
      </trkpt>
      <trkpt lat="46.72926" lon="6.35713">
        <ele>1454.8</ele>
        <time>2022-07-05T09:21:17Z</time>
      </trkpt>
      <trkpt lat="46.72922" lon="6.35716">
        <ele>1455</ele>
        <time>2022-07-05T09:21:22Z</time>
      </trkpt>
      <trkpt lat="46.72917" lon="6.35718">
        <ele>1455.2</ele>
        <time>2022-07-05T09:21:28Z</time>
      </trkpt>
      <trkpt lat="46.72914" lon="6.35722">
        <ele>1454.2</ele>
        <time>2022-07-05T09:21:43Z</time>
      </trkpt>
      <trkpt lat="46.72908" lon="6.35723">
        <ele>1455.3</ele>
        <time>2022-07-05T09:23:50Z</time>
      </trkpt>
      <trkpt lat="46.72904" lon="6.3572">
        <ele>1454.5</ele>
        <time>2022-07-05T09:23:54Z</time>
      </trkpt>
      <trkpt lat="46.72899" lon="6.35719">
        <ele>1453.8</ele>
        <time>2022-07-05T09:24:00Z</time>
      </trkpt>
      <trkpt lat="46.72895" lon="6.35718">
        <ele>1453.7</ele>
        <time>2022-07-05T09:24:12Z</time>
      </trkpt>
      <trkpt lat="46.7289" lon="6.35718">
        <ele>1453.8</ele>
        <time>2022-07-05T09:24:24Z</time>
      </trkpt>
      <trkpt lat="46.72885" lon="6.35718">
        <ele>1453.4</ele>
        <time>2022-07-05T09:24:31Z</time>
      </trkpt>
      <trkpt lat="46.72881" lon="6.35716">
        <ele>1453.1</ele>
        <time>2022-07-05T09:24:39Z</time>
      </trkpt>
      <trkpt lat="46.72876" lon="6.35716">
        <ele>1453</ele>
        <time>2022-07-05T09:24:49Z</time>
      </trkpt>
      <trkpt lat="46.72871" lon="6.35715">
        <ele>1453.3</ele>
        <time>2022-07-05T09:24:58Z</time>
      </trkpt>
      <trkpt lat="46.72867" lon="6.35718">
        <ele>1454</ele>
        <time>2022-07-05T09:25:03Z</time>
      </trkpt>
      <trkpt lat="46.72863" lon="6.35721">
        <ele>1454.9</ele>
        <time>2022-07-05T09:25:08Z</time>
      </trkpt>
      <trkpt lat="46.72857" lon="6.35723">
        <ele>1455.9</ele>
        <time>2022-07-05T09:25:14Z</time>
      </trkpt>
      <trkpt lat="46.72852" lon="6.35723">
        <ele>1458.3</ele>
        <time>2022-07-05T09:25:20Z</time>
      </trkpt>
      <trkpt lat="46.72847" lon="6.35723">
        <ele>1460.1</ele>
        <time>2022-07-05T09:25:27Z</time>
      </trkpt>
      <trkpt lat="46.72843" lon="6.3572">
        <ele>1459.8</ele>
        <time>2022-07-05T09:25:39Z</time>
      </trkpt>
      <trkpt lat="46.72838" lon="6.35716">
        <ele>1458.7</ele>
        <time>2022-07-05T09:25:45Z</time>
      </trkpt>
      <trkpt lat="46.72833" lon="6.35715">
        <ele>1457.9</ele>
        <time>2022-07-05T09:25:50Z</time>
      </trkpt>
      <trkpt lat="46.72828" lon="6.35716">
        <ele>1457.1</ele>
        <time>2022-07-05T09:25:56Z</time>
      </trkpt>
      <trkpt lat="46.72822" lon="6.35715">
        <ele>1456.4</ele>
        <time>2022-07-05T09:26:01Z</time>
      </trkpt>
      <trkpt lat="46.72818" lon="6.35714">
        <ele>1456</ele>
        <time>2022-07-05T09:26:05Z</time>
      </trkpt>
      <trkpt lat="46.72813" lon="6.35714">
        <ele>1455.4</ele>
        <time>2022-07-05T09:26:11Z</time>
      </trkpt>
      <trkpt lat="46.72808" lon="6.35713">
        <ele>1455</ele>
        <time>2022-07-05T09:26:16Z</time>
      </trkpt>
      <trkpt lat="46.72804" lon="6.35713">
        <ele>1454.8</ele>
        <time>2022-07-05T09:26:22Z</time>
      </trkpt>
      <trkpt lat="46.72799" lon="6.35712">
        <ele>1454.7</ele>
        <time>2022-07-05T09:26:45Z</time>
      </trkpt>
      <trkpt lat="46.72795" lon="6.35709">
        <ele>1454.6</ele>
        <time>2022-07-05T09:26:52Z</time>
      </trkpt>
      <trkpt lat="46.7279" lon="6.35708">
        <ele>1456.1</ele>
        <time>2022-07-05T09:27:20Z</time>
      </trkpt>
      <trkpt lat="46.72786" lon="6.3571">
        <ele>1461</ele>
        <time>2022-07-05T09:29:28Z</time>
      </trkpt>
      <trkpt lat="46.72781" lon="6.35711">
        <ele>1461.1</ele>
        <time>2022-07-05T09:29:35Z</time>
      </trkpt>
      <trkpt lat="46.72776" lon="6.35714">
        <ele>1461.3</ele>
        <time>2022-07-05T09:29:40Z</time>
      </trkpt>
      <trkpt lat="46.72772" lon="6.35713">
        <ele>1462</ele>
        <time>2022-07-05T09:29:48Z</time>
      </trkpt>
      <trkpt lat="46.72768" lon="6.35709">
        <ele>1462.9</ele>
        <time>2022-07-05T09:29:58Z</time>
      </trkpt>
      <trkpt lat="46.72763" lon="6.35708">
        <ele>1464.3</ele>
        <time>2022-07-05T09:30:06Z</time>
      </trkpt>
      <trkpt lat="46.72759" lon="6.35707">
        <ele>1464.6</ele>
        <time>2022-07-05T09:30:14Z</time>
      </trkpt>
      <trkpt lat="46.72754" lon="6.35708">
        <ele>1464.3</ele>
        <time>2022-07-05T09:30:25Z</time>
      </trkpt>
      <trkpt lat="46.7275" lon="6.35713">
        <ele>1464.2</ele>
        <time>2022-07-05T09:30:30Z</time>
      </trkpt>
      <trkpt lat="46.72746" lon="6.35716">
        <ele>1461.6</ele>
        <time>2022-07-05T09:30:54Z</time>
      </trkpt>
      <trkpt lat="46.72741" lon="6.35715">
        <ele>1460.9</ele>
        <time>2022-07-05T09:31:02Z</time>
      </trkpt>
      <trkpt lat="46.72737" lon="6.35714">
        <ele>1460.4</ele>
        <time>2022-07-05T09:31:09Z</time>
      </trkpt>
      <trkpt lat="46.72732" lon="6.35713">
        <ele>1461.5</ele>
        <time>2022-07-05T09:31:33Z</time>
      </trkpt>
      <trkpt lat="46.72727" lon="6.35714">
        <ele>1461.2</ele>
        <time>2022-07-05T09:31:43Z</time>
      </trkpt>
      <trkpt lat="46.72722" lon="6.35714">
        <ele>1460.2</ele>
        <time>2022-07-05T09:31:57Z</time>
      </trkpt>
      <trkpt lat="46.72718" lon="6.35717">
        <ele>1459.4</ele>
        <time>2022-07-05T09:32:09Z</time>
      </trkpt>
      <trkpt lat="46.72714" lon="6.35719">
        <ele>1458.9</ele>
        <time>2022-07-05T09:32:17Z</time>
      </trkpt>
      <trkpt lat="46.72709" lon="6.3572">
        <ele>1458.4</ele>
        <time>2022-07-05T09:32:24Z</time>
      </trkpt>
      <trkpt lat="46.72705" lon="6.35721">
        <ele>1458.6</ele>
        <time>2022-07-05T09:32:30Z</time>
      </trkpt>
      <trkpt lat="46.727" lon="6.35721">
        <ele>1458.2</ele>
        <time>2022-07-05T09:32:37Z</time>
      </trkpt>
      <trkpt lat="46.72695" lon="6.35722">
        <ele>1458.1</ele>
        <time>2022-07-05T09:32:43Z</time>
      </trkpt>
      <trkpt lat="46.7269" lon="6.35721">
        <ele>1458.1</ele>
        <time>2022-07-05T09:32:49Z</time>
      </trkpt>
      <trkpt lat="46.72685" lon="6.35722">
        <ele>1458</ele>
        <time>2022-07-05T09:32:56Z</time>
      </trkpt>
      <trkpt lat="46.72681" lon="6.35722">
        <ele>1457.8</ele>
        <time>2022-07-05T09:33:02Z</time>
      </trkpt>
      <trkpt lat="46.72676" lon="6.35723">
        <ele>1457.5</ele>
        <time>2022-07-05T09:33:08Z</time>
      </trkpt>
      <trkpt lat="46.72671" lon="6.35724">
        <ele>1457.2</ele>
        <time>2022-07-05T09:33:13Z</time>
      </trkpt>
      <trkpt lat="46.72666" lon="6.35726">
        <ele>1456.7</ele>
        <time>2022-07-05T09:33:18Z</time>
      </trkpt>
      <trkpt lat="46.72661" lon="6.35727">
        <ele>1456.2</ele>
        <time>2022-07-05T09:33:24Z</time>
      </trkpt>
      <trkpt lat="46.72657" lon="6.3573">
        <ele>1455.9</ele>
        <time>2022-07-05T09:33:31Z</time>
      </trkpt>
      <trkpt lat="46.72653" lon="6.35733">
        <ele>1455.8</ele>
        <time>2022-07-05T09:33:39Z</time>
      </trkpt>
      <trkpt lat="46.72648" lon="6.35735">
        <ele>1455.9</ele>
        <time>2022-07-05T09:33:45Z</time>
      </trkpt>
      <trkpt lat="46.72643" lon="6.3574">
        <ele>1455.8</ele>
        <time>2022-07-05T09:34:09Z</time>
      </trkpt>
      <trkpt lat="46.72639" lon="6.35742">
        <ele>1456</ele>
        <time>2022-07-05T09:34:25Z</time>
      </trkpt>
      <trkpt lat="46.72634" lon="6.35744">
        <ele>1454.1</ele>
        <time>2022-07-05T09:36:00Z</time>
      </trkpt>
      <trkpt lat="46.72629" lon="6.35745">
        <ele>1453</ele>
        <time>2022-07-05T09:36:44Z</time>
      </trkpt>
      <trkpt lat="46.72624" lon="6.35747">
        <ele>1452.9</ele>
        <time>2022-07-05T09:36:49Z</time>
      </trkpt>
      <trkpt lat="46.72619" lon="6.35749">
        <ele>1452.3</ele>
        <time>2022-07-05T09:36:55Z</time>
      </trkpt>
      <trkpt lat="46.72614" lon="6.3575">
        <ele>1451.4</ele>
        <time>2022-07-05T09:37:01Z</time>
      </trkpt>
      <trkpt lat="46.72609" lon="6.3575">
        <ele>1450.7</ele>
        <time>2022-07-05T09:37:06Z</time>
      </trkpt>
      <trkpt lat="46.72605" lon="6.35751">
        <ele>1449.9</ele>
        <time>2022-07-05T09:37:11Z</time>
      </trkpt>
      <trkpt lat="46.726" lon="6.35754">
        <ele>1448.4</ele>
        <time>2022-07-05T09:37:17Z</time>
      </trkpt>
      <trkpt lat="46.72596" lon="6.35756">
        <ele>1446.3</ele>
        <time>2022-07-05T09:37:24Z</time>
      </trkpt>
      <trkpt lat="46.72591" lon="6.35757">
        <ele>1444.7</ele>
        <time>2022-07-05T09:37:31Z</time>
      </trkpt>
      <trkpt lat="46.72587" lon="6.35761">
        <ele>1444.4</ele>
        <time>2022-07-05T09:37:36Z</time>
      </trkpt>
      <trkpt lat="46.72582" lon="6.35765">
        <ele>1444.6</ele>
        <time>2022-07-05T09:37:41Z</time>
      </trkpt>
      <trkpt lat="46.72578" lon="6.35769">
        <ele>1444.5</ele>
        <time>2022-07-05T09:37:46Z</time>
      </trkpt>
      <trkpt lat="46.72574" lon="6.35773">
        <ele>1444.4</ele>
        <time>2022-07-05T09:37:50Z</time>
      </trkpt>
      <trkpt lat="46.7257" lon="6.35776">
        <ele>1443.9</ele>
        <time>2022-07-05T09:37:56Z</time>
      </trkpt>
      <trkpt lat="46.72565" lon="6.35779">
        <ele>1443.1</ele>
        <time>2022-07-05T09:38:01Z</time>
      </trkpt>
      <trkpt lat="46.72561" lon="6.35781">
        <ele>1442.4</ele>
        <time>2022-07-05T09:38:06Z</time>
      </trkpt>
      <trkpt lat="46.72557" lon="6.35784">
        <ele>1442</ele>
        <time>2022-07-05T09:38:11Z</time>
      </trkpt>
      <trkpt lat="46.72553" lon="6.35788">
        <ele>1441.3</ele>
        <time>2022-07-05T09:38:18Z</time>
      </trkpt>
      <trkpt lat="46.72549" lon="6.35793">
        <ele>1440.7</ele>
        <time>2022-07-05T09:38:27Z</time>
      </trkpt>
      <trkpt lat="46.72545" lon="6.35797">
        <ele>1438.9</ele>
        <time>2022-07-05T09:39:10Z</time>
      </trkpt>
      <trkpt lat="46.72541" lon="6.35798">
        <ele>1437.9</ele>
        <time>2022-07-05T09:39:16Z</time>
      </trkpt>
      <trkpt lat="46.72536" lon="6.35798">
        <ele>1437.3</ele>
        <time>2022-07-05T09:39:22Z</time>
      </trkpt>
      <trkpt lat="46.72531" lon="6.35798">
        <ele>1436.2</ele>
        <time>2022-07-05T09:39:29Z</time>
      </trkpt>
      <trkpt lat="46.72526" lon="6.35799">
        <ele>1435</ele>
        <time>2022-07-05T09:39:35Z</time>
      </trkpt>
      <trkpt lat="46.72522" lon="6.35802">
        <ele>1434.1</ele>
        <time>2022-07-05T09:39:40Z</time>
      </trkpt>
      <trkpt lat="46.72517" lon="6.35802">
        <ele>1433.5</ele>
        <time>2022-07-05T09:39:46Z</time>
      </trkpt>
      <trkpt lat="46.72513" lon="6.35802">
        <ele>1432.7</ele>
        <time>2022-07-05T09:39:54Z</time>
      </trkpt>
      <trkpt lat="46.72508" lon="6.35806">
        <ele>1431.1</ele>
        <time>2022-07-05T09:40:02Z</time>
      </trkpt>
      <trkpt lat="46.72503" lon="6.35809">
        <ele>1429.4</ele>
        <time>2022-07-05T09:40:08Z</time>
      </trkpt>
      <trkpt lat="46.72499" lon="6.35811">
        <ele>1427.2</ele>
        <time>2022-07-05T09:40:15Z</time>
      </trkpt>
      <trkpt lat="46.72495" lon="6.35815">
        <ele>1426</ele>
        <time>2022-07-05T09:40:21Z</time>
      </trkpt>
      <trkpt lat="46.72491" lon="6.3582">
        <ele>1425.5</ele>
        <time>2022-07-05T09:40:27Z</time>
      </trkpt>
      <trkpt lat="46.72486" lon="6.35824">
        <ele>1425.3</ele>
        <time>2022-07-05T09:40:33Z</time>
      </trkpt>
      <trkpt lat="46.72482" lon="6.35827">
        <ele>1424.3</ele>
        <time>2022-07-05T09:40:40Z</time>
      </trkpt>
      <trkpt lat="46.72477" lon="6.35829">
        <ele>1422.8</ele>
        <time>2022-07-05T09:40:46Z</time>
      </trkpt>
      <trkpt lat="46.72473" lon="6.35833">
        <ele>1421.3</ele>
        <time>2022-07-05T09:40:51Z</time>
      </trkpt>
      <trkpt lat="46.72469" lon="6.35837">
        <ele>1420.2</ele>
        <time>2022-07-05T09:40:56Z</time>
      </trkpt>
      <trkpt lat="46.72465" lon="6.35841">
        <ele>1419.3</ele>
        <time>2022-07-05T09:41:01Z</time>
      </trkpt>
      <trkpt lat="46.72461" lon="6.35844">
        <ele>1418.2</ele>
        <time>2022-07-05T09:41:07Z</time>
      </trkpt>
      <trkpt lat="46.72456" lon="6.35846">
        <ele>1416.9</ele>
        <time>2022-07-05T09:41:13Z</time>
      </trkpt>
      <trkpt lat="46.72451" lon="6.35849">
        <ele>1415.5</ele>
        <time>2022-07-05T09:41:19Z</time>
      </trkpt>
      <trkpt lat="46.72447" lon="6.35852">
        <ele>1415</ele>
        <time>2022-07-05T09:41:25Z</time>
      </trkpt>
      <trkpt lat="46.72442" lon="6.35856">
        <ele>1414.9</ele>
        <time>2022-07-05T09:41:30Z</time>
      </trkpt>
      <trkpt lat="46.72437" lon="6.35859">
        <ele>1414.8</ele>
        <time>2022-07-05T09:41:35Z</time>
      </trkpt>
      <trkpt lat="46.72432" lon="6.35862">
        <ele>1414.7</ele>
        <time>2022-07-05T09:41:40Z</time>
      </trkpt>
      <trkpt lat="46.72427" lon="6.35864">
        <ele>1414.6</ele>
        <time>2022-07-05T09:41:46Z</time>
      </trkpt>
      <trkpt lat="46.72422" lon="6.35865">
        <ele>1414</ele>
        <time>2022-07-05T09:41:52Z</time>
      </trkpt>
      <trkpt lat="46.72417" lon="6.35868">
        <ele>1413.9</ele>
        <time>2022-07-05T09:41:58Z</time>
      </trkpt>
      <trkpt lat="46.72413" lon="6.35872">
        <ele>1413.6</ele>
        <time>2022-07-05T09:42:03Z</time>
      </trkpt>
      <trkpt lat="46.72409" lon="6.35874">
        <ele>1412.8</ele>
        <time>2022-07-05T09:42:08Z</time>
      </trkpt>
      <trkpt lat="46.72405" lon="6.35876">
        <ele>1412.2</ele>
        <time>2022-07-05T09:42:13Z</time>
      </trkpt>
      <trkpt lat="46.724" lon="6.3588">
        <ele>1411.1</ele>
        <time>2022-07-05T09:42:20Z</time>
      </trkpt>
      <trkpt lat="46.72396" lon="6.35882">
        <ele>1410.2</ele>
        <time>2022-07-05T09:42:24Z</time>
      </trkpt>
      <trkpt lat="46.72392" lon="6.35885">
        <ele>1409.6</ele>
        <time>2022-07-05T09:42:30Z</time>
      </trkpt>
      <trkpt lat="46.72387" lon="6.35887">
        <ele>1408.5</ele>
        <time>2022-07-05T09:42:38Z</time>
      </trkpt>
      <trkpt lat="46.72384" lon="6.35893">
        <ele>1407.2</ele>
        <time>2022-07-05T09:42:44Z</time>
      </trkpt>
      <trkpt lat="46.72382" lon="6.359">
        <ele>1406.2</ele>
        <time>2022-07-05T09:42:50Z</time>
      </trkpt>
      <trkpt lat="46.72379" lon="6.35905">
        <ele>1404.3</ele>
        <time>2022-07-05T09:42:59Z</time>
      </trkpt>
      <trkpt lat="46.72374" lon="6.35907">
        <ele>1404.1</ele>
        <time>2022-07-05T09:43:32Z</time>
      </trkpt>
      <trkpt lat="46.72369" lon="6.35907">
        <ele>1405.4</ele>
        <time>2022-07-05T09:43:39Z</time>
      </trkpt>
      <trkpt lat="46.72363" lon="6.35907">
        <ele>1405.5</ele>
        <time>2022-07-05T09:43:46Z</time>
      </trkpt>
      <trkpt lat="46.72358" lon="6.35906">
        <ele>1404.6</ele>
        <time>2022-07-05T09:43:52Z</time>
      </trkpt>
      <trkpt lat="46.72353" lon="6.35906">
        <ele>1403.8</ele>
        <time>2022-07-05T09:43:57Z</time>
      </trkpt>
      <trkpt lat="46.72349" lon="6.35904">
        <ele>1403</ele>
        <time>2022-07-05T09:44:02Z</time>
      </trkpt>
      <trkpt lat="46.72344" lon="6.35901">
        <ele>1401.7</ele>
        <time>2022-07-05T09:44:08Z</time>
      </trkpt>
      <trkpt lat="46.72339" lon="6.359">
        <ele>1399.9</ele>
        <time>2022-07-05T09:44:15Z</time>
      </trkpt>
      <trkpt lat="46.72334" lon="6.35899">
        <ele>1398.6</ele>
        <time>2022-07-05T09:44:22Z</time>
      </trkpt>
      <trkpt lat="46.72332" lon="6.35893">
        <ele>1398</ele>
        <time>2022-07-05T09:44:28Z</time>
      </trkpt>
      <trkpt lat="46.72329" lon="6.35888">
        <ele>1397.8</ele>
        <time>2022-07-05T09:44:33Z</time>
      </trkpt>
      <trkpt lat="46.72325" lon="6.35884">
        <ele>1398.1</ele>
        <time>2022-07-05T09:44:38Z</time>
      </trkpt>
      <trkpt lat="46.7232" lon="6.35883">
        <ele>1398.7</ele>
        <time>2022-07-05T09:44:45Z</time>
      </trkpt>
      <trkpt lat="46.72316" lon="6.35879">
        <ele>1399.1</ele>
        <time>2022-07-05T09:44:53Z</time>
      </trkpt>
      <trkpt lat="46.72314" lon="6.35873">
        <ele>1399.3</ele>
        <time>2022-07-05T09:45:02Z</time>
      </trkpt>
      <trkpt lat="46.72311" lon="6.35868">
        <ele>1398.8</ele>
        <time>2022-07-05T09:45:09Z</time>
      </trkpt>
      <trkpt lat="46.72307" lon="6.35861">
        <ele>1398</ele>
        <time>2022-07-05T09:45:14Z</time>
      </trkpt>
      <trkpt lat="46.72304" lon="6.35857">
        <ele>1397.1</ele>
        <time>2022-07-05T09:45:18Z</time>
      </trkpt>
      <trkpt lat="46.72301" lon="6.35852">
        <ele>1396.8</ele>
        <time>2022-07-05T09:45:23Z</time>
      </trkpt>
      <trkpt lat="46.72296" lon="6.35849">
        <ele>1396.3</ele>
        <time>2022-07-05T09:45:29Z</time>
      </trkpt>
      <trkpt lat="46.72291" lon="6.35852">
        <ele>1396.1</ele>
        <time>2022-07-05T09:45:36Z</time>
      </trkpt>
      <trkpt lat="46.72287" lon="6.35855">
        <ele>1395.7</ele>
        <time>2022-07-05T09:45:42Z</time>
      </trkpt>
      <trkpt lat="46.72286" lon="6.35862">
        <ele>1394.9</ele>
        <time>2022-07-05T09:45:47Z</time>
      </trkpt>
      <trkpt lat="46.72283" lon="6.35868">
        <ele>1394.3</ele>
        <time>2022-07-05T09:45:53Z</time>
      </trkpt>
      <trkpt lat="46.72278" lon="6.35872">
        <ele>1392</ele>
        <time>2022-07-05T09:46:01Z</time>
      </trkpt>
      <trkpt lat="46.72274" lon="6.35874">
        <ele>1391.5</ele>
        <time>2022-07-05T09:46:05Z</time>
      </trkpt>
      <trkpt lat="46.72269" lon="6.35875">
        <ele>1391.7</ele>
        <time>2022-07-05T09:46:10Z</time>
      </trkpt>
      <trkpt lat="46.72264" lon="6.35875">
        <ele>1393</ele>
        <time>2022-07-05T09:46:18Z</time>
      </trkpt>
      <trkpt lat="46.72259" lon="6.35877">
        <ele>1393</ele>
        <time>2022-07-05T09:46:22Z</time>
      </trkpt>
      <trkpt lat="46.72254" lon="6.35878">
        <ele>1392.8</ele>
        <time>2022-07-05T09:46:27Z</time>
      </trkpt>
      <trkpt lat="46.72249" lon="6.35878">
        <ele>1392.5</ele>
        <time>2022-07-05T09:46:31Z</time>
      </trkpt>
      <trkpt lat="46.72244" lon="6.35878">
        <ele>1391.4</ele>
        <time>2022-07-05T09:46:36Z</time>
      </trkpt>
      <trkpt lat="46.7224" lon="6.3588">
        <ele>1390.6</ele>
        <time>2022-07-05T09:46:43Z</time>
      </trkpt>
      <trkpt lat="46.72238" lon="6.35873">
        <ele>1390.5</ele>
        <time>2022-07-05T09:46:52Z</time>
      </trkpt>
      <trkpt lat="46.72233" lon="6.35872">
        <ele>1390.6</ele>
        <time>2022-07-05T09:46:56Z</time>
      </trkpt>
      <trkpt lat="46.72228" lon="6.3587">
        <ele>1390.4</ele>
        <time>2022-07-05T09:47:01Z</time>
      </trkpt>
      <trkpt lat="46.72223" lon="6.35866">
        <ele>1390.1</ele>
        <time>2022-07-05T09:47:07Z</time>
      </trkpt>
      <trkpt lat="46.72219" lon="6.35862">
        <ele>1390</ele>
        <time>2022-07-05T09:47:12Z</time>
      </trkpt>
      <trkpt lat="46.72214" lon="6.35858">
        <ele>1390.4</ele>
        <time>2022-07-05T09:47:16Z</time>
      </trkpt>
      <trkpt lat="46.7221" lon="6.35854">
        <ele>1390.8</ele>
        <time>2022-07-05T09:47:19Z</time>
      </trkpt>
      <trkpt lat="46.72206" lon="6.3585">
        <ele>1390.7</ele>
        <time>2022-07-05T09:47:26Z</time>
      </trkpt>
      <trkpt lat="46.72202" lon="6.35847">
        <ele>1390</ele>
        <time>2022-07-05T09:47:32Z</time>
      </trkpt>
      <trkpt lat="46.72198" lon="6.35843">
        <ele>1388.3</ele>
        <time>2022-07-05T09:47:38Z</time>
      </trkpt>
      <trkpt lat="46.72194" lon="6.35838">
        <ele>1387.9</ele>
        <time>2022-07-05T09:47:43Z</time>
      </trkpt>
      <trkpt lat="46.7219" lon="6.35834">
        <ele>1387.3</ele>
        <time>2022-07-05T09:47:47Z</time>
      </trkpt>
      <trkpt lat="46.72185" lon="6.3583">
        <ele>1387.1</ele>
        <time>2022-07-05T09:47:52Z</time>
      </trkpt>
      <trkpt lat="46.72182" lon="6.35825">
        <ele>1387.4</ele>
        <time>2022-07-05T09:47:57Z</time>
      </trkpt>
      <trkpt lat="46.72178" lon="6.35822">
        <ele>1388.4</ele>
        <time>2022-07-05T09:48:02Z</time>
      </trkpt>
      <trkpt lat="46.72173" lon="6.35822">
        <ele>1388.7</ele>
        <time>2022-07-05T09:48:09Z</time>
      </trkpt>
      <trkpt lat="46.72168" lon="6.35823">
        <ele>1388.3</ele>
        <time>2022-07-05T09:48:15Z</time>
      </trkpt>
      <trkpt lat="46.72163" lon="6.35823">
        <ele>1386.7</ele>
        <time>2022-07-05T09:48:22Z</time>
      </trkpt>
      <trkpt lat="46.72158" lon="6.35825">
        <ele>1385.8</ele>
        <time>2022-07-05T09:48:27Z</time>
      </trkpt>
      <trkpt lat="46.72154" lon="6.35829">
        <ele>1384.6</ele>
        <time>2022-07-05T09:48:34Z</time>
      </trkpt>
      <trkpt lat="46.72151" lon="6.35835">
        <ele>1384.9</ele>
        <time>2022-07-05T09:48:39Z</time>
      </trkpt>
      <trkpt lat="46.72149" lon="6.35841">
        <ele>1385.4</ele>
        <time>2022-07-05T09:48:42Z</time>
      </trkpt>
      <trkpt lat="46.72147" lon="6.35848">
        <ele>1385.8</ele>
        <time>2022-07-05T09:48:47Z</time>
      </trkpt>
      <trkpt lat="46.72145" lon="6.35854">
        <ele>1385.9</ele>
        <time>2022-07-05T09:48:51Z</time>
      </trkpt>
      <trkpt lat="46.72144" lon="6.35861">
        <ele>1385.3</ele>
        <time>2022-07-05T09:48:57Z</time>
      </trkpt>
      <trkpt lat="46.72142" lon="6.35868">
        <ele>1384.5</ele>
        <time>2022-07-05T09:49:03Z</time>
      </trkpt>
      <trkpt lat="46.72139" lon="6.35874">
        <ele>1384.3</ele>
        <time>2022-07-05T09:49:09Z</time>
      </trkpt>
      <trkpt lat="46.72135" lon="6.3587">
        <ele>1384.2</ele>
        <time>2022-07-05T09:49:15Z</time>
      </trkpt>
      <trkpt lat="46.72131" lon="6.35865">
        <ele>1384.1</ele>
        <time>2022-07-05T09:49:20Z</time>
      </trkpt>
      <trkpt lat="46.72127" lon="6.35862">
        <ele>1383.1</ele>
        <time>2022-07-05T09:49:29Z</time>
      </trkpt>
      <trkpt lat="46.72123" lon="6.35859">
        <ele>1381.3</ele>
        <time>2022-07-05T09:49:42Z</time>
      </trkpt>
      <trkpt lat="46.72119" lon="6.35855">
        <ele>1380.3</ele>
        <time>2022-07-05T09:49:47Z</time>
      </trkpt>
      <trkpt lat="46.72115" lon="6.3585">
        <ele>1379.7</ele>
        <time>2022-07-05T09:49:53Z</time>
      </trkpt>
      <trkpt lat="46.72112" lon="6.35845">
        <ele>1378.9</ele>
        <time>2022-07-05T09:49:58Z</time>
      </trkpt>
      <trkpt lat="46.72107" lon="6.35842">
        <ele>1378.2</ele>
        <time>2022-07-05T09:50:04Z</time>
      </trkpt>
      <trkpt lat="46.72103" lon="6.35838">
        <ele>1377.8</ele>
        <time>2022-07-05T09:50:09Z</time>
      </trkpt>
      <trkpt lat="46.72099" lon="6.35834">
        <ele>1377.2</ele>
        <time>2022-07-05T09:50:14Z</time>
      </trkpt>
      <trkpt lat="46.72095" lon="6.35831">
        <ele>1376</ele>
        <time>2022-07-05T09:50:19Z</time>
      </trkpt>
      <trkpt lat="46.72091" lon="6.35827">
        <ele>1374.3</ele>
        <time>2022-07-05T09:50:25Z</time>
      </trkpt>
      <trkpt lat="46.72086" lon="6.35824">
        <ele>1373.1</ele>
        <time>2022-07-05T09:50:31Z</time>
      </trkpt>
      <trkpt lat="46.72081" lon="6.35822">
        <ele>1372.1</ele>
        <time>2022-07-05T09:50:37Z</time>
      </trkpt>
      <trkpt lat="46.72078" lon="6.35818">
        <ele>1371.5</ele>
        <time>2022-07-05T09:50:43Z</time>
      </trkpt>
      <trkpt lat="46.72074" lon="6.35813">
        <ele>1371.1</ele>
        <time>2022-07-05T09:50:48Z</time>
      </trkpt>
      <trkpt lat="46.7207" lon="6.35809">
        <ele>1370.5</ele>
        <time>2022-07-05T09:50:53Z</time>
      </trkpt>
      <trkpt lat="46.72066" lon="6.35808">
        <ele>1369.1</ele>
        <time>2022-07-05T09:50:59Z</time>
      </trkpt>
      <trkpt lat="46.72061" lon="6.35804">
        <ele>1367.6</ele>
        <time>2022-07-05T09:51:06Z</time>
      </trkpt>
      <trkpt lat="46.72057" lon="6.35802">
        <ele>1366.9</ele>
        <time>2022-07-05T09:51:13Z</time>
      </trkpt>
      <trkpt lat="46.72053" lon="6.35798">
        <ele>1366.2</ele>
        <time>2022-07-05T09:51:20Z</time>
      </trkpt>
      <trkpt lat="46.72049" lon="6.35794">
        <ele>1365</ele>
        <time>2022-07-05T09:51:25Z</time>
      </trkpt>
      <trkpt lat="46.72044" lon="6.3579">
        <ele>1363.5</ele>
        <time>2022-07-05T09:51:30Z</time>
      </trkpt>
      <trkpt lat="46.72041" lon="6.35786">
        <ele>1361.6</ele>
        <time>2022-07-05T09:51:35Z</time>
      </trkpt>
      <trkpt lat="46.72037" lon="6.35781">
        <ele>1360.1</ele>
        <time>2022-07-05T09:51:42Z</time>
      </trkpt>
      <trkpt lat="46.72034" lon="6.35775">
        <ele>1359.3</ele>
        <time>2022-07-05T09:51:48Z</time>
      </trkpt>
      <trkpt lat="46.7203" lon="6.35771">
        <ele>1359.3</ele>
        <time>2022-07-05T09:51:54Z</time>
      </trkpt>
      <trkpt lat="46.72025" lon="6.35769">
        <ele>1359.7</ele>
        <time>2022-07-05T09:51:59Z</time>
      </trkpt>
      <trkpt lat="46.7202" lon="6.35767">
        <ele>1359.7</ele>
        <time>2022-07-05T09:52:03Z</time>
      </trkpt>
      <trkpt lat="46.72015" lon="6.35765">
        <ele>1360</ele>
        <time>2022-07-05T09:52:08Z</time>
      </trkpt>
      <trkpt lat="46.7201" lon="6.35762">
        <ele>1360.6</ele>
        <time>2022-07-05T09:52:15Z</time>
      </trkpt>
      <trkpt lat="46.72005" lon="6.3576">
        <ele>1361.8</ele>
        <time>2022-07-05T09:52:22Z</time>
      </trkpt>
      <trkpt lat="46.72002" lon="6.35756">
        <ele>1362.6</ele>
        <time>2022-07-05T09:52:28Z</time>
      </trkpt>
      <trkpt lat="46.71998" lon="6.35751">
        <ele>1363.5</ele>
        <time>2022-07-05T09:52:34Z</time>
      </trkpt>
      <trkpt lat="46.71994" lon="6.35747">
        <ele>1364.3</ele>
        <time>2022-07-05T09:52:39Z</time>
      </trkpt>
      <trkpt lat="46.7199" lon="6.35743">
        <ele>1364.6</ele>
        <time>2022-07-05T09:52:46Z</time>
      </trkpt>
      <trkpt lat="46.71985" lon="6.3574">
        <ele>1364.8</ele>
        <time>2022-07-05T09:52:52Z</time>
      </trkpt>
      <trkpt lat="46.71981" lon="6.35737">
        <ele>1365</ele>
        <time>2022-07-05T09:52:57Z</time>
      </trkpt>
      <trkpt lat="46.71976" lon="6.35734">
        <ele>1365.1</ele>
        <time>2022-07-05T09:53:03Z</time>
      </trkpt>
      <trkpt lat="46.71972" lon="6.35732">
        <ele>1365.9</ele>
        <time>2022-07-05T09:53:15Z</time>
      </trkpt>
      <trkpt lat="46.71967" lon="6.35728">
        <ele>1365.9</ele>
        <time>2022-07-05T09:53:21Z</time>
      </trkpt>
      <trkpt lat="46.71962" lon="6.35725">
        <ele>1365.9</ele>
        <time>2022-07-05T09:53:26Z</time>
      </trkpt>
      <trkpt lat="46.71958" lon="6.35722">
        <ele>1365.9</ele>
        <time>2022-07-05T09:53:43Z</time>
      </trkpt>
      <trkpt lat="46.71955" lon="6.35728">
        <ele>1366.1</ele>
        <time>2022-07-05T09:53:52Z</time>
      </trkpt>
      <trkpt lat="46.7196" lon="6.35727">
        <ele>1367.7</ele>
        <time>2022-07-05T09:55:06Z</time>
      </trkpt>
      <trkpt lat="46.71964" lon="6.35732">
        <ele>1367.3</ele>
        <time>2022-07-05T09:56:41Z</time>
      </trkpt>
      <trkpt lat="46.71951" lon="6.35723">
        <ele>1382.8</ele>
        <time>2022-07-05T10:32:16Z</time>
      </trkpt>
      <trkpt lat="46.71955" lon="6.35725">
        <ele>1381.1</ele>
        <time>2022-07-05T10:32:22Z</time>
      </trkpt>
      <trkpt lat="46.7196" lon="6.35731">
        <ele>1371.7</ele>
        <time>2022-07-05T10:38:41Z</time>
      </trkpt>
      <trkpt lat="46.71956" lon="6.35736">
        <ele>1372.5</ele>
        <time>2022-07-05T10:38:44Z</time>
      </trkpt>
      <trkpt lat="46.71959" lon="6.35731">
        <ele>1372.6</ele>
        <time>2022-07-05T10:38:50Z</time>
      </trkpt>
      <trkpt lat="46.71959" lon="6.35724">
        <ele>1372.6</ele>
        <time>2022-07-05T10:39:48Z</time>
      </trkpt>
      <trkpt lat="46.71961" lon="6.35729">
        <ele>1368.7</ele>
        <time>2022-07-05T10:41:03Z</time>
      </trkpt>
      <trkpt lat="46.71959" lon="6.35736">
        <ele>1368.9</ele>
        <time>2022-07-05T10:41:10Z</time>
      </trkpt>
      <trkpt lat="46.71961" lon="6.35742">
        <ele>1368.8</ele>
        <time>2022-07-05T10:41:24Z</time>
      </trkpt>
      <trkpt lat="46.71965" lon="6.35746">
        <ele>1368.5</ele>
        <time>2022-07-05T10:41:29Z</time>
      </trkpt>
      <trkpt lat="46.71968" lon="6.3575">
        <ele>1368.4</ele>
        <time>2022-07-05T10:41:35Z</time>
      </trkpt>
      <trkpt lat="46.71971" lon="6.35756">
        <ele>1368.7</ele>
        <time>2022-07-05T10:41:41Z</time>
      </trkpt>
      <trkpt lat="46.71976" lon="6.35754">
        <ele>1369.7</ele>
        <time>2022-07-05T10:42:17Z</time>
      </trkpt>
      <trkpt lat="46.71978" lon="6.35748">
        <ele>1372.8</ele>
        <time>2022-07-05T10:42:46Z</time>
      </trkpt>
      <trkpt lat="46.71975" lon="6.35742">
        <ele>1374.8</ele>
        <time>2022-07-05T10:42:52Z</time>
      </trkpt>
      <trkpt lat="46.71972" lon="6.35736">
        <ele>1376.4</ele>
        <time>2022-07-05T10:42:58Z</time>
      </trkpt>
      <trkpt lat="46.71972" lon="6.35729">
        <ele>1376.5</ele>
        <time>2022-07-05T10:43:18Z</time>
      </trkpt>
      <trkpt lat="46.71969" lon="6.35723">
        <ele>1372.2</ele>
        <time>2022-07-05T10:43:38Z</time>
      </trkpt>
      <trkpt lat="46.71969" lon="6.35716">
        <ele>1371.1</ele>
        <time>2022-07-05T10:43:46Z</time>
      </trkpt>
      <trkpt lat="46.71966" lon="6.3571">
        <ele>1370.6</ele>
        <time>2022-07-05T10:43:57Z</time>
      </trkpt>
      <trkpt lat="46.71964" lon="6.35703">
        <ele>1370.7</ele>
        <time>2022-07-05T10:44:03Z</time>
      </trkpt>
      <trkpt lat="46.71961" lon="6.35699">
        <ele>1369.4</ele>
        <time>2022-07-05T10:44:59Z</time>
      </trkpt>
      <trkpt lat="46.71958" lon="6.35694">
        <ele>1369.5</ele>
        <time>2022-07-05T10:45:07Z</time>
      </trkpt>
      <trkpt lat="46.71956" lon="6.35687">
        <ele>1367.9</ele>
        <time>2022-07-05T10:45:17Z</time>
      </trkpt>
      <trkpt lat="46.71954" lon="6.35682">
        <ele>1366.2</ele>
        <time>2022-07-05T10:45:24Z</time>
      </trkpt>
      <trkpt lat="46.71951" lon="6.35675">
        <ele>1365.1</ele>
        <time>2022-07-05T10:45:32Z</time>
      </trkpt>
      <trkpt lat="46.71949" lon="6.35669">
        <ele>1364.3</ele>
        <time>2022-07-05T10:45:39Z</time>
      </trkpt>
      <trkpt lat="46.71945" lon="6.35664">
        <ele>1362.5</ele>
        <time>2022-07-05T10:45:48Z</time>
      </trkpt>
      <trkpt lat="46.71943" lon="6.35658">
        <ele>1361.9</ele>
        <time>2022-07-05T10:45:56Z</time>
      </trkpt>
      <trkpt lat="46.71943" lon="6.35651">
        <ele>1361.8</ele>
        <time>2022-07-05T10:46:02Z</time>
      </trkpt>
      <trkpt lat="46.71942" lon="6.35644">
        <ele>1361.4</ele>
        <time>2022-07-05T10:46:09Z</time>
      </trkpt>
      <trkpt lat="46.71942" lon="6.35637">
        <ele>1360.7</ele>
        <time>2022-07-05T10:46:14Z</time>
      </trkpt>
      <trkpt lat="46.71946" lon="6.35632">
        <ele>1359.7</ele>
        <time>2022-07-05T10:46:20Z</time>
      </trkpt>
      <trkpt lat="46.7195" lon="6.3563">
        <ele>1358</ele>
        <time>2022-07-05T10:46:32Z</time>
      </trkpt>
      <trkpt lat="46.71945" lon="6.35624">
        <ele>1355</ele>
        <time>2022-07-05T10:47:18Z</time>
      </trkpt>
      <trkpt lat="46.71941" lon="6.35624">
        <ele>1354.6</ele>
        <time>2022-07-05T10:47:21Z</time>
      </trkpt>
      <trkpt lat="46.71935" lon="6.35623">
        <ele>1354.1</ele>
        <time>2022-07-05T10:47:25Z</time>
      </trkpt>
      <trkpt lat="46.71931" lon="6.35622">
        <ele>1353.8</ele>
        <time>2022-07-05T10:47:30Z</time>
      </trkpt>
      <trkpt lat="46.71926" lon="6.35617">
        <ele>1354</ele>
        <time>2022-07-05T10:47:36Z</time>
      </trkpt>
      <trkpt lat="46.71923" lon="6.3561">
        <ele>1354.4</ele>
        <time>2022-07-05T10:47:41Z</time>
      </trkpt>
      <trkpt lat="46.71921" lon="6.35604">
        <ele>1354.7</ele>
        <time>2022-07-05T10:47:46Z</time>
      </trkpt>
      <trkpt lat="46.71918" lon="6.35598">
        <ele>1354.5</ele>
        <time>2022-07-05T10:47:49Z</time>
      </trkpt>
      <trkpt lat="46.71916" lon="6.3559">
        <ele>1353.9</ele>
        <time>2022-07-05T10:47:53Z</time>
      </trkpt>
      <trkpt lat="46.71913" lon="6.35585">
        <ele>1352.9</ele>
        <time>2022-07-05T10:47:57Z</time>
      </trkpt>
      <trkpt lat="46.7191" lon="6.35578">
        <ele>1351.3</ele>
        <time>2022-07-05T10:48:02Z</time>
      </trkpt>
      <trkpt lat="46.71908" lon="6.35572">
        <ele>1349.5</ele>
        <time>2022-07-05T10:48:08Z</time>
      </trkpt>
      <trkpt lat="46.71905" lon="6.35566">
        <ele>1348.8</ele>
        <time>2022-07-05T10:48:14Z</time>
      </trkpt>
      <trkpt lat="46.71903" lon="6.3556">
        <ele>1348.5</ele>
        <time>2022-07-05T10:48:20Z</time>
      </trkpt>
      <trkpt lat="46.719" lon="6.35556">
        <ele>1348.9</ele>
        <time>2022-07-05T10:48:27Z</time>
      </trkpt>
      <trkpt lat="46.71898" lon="6.35549">
        <ele>1349.6</ele>
        <time>2022-07-05T10:48:46Z</time>
      </trkpt>
      <trkpt lat="46.71898" lon="6.35542">
        <ele>1350</ele>
        <time>2022-07-05T10:48:50Z</time>
      </trkpt>
      <trkpt lat="46.71899" lon="6.35536">
        <ele>1350.1</ele>
        <time>2022-07-05T10:48:57Z</time>
      </trkpt>
      <trkpt lat="46.71895" lon="6.35531">
        <ele>1348.4</ele>
        <time>2022-07-05T10:49:05Z</time>
      </trkpt>
      <trkpt lat="46.71891" lon="6.35527">
        <ele>1347.1</ele>
        <time>2022-07-05T10:49:10Z</time>
      </trkpt>
      <trkpt lat="46.71888" lon="6.35521">
        <ele>1345.9</ele>
        <time>2022-07-05T10:49:15Z</time>
      </trkpt>
      <trkpt lat="46.71884" lon="6.35517">
        <ele>1344.5</ele>
        <time>2022-07-05T10:49:20Z</time>
      </trkpt>
      <trkpt lat="46.71881" lon="6.35513">
        <ele>1343</ele>
        <time>2022-07-05T10:49:26Z</time>
      </trkpt>
      <trkpt lat="46.71879" lon="6.35507">
        <ele>1341.5</ele>
        <time>2022-07-05T10:49:33Z</time>
      </trkpt>
      <trkpt lat="46.71876" lon="6.35501">
        <ele>1341</ele>
        <time>2022-07-05T10:49:40Z</time>
      </trkpt>
      <trkpt lat="46.71873" lon="6.35496">
        <ele>1340.9</ele>
        <time>2022-07-05T10:49:46Z</time>
      </trkpt>
      <trkpt lat="46.71874" lon="6.3549">
        <ele>1340.1</ele>
        <time>2022-07-05T10:49:53Z</time>
      </trkpt>
      <trkpt lat="46.71871" lon="6.35484">
        <ele>1336.8</ele>
        <time>2022-07-05T10:50:17Z</time>
      </trkpt>
      <trkpt lat="46.71868" lon="6.35478">
        <ele>1335.8</ele>
        <time>2022-07-05T10:50:23Z</time>
      </trkpt>
      <trkpt lat="46.71865" lon="6.35472">
        <ele>1335.2</ele>
        <time>2022-07-05T10:50:31Z</time>
      </trkpt>
      <trkpt lat="46.71863" lon="6.35465">
        <ele>1334.6</ele>
        <time>2022-07-05T10:50:40Z</time>
      </trkpt>
      <trkpt lat="46.71861" lon="6.35459">
        <ele>1333.5</ele>
        <time>2022-07-05T10:50:47Z</time>
      </trkpt>
      <trkpt lat="46.71859" lon="6.35453">
        <ele>1333.3</ele>
        <time>2022-07-05T10:50:53Z</time>
      </trkpt>
      <trkpt lat="46.71856" lon="6.35448">
        <ele>1333.8</ele>
        <time>2022-07-05T10:50:58Z</time>
      </trkpt>
      <trkpt lat="46.71852" lon="6.35442">
        <ele>1334.3</ele>
        <time>2022-07-05T10:51:04Z</time>
      </trkpt>
      <trkpt lat="46.71849" lon="6.35436">
        <ele>1335.1</ele>
        <time>2022-07-05T10:51:12Z</time>
      </trkpt>
      <trkpt lat="46.71846" lon="6.35429">
        <ele>1334.6</ele>
        <time>2022-07-05T10:51:21Z</time>
      </trkpt>
      <trkpt lat="46.71844" lon="6.35423">
        <ele>1333.4</ele>
        <time>2022-07-05T10:51:29Z</time>
      </trkpt>
      <trkpt lat="46.7184" lon="6.35419">
        <ele>1332.5</ele>
        <time>2022-07-05T10:51:35Z</time>
      </trkpt>
      <trkpt lat="46.71837" lon="6.35414">
        <ele>1331.7</ele>
        <time>2022-07-05T10:51:41Z</time>
      </trkpt>
      <trkpt lat="46.71836" lon="6.35407">
        <ele>1331.1</ele>
        <time>2022-07-05T10:51:48Z</time>
      </trkpt>
      <trkpt lat="46.71833" lon="6.35402">
        <ele>1330.5</ele>
        <time>2022-07-05T10:51:54Z</time>
      </trkpt>
      <trkpt lat="46.71831" lon="6.35395">
        <ele>1329</ele>
        <time>2022-07-05T10:52:05Z</time>
      </trkpt>
      <trkpt lat="46.71827" lon="6.35391">
        <ele>1328.9</ele>
        <time>2022-07-05T10:52:35Z</time>
      </trkpt>
      <trkpt lat="46.71824" lon="6.35387">
        <ele>1329.1</ele>
        <time>2022-07-05T10:52:38Z</time>
      </trkpt>
      <trkpt lat="46.71821" lon="6.35381">
        <ele>1329.2</ele>
        <time>2022-07-05T10:52:42Z</time>
      </trkpt>
      <trkpt lat="46.7182" lon="6.35374">
        <ele>1328.9</ele>
        <time>2022-07-05T10:52:48Z</time>
      </trkpt>
      <trkpt lat="46.71819" lon="6.35384">
        <ele>1328.1</ele>
        <time>2022-07-05T10:53:12Z</time>
      </trkpt>
      <trkpt lat="46.71821" lon="6.35378">
        <ele>1328.9</ele>
        <time>2022-07-05T10:53:19Z</time>
      </trkpt>
      <trkpt lat="46.71824" lon="6.35371">
        <ele>1327.1</ele>
        <time>2022-07-05T10:53:23Z</time>
      </trkpt>
      <trkpt lat="46.71821" lon="6.35377">
        <ele>1322.4</ele>
        <time>2022-07-05T10:53:36Z</time>
      </trkpt>
      <trkpt lat="46.71824" lon="6.35371">
        <ele>1321.3</ele>
        <time>2022-07-05T10:54:01Z</time>
      </trkpt>
      <trkpt lat="46.71822" lon="6.35379">
        <ele>1324.4</ele>
        <time>2022-07-05T10:55:05Z</time>
      </trkpt>
      <trkpt lat="46.71817" lon="6.35377">
        <ele>1324.8</ele>
        <time>2022-07-05T10:55:36Z</time>
      </trkpt>
      <trkpt lat="46.71812" lon="6.35374">
        <ele>1324.8</ele>
        <time>2022-07-05T10:55:42Z</time>
      </trkpt>
      <trkpt lat="46.71807" lon="6.35372">
        <ele>1324.6</ele>
        <time>2022-07-05T10:55:50Z</time>
      </trkpt>
      <trkpt lat="46.71803" lon="6.35368">
        <ele>1324.9</ele>
        <time>2022-07-05T10:55:58Z</time>
      </trkpt>
      <trkpt lat="46.718" lon="6.35363">
        <ele>1325.1</ele>
        <time>2022-07-05T10:56:04Z</time>
      </trkpt>
      <trkpt lat="46.71796" lon="6.3536">
        <ele>1324</ele>
        <time>2022-07-05T10:56:13Z</time>
      </trkpt>
      <trkpt lat="46.71791" lon="6.35359">
        <ele>1322.4</ele>
        <time>2022-07-05T10:56:22Z</time>
      </trkpt>
      <trkpt lat="46.71786" lon="6.35357">
        <ele>1320.7</ele>
        <time>2022-07-05T10:56:27Z</time>
      </trkpt>
      <trkpt lat="46.71781" lon="6.35354">
        <ele>1319.5</ele>
        <time>2022-07-05T10:56:33Z</time>
      </trkpt>
      <trkpt lat="46.71777" lon="6.3535">
        <ele>1318.7</ele>
        <time>2022-07-05T10:56:38Z</time>
      </trkpt>
      <trkpt lat="46.71774" lon="6.35344">
        <ele>1317.3</ele>
        <time>2022-07-05T10:56:49Z</time>
      </trkpt>
      <trkpt lat="46.71773" lon="6.35336">
        <ele>1315.8</ele>
        <time>2022-07-05T10:56:55Z</time>
      </trkpt>
      <trkpt lat="46.71776" lon="6.3533">
        <ele>1314.4</ele>
        <time>2022-07-05T10:57:00Z</time>
      </trkpt>
      <trkpt lat="46.71777" lon="6.35323">
        <ele>1314.1</ele>
        <time>2022-07-05T10:57:06Z</time>
      </trkpt>
      <trkpt lat="46.71776" lon="6.35316">
        <ele>1314.7</ele>
        <time>2022-07-05T10:57:12Z</time>
      </trkpt>
      <trkpt lat="46.71776" lon="6.35308">
        <ele>1315.1</ele>
        <time>2022-07-05T10:57:17Z</time>
      </trkpt>
      <trkpt lat="46.71778" lon="6.35302">
        <ele>1315.6</ele>
        <time>2022-07-05T10:57:22Z</time>
      </trkpt>
      <trkpt lat="46.71781" lon="6.35296">
        <ele>1316.2</ele>
        <time>2022-07-05T10:57:29Z</time>
      </trkpt>
      <trkpt lat="46.71783" lon="6.3529">
        <ele>1316.4</ele>
        <time>2022-07-05T10:57:37Z</time>
      </trkpt>
      <trkpt lat="46.71786" lon="6.35285">
        <ele>1315.9</ele>
        <time>2022-07-05T10:57:43Z</time>
      </trkpt>
      <trkpt lat="46.71787" lon="6.35278">
        <ele>1315.5</ele>
        <time>2022-07-05T10:57:49Z</time>
      </trkpt>
      <trkpt lat="46.71789" lon="6.35271">
        <ele>1317.1</ele>
        <time>2022-07-05T10:57:55Z</time>
      </trkpt>
      <trkpt lat="46.71789" lon="6.35263">
        <ele>1318.6</ele>
        <time>2022-07-05T10:58:01Z</time>
      </trkpt>
      <trkpt lat="46.71789" lon="6.35256">
        <ele>1319.4</ele>
        <time>2022-07-05T10:58:07Z</time>
      </trkpt>
      <trkpt lat="46.7179" lon="6.35249">
        <ele>1319.8</ele>
        <time>2022-07-05T10:58:13Z</time>
      </trkpt>
      <trkpt lat="46.71792" lon="6.35241">
        <ele>1320.1</ele>
        <time>2022-07-05T10:58:19Z</time>
      </trkpt>
      <trkpt lat="46.71791" lon="6.35234">
        <ele>1319.8</ele>
        <time>2022-07-05T10:58:24Z</time>
      </trkpt>
      <trkpt lat="46.71792" lon="6.35228">
        <ele>1319.9</ele>
        <time>2022-07-05T10:58:30Z</time>
      </trkpt>
      <trkpt lat="46.71793" lon="6.35221">
        <ele>1319.8</ele>
        <time>2022-07-05T10:58:37Z</time>
      </trkpt>
      <trkpt lat="46.71794" lon="6.35213">
        <ele>1319.5</ele>
        <time>2022-07-05T10:58:42Z</time>
      </trkpt>
      <trkpt lat="46.71795" lon="6.35206">
        <ele>1319.1</ele>
        <time>2022-07-05T10:58:47Z</time>
      </trkpt>
      <trkpt lat="46.71797" lon="6.35199">
        <ele>1318.4</ele>
        <time>2022-07-05T10:58:53Z</time>
      </trkpt>
      <trkpt lat="46.71798" lon="6.35191">
        <ele>1317.8</ele>
        <time>2022-07-05T10:58:59Z</time>
      </trkpt>
      <trkpt lat="46.71798" lon="6.35184">
        <ele>1317.9</ele>
        <time>2022-07-05T10:59:04Z</time>
      </trkpt>
      <trkpt lat="46.71796" lon="6.35178">
        <ele>1317.2</ele>
        <time>2022-07-05T10:59:09Z</time>
      </trkpt>
      <trkpt lat="46.71794" lon="6.35172">
        <ele>1315.1</ele>
        <time>2022-07-05T10:59:15Z</time>
      </trkpt>
      <trkpt lat="46.7179" lon="6.35166">
        <ele>1312.8</ele>
        <time>2022-07-05T10:59:22Z</time>
      </trkpt>
      <trkpt lat="46.71788" lon="6.3516">
        <ele>1311.7</ele>
        <time>2022-07-05T10:59:28Z</time>
      </trkpt>
      <trkpt lat="46.71786" lon="6.35152">
        <ele>1310.9</ele>
        <time>2022-07-05T10:59:35Z</time>
      </trkpt>
      <trkpt lat="46.71784" lon="6.35145">
        <ele>1309.8</ele>
        <time>2022-07-05T10:59:40Z</time>
      </trkpt>
      <trkpt lat="46.71784" lon="6.35138">
        <ele>1306.8</ele>
        <time>2022-07-05T10:59:47Z</time>
      </trkpt>
      <trkpt lat="46.71783" lon="6.35131">
        <ele>1305</ele>
        <time>2022-07-05T10:59:52Z</time>
      </trkpt>
      <trkpt lat="46.71781" lon="6.35125">
        <ele>1304.5</ele>
        <time>2022-07-05T10:59:56Z</time>
      </trkpt>
      <trkpt lat="46.71778" lon="6.35119">
        <ele>1304.3</ele>
        <time>2022-07-05T11:00:00Z</time>
      </trkpt>
      <trkpt lat="46.71776" lon="6.35113">
        <ele>1305</ele>
        <time>2022-07-05T11:00:06Z</time>
      </trkpt>
      <trkpt lat="46.71774" lon="6.35106">
        <ele>1305.2</ele>
        <time>2022-07-05T11:00:12Z</time>
      </trkpt>
      <trkpt lat="46.71772" lon="6.351">
        <ele>1305.1</ele>
        <time>2022-07-05T11:00:18Z</time>
      </trkpt>
      <trkpt lat="46.7177" lon="6.35095">
        <ele>1304.9</ele>
        <time>2022-07-05T11:00:22Z</time>
      </trkpt>
      <trkpt lat="46.71768" lon="6.35088">
        <ele>1304.7</ele>
        <time>2022-07-05T11:00:27Z</time>
      </trkpt>
      <trkpt lat="46.71765" lon="6.35081">
        <ele>1304.9</ele>
        <time>2022-07-05T11:00:32Z</time>
      </trkpt>
      <trkpt lat="46.71763" lon="6.35075">
        <ele>1305.1</ele>
        <time>2022-07-05T11:00:37Z</time>
      </trkpt>
      <trkpt lat="46.7176" lon="6.35069">
        <ele>1304.3</ele>
        <time>2022-07-05T11:00:43Z</time>
      </trkpt>
      <trkpt lat="46.71756" lon="6.35064">
        <ele>1303.6</ele>
        <time>2022-07-05T11:00:48Z</time>
      </trkpt>
      <trkpt lat="46.71753" lon="6.3506">
        <ele>1303.4</ele>
        <time>2022-07-05T11:00:53Z</time>
      </trkpt>
      <trkpt lat="46.71748" lon="6.35056">
        <ele>1303.3</ele>
        <time>2022-07-05T11:00:58Z</time>
      </trkpt>
      <trkpt lat="46.71745" lon="6.35051">
        <ele>1303.4</ele>
        <time>2022-07-05T11:01:02Z</time>
      </trkpt>
      <trkpt lat="46.71741" lon="6.35046">
        <ele>1304.3</ele>
        <time>2022-07-05T11:01:09Z</time>
      </trkpt>
      <trkpt lat="46.71737" lon="6.35042">
        <ele>1304.3</ele>
        <time>2022-07-05T11:01:15Z</time>
      </trkpt>
      <trkpt lat="46.71733" lon="6.35037">
        <ele>1304</ele>
        <time>2022-07-05T11:01:20Z</time>
      </trkpt>
      <trkpt lat="46.71729" lon="6.35033">
        <ele>1303.5</ele>
        <time>2022-07-05T11:01:25Z</time>
      </trkpt>
      <trkpt lat="46.71726" lon="6.35027">
        <ele>1303</ele>
        <time>2022-07-05T11:01:30Z</time>
      </trkpt>
      <trkpt lat="46.71722" lon="6.3502">
        <ele>1302.9</ele>
        <time>2022-07-05T11:01:35Z</time>
      </trkpt>
      <trkpt lat="46.71719" lon="6.35014">
        <ele>1303.1</ele>
        <time>2022-07-05T11:01:39Z</time>
      </trkpt>
      <trkpt lat="46.71716" lon="6.35008">
        <ele>1303.5</ele>
        <time>2022-07-05T11:01:43Z</time>
      </trkpt>
      <trkpt lat="46.71713" lon="6.35002">
        <ele>1304.2</ele>
        <time>2022-07-05T11:01:47Z</time>
      </trkpt>
      <trkpt lat="46.71711" lon="6.34997">
        <ele>1304.7</ele>
        <time>2022-07-05T11:01:52Z</time>
      </trkpt>
      <trkpt lat="46.71708" lon="6.3499">
        <ele>1304.1</ele>
        <time>2022-07-05T11:01:59Z</time>
      </trkpt>
      <trkpt lat="46.71705" lon="6.34983">
        <ele>1303.8</ele>
        <time>2022-07-05T11:02:05Z</time>
      </trkpt>
      <trkpt lat="46.71704" lon="6.34976">
        <ele>1304.2</ele>
        <time>2022-07-05T11:02:10Z</time>
      </trkpt>
      <trkpt lat="46.71703" lon="6.3497">
        <ele>1304.6</ele>
        <time>2022-07-05T11:02:16Z</time>
      </trkpt>
      <trkpt lat="46.717" lon="6.34963">
        <ele>1304.8</ele>
        <time>2022-07-05T11:02:21Z</time>
      </trkpt>
      <trkpt lat="46.71696" lon="6.34957">
        <ele>1305.8</ele>
        <time>2022-07-05T11:02:25Z</time>
      </trkpt>
      <trkpt lat="46.71694" lon="6.3495">
        <ele>1306.7</ele>
        <time>2022-07-05T11:02:30Z</time>
      </trkpt>
      <trkpt lat="46.71692" lon="6.34944">
        <ele>1307.1</ele>
        <time>2022-07-05T11:02:35Z</time>
      </trkpt>
      <trkpt lat="46.71691" lon="6.34938">
        <ele>1307.9</ele>
        <time>2022-07-05T11:02:40Z</time>
      </trkpt>
      <trkpt lat="46.71691" lon="6.34931">
        <ele>1308.6</ele>
        <time>2022-07-05T11:02:45Z</time>
      </trkpt>
      <trkpt lat="46.71689" lon="6.34925">
        <ele>1309.3</ele>
        <time>2022-07-05T11:02:49Z</time>
      </trkpt>
      <trkpt lat="46.71685" lon="6.34919">
        <ele>1309.5</ele>
        <time>2022-07-05T11:02:54Z</time>
      </trkpt>
      <trkpt lat="46.71682" lon="6.34912">
        <ele>1308.4</ele>
        <time>2022-07-05T11:03:01Z</time>
      </trkpt>
      <trkpt lat="46.71681" lon="6.34905">
        <ele>1307.4</ele>
        <time>2022-07-05T11:03:07Z</time>
      </trkpt>
      <trkpt lat="46.7168" lon="6.34898">
        <ele>1305.8</ele>
        <time>2022-07-05T11:03:11Z</time>
      </trkpt>
      <trkpt lat="46.71676" lon="6.34893">
        <ele>1304.5</ele>
        <time>2022-07-05T11:03:16Z</time>
      </trkpt>
      <trkpt lat="46.71673" lon="6.34888">
        <ele>1302.9</ele>
        <time>2022-07-05T11:03:22Z</time>
      </trkpt>
      <trkpt lat="46.71671" lon="6.34882">
        <ele>1302.6</ele>
        <time>2022-07-05T11:03:27Z</time>
      </trkpt>
      <trkpt lat="46.71667" lon="6.34876">
        <ele>1302.7</ele>
        <time>2022-07-05T11:03:32Z</time>
      </trkpt>
      <trkpt lat="46.71664" lon="6.3487">
        <ele>1302.7</ele>
        <time>2022-07-05T11:03:37Z</time>
      </trkpt>
      <trkpt lat="46.7166" lon="6.34865">
        <ele>1302.5</ele>
        <time>2022-07-05T11:03:42Z</time>
      </trkpt>
      <trkpt lat="46.71657" lon="6.34859">
        <ele>1302</ele>
        <time>2022-07-05T11:03:47Z</time>
      </trkpt>
      <trkpt lat="46.71654" lon="6.34854">
        <ele>1301</ele>
        <time>2022-07-05T11:03:54Z</time>
      </trkpt>
      <trkpt lat="46.71652" lon="6.34848">
        <ele>1299.8</ele>
        <time>2022-07-05T11:03:59Z</time>
      </trkpt>
      <trkpt lat="46.71649" lon="6.34841">
        <ele>1298.7</ele>
        <time>2022-07-05T11:04:05Z</time>
      </trkpt>
      <trkpt lat="46.71646" lon="6.34836">
        <ele>1297.6</ele>
        <time>2022-07-05T11:04:10Z</time>
      </trkpt>
      <trkpt lat="46.71643" lon="6.3483">
        <ele>1296.5</ele>
        <time>2022-07-05T11:04:15Z</time>
      </trkpt>
      <trkpt lat="46.7164" lon="6.34823">
        <ele>1295.5</ele>
        <time>2022-07-05T11:04:20Z</time>
      </trkpt>
      <trkpt lat="46.71637" lon="6.34818">
        <ele>1294.4</ele>
        <time>2022-07-05T11:04:25Z</time>
      </trkpt>
      <trkpt lat="46.71633" lon="6.34812">
        <ele>1293.4</ele>
        <time>2022-07-05T11:04:30Z</time>
      </trkpt>
      <trkpt lat="46.71631" lon="6.34806">
        <ele>1292.6</ele>
        <time>2022-07-05T11:04:34Z</time>
      </trkpt>
      <trkpt lat="46.71629" lon="6.34799">
        <ele>1292.3</ele>
        <time>2022-07-05T11:04:40Z</time>
      </trkpt>
      <trkpt lat="46.71627" lon="6.34793">
        <ele>1292.4</ele>
        <time>2022-07-05T11:04:46Z</time>
      </trkpt>
      <trkpt lat="46.71626" lon="6.34785">
        <ele>1292.5</ele>
        <time>2022-07-05T11:04:53Z</time>
      </trkpt>
      <trkpt lat="46.71626" lon="6.34777">
        <ele>1292.4</ele>
        <time>2022-07-05T11:04:58Z</time>
      </trkpt>
      <trkpt lat="46.71625" lon="6.3477">
        <ele>1293</ele>
        <time>2022-07-05T11:05:02Z</time>
      </trkpt>
      <trkpt lat="46.71625" lon="6.34764">
        <ele>1293.6</ele>
        <time>2022-07-05T11:05:06Z</time>
      </trkpt>
      <trkpt lat="46.71623" lon="6.34758">
        <ele>1294.4</ele>
        <time>2022-07-05T11:05:10Z</time>
      </trkpt>
      <trkpt lat="46.71621" lon="6.34751">
        <ele>1295.3</ele>
        <time>2022-07-05T11:05:14Z</time>
      </trkpt>
      <trkpt lat="46.71619" lon="6.34745">
        <ele>1295.7</ele>
        <time>2022-07-05T11:05:20Z</time>
      </trkpt>
      <trkpt lat="46.71617" lon="6.34737">
        <ele>1295.9</ele>
        <time>2022-07-05T11:05:25Z</time>
      </trkpt>
      <trkpt lat="46.71616" lon="6.3473">
        <ele>1296</ele>
        <time>2022-07-05T11:05:30Z</time>
      </trkpt>
      <trkpt lat="46.71614" lon="6.34723">
        <ele>1295.8</ele>
        <time>2022-07-05T11:05:35Z</time>
      </trkpt>
      <trkpt lat="46.71613" lon="6.34717">
        <ele>1295.4</ele>
        <time>2022-07-05T11:05:40Z</time>
      </trkpt>
      <trkpt lat="46.71612" lon="6.3471">
        <ele>1294.6</ele>
        <time>2022-07-05T11:05:46Z</time>
      </trkpt>
      <trkpt lat="46.7161" lon="6.34703">
        <ele>1293</ele>
        <time>2022-07-05T11:05:52Z</time>
      </trkpt>
      <trkpt lat="46.71608" lon="6.34695">
        <ele>1291.6</ele>
        <time>2022-07-05T11:05:58Z</time>
      </trkpt>
      <trkpt lat="46.71607" lon="6.34689">
        <ele>1291</ele>
        <time>2022-07-05T11:06:03Z</time>
      </trkpt>
      <trkpt lat="46.71606" lon="6.34681">
        <ele>1290.3</ele>
        <time>2022-07-05T11:06:09Z</time>
      </trkpt>
      <trkpt lat="46.71605" lon="6.34673">
        <ele>1290</ele>
        <time>2022-07-05T11:06:14Z</time>
      </trkpt>
      <trkpt lat="46.71602" lon="6.34668">
        <ele>1290</ele>
        <time>2022-07-05T11:06:18Z</time>
      </trkpt>
      <trkpt lat="46.71601" lon="6.3466">
        <ele>1289.6</ele>
        <time>2022-07-05T11:06:23Z</time>
      </trkpt>
      <trkpt lat="46.716" lon="6.34654">
        <ele>1288.5</ele>
        <time>2022-07-05T11:06:28Z</time>
      </trkpt>
      <trkpt lat="46.71599" lon="6.34647">
        <ele>1286.9</ele>
        <time>2022-07-05T11:06:34Z</time>
      </trkpt>
      <trkpt lat="46.71598" lon="6.34639">
        <ele>1286.1</ele>
        <time>2022-07-05T11:06:38Z</time>
      </trkpt>
      <trkpt lat="46.71596" lon="6.34632">
        <ele>1285.9</ele>
        <time>2022-07-05T11:06:43Z</time>
      </trkpt>
      <trkpt lat="46.71595" lon="6.34624">
        <ele>1284.7</ele>
        <time>2022-07-05T11:06:51Z</time>
      </trkpt>
      <trkpt lat="46.71593" lon="6.34618">
        <ele>1284</ele>
        <time>2022-07-05T11:06:56Z</time>
      </trkpt>
      <trkpt lat="46.71593" lon="6.3461">
        <ele>1283.4</ele>
        <time>2022-07-05T11:07:01Z</time>
      </trkpt>
      <trkpt lat="46.71592" lon="6.34602">
        <ele>1283.7</ele>
        <time>2022-07-05T11:07:06Z</time>
      </trkpt>
      <trkpt lat="46.7159" lon="6.34595">
        <ele>1283.1</ele>
        <time>2022-07-05T11:07:11Z</time>
      </trkpt>
      <trkpt lat="46.71589" lon="6.34588">
        <ele>1282</ele>
        <time>2022-07-05T11:07:16Z</time>
      </trkpt>
      <trkpt lat="46.71589" lon="6.34581">
        <ele>1280.6</ele>
        <time>2022-07-05T11:07:22Z</time>
      </trkpt>
      <trkpt lat="46.71589" lon="6.34573">
        <ele>1279.6</ele>
        <time>2022-07-05T11:07:27Z</time>
      </trkpt>
      <trkpt lat="46.71587" lon="6.34566">
        <ele>1279</ele>
        <time>2022-07-05T11:07:32Z</time>
      </trkpt>
      <trkpt lat="46.71586" lon="6.34559">
        <ele>1278</ele>
        <time>2022-07-05T11:07:38Z</time>
      </trkpt>
      <trkpt lat="46.71584" lon="6.34553">
        <ele>1277.5</ele>
        <time>2022-07-05T11:07:43Z</time>
      </trkpt>
      <trkpt lat="46.71582" lon="6.34545">
        <ele>1277.1</ele>
        <time>2022-07-05T11:07:48Z</time>
      </trkpt>
      <trkpt lat="46.7158" lon="6.34539">
        <ele>1277.1</ele>
        <time>2022-07-05T11:07:52Z</time>
      </trkpt>
      <trkpt lat="46.71578" lon="6.34533">
        <ele>1276.9</ele>
        <time>2022-07-05T11:07:56Z</time>
      </trkpt>
      <trkpt lat="46.71577" lon="6.34526">
        <ele>1277.1</ele>
        <time>2022-07-05T11:08:01Z</time>
      </trkpt>
      <trkpt lat="46.71575" lon="6.34519">
        <ele>1277.1</ele>
        <time>2022-07-05T11:08:06Z</time>
      </trkpt>
      <trkpt lat="46.71573" lon="6.34513">
        <ele>1276.8</ele>
        <time>2022-07-05T11:08:12Z</time>
      </trkpt>
      <trkpt lat="46.71571" lon="6.34507">
        <ele>1275.8</ele>
        <time>2022-07-05T11:08:18Z</time>
      </trkpt>
      <trkpt lat="46.71569" lon="6.345">
        <ele>1274.5</ele>
        <time>2022-07-05T11:08:24Z</time>
      </trkpt>
      <trkpt lat="46.71568" lon="6.34493">
        <ele>1272.7</ele>
        <time>2022-07-05T11:08:32Z</time>
      </trkpt>
      <trkpt lat="46.71567" lon="6.34485">
        <ele>1271.3</ele>
        <time>2022-07-05T11:08:37Z</time>
      </trkpt>
      <trkpt lat="46.71565" lon="6.34479">
        <ele>1269.9</ele>
        <time>2022-07-05T11:08:42Z</time>
      </trkpt>
      <trkpt lat="46.71565" lon="6.34472">
        <ele>1268.8</ele>
        <time>2022-07-05T11:08:47Z</time>
      </trkpt>
      <trkpt lat="46.71567" lon="6.34465">
        <ele>1268.3</ele>
        <time>2022-07-05T11:08:51Z</time>
      </trkpt>
      <trkpt lat="46.71568" lon="6.34458">
        <ele>1267.9</ele>
        <time>2022-07-05T11:08:55Z</time>
      </trkpt>
      <trkpt lat="46.71568" lon="6.3445">
        <ele>1267.6</ele>
        <time>2022-07-05T11:09:00Z</time>
      </trkpt>
      <trkpt lat="46.71568" lon="6.34443">
        <ele>1267.5</ele>
        <time>2022-07-05T11:09:04Z</time>
      </trkpt>
      <trkpt lat="46.71568" lon="6.34435">
        <ele>1267.9</ele>
        <time>2022-07-05T11:09:07Z</time>
      </trkpt>
      <trkpt lat="46.71567" lon="6.34428">
        <ele>1268.7</ele>
        <time>2022-07-05T11:09:11Z</time>
      </trkpt>
      <trkpt lat="46.71568" lon="6.34421">
        <ele>1269.4</ele>
        <time>2022-07-05T11:09:15Z</time>
      </trkpt>
      <trkpt lat="46.71568" lon="6.34413">
        <ele>1270.8</ele>
        <time>2022-07-05T11:09:20Z</time>
      </trkpt>
      <trkpt lat="46.71569" lon="6.34407">
        <ele>1271.8</ele>
        <time>2022-07-05T11:09:25Z</time>
      </trkpt>
      <trkpt lat="46.7157" lon="6.34399">
        <ele>1271.7</ele>
        <time>2022-07-05T11:09:31Z</time>
      </trkpt>
      <trkpt lat="46.71571" lon="6.34392">
        <ele>1271.8</ele>
        <time>2022-07-05T11:09:35Z</time>
      </trkpt>
      <trkpt lat="46.71568" lon="6.34387">
        <ele>1270.9</ele>
        <time>2022-07-05T11:09:41Z</time>
      </trkpt>
      <trkpt lat="46.71566" lon="6.34381">
        <ele>1270.2</ele>
        <time>2022-07-05T11:09:47Z</time>
      </trkpt>
      <trkpt lat="46.71563" lon="6.34375">
        <ele>1270.1</ele>
        <time>2022-07-05T11:09:52Z</time>
      </trkpt>
      <trkpt lat="46.7156" lon="6.34368">
        <ele>1268.5</ele>
        <time>2022-07-05T11:09:58Z</time>
      </trkpt>
      <trkpt lat="46.71558" lon="6.34362">
        <ele>1267.6</ele>
        <time>2022-07-05T11:10:02Z</time>
      </trkpt>
      <trkpt lat="46.71555" lon="6.34357">
        <ele>1267.3</ele>
        <time>2022-07-05T11:10:06Z</time>
      </trkpt>
      <trkpt lat="46.7155" lon="6.34352">
        <ele>1267.3</ele>
        <time>2022-07-05T11:10:11Z</time>
      </trkpt>
      <trkpt lat="46.71547" lon="6.34347">
        <ele>1267.8</ele>
        <time>2022-07-05T11:10:15Z</time>
      </trkpt>
      <trkpt lat="46.71544" lon="6.34341">
        <ele>1268.5</ele>
        <time>2022-07-05T11:10:20Z</time>
      </trkpt>
      <trkpt lat="46.71541" lon="6.34335">
        <ele>1269.3</ele>
        <time>2022-07-05T11:10:26Z</time>
      </trkpt>
      <trkpt lat="46.71538" lon="6.3433">
        <ele>1269.6</ele>
        <time>2022-07-05T11:10:30Z</time>
      </trkpt>
      <trkpt lat="46.71535" lon="6.34323">
        <ele>1269.2</ele>
        <time>2022-07-05T11:10:36Z</time>
      </trkpt>
      <trkpt lat="46.71532" lon="6.34316">
        <ele>1267.4</ele>
        <time>2022-07-05T11:10:41Z</time>
      </trkpt>
      <trkpt lat="46.71531" lon="6.3431">
        <ele>1266.8</ele>
        <time>2022-07-05T11:10:46Z</time>
      </trkpt>
      <trkpt lat="46.71531" lon="6.34303">
        <ele>1266.2</ele>
        <time>2022-07-05T11:10:52Z</time>
      </trkpt>
      <trkpt lat="46.71532" lon="6.34296">
        <ele>1264.8</ele>
        <time>2022-07-05T11:10:57Z</time>
      </trkpt>
      <trkpt lat="46.7153" lon="6.34289">
        <ele>1263.6</ele>
        <time>2022-07-05T11:11:02Z</time>
      </trkpt>
      <trkpt lat="46.7153" lon="6.34282">
        <ele>1263.3</ele>
        <time>2022-07-05T11:11:09Z</time>
      </trkpt>
      <trkpt lat="46.71531" lon="6.34274">
        <ele>1262.2</ele>
        <time>2022-07-05T11:11:16Z</time>
      </trkpt>
      <trkpt lat="46.71531" lon="6.34266">
        <ele>1261.5</ele>
        <time>2022-07-05T11:11:20Z</time>
      </trkpt>
      <trkpt lat="46.71531" lon="6.34259">
        <ele>1261.5</ele>
        <time>2022-07-05T11:11:25Z</time>
      </trkpt>
      <trkpt lat="46.71528" lon="6.34254">
        <ele>1259.9</ele>
        <time>2022-07-05T11:11:40Z</time>
      </trkpt>
      <trkpt lat="46.71523" lon="6.34253">
        <ele>1257</ele>
        <time>2022-07-05T11:11:48Z</time>
      </trkpt>
      <trkpt lat="46.71518" lon="6.3425">
        <ele>1254.6</ele>
        <time>2022-07-05T11:11:55Z</time>
      </trkpt>
      <trkpt lat="46.71514" lon="6.34247">
        <ele>1253.3</ele>
        <time>2022-07-05T11:12:00Z</time>
      </trkpt>
      <trkpt lat="46.7151" lon="6.34245">
        <ele>1252.1</ele>
        <time>2022-07-05T11:12:05Z</time>
      </trkpt>
      <trkpt lat="46.71505" lon="6.34244">
        <ele>1249.9</ele>
        <time>2022-07-05T11:12:11Z</time>
      </trkpt>
      <trkpt lat="46.715" lon="6.3424">
        <ele>1246.3</ele>
        <time>2022-07-05T11:12:19Z</time>
      </trkpt>
      <trkpt lat="46.71496" lon="6.34237">
        <ele>1245.2</ele>
        <time>2022-07-05T11:12:23Z</time>
      </trkpt>
      <trkpt lat="46.71491" lon="6.34235">
        <ele>1244.4</ele>
        <time>2022-07-05T11:12:27Z</time>
      </trkpt>
      <trkpt lat="46.71487" lon="6.3423">
        <ele>1242.6</ele>
        <time>2022-07-05T11:13:09Z</time>
      </trkpt>
      <trkpt lat="46.71485" lon="6.34224">
        <ele>1243.2</ele>
        <time>2022-07-05T11:13:14Z</time>
      </trkpt>
      <trkpt lat="46.71482" lon="6.34218">
        <ele>1243.6</ele>
        <time>2022-07-05T11:13:20Z</time>
      </trkpt>
      <trkpt lat="46.7148" lon="6.34211">
        <ele>1243.9</ele>
        <time>2022-07-05T11:13:26Z</time>
      </trkpt>
      <trkpt lat="46.71479" lon="6.34204">
        <ele>1243.4</ele>
        <time>2022-07-05T11:13:33Z</time>
      </trkpt>
      <trkpt lat="46.71476" lon="6.34198">
        <ele>1242.7</ele>
        <time>2022-07-05T11:13:37Z</time>
      </trkpt>
      <trkpt lat="46.71474" lon="6.34192">
        <ele>1241.7</ele>
        <time>2022-07-05T11:13:42Z</time>
      </trkpt>
      <trkpt lat="46.71472" lon="6.34184">
        <ele>1240.6</ele>
        <time>2022-07-05T11:13:48Z</time>
      </trkpt>
      <trkpt lat="46.71471" lon="6.34178">
        <ele>1239</ele>
        <time>2022-07-05T11:13:54Z</time>
      </trkpt>
      <trkpt lat="46.71469" lon="6.34171">
        <ele>1238.3</ele>
        <time>2022-07-05T11:14:00Z</time>
      </trkpt>
      <trkpt lat="46.71468" lon="6.34164">
        <ele>1238.3</ele>
        <time>2022-07-05T11:14:06Z</time>
      </trkpt>
      <trkpt lat="46.71467" lon="6.34156">
        <ele>1238.6</ele>
        <time>2022-07-05T11:14:10Z</time>
      </trkpt>
      <trkpt lat="46.71466" lon="6.34149">
        <ele>1238.8</ele>
        <time>2022-07-05T11:14:14Z</time>
      </trkpt>
      <trkpt lat="46.71465" lon="6.34141">
        <ele>1238.8</ele>
        <time>2022-07-05T11:14:19Z</time>
      </trkpt>
      <trkpt lat="46.71464" lon="6.34134">
        <ele>1239.2</ele>
        <time>2022-07-05T11:14:25Z</time>
      </trkpt>
      <trkpt lat="46.71463" lon="6.34127">
        <ele>1240</ele>
        <time>2022-07-05T11:14:31Z</time>
      </trkpt>
      <trkpt lat="46.71461" lon="6.34121">
        <ele>1240.2</ele>
        <time>2022-07-05T11:14:36Z</time>
      </trkpt>
      <trkpt lat="46.71461" lon="6.34113">
        <ele>1239.4</ele>
        <time>2022-07-05T11:14:42Z</time>
      </trkpt>
      <trkpt lat="46.7146" lon="6.34106">
        <ele>1238.8</ele>
        <time>2022-07-05T11:14:47Z</time>
      </trkpt>
      <trkpt lat="46.71457" lon="6.341">
        <ele>1237.4</ele>
        <time>2022-07-05T11:14:55Z</time>
      </trkpt>
      <trkpt lat="46.71455" lon="6.34093">
        <ele>1236.6</ele>
        <time>2022-07-05T11:15:01Z</time>
      </trkpt>
      <trkpt lat="46.71453" lon="6.34087">
        <ele>1235.4</ele>
        <time>2022-07-05T11:15:07Z</time>
      </trkpt>
      <trkpt lat="46.71451" lon="6.3408">
        <ele>1234.2</ele>
        <time>2022-07-05T11:15:12Z</time>
      </trkpt>
      <trkpt lat="46.71449" lon="6.34073">
        <ele>1232.6</ele>
        <time>2022-07-05T11:15:18Z</time>
      </trkpt>
      <trkpt lat="46.71448" lon="6.34067">
        <ele>1230.8</ele>
        <time>2022-07-05T11:15:24Z</time>
      </trkpt>
      <trkpt lat="46.71448" lon="6.3406">
        <ele>1229.3</ele>
        <time>2022-07-05T11:15:29Z</time>
      </trkpt>
      <trkpt lat="46.71447" lon="6.34052">
        <ele>1228.2</ele>
        <time>2022-07-05T11:15:34Z</time>
      </trkpt>
      <trkpt lat="46.71445" lon="6.34045">
        <ele>1227.2</ele>
        <time>2022-07-05T11:15:39Z</time>
      </trkpt>
      <trkpt lat="46.71443" lon="6.34038">
        <ele>1226.6</ele>
        <time>2022-07-05T11:15:44Z</time>
      </trkpt>
      <trkpt lat="46.71442" lon="6.34031">
        <ele>1225.6</ele>
        <time>2022-07-05T11:15:50Z</time>
      </trkpt>
      <trkpt lat="46.7144" lon="6.34024">
        <ele>1224.4</ele>
        <time>2022-07-05T11:15:58Z</time>
      </trkpt>
      <trkpt lat="46.71439" lon="6.34016">
        <ele>1222.6</ele>
        <time>2022-07-05T11:16:04Z</time>
      </trkpt>
      <trkpt lat="46.71438" lon="6.34008">
        <ele>1220.9</ele>
        <time>2022-07-05T11:16:10Z</time>
      </trkpt>
      <trkpt lat="46.71437" lon="6.34001">
        <ele>1220</ele>
        <time>2022-07-05T11:16:15Z</time>
      </trkpt>
      <trkpt lat="46.71436" lon="6.33994">
        <ele>1219.5</ele>
        <time>2022-07-05T11:16:20Z</time>
      </trkpt>
      <trkpt lat="46.71436" lon="6.33986">
        <ele>1218.9</ele>
        <time>2022-07-05T11:16:25Z</time>
      </trkpt>
      <trkpt lat="46.71436" lon="6.33978">
        <ele>1218.2</ele>
        <time>2022-07-05T11:16:30Z</time>
      </trkpt>
      <trkpt lat="46.71436" lon="6.33971">
        <ele>1217.5</ele>
        <time>2022-07-05T11:16:35Z</time>
      </trkpt>
      <trkpt lat="46.71436" lon="6.33965">
        <ele>1216.8</ele>
        <time>2022-07-05T11:16:40Z</time>
      </trkpt>
      <trkpt lat="46.71434" lon="6.33959">
        <ele>1216.2</ele>
        <time>2022-07-05T11:16:48Z</time>
      </trkpt>
      <trkpt lat="46.71433" lon="6.33952">
        <ele>1214.7</ele>
        <time>2022-07-05T11:16:58Z</time>
      </trkpt>
      <trkpt lat="46.71433" lon="6.33945">
        <ele>1213.1</ele>
        <time>2022-07-05T11:17:11Z</time>
      </trkpt>
      <trkpt lat="46.71432" lon="6.33938">
        <ele>1212.9</ele>
        <time>2022-07-05T11:17:19Z</time>
      </trkpt>
      <trkpt lat="46.7143" lon="6.33931">
        <ele>1212.8</ele>
        <time>2022-07-05T11:17:24Z</time>
      </trkpt>
      <trkpt lat="46.71429" lon="6.33925">
        <ele>1213</ele>
        <time>2022-07-05T11:17:30Z</time>
      </trkpt>
      <trkpt lat="46.71427" lon="6.33919">
        <ele>1212.6</ele>
        <time>2022-07-05T11:17:35Z</time>
      </trkpt>
      <trkpt lat="46.71424" lon="6.33912">
        <ele>1211.9</ele>
        <time>2022-07-05T11:17:41Z</time>
      </trkpt>
      <trkpt lat="46.71422" lon="6.33907">
        <ele>1210.1</ele>
        <time>2022-07-05T11:17:47Z</time>
      </trkpt>
      <trkpt lat="46.7142" lon="6.339">
        <ele>1208.6</ele>
        <time>2022-07-05T11:17:52Z</time>
      </trkpt>
      <trkpt lat="46.71419" lon="6.33893">
        <ele>1208.2</ele>
        <time>2022-07-05T11:17:57Z</time>
      </trkpt>
      <trkpt lat="46.71416" lon="6.33886">
        <ele>1208.3</ele>
        <time>2022-07-05T11:18:02Z</time>
      </trkpt>
      <trkpt lat="46.71415" lon="6.33879">
        <ele>1208.6</ele>
        <time>2022-07-05T11:18:07Z</time>
      </trkpt>
      <trkpt lat="46.71415" lon="6.33873">
        <ele>1208.8</ele>
        <time>2022-07-05T11:18:11Z</time>
      </trkpt>
      <trkpt lat="46.71414" lon="6.33865">
        <ele>1208.6</ele>
        <time>2022-07-05T11:18:17Z</time>
      </trkpt>
      <trkpt lat="46.71414" lon="6.33859">
        <ele>1208.1</ele>
        <time>2022-07-05T11:18:22Z</time>
      </trkpt>
      <trkpt lat="46.71413" lon="6.33852">
        <ele>1207.3</ele>
        <time>2022-07-05T11:18:26Z</time>
      </trkpt>
      <trkpt lat="46.71412" lon="6.33844">
        <ele>1206.5</ele>
        <time>2022-07-05T11:18:31Z</time>
      </trkpt>
      <trkpt lat="46.71412" lon="6.33837">
        <ele>1204.9</ele>
        <time>2022-07-05T11:18:38Z</time>
      </trkpt>
      <trkpt lat="46.71413" lon="6.3383">
        <ele>1203.4</ele>
        <time>2022-07-05T11:18:44Z</time>
      </trkpt>
      <trkpt lat="46.71412" lon="6.33823">
        <ele>1202.7</ele>
        <time>2022-07-05T11:18:49Z</time>
      </trkpt>
      <trkpt lat="46.71411" lon="6.33815">
        <ele>1202.5</ele>
        <time>2022-07-05T11:18:54Z</time>
      </trkpt>
      <trkpt lat="46.71411" lon="6.33808">
        <ele>1202.6</ele>
        <time>2022-07-05T11:18:59Z</time>
      </trkpt>
      <trkpt lat="46.7141" lon="6.33801">
        <ele>1202.3</ele>
        <time>2022-07-05T11:19:04Z</time>
      </trkpt>
      <trkpt lat="46.71411" lon="6.33794">
        <ele>1201.5</ele>
        <time>2022-07-05T11:19:09Z</time>
      </trkpt>
      <trkpt lat="46.71411" lon="6.33787">
        <ele>1200.7</ele>
        <time>2022-07-05T11:19:14Z</time>
      </trkpt>
      <trkpt lat="46.71412" lon="6.33779">
        <ele>1200.3</ele>
        <time>2022-07-05T11:19:20Z</time>
      </trkpt>
      <trkpt lat="46.71412" lon="6.33773">
        <ele>1199.5</ele>
        <time>2022-07-05T11:19:26Z</time>
      </trkpt>
      <trkpt lat="46.71413" lon="6.33766">
        <ele>1198.1</ele>
        <time>2022-07-05T11:19:32Z</time>
      </trkpt>
      <trkpt lat="46.71414" lon="6.33759">
        <ele>1195.9</ele>
        <time>2022-07-05T11:19:38Z</time>
      </trkpt>
      <trkpt lat="46.71415" lon="6.33752">
        <ele>1194.3</ele>
        <time>2022-07-05T11:19:43Z</time>
      </trkpt>
      <trkpt lat="46.71416" lon="6.33745">
        <ele>1193.7</ele>
        <time>2022-07-05T11:19:47Z</time>
      </trkpt>
      <trkpt lat="46.71417" lon="6.33737">
        <ele>1193.7</ele>
        <time>2022-07-05T11:19:52Z</time>
      </trkpt>
      <trkpt lat="46.71418" lon="6.33731">
        <ele>1193.8</ele>
        <time>2022-07-05T11:19:57Z</time>
      </trkpt>
      <trkpt lat="46.71418" lon="6.33723">
        <ele>1194.1</ele>
        <time>2022-07-05T11:20:03Z</time>
      </trkpt>
      <trkpt lat="46.71419" lon="6.33716">
        <ele>1193.9</ele>
        <time>2022-07-05T11:20:08Z</time>
      </trkpt>
      <trkpt lat="46.71419" lon="6.33709">
        <ele>1193.3</ele>
        <time>2022-07-05T11:20:13Z</time>
      </trkpt>
      <trkpt lat="46.71419" lon="6.33702">
        <ele>1192.8</ele>
        <time>2022-07-05T11:20:19Z</time>
      </trkpt>
      <trkpt lat="46.7142" lon="6.33696">
        <ele>1192.6</ele>
        <time>2022-07-05T11:20:23Z</time>
      </trkpt>
      <trkpt lat="46.71422" lon="6.33689">
        <ele>1192.7</ele>
        <time>2022-07-05T11:20:28Z</time>
      </trkpt>
      <trkpt lat="46.71423" lon="6.33681">
        <ele>1192.9</ele>
        <time>2022-07-05T11:20:33Z</time>
      </trkpt>
      <trkpt lat="46.71422" lon="6.33674">
        <ele>1193.2</ele>
        <time>2022-07-05T11:20:38Z</time>
      </trkpt>
      <trkpt lat="46.71421" lon="6.33666">
        <ele>1194.1</ele>
        <time>2022-07-05T11:20:43Z</time>
      </trkpt>
      <trkpt lat="46.7142" lon="6.33659">
        <ele>1194.9</ele>
        <time>2022-07-05T11:20:48Z</time>
      </trkpt>
      <trkpt lat="46.7142" lon="6.33652">
        <ele>1195.4</ele>
        <time>2022-07-05T11:20:54Z</time>
      </trkpt>
      <trkpt lat="46.71418" lon="6.33645">
        <ele>1195</ele>
        <time>2022-07-05T11:20:59Z</time>
      </trkpt>
      <trkpt lat="46.71417" lon="6.33639">
        <ele>1194.1</ele>
        <time>2022-07-05T11:21:06Z</time>
      </trkpt>
      <trkpt lat="46.71415" lon="6.33632">
        <ele>1193.2</ele>
        <time>2022-07-05T11:21:11Z</time>
      </trkpt>
      <trkpt lat="46.71414" lon="6.33626">
        <ele>1192.3</ele>
        <time>2022-07-05T11:21:16Z</time>
      </trkpt>
      <trkpt lat="46.71411" lon="6.3362">
        <ele>1191.7</ele>
        <time>2022-07-05T11:21:22Z</time>
      </trkpt>
      <trkpt lat="46.71409" lon="6.33614">
        <ele>1190.8</ele>
        <time>2022-07-05T11:21:27Z</time>
      </trkpt>
      <trkpt lat="46.71407" lon="6.33608">
        <ele>1189.8</ele>
        <time>2022-07-05T11:21:32Z</time>
      </trkpt>
      <trkpt lat="46.71405" lon="6.33602">
        <ele>1188.8</ele>
        <time>2022-07-05T11:21:37Z</time>
      </trkpt>
      <trkpt lat="46.71403" lon="6.33595">
        <ele>1187.8</ele>
        <time>2022-07-05T11:21:43Z</time>
      </trkpt>
      <trkpt lat="46.71401" lon="6.33589">
        <ele>1187.4</ele>
        <time>2022-07-05T11:21:48Z</time>
      </trkpt>
      <trkpt lat="46.714" lon="6.33582">
        <ele>1186.8</ele>
        <time>2022-07-05T11:21:54Z</time>
      </trkpt>
      <trkpt lat="46.71398" lon="6.33574">
        <ele>1186</ele>
        <time>2022-07-05T11:22:01Z</time>
      </trkpt>
      <trkpt lat="46.71397" lon="6.33568">
        <ele>1185.4</ele>
        <time>2022-07-05T11:22:07Z</time>
      </trkpt>
      <trkpt lat="46.71393" lon="6.33563">
        <ele>1184.9</ele>
        <time>2022-07-05T11:22:12Z</time>
      </trkpt>
      <trkpt lat="46.71388" lon="6.33559">
        <ele>1184.5</ele>
        <time>2022-07-05T11:22:17Z</time>
      </trkpt>
      <trkpt lat="46.71387" lon="6.33552">
        <ele>1184.1</ele>
        <time>2022-07-05T11:22:23Z</time>
      </trkpt>
      <trkpt lat="46.71384" lon="6.33547">
        <ele>1183.9</ele>
        <time>2022-07-05T11:22:28Z</time>
      </trkpt>
      <trkpt lat="46.7138" lon="6.33541">
        <ele>1183.5</ele>
        <time>2022-07-05T11:22:33Z</time>
      </trkpt>
      <trkpt lat="46.71377" lon="6.33537">
        <ele>1182.9</ele>
        <time>2022-07-05T11:22:37Z</time>
      </trkpt>
      <trkpt lat="46.71373" lon="6.33532">
        <ele>1182.3</ele>
        <time>2022-07-05T11:22:42Z</time>
      </trkpt>
      <trkpt lat="46.71371" lon="6.33526">
        <ele>1181.6</ele>
        <time>2022-07-05T11:22:46Z</time>
      </trkpt>
      <trkpt lat="46.71368" lon="6.33519">
        <ele>1180.8</ele>
        <time>2022-07-05T11:22:51Z</time>
      </trkpt>
      <trkpt lat="46.71365" lon="6.33514">
        <ele>1180.2</ele>
        <time>2022-07-05T11:22:56Z</time>
      </trkpt>
      <trkpt lat="46.71361" lon="6.33508">
        <ele>1179.6</ele>
        <time>2022-07-05T11:23:01Z</time>
      </trkpt>
      <trkpt lat="46.71358" lon="6.33503">
        <ele>1179</ele>
        <time>2022-07-05T11:23:06Z</time>
      </trkpt>
      <trkpt lat="46.71354" lon="6.33498">
        <ele>1178.2</ele>
        <time>2022-07-05T11:23:12Z</time>
      </trkpt>
      <trkpt lat="46.7135" lon="6.33493">
        <ele>1177.7</ele>
        <time>2022-07-05T11:23:17Z</time>
      </trkpt>
      <trkpt lat="46.71346" lon="6.33487">
        <ele>1177.4</ele>
        <time>2022-07-05T11:23:22Z</time>
      </trkpt>
      <trkpt lat="46.71342" lon="6.33482">
        <ele>1176.8</ele>
        <time>2022-07-05T11:23:27Z</time>
      </trkpt>
      <trkpt lat="46.71338" lon="6.33477">
        <ele>1175.8</ele>
        <time>2022-07-05T11:23:33Z</time>
      </trkpt>
      <trkpt lat="46.71335" lon="6.33473">
        <ele>1174.7</ele>
        <time>2022-07-05T11:23:38Z</time>
      </trkpt>
      <trkpt lat="46.71331" lon="6.33468">
        <ele>1173.6</ele>
        <time>2022-07-05T11:23:44Z</time>
      </trkpt>
      <trkpt lat="46.71327" lon="6.33464">
        <ele>1173.4</ele>
        <time>2022-07-05T11:23:49Z</time>
      </trkpt>
      <trkpt lat="46.71323" lon="6.33459">
        <ele>1173.5</ele>
        <time>2022-07-05T11:23:54Z</time>
      </trkpt>
      <trkpt lat="46.71319" lon="6.33454">
        <ele>1173.2</ele>
        <time>2022-07-05T11:23:59Z</time>
      </trkpt>
      <trkpt lat="46.71316" lon="6.33448">
        <ele>1172.2</ele>
        <time>2022-07-05T11:24:05Z</time>
      </trkpt>
      <trkpt lat="46.71311" lon="6.33443">
        <ele>1171.2</ele>
        <time>2022-07-05T11:24:11Z</time>
      </trkpt>
      <trkpt lat="46.71308" lon="6.33439">
        <ele>1170.5</ele>
        <time>2022-07-05T11:24:17Z</time>
      </trkpt>
      <trkpt lat="46.71304" lon="6.33434">
        <ele>1169.6</ele>
        <time>2022-07-05T11:24:24Z</time>
      </trkpt>
      <trkpt lat="46.713" lon="6.3343">
        <ele>1169.2</ele>
        <time>2022-07-05T11:24:29Z</time>
      </trkpt>
      <trkpt lat="46.71297" lon="6.33424">
        <ele>1168.9</ele>
        <time>2022-07-05T11:24:34Z</time>
      </trkpt>
      <trkpt lat="46.71294" lon="6.33419">
        <ele>1168.8</ele>
        <time>2022-07-05T11:24:39Z</time>
      </trkpt>
      <trkpt lat="46.71291" lon="6.33414">
        <ele>1168.3</ele>
        <time>2022-07-05T11:24:44Z</time>
      </trkpt>
      <trkpt lat="46.71287" lon="6.33409">
        <ele>1167.7</ele>
        <time>2022-07-05T11:24:49Z</time>
      </trkpt>
      <trkpt lat="46.71282" lon="6.33404">
        <ele>1167.3</ele>
        <time>2022-07-05T11:24:54Z</time>
      </trkpt>
      <trkpt lat="46.71279" lon="6.33401">
        <ele>1166.9</ele>
        <time>2022-07-05T11:24:58Z</time>
      </trkpt>
      <trkpt lat="46.71275" lon="6.33397">
        <ele>1166</ele>
        <time>2022-07-05T11:25:03Z</time>
      </trkpt>
      <trkpt lat="46.71271" lon="6.33392">
        <ele>1164.9</ele>
        <time>2022-07-05T11:25:08Z</time>
      </trkpt>
      <trkpt lat="46.71268" lon="6.33388">
        <ele>1163.7</ele>
        <time>2022-07-05T11:25:13Z</time>
      </trkpt>
      <trkpt lat="46.71263" lon="6.33384">
        <ele>1162.7</ele>
        <time>2022-07-05T11:25:18Z</time>
      </trkpt>
      <trkpt lat="46.71259" lon="6.3338">
        <ele>1162.3</ele>
        <time>2022-07-05T11:25:23Z</time>
      </trkpt>
      <trkpt lat="46.71256" lon="6.33375">
        <ele>1161.9</ele>
        <time>2022-07-05T11:25:29Z</time>
      </trkpt>
      <trkpt lat="46.71252" lon="6.3337">
        <ele>1161.6</ele>
        <time>2022-07-05T11:25:35Z</time>
      </trkpt>
      <trkpt lat="46.71248" lon="6.33366">
        <ele>1161.5</ele>
        <time>2022-07-05T11:25:40Z</time>
      </trkpt>
      <trkpt lat="46.71244" lon="6.33361">
        <ele>1161.6</ele>
        <time>2022-07-05T11:25:46Z</time>
      </trkpt>
      <trkpt lat="46.7124" lon="6.33357">
        <ele>1161.9</ele>
        <time>2022-07-05T11:25:51Z</time>
      </trkpt>
      <trkpt lat="46.71235" lon="6.33353">
        <ele>1162.2</ele>
        <time>2022-07-05T11:25:56Z</time>
      </trkpt>
      <trkpt lat="46.71231" lon="6.33349">
        <ele>1162.3</ele>
        <time>2022-07-05T11:26:02Z</time>
      </trkpt>
      <trkpt lat="46.71227" lon="6.33344">
        <ele>1161.9</ele>
        <time>2022-07-05T11:26:08Z</time>
      </trkpt>
      <trkpt lat="46.71223" lon="6.33339">
        <ele>1161.2</ele>
        <time>2022-07-05T11:26:14Z</time>
      </trkpt>
      <trkpt lat="46.71218" lon="6.33336">
        <ele>1160.2</ele>
        <time>2022-07-05T11:26:20Z</time>
      </trkpt>
      <trkpt lat="46.71214" lon="6.33333">
        <ele>1159</ele>
        <time>2022-07-05T11:26:25Z</time>
      </trkpt>
      <trkpt lat="46.71209" lon="6.3333">
        <ele>1158</ele>
        <time>2022-07-05T11:26:30Z</time>
      </trkpt>
      <trkpt lat="46.71204" lon="6.33328">
        <ele>1157.1</ele>
        <time>2022-07-05T11:26:35Z</time>
      </trkpt>
      <trkpt lat="46.71199" lon="6.33328">
        <ele>1155.3</ele>
        <time>2022-07-05T11:26:41Z</time>
      </trkpt>
      <trkpt lat="46.71194" lon="6.33326">
        <ele>1153.3</ele>
        <time>2022-07-05T11:26:48Z</time>
      </trkpt>
      <trkpt lat="46.71189" lon="6.33325">
        <ele>1152.2</ele>
        <time>2022-07-05T11:26:53Z</time>
      </trkpt>
      <trkpt lat="46.71184" lon="6.33324">
        <ele>1151.1</ele>
        <time>2022-07-05T11:26:58Z</time>
      </trkpt>
      <trkpt lat="46.7118" lon="6.33323">
        <ele>1150.2</ele>
        <time>2022-07-05T11:27:03Z</time>
      </trkpt>
      <trkpt lat="46.71174" lon="6.33323">
        <ele>1149.4</ele>
        <time>2022-07-05T11:27:08Z</time>
      </trkpt>
      <trkpt lat="46.71169" lon="6.33322">
        <ele>1149.1</ele>
        <time>2022-07-05T11:27:12Z</time>
      </trkpt>
      <trkpt lat="46.71164" lon="6.33323">
        <ele>1149</ele>
        <time>2022-07-05T11:27:17Z</time>
      </trkpt>
      <trkpt lat="46.71159" lon="6.33322">
        <ele>1148.9</ele>
        <time>2022-07-05T11:27:22Z</time>
      </trkpt>
      <trkpt lat="46.71154" lon="6.3332">
        <ele>1148.5</ele>
        <time>2022-07-05T11:27:27Z</time>
      </trkpt>
      <trkpt lat="46.7115" lon="6.33318">
        <ele>1148.2</ele>
        <time>2022-07-05T11:27:32Z</time>
      </trkpt>
      <trkpt lat="46.71145" lon="6.33315">
        <ele>1148</ele>
        <time>2022-07-05T11:27:37Z</time>
      </trkpt>
      <trkpt lat="46.71141" lon="6.3331">
        <ele>1148</ele>
        <time>2022-07-05T11:27:42Z</time>
      </trkpt>
      <trkpt lat="46.71137" lon="6.33305">
        <ele>1147.6</ele>
        <time>2022-07-05T11:27:47Z</time>
      </trkpt>
      <trkpt lat="46.71133" lon="6.33302">
        <ele>1146.8</ele>
        <time>2022-07-05T11:27:53Z</time>
      </trkpt>
      <trkpt lat="46.71129" lon="6.33299">
        <ele>1146.3</ele>
        <time>2022-07-05T11:28:03Z</time>
      </trkpt>
      <trkpt lat="46.71131" lon="6.33293">
        <ele>1147.4</ele>
        <time>2022-07-05T11:28:19Z</time>
      </trkpt>
      <trkpt lat="46.71133" lon="6.33286">
        <ele>1146.6</ele>
        <time>2022-07-05T11:28:25Z</time>
      </trkpt>
      <trkpt lat="46.71134" lon="6.33279">
        <ele>1145.8</ele>
        <time>2022-07-05T11:28:30Z</time>
      </trkpt>
      <trkpt lat="46.71137" lon="6.33273">
        <ele>1144.9</ele>
        <time>2022-07-05T11:28:35Z</time>
      </trkpt>
      <trkpt lat="46.71139" lon="6.33265">
        <ele>1145.1</ele>
        <time>2022-07-05T11:28:39Z</time>
      </trkpt>
      <trkpt lat="46.71141" lon="6.33259">
        <ele>1145.8</ele>
        <time>2022-07-05T11:28:44Z</time>
      </trkpt>
      <trkpt lat="46.71141" lon="6.33252">
        <ele>1146.6</ele>
        <time>2022-07-05T11:28:49Z</time>
      </trkpt>
      <trkpt lat="46.71142" lon="6.33243">
        <ele>1147.7</ele>
        <time>2022-07-05T11:28:53Z</time>
      </trkpt>
      <trkpt lat="46.71143" lon="6.33236">
        <ele>1149</ele>
        <time>2022-07-05T11:28:57Z</time>
      </trkpt>
      <trkpt lat="46.71145" lon="6.33229">
        <ele>1149.2</ele>
        <time>2022-07-05T11:29:03Z</time>
      </trkpt>
      <trkpt lat="46.71146" lon="6.33222">
        <ele>1148.7</ele>
        <time>2022-07-05T11:29:08Z</time>
      </trkpt>
      <trkpt lat="46.71147" lon="6.33214">
        <ele>1148.2</ele>
        <time>2022-07-05T11:29:13Z</time>
      </trkpt>
      <trkpt lat="46.71146" lon="6.33208">
        <ele>1148.3</ele>
        <time>2022-07-05T11:29:18Z</time>
      </trkpt>
      <trkpt lat="46.71145" lon="6.332">
        <ele>1148.6</ele>
        <time>2022-07-05T11:29:23Z</time>
      </trkpt>
      <trkpt lat="46.71145" lon="6.33192">
        <ele>1149.3</ele>
        <time>2022-07-05T11:29:27Z</time>
      </trkpt>
      <trkpt lat="46.71145" lon="6.33184">
        <ele>1150.3</ele>
        <time>2022-07-05T11:29:32Z</time>
      </trkpt>
      <trkpt lat="46.71144" lon="6.33177">
        <ele>1151.8</ele>
        <time>2022-07-05T11:29:37Z</time>
      </trkpt>
      <trkpt lat="46.71143" lon="6.3317">
        <ele>1153</ele>
        <time>2022-07-05T11:29:41Z</time>
      </trkpt>
      <trkpt lat="46.71142" lon="6.33163">
        <ele>1153.8</ele>
        <time>2022-07-05T11:29:46Z</time>
      </trkpt>
      <trkpt lat="46.71139" lon="6.33157">
        <ele>1154.7</ele>
        <time>2022-07-05T11:29:52Z</time>
      </trkpt>
      <trkpt lat="46.71136" lon="6.33151">
        <ele>1155.2</ele>
        <time>2022-07-05T11:29:57Z</time>
      </trkpt>
      <trkpt lat="46.71133" lon="6.33145">
        <ele>1154.7</ele>
        <time>2022-07-05T11:30:02Z</time>
      </trkpt>
      <trkpt lat="46.7113" lon="6.33139">
        <ele>1154.1</ele>
        <time>2022-07-05T11:30:07Z</time>
      </trkpt>
      <trkpt lat="46.71127" lon="6.33133">
        <ele>1153.7</ele>
        <time>2022-07-05T11:30:11Z</time>
      </trkpt>
      <trkpt lat="46.71123" lon="6.33127">
        <ele>1153.6</ele>
        <time>2022-07-05T11:30:15Z</time>
      </trkpt>
      <trkpt lat="46.71121" lon="6.33121">
        <ele>1153.2</ele>
        <time>2022-07-05T11:30:20Z</time>
      </trkpt>
      <trkpt lat="46.71118" lon="6.33115">
        <ele>1152.9</ele>
        <time>2022-07-05T11:30:25Z</time>
      </trkpt>
      <trkpt lat="46.71115" lon="6.33108">
        <ele>1152.9</ele>
        <time>2022-07-05T11:30:30Z</time>
      </trkpt>
      <trkpt lat="46.71113" lon="6.33101">
        <ele>1153.3</ele>
        <time>2022-07-05T11:30:35Z</time>
      </trkpt>
      <trkpt lat="46.71111" lon="6.33094">
        <ele>1153.5</ele>
        <time>2022-07-05T11:30:41Z</time>
      </trkpt>
      <trkpt lat="46.71109" lon="6.33088">
        <ele>1153.4</ele>
        <time>2022-07-05T11:30:46Z</time>
      </trkpt>
      <trkpt lat="46.71107" lon="6.3308">
        <ele>1152.9</ele>
        <time>2022-07-05T11:30:51Z</time>
      </trkpt>
      <trkpt lat="46.71105" lon="6.33073">
        <ele>1152.6</ele>
        <time>2022-07-05T11:30:56Z</time>
      </trkpt>
      <trkpt lat="46.71104" lon="6.33066">
        <ele>1152.6</ele>
        <time>2022-07-05T11:31:00Z</time>
      </trkpt>
      <trkpt lat="46.71102" lon="6.33059">
        <ele>1152.5</ele>
        <time>2022-07-05T11:31:04Z</time>
      </trkpt>
      <trkpt lat="46.71101" lon="6.33052">
        <ele>1152.7</ele>
        <time>2022-07-05T11:31:09Z</time>
      </trkpt>
      <trkpt lat="46.711" lon="6.33044">
        <ele>1152.8</ele>
        <time>2022-07-05T11:31:14Z</time>
      </trkpt>
      <trkpt lat="46.71099" lon="6.33037">
        <ele>1153</ele>
        <time>2022-07-05T11:31:19Z</time>
      </trkpt>
      <trkpt lat="46.71098" lon="6.3303">
        <ele>1153</ele>
        <time>2022-07-05T11:31:24Z</time>
      </trkpt>
      <trkpt lat="46.71097" lon="6.33024">
        <ele>1152.8</ele>
        <time>2022-07-05T11:31:28Z</time>
      </trkpt>
      <trkpt lat="46.71096" lon="6.33017">
        <ele>1152.8</ele>
        <time>2022-07-05T11:31:33Z</time>
      </trkpt>
      <trkpt lat="46.71096" lon="6.33011">
        <ele>1153.4</ele>
        <time>2022-07-05T11:31:38Z</time>
      </trkpt>
      <trkpt lat="46.71094" lon="6.33004">
        <ele>1154.5</ele>
        <time>2022-07-05T11:31:43Z</time>
      </trkpt>
      <trkpt lat="46.71093" lon="6.32997">
        <ele>1154.4</ele>
        <time>2022-07-05T11:31:49Z</time>
      </trkpt>
      <trkpt lat="46.71092" lon="6.3299">
        <ele>1154.2</ele>
        <time>2022-07-05T11:31:53Z</time>
      </trkpt>
      <trkpt lat="46.71091" lon="6.32984">
        <ele>1154.5</ele>
        <time>2022-07-05T11:31:57Z</time>
      </trkpt>
      <trkpt lat="46.7109" lon="6.32976">
        <ele>1154.9</ele>
        <time>2022-07-05T11:32:02Z</time>
      </trkpt>
      <trkpt lat="46.71088" lon="6.32968">
        <ele>1155.4</ele>
        <time>2022-07-05T11:32:07Z</time>
      </trkpt>
      <trkpt lat="46.71087" lon="6.32961">
        <ele>1156.3</ele>
        <time>2022-07-05T11:32:12Z</time>
      </trkpt>
      <trkpt lat="46.71085" lon="6.32954">
        <ele>1156.9</ele>
        <time>2022-07-05T11:32:17Z</time>
      </trkpt>
      <trkpt lat="46.71084" lon="6.32947">
        <ele>1156.8</ele>
        <time>2022-07-05T11:32:22Z</time>
      </trkpt>
      <trkpt lat="46.71082" lon="6.3294">
        <ele>1156.5</ele>
        <time>2022-07-05T11:32:28Z</time>
      </trkpt>
      <trkpt lat="46.7108" lon="6.32933">
        <ele>1156.5</ele>
        <time>2022-07-05T11:32:33Z</time>
      </trkpt>
      <trkpt lat="46.71077" lon="6.32927">
        <ele>1157</ele>
        <time>2022-07-05T11:32:37Z</time>
      </trkpt>
      <trkpt lat="46.71075" lon="6.32921">
        <ele>1157.4</ele>
        <time>2022-07-05T11:32:42Z</time>
      </trkpt>
      <trkpt lat="46.71072" lon="6.32915">
        <ele>1157.5</ele>
        <time>2022-07-05T11:32:46Z</time>
      </trkpt>
      <trkpt lat="46.7107" lon="6.32908">
        <ele>1157.6</ele>
        <time>2022-07-05T11:32:51Z</time>
      </trkpt>
      <trkpt lat="46.71067" lon="6.32902">
        <ele>1158.1</ele>
        <time>2022-07-05T11:32:56Z</time>
      </trkpt>
      <trkpt lat="46.71065" lon="6.32896">
        <ele>1158.8</ele>
        <time>2022-07-05T11:33:01Z</time>
      </trkpt>
      <trkpt lat="46.71062" lon="6.32891">
        <ele>1159.2</ele>
        <time>2022-07-05T11:33:06Z</time>
      </trkpt>
      <trkpt lat="46.71059" lon="6.32886">
        <ele>1159.4</ele>
        <time>2022-07-05T11:33:12Z</time>
      </trkpt>
      <trkpt lat="46.71056" lon="6.3288">
        <ele>1159.6</ele>
        <time>2022-07-05T11:33:17Z</time>
      </trkpt>
      <trkpt lat="46.71053" lon="6.32874">
        <ele>1160</ele>
        <time>2022-07-05T11:33:21Z</time>
      </trkpt>
      <trkpt lat="46.7105" lon="6.32867">
        <ele>1160.4</ele>
        <time>2022-07-05T11:33:25Z</time>
      </trkpt>
      <trkpt lat="46.71048" lon="6.32861">
        <ele>1160.4</ele>
        <time>2022-07-05T11:33:31Z</time>
      </trkpt>
      <trkpt lat="46.71045" lon="6.32854">
        <ele>1160.3</ele>
        <time>2022-07-05T11:33:36Z</time>
      </trkpt>
      <trkpt lat="46.71042" lon="6.32849">
        <ele>1160.1</ele>
        <time>2022-07-05T11:33:40Z</time>
      </trkpt>
      <trkpt lat="46.71039" lon="6.32842">
        <ele>1160.1</ele>
        <time>2022-07-05T11:33:44Z</time>
      </trkpt>
      <trkpt lat="46.71036" lon="6.32837">
        <ele>1160</ele>
        <time>2022-07-05T11:33:48Z</time>
      </trkpt>
      <trkpt lat="46.71033" lon="6.32831">
        <ele>1160</ele>
        <time>2022-07-05T11:33:52Z</time>
      </trkpt>
      <trkpt lat="46.7103" lon="6.32825">
        <ele>1160.1</ele>
        <time>2022-07-05T11:33:57Z</time>
      </trkpt>
      <trkpt lat="46.71027" lon="6.3282">
        <ele>1160.2</ele>
        <time>2022-07-05T11:34:02Z</time>
      </trkpt>
      <trkpt lat="46.71023" lon="6.32814">
        <ele>1160.2</ele>
        <time>2022-07-05T11:34:07Z</time>
      </trkpt>
      <trkpt lat="46.7102" lon="6.32809">
        <ele>1160.6</ele>
        <time>2022-07-05T11:34:11Z</time>
      </trkpt>
      <trkpt lat="46.71017" lon="6.32804">
        <ele>1161.1</ele>
        <time>2022-07-05T11:34:15Z</time>
      </trkpt>
      <trkpt lat="46.71013" lon="6.32798">
        <ele>1161.4</ele>
        <time>2022-07-05T11:34:20Z</time>
      </trkpt>
      <trkpt lat="46.7101" lon="6.32792">
        <ele>1161.9</ele>
        <time>2022-07-05T11:34:25Z</time>
      </trkpt>
      <trkpt lat="46.71007" lon="6.32788">
        <ele>1162.6</ele>
        <time>2022-07-05T11:34:30Z</time>
      </trkpt>
      <trkpt lat="46.71003" lon="6.32783">
        <ele>1162.8</ele>
        <time>2022-07-05T11:34:35Z</time>
      </trkpt>
      <trkpt lat="46.70998" lon="6.32779">
        <ele>1162.6</ele>
        <time>2022-07-05T11:34:41Z</time>
      </trkpt>
      <trkpt lat="46.70995" lon="6.32772">
        <ele>1162.2</ele>
        <time>2022-07-05T11:34:46Z</time>
      </trkpt>
      <trkpt lat="46.70993" lon="6.32766">
        <ele>1161.6</ele>
        <time>2022-07-05T11:34:50Z</time>
      </trkpt>
      <trkpt lat="46.70989" lon="6.32761">
        <ele>1162.1</ele>
        <time>2022-07-05T11:34:54Z</time>
      </trkpt>
      <trkpt lat="46.70988" lon="6.32754">
        <ele>1161.9</ele>
        <time>2022-07-05T11:35:00Z</time>
      </trkpt>
      <trkpt lat="46.70987" lon="6.32747">
        <ele>1161.1</ele>
        <time>2022-07-05T11:35:05Z</time>
      </trkpt>
      <trkpt lat="46.70987" lon="6.3274">
        <ele>1160.6</ele>
        <time>2022-07-05T11:35:09Z</time>
      </trkpt>
      <trkpt lat="46.70987" lon="6.32733">
        <ele>1159.7</ele>
        <time>2022-07-05T11:35:13Z</time>
      </trkpt>
      <trkpt lat="46.70988" lon="6.32727">
        <ele>1159.2</ele>
        <time>2022-07-05T11:35:17Z</time>
      </trkpt>
      <trkpt lat="46.70988" lon="6.32719">
        <ele>1158.9</ele>
        <time>2022-07-05T11:35:21Z</time>
      </trkpt>
      <trkpt lat="46.70988" lon="6.32712">
        <ele>1158.9</ele>
        <time>2022-07-05T11:35:25Z</time>
      </trkpt>
      <trkpt lat="46.70988" lon="6.32705">
        <ele>1159</ele>
        <time>2022-07-05T11:35:29Z</time>
      </trkpt>
      <trkpt lat="46.70987" lon="6.32697">
        <ele>1160</ele>
        <time>2022-07-05T11:35:34Z</time>
      </trkpt>
      <trkpt lat="46.70988" lon="6.32689">
        <ele>1161.2</ele>
        <time>2022-07-05T11:35:39Z</time>
      </trkpt>
      <trkpt lat="46.70989" lon="6.32681">
        <ele>1161.8</ele>
        <time>2022-07-05T11:35:44Z</time>
      </trkpt>
      <trkpt lat="46.70989" lon="6.32675">
        <ele>1162</ele>
        <time>2022-07-05T11:35:48Z</time>
      </trkpt>
      <trkpt lat="46.70989" lon="6.32668">
        <ele>1162.5</ele>
        <time>2022-07-05T11:35:52Z</time>
      </trkpt>
      <trkpt lat="46.7099" lon="6.32661">
        <ele>1163</ele>
        <time>2022-07-05T11:35:57Z</time>
      </trkpt>
      <trkpt lat="46.70991" lon="6.32654">
        <ele>1163</ele>
        <time>2022-07-05T11:36:02Z</time>
      </trkpt>
      <trkpt lat="46.70992" lon="6.32647">
        <ele>1163.4</ele>
        <time>2022-07-05T11:36:07Z</time>
      </trkpt>
      <trkpt lat="46.70992" lon="6.32641">
        <ele>1164.1</ele>
        <time>2022-07-05T11:36:11Z</time>
      </trkpt>
      <trkpt lat="46.70995" lon="6.32635">
        <ele>1164.7</ele>
        <time>2022-07-05T11:36:15Z</time>
      </trkpt>
      <trkpt lat="46.70996" lon="6.32627">
        <ele>1165.4</ele>
        <time>2022-07-05T11:36:21Z</time>
      </trkpt>
      <trkpt lat="46.70997" lon="6.3262">
        <ele>1165.2</ele>
        <time>2022-07-05T11:36:30Z</time>
      </trkpt>
      <trkpt lat="46.70998" lon="6.32614">
        <ele>1165.3</ele>
        <time>2022-07-05T11:36:36Z</time>
      </trkpt>
      <trkpt lat="46.70999" lon="6.32606">
        <ele>1165.3</ele>
        <time>2022-07-05T11:36:41Z</time>
      </trkpt>
      <trkpt lat="46.70999" lon="6.326">
        <ele>1165.5</ele>
        <time>2022-07-05T11:36:45Z</time>
      </trkpt>
      <trkpt lat="46.71" lon="6.32593">
        <ele>1165.8</ele>
        <time>2022-07-05T11:36:49Z</time>
      </trkpt>
      <trkpt lat="46.71" lon="6.32586">
        <ele>1166.2</ele>
        <time>2022-07-05T11:36:53Z</time>
      </trkpt>
      <trkpt lat="46.71" lon="6.32579">
        <ele>1167.1</ele>
        <time>2022-07-05T11:36:58Z</time>
      </trkpt>
      <trkpt lat="46.71001" lon="6.32572">
        <ele>1168</ele>
        <time>2022-07-05T11:37:03Z</time>
      </trkpt>
      <trkpt lat="46.71001" lon="6.32565">
        <ele>1168.7</ele>
        <time>2022-07-05T11:37:07Z</time>
      </trkpt>
      <trkpt lat="46.71002" lon="6.32558">
        <ele>1169.1</ele>
        <time>2022-07-05T11:37:11Z</time>
      </trkpt>
      <trkpt lat="46.71003" lon="6.32551">
        <ele>1169.6</ele>
        <time>2022-07-05T11:37:15Z</time>
      </trkpt>
      <trkpt lat="46.71003" lon="6.32543">
        <ele>1170.3</ele>
        <time>2022-07-05T11:37:20Z</time>
      </trkpt>
      <trkpt lat="46.71003" lon="6.32536">
        <ele>1171.3</ele>
        <time>2022-07-05T11:37:24Z</time>
      </trkpt>
      <trkpt lat="46.71003" lon="6.32529">
        <ele>1172.5</ele>
        <time>2022-07-05T11:37:29Z</time>
      </trkpt>
      <trkpt lat="46.71004" lon="6.32522">
        <ele>1172.8</ele>
        <time>2022-07-05T11:37:34Z</time>
      </trkpt>
      <trkpt lat="46.71006" lon="6.32515">
        <ele>1172</ele>
        <time>2022-07-05T11:37:40Z</time>
      </trkpt>
      <trkpt lat="46.71006" lon="6.32508">
        <ele>1171.4</ele>
        <time>2022-07-05T11:37:45Z</time>
      </trkpt>
      <trkpt lat="46.71007" lon="6.325">
        <ele>1171.4</ele>
        <time>2022-07-05T11:37:50Z</time>
      </trkpt>
      <trkpt lat="46.71008" lon="6.32494">
        <ele>1171.8</ele>
        <time>2022-07-05T11:37:54Z</time>
      </trkpt>
      <trkpt lat="46.71009" lon="6.32487">
        <ele>1171.9</ele>
        <time>2022-07-05T11:37:58Z</time>
      </trkpt>
      <trkpt lat="46.71009" lon="6.3248">
        <ele>1172.4</ele>
        <time>2022-07-05T11:38:02Z</time>
      </trkpt>
      <trkpt lat="46.71009" lon="6.32473">
        <ele>1173</ele>
        <time>2022-07-05T11:38:07Z</time>
      </trkpt>
      <trkpt lat="46.71013" lon="6.32468">
        <ele>1172.6</ele>
        <time>2022-07-05T11:38:16Z</time>
      </trkpt>
      <trkpt lat="46.71012" lon="6.32461">
        <ele>1172.4</ele>
        <time>2022-07-05T11:38:22Z</time>
      </trkpt>
      <trkpt lat="46.71012" lon="6.32455">
        <ele>1172.4</ele>
        <time>2022-07-05T11:38:27Z</time>
      </trkpt>
      <trkpt lat="46.71011" lon="6.32448">
        <ele>1172.5</ele>
        <time>2022-07-05T11:38:31Z</time>
      </trkpt>
      <trkpt lat="46.7101" lon="6.32441">
        <ele>1172.4</ele>
        <time>2022-07-05T11:38:36Z</time>
      </trkpt>
      <trkpt lat="46.71008" lon="6.32434">
        <ele>1172.3</ele>
        <time>2022-07-05T11:38:41Z</time>
      </trkpt>
      <trkpt lat="46.71007" lon="6.32428">
        <ele>1173</ele>
        <time>2022-07-05T11:38:45Z</time>
      </trkpt>
      <trkpt lat="46.71005" lon="6.32422">
        <ele>1174.3</ele>
        <time>2022-07-05T11:38:49Z</time>
      </trkpt>
      <trkpt lat="46.71004" lon="6.32415">
        <ele>1175.8</ele>
        <time>2022-07-05T11:38:54Z</time>
      </trkpt>
      <trkpt lat="46.71004" lon="6.32408">
        <ele>1176.9</ele>
        <time>2022-07-05T11:38:59Z</time>
      </trkpt>
      <trkpt lat="46.71004" lon="6.32401">
        <ele>1177.6</ele>
        <time>2022-07-05T11:39:04Z</time>
      </trkpt>
      <trkpt lat="46.71004" lon="6.32394">
        <ele>1178.2</ele>
        <time>2022-07-05T11:39:09Z</time>
      </trkpt>
      <trkpt lat="46.71004" lon="6.32386">
        <ele>1178.3</ele>
        <time>2022-07-05T11:39:14Z</time>
      </trkpt>
      <trkpt lat="46.71006" lon="6.32379">
        <ele>1178.6</ele>
        <time>2022-07-05T11:39:19Z</time>
      </trkpt>
      <trkpt lat="46.71008" lon="6.32372">
        <ele>1178.5</ele>
        <time>2022-07-05T11:39:25Z</time>
      </trkpt>
      <trkpt lat="46.7101" lon="6.32365">
        <ele>1178.2</ele>
        <time>2022-07-05T11:39:30Z</time>
      </trkpt>
      <trkpt lat="46.71013" lon="6.32359">
        <ele>1177.9</ele>
        <time>2022-07-05T11:39:35Z</time>
      </trkpt>
      <trkpt lat="46.71015" lon="6.32353">
        <ele>1177.6</ele>
        <time>2022-07-05T11:39:40Z</time>
      </trkpt>
      <trkpt lat="46.71018" lon="6.32347">
        <ele>1177.6</ele>
        <time>2022-07-05T11:39:45Z</time>
      </trkpt>
      <trkpt lat="46.7102" lon="6.32341">
        <ele>1177.6</ele>
        <time>2022-07-05T11:39:50Z</time>
      </trkpt>
      <trkpt lat="46.71024" lon="6.32338">
        <ele>1177.3</ele>
        <time>2022-07-05T11:39:54Z</time>
      </trkpt>
      <trkpt lat="46.71027" lon="6.32331">
        <ele>1177.1</ele>
        <time>2022-07-05T11:39:59Z</time>
      </trkpt>
      <trkpt lat="46.71029" lon="6.32325">
        <ele>1176.8</ele>
        <time>2022-07-05T11:40:03Z</time>
      </trkpt>
      <trkpt lat="46.71032" lon="6.32319">
        <ele>1176</ele>
        <time>2022-07-05T11:40:08Z</time>
      </trkpt>
      <trkpt lat="46.71032" lon="6.32311">
        <ele>1175.1</ele>
        <time>2022-07-05T11:40:13Z</time>
      </trkpt>
      <trkpt lat="46.71031" lon="6.32304">
        <ele>1174.8</ele>
        <time>2022-07-05T11:40:16Z</time>
      </trkpt>
      <trkpt lat="46.7103" lon="6.32297">
        <ele>1174.6</ele>
        <time>2022-07-05T11:40:20Z</time>
      </trkpt>
      <trkpt lat="46.71031" lon="6.32289">
        <ele>1174.4</ele>
        <time>2022-07-05T11:40:25Z</time>
      </trkpt>
      <trkpt lat="46.71032" lon="6.32282">
        <ele>1174.1</ele>
        <time>2022-07-05T11:40:30Z</time>
      </trkpt>
      <trkpt lat="46.71033" lon="6.32275">
        <ele>1174.4</ele>
        <time>2022-07-05T11:40:35Z</time>
      </trkpt>
      <trkpt lat="46.71036" lon="6.32269">
        <ele>1174.9</ele>
        <time>2022-07-05T11:40:40Z</time>
      </trkpt>
      <trkpt lat="46.71039" lon="6.32262">
        <ele>1175.1</ele>
        <time>2022-07-05T11:40:45Z</time>
      </trkpt>
      <trkpt lat="46.71042" lon="6.32257">
        <ele>1175.4</ele>
        <time>2022-07-05T11:40:50Z</time>
      </trkpt>
      <trkpt lat="46.71046" lon="6.32252">
        <ele>1175.9</ele>
        <time>2022-07-05T11:40:55Z</time>
      </trkpt>
      <trkpt lat="46.7105" lon="6.32248">
        <ele>1176.3</ele>
        <time>2022-07-05T11:41:00Z</time>
      </trkpt>
      <trkpt lat="46.71054" lon="6.32242">
        <ele>1176.7</ele>
        <time>2022-07-05T11:41:05Z</time>
      </trkpt>
      <trkpt lat="46.71057" lon="6.32236">
        <ele>1176.7</ele>
        <time>2022-07-05T11:41:10Z</time>
      </trkpt>
      <trkpt lat="46.7106" lon="6.32231">
        <ele>1176.5</ele>
        <time>2022-07-05T11:41:15Z</time>
      </trkpt>
      <trkpt lat="46.71064" lon="6.32226">
        <ele>1176.3</ele>
        <time>2022-07-05T11:41:20Z</time>
      </trkpt>
      <trkpt lat="46.71067" lon="6.32222">
        <ele>1176</ele>
        <time>2022-07-05T11:41:25Z</time>
      </trkpt>
      <trkpt lat="46.71072" lon="6.3222">
        <ele>1175.3</ele>
        <time>2022-07-05T11:41:30Z</time>
      </trkpt>
      <trkpt lat="46.71077" lon="6.32219">
        <ele>1174.8</ele>
        <time>2022-07-05T11:41:35Z</time>
      </trkpt>
      <trkpt lat="46.71082" lon="6.32216">
        <ele>1174.7</ele>
        <time>2022-07-05T11:41:39Z</time>
      </trkpt>
      <trkpt lat="46.71086" lon="6.32213">
        <ele>1174.8</ele>
        <time>2022-07-05T11:41:44Z</time>
      </trkpt>
      <trkpt lat="46.7109" lon="6.32209">
        <ele>1175.1</ele>
        <time>2022-07-05T11:41:50Z</time>
      </trkpt>
      <trkpt lat="46.71093" lon="6.32204">
        <ele>1175</ele>
        <time>2022-07-05T11:41:56Z</time>
      </trkpt>
      <trkpt lat="46.71098" lon="6.32199">
        <ele>1174.7</ele>
        <time>2022-07-05T11:42:01Z</time>
      </trkpt>
      <trkpt lat="46.71102" lon="6.32194">
        <ele>1174.5</ele>
        <time>2022-07-05T11:42:06Z</time>
      </trkpt>
      <trkpt lat="46.71106" lon="6.3219">
        <ele>1174.3</ele>
        <time>2022-07-05T11:42:10Z</time>
      </trkpt>
      <trkpt lat="46.7111" lon="6.32185">
        <ele>1173.6</ele>
        <time>2022-07-05T11:42:15Z</time>
      </trkpt>
      <trkpt lat="46.71114" lon="6.3218">
        <ele>1173.8</ele>
        <time>2022-07-05T11:42:20Z</time>
      </trkpt>
      <trkpt lat="46.71116" lon="6.32173">
        <ele>1174.4</ele>
        <time>2022-07-05T11:42:25Z</time>
      </trkpt>
      <trkpt lat="46.71119" lon="6.32167">
        <ele>1175.1</ele>
        <time>2022-07-05T11:42:29Z</time>
      </trkpt>
      <trkpt lat="46.71122" lon="6.32161">
        <ele>1175.5</ele>
        <time>2022-07-05T11:42:34Z</time>
      </trkpt>
      <trkpt lat="46.71122" lon="6.32154">
        <ele>1175.7</ele>
        <time>2022-07-05T11:42:39Z</time>
      </trkpt>
      <trkpt lat="46.71123" lon="6.32148">
        <ele>1175.2</ele>
        <time>2022-07-05T11:42:45Z</time>
      </trkpt>
      <trkpt lat="46.71123" lon="6.3214">
        <ele>1174.6</ele>
        <time>2022-07-05T11:42:51Z</time>
      </trkpt>
      <trkpt lat="46.71124" lon="6.32134">
        <ele>1173.7</ele>
        <time>2022-07-05T11:42:56Z</time>
      </trkpt>
      <trkpt lat="46.71125" lon="6.32126">
        <ele>1173</ele>
        <time>2022-07-05T11:43:02Z</time>
      </trkpt>
      <trkpt lat="46.71124" lon="6.32119">
        <ele>1172.4</ele>
        <time>2022-07-05T11:43:07Z</time>
      </trkpt>
      <trkpt lat="46.71122" lon="6.32112">
        <ele>1171.8</ele>
        <time>2022-07-05T11:43:12Z</time>
      </trkpt>
      <trkpt lat="46.71122" lon="6.32105">
        <ele>1171.3</ele>
        <time>2022-07-05T11:43:17Z</time>
      </trkpt>
      <trkpt lat="46.71121" lon="6.32098">
        <ele>1169.8</ele>
        <time>2022-07-05T11:43:24Z</time>
      </trkpt>
      <trkpt lat="46.71119" lon="6.32091">
        <ele>1168.7</ele>
        <time>2022-07-05T11:43:30Z</time>
      </trkpt>
      <trkpt lat="46.71119" lon="6.32085">
        <ele>1168.3</ele>
        <time>2022-07-05T11:43:37Z</time>
      </trkpt>
      <trkpt lat="46.71118" lon="6.32077">
        <ele>1167.8</ele>
        <time>2022-07-05T11:43:44Z</time>
      </trkpt>
      <trkpt lat="46.71123" lon="6.32079">
        <ele>1164.3</ele>
        <time>2022-07-05T11:47:15Z</time>
      </trkpt>
      <trkpt lat="46.71118" lon="6.32082">
        <ele>1163.7</ele>
        <time>2022-07-05T11:47:56Z</time>
      </trkpt>
      <trkpt lat="46.71117" lon="6.32075">
        <ele>1164.1</ele>
        <time>2022-07-05T11:48:20Z</time>
      </trkpt>
      <trkpt lat="46.71122" lon="6.32072">
        <ele>1160.3</ele>
        <time>2022-07-05T11:49:17Z</time>
      </trkpt>
      <trkpt lat="46.71121" lon="6.32065">
        <ele>1160.4</ele>
        <time>2022-07-05T11:49:25Z</time>
      </trkpt>
      <trkpt lat="46.7112" lon="6.32058">
        <ele>1162.1</ele>
        <time>2022-07-05T11:49:35Z</time>
      </trkpt>
      <trkpt lat="46.71116" lon="6.32054">
        <ele>1164.8</ele>
        <time>2022-07-05T11:50:12Z</time>
      </trkpt>
      <trkpt lat="46.71117" lon="6.32047">
        <ele>1164.5</ele>
        <time>2022-07-05T11:50:49Z</time>
      </trkpt>
      <trkpt lat="46.71115" lon="6.32041">
        <ele>1164.4</ele>
        <time>2022-07-05T11:50:56Z</time>
      </trkpt>
      <trkpt lat="46.71113" lon="6.32034">
        <ele>1164.3</ele>
        <time>2022-07-05T11:51:02Z</time>
      </trkpt>
      <trkpt lat="46.7111" lon="6.32028">
        <ele>1164.3</ele>
        <time>2022-07-05T11:51:07Z</time>
      </trkpt>
      <trkpt lat="46.71108" lon="6.32021">
        <ele>1164.1</ele>
        <time>2022-07-05T11:51:12Z</time>
      </trkpt>
      <trkpt lat="46.71106" lon="6.32014">
        <ele>1163.4</ele>
        <time>2022-07-05T11:51:18Z</time>
      </trkpt>
      <trkpt lat="46.71104" lon="6.32007">
        <ele>1163</ele>
        <time>2022-07-05T11:51:24Z</time>
      </trkpt>
      <trkpt lat="46.711" lon="6.32002">
        <ele>1163.7</ele>
        <time>2022-07-05T11:51:29Z</time>
      </trkpt>
      <trkpt lat="46.71097" lon="6.31996">
        <ele>1164.4</ele>
        <time>2022-07-05T11:51:36Z</time>
      </trkpt>
      <trkpt lat="46.71094" lon="6.31991">
        <ele>1164.6</ele>
        <time>2022-07-05T11:51:41Z</time>
      </trkpt>
      <trkpt lat="46.71092" lon="6.31984">
        <ele>1164.1</ele>
        <time>2022-07-05T11:51:47Z</time>
      </trkpt>
      <trkpt lat="46.7109" lon="6.31978">
        <ele>1163.3</ele>
        <time>2022-07-05T11:51:53Z</time>
      </trkpt>
      <trkpt lat="46.71086" lon="6.31973">
        <ele>1163.3</ele>
        <time>2022-07-05T11:51:58Z</time>
      </trkpt>
      <trkpt lat="46.71083" lon="6.31967">
        <ele>1163.6</ele>
        <time>2022-07-05T11:52:03Z</time>
      </trkpt>
      <trkpt lat="46.7108" lon="6.31961">
        <ele>1163.3</ele>
        <time>2022-07-05T11:52:08Z</time>
      </trkpt>
      <trkpt lat="46.71077" lon="6.31955">
        <ele>1163.1</ele>
        <time>2022-07-05T11:52:13Z</time>
      </trkpt>
      <trkpt lat="46.71074" lon="6.31949">
        <ele>1162.7</ele>
        <time>2022-07-05T11:52:19Z</time>
      </trkpt>
      <trkpt lat="46.71072" lon="6.31944">
        <ele>1162.7</ele>
        <time>2022-07-05T11:52:24Z</time>
      </trkpt>
      <trkpt lat="46.71069" lon="6.31938">
        <ele>1163.1</ele>
        <time>2022-07-05T11:52:30Z</time>
      </trkpt>
      <trkpt lat="46.71068" lon="6.31931">
        <ele>1163.2</ele>
        <time>2022-07-05T11:52:35Z</time>
      </trkpt>
      <trkpt lat="46.71065" lon="6.31926">
        <ele>1162.8</ele>
        <time>2022-07-05T11:52:41Z</time>
      </trkpt>
      <trkpt lat="46.71069" lon="6.3193">
        <ele>1162.6</ele>
        <time>2022-07-05T11:52:58Z</time>
      </trkpt>
      <trkpt lat="46.71069" lon="6.31923">
        <ele>1162.9</ele>
        <time>2022-07-05T11:53:04Z</time>
      </trkpt>
      <trkpt lat="46.7107" lon="6.31916">
        <ele>1164.4</ele>
        <time>2022-07-05T11:53:11Z</time>
      </trkpt>
      <trkpt lat="46.71074" lon="6.31912">
        <ele>1165.8</ele>
        <time>2022-07-05T11:53:18Z</time>
      </trkpt>
      <trkpt lat="46.71079" lon="6.31909">
        <ele>1166.9</ele>
        <time>2022-07-05T11:53:25Z</time>
      </trkpt>
      <trkpt lat="46.71083" lon="6.31904">
        <ele>1167</ele>
        <time>2022-07-05T11:53:29Z</time>
      </trkpt>
      <trkpt lat="46.71086" lon="6.31899">
        <ele>1167.5</ele>
        <time>2022-07-05T11:53:33Z</time>
      </trkpt>
      <trkpt lat="46.71089" lon="6.31892">
        <ele>1168.4</ele>
        <time>2022-07-05T11:53:38Z</time>
      </trkpt>
      <trkpt lat="46.71091" lon="6.31885">
        <ele>1170.3</ele>
        <time>2022-07-05T11:53:43Z</time>
      </trkpt>
      <trkpt lat="46.71091" lon="6.31878">
        <ele>1173.3</ele>
        <time>2022-07-05T11:53:50Z</time>
      </trkpt>
      <trkpt lat="46.71092" lon="6.31871">
        <ele>1175.1</ele>
        <time>2022-07-05T11:53:55Z</time>
      </trkpt>
      <trkpt lat="46.71093" lon="6.31864">
        <ele>1175.8</ele>
        <time>2022-07-05T11:54:01Z</time>
      </trkpt>
      <trkpt lat="46.71095" lon="6.31859">
        <ele>1174.9</ele>
        <time>2022-07-05T11:54:08Z</time>
      </trkpt>
      <trkpt lat="46.711" lon="6.31853">
        <ele>1173.2</ele>
        <time>2022-07-05T11:54:14Z</time>
      </trkpt>
      <trkpt lat="46.71104" lon="6.31849">
        <ele>1171.8</ele>
        <time>2022-07-05T11:54:19Z</time>
      </trkpt>
      <trkpt lat="46.71107" lon="6.31843">
        <ele>1171.9</ele>
        <time>2022-07-05T11:54:25Z</time>
      </trkpt>
      <trkpt lat="46.71111" lon="6.31841">
        <ele>1171.7</ele>
        <time>2022-07-05T11:54:29Z</time>
      </trkpt>
      <trkpt lat="46.71113" lon="6.31835">
        <ele>1171.9</ele>
        <time>2022-07-05T11:54:36Z</time>
      </trkpt>
      <trkpt lat="46.71113" lon="6.31827">
        <ele>1172.6</ele>
        <time>2022-07-05T11:54:42Z</time>
      </trkpt>
      <trkpt lat="46.71111" lon="6.3182">
        <ele>1173.7</ele>
        <time>2022-07-05T11:54:46Z</time>
      </trkpt>
      <trkpt lat="46.71112" lon="6.31814">
        <ele>1175.5</ele>
        <time>2022-07-05T11:54:50Z</time>
      </trkpt>
      <trkpt lat="46.71115" lon="6.31809">
        <ele>1177.5</ele>
        <time>2022-07-05T11:54:56Z</time>
      </trkpt>
      <trkpt lat="46.71117" lon="6.31802">
        <ele>1178.7</ele>
        <time>2022-07-05T11:55:02Z</time>
      </trkpt>
      <trkpt lat="46.71119" lon="6.31795">
        <ele>1180.9</ele>
        <time>2022-07-05T11:55:09Z</time>
      </trkpt>
      <trkpt lat="46.71121" lon="6.31789">
        <ele>1183.7</ele>
        <time>2022-07-05T11:55:15Z</time>
      </trkpt>
      <trkpt lat="46.71123" lon="6.31782">
        <ele>1186</ele>
        <time>2022-07-05T11:55:21Z</time>
      </trkpt>
      <trkpt lat="46.71125" lon="6.31776">
        <ele>1188</ele>
        <time>2022-07-05T11:55:29Z</time>
      </trkpt>
      <trkpt lat="46.71125" lon="6.31769">
        <ele>1189.1</ele>
        <time>2022-07-05T11:55:36Z</time>
      </trkpt>
      <trkpt lat="46.71126" lon="6.31762">
        <ele>1190.3</ele>
        <time>2022-07-05T11:55:44Z</time>
      </trkpt>
      <trkpt lat="46.71127" lon="6.31755">
        <ele>1190.8</ele>
        <time>2022-07-05T11:55:51Z</time>
      </trkpt>
      <trkpt lat="46.71126" lon="6.31748">
        <ele>1190.8</ele>
        <time>2022-07-05T11:55:57Z</time>
      </trkpt>
      <trkpt lat="46.7113" lon="6.31744">
        <ele>1190.1</ele>
        <time>2022-07-05T11:56:11Z</time>
      </trkpt>
      <trkpt lat="46.71128" lon="6.31738">
        <ele>1186.5</ele>
        <time>2022-07-05T12:00:05Z</time>
      </trkpt>
      <trkpt lat="46.71133" lon="6.3174">
        <ele>1188.7</ele>
        <time>2022-07-05T12:01:14Z</time>
      </trkpt>
      <trkpt lat="46.71137" lon="6.31737">
        <ele>1189.5</ele>
        <time>2022-07-05T12:01:20Z</time>
      </trkpt>
      <trkpt lat="46.71139" lon="6.3173">
        <ele>1190.1</ele>
        <time>2022-07-05T12:01:25Z</time>
      </trkpt>
      <trkpt lat="46.71144" lon="6.31726">
        <ele>1190.4</ele>
        <time>2022-07-05T12:01:31Z</time>
      </trkpt>
      <trkpt lat="46.71148" lon="6.31723">
        <ele>1189.9</ele>
        <time>2022-07-05T12:01:37Z</time>
      </trkpt>
      <trkpt lat="46.71152" lon="6.3172">
        <ele>1189.8</ele>
        <time>2022-07-05T12:01:42Z</time>
      </trkpt>
      <trkpt lat="46.71157" lon="6.31716">
        <ele>1188.6</ele>
        <time>2022-07-05T12:01:48Z</time>
      </trkpt>
      <trkpt lat="46.7116" lon="6.3171">
        <ele>1186.4</ele>
        <time>2022-07-05T12:01:56Z</time>
      </trkpt>
      <trkpt lat="46.71163" lon="6.31705">
        <ele>1184.3</ele>
        <time>2022-07-05T12:02:03Z</time>
      </trkpt>
      <trkpt lat="46.71167" lon="6.31701">
        <ele>1182.6</ele>
        <time>2022-07-05T12:02:08Z</time>
      </trkpt>
      <trkpt lat="46.7117" lon="6.31693">
        <ele>1180.9</ele>
        <time>2022-07-05T12:02:13Z</time>
      </trkpt>
      <trkpt lat="46.71171" lon="6.31687">
        <ele>1180.3</ele>
        <time>2022-07-05T12:02:17Z</time>
      </trkpt>
      <trkpt lat="46.71175" lon="6.31683">
        <ele>1179.7</ele>
        <time>2022-07-05T12:02:21Z</time>
      </trkpt>
      <trkpt lat="46.71177" lon="6.31676">
        <ele>1179.5</ele>
        <time>2022-07-05T12:02:26Z</time>
      </trkpt>
      <trkpt lat="46.7118" lon="6.31671">
        <ele>1182.1</ele>
        <time>2022-07-05T12:03:00Z</time>
      </trkpt>
      <trkpt lat="46.71181" lon="6.31664">
        <ele>1182.5</ele>
        <time>2022-07-05T12:03:05Z</time>
      </trkpt>
      <trkpt lat="46.71184" lon="6.31658">
        <ele>1182.7</ele>
        <time>2022-07-05T12:03:09Z</time>
      </trkpt>
      <trkpt lat="46.71187" lon="6.31652">
        <ele>1183.5</ele>
        <time>2022-07-05T12:03:13Z</time>
      </trkpt>
      <trkpt lat="46.7119" lon="6.31647">
        <ele>1184.2</ele>
        <time>2022-07-05T12:03:19Z</time>
      </trkpt>
      <trkpt lat="46.71194" lon="6.31643">
        <ele>1183.8</ele>
        <time>2022-07-05T12:03:24Z</time>
      </trkpt>
      <trkpt lat="46.71198" lon="6.31638">
        <ele>1182.9</ele>
        <time>2022-07-05T12:03:29Z</time>
      </trkpt>
      <trkpt lat="46.71201" lon="6.31633">
        <ele>1182.4</ele>
        <time>2022-07-05T12:03:33Z</time>
      </trkpt>
      <trkpt lat="46.71203" lon="6.31627">
        <ele>1182</ele>
        <time>2022-07-05T12:03:37Z</time>
      </trkpt>
      <trkpt lat="46.71206" lon="6.3162">
        <ele>1181.5</ele>
        <time>2022-07-05T12:03:42Z</time>
      </trkpt>
      <trkpt lat="46.71209" lon="6.31614">
        <ele>1180.9</ele>
        <time>2022-07-05T12:03:47Z</time>
      </trkpt>
      <trkpt lat="46.71211" lon="6.31608">
        <ele>1180.1</ele>
        <time>2022-07-05T12:03:52Z</time>
      </trkpt>
      <trkpt lat="46.71215" lon="6.31603">
        <ele>1179.6</ele>
        <time>2022-07-05T12:03:58Z</time>
      </trkpt>
      <trkpt lat="46.71219" lon="6.31599">
        <ele>1178.6</ele>
        <time>2022-07-05T12:04:04Z</time>
      </trkpt>
      <trkpt lat="46.71223" lon="6.31594">
        <ele>1178</ele>
        <time>2022-07-05T12:04:09Z</time>
      </trkpt>
      <trkpt lat="46.71227" lon="6.31588">
        <ele>1177.8</ele>
        <time>2022-07-05T12:04:14Z</time>
      </trkpt>
      <trkpt lat="46.7123" lon="6.31583">
        <ele>1177.8</ele>
        <time>2022-07-05T12:04:20Z</time>
      </trkpt>
      <trkpt lat="46.71232" lon="6.31578">
        <ele>1178.4</ele>
        <time>2022-07-05T12:04:27Z</time>
      </trkpt>
      <trkpt lat="46.71235" lon="6.31572">
        <ele>1179.1</ele>
        <time>2022-07-05T12:04:33Z</time>
      </trkpt>
      <trkpt lat="46.71238" lon="6.31566">
        <ele>1180.1</ele>
        <time>2022-07-05T12:04:38Z</time>
      </trkpt>
      <trkpt lat="46.7124" lon="6.31561">
        <ele>1181.1</ele>
        <time>2022-07-05T12:04:43Z</time>
      </trkpt>
      <trkpt lat="46.71244" lon="6.31555">
        <ele>1182.3</ele>
        <time>2022-07-05T12:04:48Z</time>
      </trkpt>
      <trkpt lat="46.71247" lon="6.31549">
        <ele>1183.3</ele>
        <time>2022-07-05T12:04:53Z</time>
      </trkpt>
      <trkpt lat="46.7125" lon="6.31542">
        <ele>1183.9</ele>
        <time>2022-07-05T12:04:57Z</time>
      </trkpt>
      <trkpt lat="46.71252" lon="6.31536">
        <ele>1184.6</ele>
        <time>2022-07-05T12:05:01Z</time>
      </trkpt>
      <trkpt lat="46.71255" lon="6.31531">
        <ele>1185.4</ele>
        <time>2022-07-05T12:05:05Z</time>
      </trkpt>
      <trkpt lat="46.71258" lon="6.31525">
        <ele>1186.1</ele>
        <time>2022-07-05T12:05:09Z</time>
      </trkpt>
      <trkpt lat="46.71261" lon="6.3152">
        <ele>1187.2</ele>
        <time>2022-07-05T12:05:21Z</time>
      </trkpt>
      <trkpt lat="46.71262" lon="6.31514">
        <ele>1187.6</ele>
        <time>2022-07-05T12:05:36Z</time>
      </trkpt>
      <trkpt lat="46.71264" lon="6.31508">
        <ele>1187.2</ele>
        <time>2022-07-05T12:05:41Z</time>
      </trkpt>
      <trkpt lat="46.71265" lon="6.315">
        <ele>1186.8</ele>
        <time>2022-07-05T12:05:46Z</time>
      </trkpt>
      <trkpt lat="46.71267" lon="6.31492">
        <ele>1186.7</ele>
        <time>2022-07-05T12:05:51Z</time>
      </trkpt>
      <trkpt lat="46.7127" lon="6.31487">
        <ele>1186.6</ele>
        <time>2022-07-05T12:05:55Z</time>
      </trkpt>
      <trkpt lat="46.71272" lon="6.3148">
        <ele>1186.9</ele>
        <time>2022-07-05T12:06:00Z</time>
      </trkpt>
      <trkpt lat="46.71274" lon="6.31474">
        <ele>1187</ele>
        <time>2022-07-05T12:06:04Z</time>
      </trkpt>
      <trkpt lat="46.71276" lon="6.31468">
        <ele>1186.9</ele>
        <time>2022-07-05T12:06:09Z</time>
      </trkpt>
      <trkpt lat="46.71277" lon="6.3146">
        <ele>1186.7</ele>
        <time>2022-07-05T12:06:14Z</time>
      </trkpt>
      <trkpt lat="46.71278" lon="6.31453">
        <ele>1186.3</ele>
        <time>2022-07-05T12:06:20Z</time>
      </trkpt>
      <trkpt lat="46.7128" lon="6.31446">
        <ele>1185.9</ele>
        <time>2022-07-05T12:06:26Z</time>
      </trkpt>
      <trkpt lat="46.7128" lon="6.31439">
        <ele>1185.8</ele>
        <time>2022-07-05T12:06:30Z</time>
      </trkpt>
      <trkpt lat="46.71281" lon="6.31431">
        <ele>1186.1</ele>
        <time>2022-07-05T12:06:35Z</time>
      </trkpt>
      <trkpt lat="46.71283" lon="6.31425">
        <ele>1186.4</ele>
        <time>2022-07-05T12:06:40Z</time>
      </trkpt>
      <trkpt lat="46.71286" lon="6.31419">
        <ele>1186</ele>
        <time>2022-07-05T12:06:45Z</time>
      </trkpt>
      <trkpt lat="46.71286" lon="6.31412">
        <ele>1186.3</ele>
        <time>2022-07-05T12:06:51Z</time>
      </trkpt>
      <trkpt lat="46.71288" lon="6.31406">
        <ele>1185.9</ele>
        <time>2022-07-05T12:06:57Z</time>
      </trkpt>
      <trkpt lat="46.7129" lon="6.31399">
        <ele>1185.7</ele>
        <time>2022-07-05T12:07:02Z</time>
      </trkpt>
      <trkpt lat="46.71291" lon="6.31392">
        <ele>1185.8</ele>
        <time>2022-07-05T12:07:06Z</time>
      </trkpt>
      <trkpt lat="46.71294" lon="6.31386">
        <ele>1185.7</ele>
        <time>2022-07-05T12:07:11Z</time>
      </trkpt>
      <trkpt lat="46.71295" lon="6.31379">
        <ele>1185.9</ele>
        <time>2022-07-05T12:07:15Z</time>
      </trkpt>
      <trkpt lat="46.71294" lon="6.31373">
        <ele>1186.3</ele>
        <time>2022-07-05T12:07:19Z</time>
      </trkpt>
      <trkpt lat="46.71295" lon="6.31366">
        <ele>1186.9</ele>
        <time>2022-07-05T12:07:24Z</time>
      </trkpt>
      <trkpt lat="46.71297" lon="6.31359">
        <ele>1187.2</ele>
        <time>2022-07-05T12:07:30Z</time>
      </trkpt>
      <trkpt lat="46.71299" lon="6.31353">
        <ele>1187.5</ele>
        <time>2022-07-05T12:07:35Z</time>
      </trkpt>
      <trkpt lat="46.71301" lon="6.31346">
        <ele>1188</ele>
        <time>2022-07-05T12:07:40Z</time>
      </trkpt>
      <trkpt lat="46.71303" lon="6.31339">
        <ele>1188.4</ele>
        <time>2022-07-05T12:07:45Z</time>
      </trkpt>
      <trkpt lat="46.71305" lon="6.31332">
        <ele>1188.9</ele>
        <time>2022-07-05T12:07:50Z</time>
      </trkpt>
      <trkpt lat="46.71306" lon="6.31325">
        <ele>1189.5</ele>
        <time>2022-07-05T12:07:55Z</time>
      </trkpt>
      <trkpt lat="46.71307" lon="6.31317">
        <ele>1190</ele>
        <time>2022-07-05T12:08:02Z</time>
      </trkpt>
      <trkpt lat="46.71308" lon="6.3131">
        <ele>1189.7</ele>
        <time>2022-07-05T12:08:07Z</time>
      </trkpt>
      <trkpt lat="46.71307" lon="6.31302">
        <ele>1189.8</ele>
        <time>2022-07-05T12:08:12Z</time>
      </trkpt>
      <trkpt lat="46.71307" lon="6.31295">
        <ele>1190</ele>
        <time>2022-07-05T12:08:17Z</time>
      </trkpt>
      <trkpt lat="46.71307" lon="6.31288">
        <ele>1190.4</ele>
        <time>2022-07-05T12:08:22Z</time>
      </trkpt>
      <trkpt lat="46.71308" lon="6.31281">
        <ele>1190.7</ele>
        <time>2022-07-05T12:08:27Z</time>
      </trkpt>
      <trkpt lat="46.71309" lon="6.31274">
        <ele>1191.3</ele>
        <time>2022-07-05T12:08:31Z</time>
      </trkpt>
      <trkpt lat="46.7131" lon="6.31267">
        <ele>1191.9</ele>
        <time>2022-07-05T12:08:35Z</time>
      </trkpt>
      <trkpt lat="46.71309" lon="6.3126">
        <ele>1192.4</ele>
        <time>2022-07-05T12:08:39Z</time>
      </trkpt>
      <trkpt lat="46.71311" lon="6.31254">
        <ele>1193</ele>
        <time>2022-07-05T12:08:44Z</time>
      </trkpt>
      <trkpt lat="46.71313" lon="6.31247">
        <ele>1192.9</ele>
        <time>2022-07-05T12:08:49Z</time>
      </trkpt>
      <trkpt lat="46.71318" lon="6.31245">
        <ele>1191.4</ele>
        <time>2022-07-05T12:09:17Z</time>
      </trkpt>
      <trkpt lat="46.71322" lon="6.31239">
        <ele>1191.1</ele>
        <time>2022-07-05T12:09:22Z</time>
      </trkpt>
      <trkpt lat="46.71325" lon="6.31233">
        <ele>1190.7</ele>
        <time>2022-07-05T12:09:25Z</time>
      </trkpt>
      <trkpt lat="46.71328" lon="6.31227">
        <ele>1190.5</ele>
        <time>2022-07-05T12:09:28Z</time>
      </trkpt>
      <trkpt lat="46.71332" lon="6.31222">
        <ele>1190.5</ele>
        <time>2022-07-05T12:09:31Z</time>
      </trkpt>
      <trkpt lat="46.71336" lon="6.31218">
        <ele>1190.5</ele>
        <time>2022-07-05T12:09:34Z</time>
      </trkpt>
      <trkpt lat="46.71341" lon="6.31213">
        <ele>1190.7</ele>
        <time>2022-07-05T12:09:38Z</time>
      </trkpt>
      <trkpt lat="46.71344" lon="6.31208">
        <ele>1190.5</ele>
        <time>2022-07-05T12:09:43Z</time>
      </trkpt>
      <trkpt lat="46.71347" lon="6.31203">
        <ele>1190.1</ele>
        <time>2022-07-05T12:09:47Z</time>
      </trkpt>
      <trkpt lat="46.71351" lon="6.31199">
        <ele>1189.9</ele>
        <time>2022-07-05T12:09:51Z</time>
      </trkpt>
      <trkpt lat="46.71355" lon="6.31195">
        <ele>1190.2</ele>
        <time>2022-07-05T12:09:56Z</time>
      </trkpt>
      <trkpt lat="46.71359" lon="6.3119">
        <ele>1190.3</ele>
        <time>2022-07-05T12:10:02Z</time>
      </trkpt>
      <trkpt lat="46.71362" lon="6.31185">
        <ele>1190.2</ele>
        <time>2022-07-05T12:10:07Z</time>
      </trkpt>
      <trkpt lat="46.71366" lon="6.31181">
        <ele>1190.1</ele>
        <time>2022-07-05T12:10:13Z</time>
      </trkpt>
      <trkpt lat="46.7137" lon="6.31177">
        <ele>1190.3</ele>
        <time>2022-07-05T12:10:20Z</time>
      </trkpt>
      <trkpt lat="46.71373" lon="6.31172">
        <ele>1190.5</ele>
        <time>2022-07-05T12:10:26Z</time>
      </trkpt>
      <trkpt lat="46.71377" lon="6.31168">
        <ele>1190.5</ele>
        <time>2022-07-05T12:10:30Z</time>
      </trkpt>
      <trkpt lat="46.71381" lon="6.31164">
        <ele>1190.2</ele>
        <time>2022-07-05T12:10:34Z</time>
      </trkpt>
      <trkpt lat="46.71384" lon="6.31158">
        <ele>1189.9</ele>
        <time>2022-07-05T12:10:39Z</time>
      </trkpt>
      <trkpt lat="46.71386" lon="6.31151">
        <ele>1190.5</ele>
        <time>2022-07-05T12:10:45Z</time>
      </trkpt>
      <trkpt lat="46.71388" lon="6.31144">
        <ele>1190.7</ele>
        <time>2022-07-05T12:10:50Z</time>
      </trkpt>
      <trkpt lat="46.71391" lon="6.31138">
        <ele>1190.8</ele>
        <time>2022-07-05T12:10:54Z</time>
      </trkpt>
      <trkpt lat="46.71395" lon="6.31133">
        <ele>1191.4</ele>
        <time>2022-07-05T12:10:58Z</time>
      </trkpt>
      <trkpt lat="46.714" lon="6.31132">
        <ele>1192.3</ele>
        <time>2022-07-05T12:11:03Z</time>
      </trkpt>
      <trkpt lat="46.71406" lon="6.31132">
        <ele>1193.3</ele>
        <time>2022-07-05T12:11:10Z</time>
      </trkpt>
      <trkpt lat="46.7141" lon="6.3113">
        <ele>1193.6</ele>
        <time>2022-07-05T12:11:14Z</time>
      </trkpt>
      <trkpt lat="46.71415" lon="6.31126">
        <ele>1194.4</ele>
        <time>2022-07-05T12:11:19Z</time>
      </trkpt>
      <trkpt lat="46.71418" lon="6.31122">
        <ele>1196.1</ele>
        <time>2022-07-05T12:11:25Z</time>
      </trkpt>
      <trkpt lat="46.71422" lon="6.31118">
        <ele>1197.8</ele>
        <time>2022-07-05T12:11:30Z</time>
      </trkpt>
      <trkpt lat="46.71427" lon="6.31116">
        <ele>1199.2</ele>
        <time>2022-07-05T12:11:36Z</time>
      </trkpt>
      <trkpt lat="46.71432" lon="6.31116">
        <ele>1199.3</ele>
        <time>2022-07-05T12:11:42Z</time>
      </trkpt>
      <trkpt lat="46.71437" lon="6.31114">
        <ele>1198.6</ele>
        <time>2022-07-05T12:11:46Z</time>
      </trkpt>
      <trkpt lat="46.71441" lon="6.31112">
        <ele>1197.8</ele>
        <time>2022-07-05T12:11:50Z</time>
      </trkpt>
      <trkpt lat="46.71446" lon="6.3111">
        <ele>1196.3</ele>
        <time>2022-07-05T12:11:55Z</time>
      </trkpt>
      <trkpt lat="46.7145" lon="6.31108">
        <ele>1194.7</ele>
        <time>2022-07-05T12:12:01Z</time>
      </trkpt>
      <trkpt lat="46.71454" lon="6.31105">
        <ele>1194.1</ele>
        <time>2022-07-05T12:12:07Z</time>
      </trkpt>
      <trkpt lat="46.71458" lon="6.31101">
        <ele>1193.6</ele>
        <time>2022-07-05T12:12:12Z</time>
      </trkpt>
      <trkpt lat="46.71463" lon="6.31098">
        <ele>1193.1</ele>
        <time>2022-07-05T12:12:17Z</time>
      </trkpt>
      <trkpt lat="46.71469" lon="6.31097">
        <ele>1193.1</ele>
        <time>2022-07-05T12:12:21Z</time>
      </trkpt>
      <trkpt lat="46.71473" lon="6.31094">
        <ele>1193.4</ele>
        <time>2022-07-05T12:12:26Z</time>
      </trkpt>
      <trkpt lat="46.71478" lon="6.31093">
        <ele>1194.5</ele>
        <time>2022-07-05T12:12:31Z</time>
      </trkpt>
      <trkpt lat="46.71482" lon="6.31088">
        <ele>1195.7</ele>
        <time>2022-07-05T12:12:36Z</time>
      </trkpt>
      <trkpt lat="46.71485" lon="6.31083">
        <ele>1196.5</ele>
        <time>2022-07-05T12:12:41Z</time>
      </trkpt>
      <trkpt lat="46.71489" lon="6.31078">
        <ele>1197</ele>
        <time>2022-07-05T12:12:47Z</time>
      </trkpt>
      <trkpt lat="46.71492" lon="6.31072">
        <ele>1197.7</ele>
        <time>2022-07-05T12:12:52Z</time>
      </trkpt>
      <trkpt lat="46.71496" lon="6.31067">
        <ele>1198.5</ele>
        <time>2022-07-05T12:12:57Z</time>
      </trkpt>
      <trkpt lat="46.71501" lon="6.31064">
        <ele>1199</ele>
        <time>2022-07-05T12:13:01Z</time>
      </trkpt>
      <trkpt lat="46.71505" lon="6.31059">
        <ele>1199.7</ele>
        <time>2022-07-05T12:13:06Z</time>
      </trkpt>
      <trkpt lat="46.71507" lon="6.31052">
        <ele>1200.8</ele>
        <time>2022-07-05T12:13:13Z</time>
      </trkpt>
      <trkpt lat="46.7151" lon="6.31047">
        <ele>1201.4</ele>
        <time>2022-07-05T12:13:18Z</time>
      </trkpt>
      <trkpt lat="46.71514" lon="6.31042">
        <ele>1201.9</ele>
        <time>2022-07-05T12:13:23Z</time>
      </trkpt>
      <trkpt lat="46.71516" lon="6.31035">
        <ele>1201.9</ele>
        <time>2022-07-05T12:13:29Z</time>
      </trkpt>
      <trkpt lat="46.71517" lon="6.31028">
        <ele>1201.8</ele>
        <time>2022-07-05T12:13:36Z</time>
      </trkpt>
      <trkpt lat="46.71521" lon="6.31022">
        <ele>1202</ele>
        <time>2022-07-05T12:13:42Z</time>
      </trkpt>
      <trkpt lat="46.71526" lon="6.31021">
        <ele>1202.1</ele>
        <time>2022-07-05T12:13:46Z</time>
      </trkpt>
      <trkpt lat="46.71531" lon="6.31016">
        <ele>1201.6</ele>
        <time>2022-07-05T12:13:51Z</time>
      </trkpt>
      <trkpt lat="46.71534" lon="6.31012">
        <ele>1200.9</ele>
        <time>2022-07-05T12:13:55Z</time>
      </trkpt>
      <trkpt lat="46.71537" lon="6.31005">
        <ele>1200.1</ele>
        <time>2022-07-05T12:14:00Z</time>
      </trkpt>
      <trkpt lat="46.71539" lon="6.30999">
        <ele>1199.1</ele>
        <time>2022-07-05T12:14:06Z</time>
      </trkpt>
      <trkpt lat="46.71542" lon="6.30994">
        <ele>1198.3</ele>
        <time>2022-07-05T12:14:12Z</time>
      </trkpt>
      <trkpt lat="46.71546" lon="6.3099">
        <ele>1198.4</ele>
        <time>2022-07-05T12:14:18Z</time>
      </trkpt>
      <trkpt lat="46.7155" lon="6.30985">
        <ele>1198.6</ele>
        <time>2022-07-05T12:14:23Z</time>
      </trkpt>
      <trkpt lat="46.71553" lon="6.30979">
        <ele>1197.6</ele>
        <time>2022-07-05T12:14:28Z</time>
      </trkpt>
      <trkpt lat="46.71557" lon="6.30974">
        <ele>1196.3</ele>
        <time>2022-07-05T12:14:33Z</time>
      </trkpt>
      <trkpt lat="46.71561" lon="6.3097">
        <ele>1195.3</ele>
        <time>2022-07-05T12:14:37Z</time>
      </trkpt>
      <trkpt lat="46.71566" lon="6.30966">
        <ele>1194.6</ele>
        <time>2022-07-05T12:14:41Z</time>
      </trkpt>
      <trkpt lat="46.71569" lon="6.30962">
        <ele>1194.4</ele>
        <time>2022-07-05T12:14:45Z</time>
      </trkpt>
      <trkpt lat="46.71573" lon="6.30957">
        <ele>1194.8</ele>
        <time>2022-07-05T12:14:50Z</time>
      </trkpt>
      <trkpt lat="46.71578" lon="6.30952">
        <ele>1195.5</ele>
        <time>2022-07-05T12:14:55Z</time>
      </trkpt>
      <trkpt lat="46.71582" lon="6.30948">
        <ele>1196.1</ele>
        <time>2022-07-05T12:14:59Z</time>
      </trkpt>
      <trkpt lat="46.71585" lon="6.30942">
        <ele>1196.8</ele>
        <time>2022-07-05T12:15:05Z</time>
      </trkpt>
      <trkpt lat="46.7159" lon="6.30939">
        <ele>1197.7</ele>
        <time>2022-07-05T12:15:09Z</time>
      </trkpt>
      <trkpt lat="46.71594" lon="6.30937">
        <ele>1199.3</ele>
        <time>2022-07-05T12:15:13Z</time>
      </trkpt>
      <trkpt lat="46.71598" lon="6.30932">
        <ele>1201.8</ele>
        <time>2022-07-05T12:15:19Z</time>
      </trkpt>
      <trkpt lat="46.71602" lon="6.30927">
        <ele>1202.8</ele>
        <time>2022-07-05T12:15:24Z</time>
      </trkpt>
      <trkpt lat="46.71605" lon="6.30921">
        <ele>1203.2</ele>
        <time>2022-07-05T12:15:29Z</time>
      </trkpt>
      <trkpt lat="46.71607" lon="6.30915">
        <ele>1203.6</ele>
        <time>2022-07-05T12:15:34Z</time>
      </trkpt>
      <trkpt lat="46.71605" lon="6.30909">
        <ele>1203.6</ele>
        <time>2022-07-05T12:15:53Z</time>
      </trkpt>
      <trkpt lat="46.71608" lon="6.30904">
        <ele>1202.9</ele>
        <time>2022-07-05T12:15:58Z</time>
      </trkpt>
      <trkpt lat="46.71611" lon="6.30898">
        <ele>1202</ele>
        <time>2022-07-05T12:16:03Z</time>
      </trkpt>
      <trkpt lat="46.71615" lon="6.30894">
        <ele>1201.2</ele>
        <time>2022-07-05T12:16:07Z</time>
      </trkpt>
      <trkpt lat="46.71618" lon="6.30889">
        <ele>1200.5</ele>
        <time>2022-07-05T12:16:12Z</time>
      </trkpt>
      <trkpt lat="46.7162" lon="6.30882">
        <ele>1200.5</ele>
        <time>2022-07-05T12:16:18Z</time>
      </trkpt>
      <trkpt lat="46.71624" lon="6.30878">
        <ele>1200.4</ele>
        <time>2022-07-05T12:16:23Z</time>
      </trkpt>
      <trkpt lat="46.71628" lon="6.30873">
        <ele>1200.4</ele>
        <time>2022-07-05T12:16:28Z</time>
      </trkpt>
      <trkpt lat="46.71632" lon="6.30869">
        <ele>1200.4</ele>
        <time>2022-07-05T12:16:33Z</time>
      </trkpt>
      <trkpt lat="46.71636" lon="6.30863">
        <ele>1200.8</ele>
        <time>2022-07-05T12:16:39Z</time>
      </trkpt>
      <trkpt lat="46.71639" lon="6.30857">
        <ele>1201.9</ele>
        <time>2022-07-05T12:16:45Z</time>
      </trkpt>
      <trkpt lat="46.71644" lon="6.30853">
        <ele>1202.8</ele>
        <time>2022-07-05T12:16:49Z</time>
      </trkpt>
      <trkpt lat="46.71648" lon="6.3085">
        <ele>1204.4</ele>
        <time>2022-07-05T12:16:55Z</time>
      </trkpt>
      <trkpt lat="46.71652" lon="6.30847">
        <ele>1205.9</ele>
        <time>2022-07-05T12:17:02Z</time>
      </trkpt>
      <trkpt lat="46.71657" lon="6.30845">
        <ele>1207.5</ele>
        <time>2022-07-05T12:17:08Z</time>
      </trkpt>
      <trkpt lat="46.71662" lon="6.30841">
        <ele>1209.1</ele>
        <time>2022-07-05T12:17:14Z</time>
      </trkpt>
      <trkpt lat="46.71666" lon="6.30837">
        <ele>1210</ele>
        <time>2022-07-05T12:17:20Z</time>
      </trkpt>
      <trkpt lat="46.7167" lon="6.30834">
        <ele>1210</ele>
        <time>2022-07-05T12:17:28Z</time>
      </trkpt>
      <trkpt lat="46.71675" lon="6.30832">
        <ele>1209.8</ele>
        <time>2022-07-05T12:17:31Z</time>
      </trkpt>
      <trkpt lat="46.7168" lon="6.30829">
        <ele>1209.4</ele>
        <time>2022-07-05T12:17:34Z</time>
      </trkpt>
      <trkpt lat="46.71684" lon="6.30826">
        <ele>1209</ele>
        <time>2022-07-05T12:17:37Z</time>
      </trkpt>
      <trkpt lat="46.71689" lon="6.30822">
        <ele>1208.8</ele>
        <time>2022-07-05T12:17:42Z</time>
      </trkpt>
      <trkpt lat="46.71692" lon="6.30818">
        <ele>1208.1</ele>
        <time>2022-07-05T12:17:50Z</time>
      </trkpt>
      <trkpt lat="46.71694" lon="6.30812">
        <ele>1207.8</ele>
        <time>2022-07-05T12:17:56Z</time>
      </trkpt>
      <trkpt lat="46.71696" lon="6.30805">
        <ele>1207.4</ele>
        <time>2022-07-05T12:18:02Z</time>
      </trkpt>
      <trkpt lat="46.71698" lon="6.30799">
        <ele>1207.3</ele>
        <time>2022-07-05T12:18:07Z</time>
      </trkpt>
      <trkpt lat="46.71701" lon="6.30793">
        <ele>1207.6</ele>
        <time>2022-07-05T12:18:12Z</time>
      </trkpt>
      <trkpt lat="46.71705" lon="6.30787">
        <ele>1208.1</ele>
        <time>2022-07-05T12:18:18Z</time>
      </trkpt>
      <trkpt lat="46.71708" lon="6.30777">
        <ele>1207</ele>
        <time>2022-07-05T12:18:33Z</time>
      </trkpt>
      <trkpt lat="46.71709" lon="6.30771">
        <ele>1206.4</ele>
        <time>2022-07-05T12:18:36Z</time>
      </trkpt>
      <trkpt lat="46.7171" lon="6.30763">
        <ele>1206.2</ele>
        <time>2022-07-05T12:18:41Z</time>
      </trkpt>
      <trkpt lat="46.7171" lon="6.30756">
        <ele>1206.9</ele>
        <time>2022-07-05T12:18:57Z</time>
      </trkpt>
      <trkpt lat="46.7171" lon="6.30749">
        <ele>1207.4</ele>
        <time>2022-07-05T12:19:02Z</time>
      </trkpt>
      <trkpt lat="46.71711" lon="6.30741">
        <ele>1207.1</ele>
        <time>2022-07-05T12:19:08Z</time>
      </trkpt>
      <trkpt lat="46.71711" lon="6.30733">
        <ele>1206.2</ele>
        <time>2022-07-05T12:19:12Z</time>
      </trkpt>
      <trkpt lat="46.7171" lon="6.30726">
        <ele>1205.5</ele>
        <time>2022-07-05T12:19:16Z</time>
      </trkpt>
      <trkpt lat="46.71713" lon="6.30721">
        <ele>1204.9</ele>
        <time>2022-07-05T12:19:21Z</time>
      </trkpt>
      <trkpt lat="46.71716" lon="6.30716">
        <ele>1203.5</ele>
        <time>2022-07-05T12:19:26Z</time>
      </trkpt>
      <trkpt lat="46.71717" lon="6.30709">
        <ele>1201.6</ele>
        <time>2022-07-05T12:19:31Z</time>
      </trkpt>
      <trkpt lat="46.71718" lon="6.30701">
        <ele>1200.2</ele>
        <time>2022-07-05T12:19:36Z</time>
      </trkpt>
      <trkpt lat="46.71722" lon="6.30696">
        <ele>1198.3</ele>
        <time>2022-07-05T12:19:41Z</time>
      </trkpt>
      <trkpt lat="46.71726" lon="6.30692">
        <ele>1196.6</ele>
        <time>2022-07-05T12:19:45Z</time>
      </trkpt>
      <trkpt lat="46.71726" lon="6.30685">
        <ele>1194.6</ele>
        <time>2022-07-05T12:19:50Z</time>
      </trkpt>
      <trkpt lat="46.7173" lon="6.3068">
        <ele>1192.9</ele>
        <time>2022-07-05T12:19:55Z</time>
      </trkpt>
      <trkpt lat="46.71733" lon="6.30676">
        <ele>1192.3</ele>
        <time>2022-07-05T12:20:00Z</time>
      </trkpt>
      <trkpt lat="46.71736" lon="6.30671">
        <ele>1192.9</ele>
        <time>2022-07-05T12:20:06Z</time>
      </trkpt>
      <trkpt lat="46.71739" lon="6.30665">
        <ele>1193.1</ele>
        <time>2022-07-05T12:20:11Z</time>
      </trkpt>
      <trkpt lat="46.71741" lon="6.30658">
        <ele>1193</ele>
        <time>2022-07-05T12:20:16Z</time>
      </trkpt>
      <trkpt lat="46.71745" lon="6.30653">
        <ele>1192.8</ele>
        <time>2022-07-05T12:20:22Z</time>
      </trkpt>
      <trkpt lat="46.7175" lon="6.30655">
        <ele>1192.7</ele>
        <time>2022-07-05T12:20:27Z</time>
      </trkpt>
      <trkpt lat="46.71754" lon="6.30656">
        <ele>1195.5</ele>
        <time>2022-07-05T12:20:36Z</time>
      </trkpt>
      <trkpt lat="46.71759" lon="6.30651">
        <ele>1197.5</ele>
        <time>2022-07-05T12:21:02Z</time>
      </trkpt>
      <trkpt lat="46.71765" lon="6.3065">
        <ele>1198.4</ele>
        <time>2022-07-05T12:21:06Z</time>
      </trkpt>
      <trkpt lat="46.71769" lon="6.30649">
        <ele>1199.8</ele>
        <time>2022-07-05T12:21:10Z</time>
      </trkpt>
      <trkpt lat="46.71773" lon="6.30643">
        <ele>1201.8</ele>
        <time>2022-07-05T12:21:16Z</time>
      </trkpt>
      <trkpt lat="46.71774" lon="6.30637">
        <ele>1202.7</ele>
        <time>2022-07-05T12:21:21Z</time>
      </trkpt>
      <trkpt lat="46.71776" lon="6.3063">
        <ele>1203</ele>
        <time>2022-07-05T12:21:27Z</time>
      </trkpt>
      <trkpt lat="46.71778" lon="6.30625">
        <ele>1203.3</ele>
        <time>2022-07-05T12:21:33Z</time>
      </trkpt>
      <trkpt lat="46.71781" lon="6.30618">
        <ele>1203.4</ele>
        <time>2022-07-05T12:21:38Z</time>
      </trkpt>
      <trkpt lat="46.71782" lon="6.30612">
        <ele>1203.8</ele>
        <time>2022-07-05T12:21:42Z</time>
      </trkpt>
      <trkpt lat="46.71784" lon="6.30606">
        <ele>1204.3</ele>
        <time>2022-07-05T12:21:46Z</time>
      </trkpt>
      <trkpt lat="46.71785" lon="6.30599">
        <ele>1204.7</ele>
        <time>2022-07-05T12:21:50Z</time>
      </trkpt>
      <trkpt lat="46.71788" lon="6.30592">
        <ele>1205.5</ele>
        <time>2022-07-05T12:21:55Z</time>
      </trkpt>
      <trkpt lat="46.7179" lon="6.30586">
        <ele>1205.7</ele>
        <time>2022-07-05T12:22:00Z</time>
      </trkpt>
      <trkpt lat="46.71791" lon="6.30578">
        <ele>1205.7</ele>
        <time>2022-07-05T12:22:05Z</time>
      </trkpt>
      <trkpt lat="46.71791" lon="6.3057">
        <ele>1205.7</ele>
        <time>2022-07-05T12:22:10Z</time>
      </trkpt>
      <trkpt lat="46.71791" lon="6.30563">
        <ele>1205.5</ele>
        <time>2022-07-05T12:22:15Z</time>
      </trkpt>
      <trkpt lat="46.7179" lon="6.30556">
        <ele>1205.5</ele>
        <time>2022-07-05T12:22:19Z</time>
      </trkpt>
      <trkpt lat="46.71789" lon="6.3055">
        <ele>1205.7</ele>
        <time>2022-07-05T12:22:27Z</time>
      </trkpt>
      <trkpt lat="46.71786" lon="6.30544">
        <ele>1205.1</ele>
        <time>2022-07-05T12:22:32Z</time>
      </trkpt>
      <trkpt lat="46.71785" lon="6.30537">
        <ele>1203.3</ele>
        <time>2022-07-05T12:22:36Z</time>
      </trkpt>
      <trkpt lat="46.71784" lon="6.30531">
        <ele>1201.8</ele>
        <time>2022-07-05T12:22:41Z</time>
      </trkpt>
      <trkpt lat="46.71784" lon="6.30523">
        <ele>1201</ele>
        <time>2022-07-05T12:22:48Z</time>
      </trkpt>
      <trkpt lat="46.71782" lon="6.30515">
        <ele>1201.3</ele>
        <time>2022-07-05T12:22:51Z</time>
      </trkpt>
      <trkpt lat="46.7178" lon="6.30507">
        <ele>1202.3</ele>
        <time>2022-07-05T12:22:55Z</time>
      </trkpt>
      <trkpt lat="46.71779" lon="6.305">
        <ele>1203.4</ele>
        <time>2022-07-05T12:23:01Z</time>
      </trkpt>
      <trkpt lat="46.71778" lon="6.30492">
        <ele>1205.9</ele>
        <time>2022-07-05T12:23:07Z</time>
      </trkpt>
      <trkpt lat="46.71776" lon="6.30486">
        <ele>1207.8</ele>
        <time>2022-07-05T12:23:12Z</time>
      </trkpt>
      <trkpt lat="46.71773" lon="6.30481">
        <ele>1208.6</ele>
        <time>2022-07-05T12:23:15Z</time>
      </trkpt>
      <trkpt lat="46.7177" lon="6.30475">
        <ele>1208.9</ele>
        <time>2022-07-05T12:23:18Z</time>
      </trkpt>
      <trkpt lat="46.71766" lon="6.30469">
        <ele>1209</ele>
        <time>2022-07-05T12:23:21Z</time>
      </trkpt>
      <trkpt lat="46.71764" lon="6.30462">
        <ele>1209</ele>
        <time>2022-07-05T12:23:25Z</time>
      </trkpt>
      <trkpt lat="46.71761" lon="6.30456">
        <ele>1209.2</ele>
        <time>2022-07-05T12:23:31Z</time>
      </trkpt>
      <trkpt lat="46.71757" lon="6.30451">
        <ele>1208.1</ele>
        <time>2022-07-05T12:23:36Z</time>
      </trkpt>
      <trkpt lat="46.71753" lon="6.30446">
        <ele>1207.4</ele>
        <time>2022-07-05T12:23:40Z</time>
      </trkpt>
      <trkpt lat="46.71748" lon="6.30442">
        <ele>1206.5</ele>
        <time>2022-07-05T12:23:45Z</time>
      </trkpt>
      <trkpt lat="46.71744" lon="6.30437">
        <ele>1205.8</ele>
        <time>2022-07-05T12:23:50Z</time>
      </trkpt>
      <trkpt lat="46.7174" lon="6.30433">
        <ele>1206.5</ele>
        <time>2022-07-05T12:23:55Z</time>
      </trkpt>
      <trkpt lat="46.71736" lon="6.30429">
        <ele>1207.6</ele>
        <time>2022-07-05T12:24:00Z</time>
      </trkpt>
      <trkpt lat="46.71733" lon="6.30424">
        <ele>1208.1</ele>
        <time>2022-07-05T12:24:04Z</time>
      </trkpt>
      <trkpt lat="46.71729" lon="6.3042">
        <ele>1207.7</ele>
        <time>2022-07-05T12:24:10Z</time>
      </trkpt>
      <trkpt lat="46.71725" lon="6.30415">
        <ele>1205.9</ele>
        <time>2022-07-05T12:24:16Z</time>
      </trkpt>
      <trkpt lat="46.71721" lon="6.3041">
        <ele>1204.8</ele>
        <time>2022-07-05T12:24:20Z</time>
      </trkpt>
      <trkpt lat="46.71718" lon="6.30405">
        <ele>1204.3</ele>
        <time>2022-07-05T12:24:24Z</time>
      </trkpt>
      <trkpt lat="46.71714" lon="6.30401">
        <ele>1204.1</ele>
        <time>2022-07-05T12:24:30Z</time>
      </trkpt>
      <trkpt lat="46.7171" lon="6.30397">
        <ele>1204.3</ele>
        <time>2022-07-05T12:24:35Z</time>
      </trkpt>
      <trkpt lat="46.71706" lon="6.30394">
        <ele>1204.1</ele>
        <time>2022-07-05T12:24:42Z</time>
      </trkpt>
      <trkpt lat="46.71701" lon="6.30393">
        <ele>1204.7</ele>
        <time>2022-07-05T12:24:46Z</time>
      </trkpt>
      <trkpt lat="46.71697" lon="6.30391">
        <ele>1204.6</ele>
        <time>2022-07-05T12:24:51Z</time>
      </trkpt>
      <trkpt lat="46.71692" lon="6.30389">
        <ele>1203.5</ele>
        <time>2022-07-05T12:24:56Z</time>
      </trkpt>
      <trkpt lat="46.71687" lon="6.30388">
        <ele>1202.1</ele>
        <time>2022-07-05T12:25:01Z</time>
      </trkpt>
      <trkpt lat="46.71681" lon="6.30386">
        <ele>1200.7</ele>
        <time>2022-07-05T12:25:06Z</time>
      </trkpt>
      <trkpt lat="46.71676" lon="6.30387">
        <ele>1200</ele>
        <time>2022-07-05T12:25:11Z</time>
      </trkpt>
      <trkpt lat="46.71671" lon="6.30388">
        <ele>1200.2</ele>
        <time>2022-07-05T12:25:16Z</time>
      </trkpt>
      <trkpt lat="46.71666" lon="6.30389">
        <ele>1200.7</ele>
        <time>2022-07-05T12:25:21Z</time>
      </trkpt>
      <trkpt lat="46.71661" lon="6.30389">
        <ele>1200.8</ele>
        <time>2022-07-05T12:25:25Z</time>
      </trkpt>
      <trkpt lat="46.71656" lon="6.3039">
        <ele>1201.3</ele>
        <time>2022-07-05T12:25:29Z</time>
      </trkpt>
      <trkpt lat="46.71651" lon="6.3039">
        <ele>1202.6</ele>
        <time>2022-07-05T12:25:34Z</time>
      </trkpt>
      <trkpt lat="46.71647" lon="6.30386">
        <ele>1203.3</ele>
        <time>2022-07-05T12:25:41Z</time>
      </trkpt>
      <trkpt lat="46.71642" lon="6.30385">
        <ele>1202.9</ele>
        <time>2022-07-05T12:25:45Z</time>
      </trkpt>
      <trkpt lat="46.71638" lon="6.30383">
        <ele>1201.9</ele>
        <time>2022-07-05T12:25:49Z</time>
      </trkpt>
      <trkpt lat="46.71634" lon="6.3038">
        <ele>1200.7</ele>
        <time>2022-07-05T12:25:53Z</time>
      </trkpt>
      <trkpt lat="46.71629" lon="6.30377">
        <ele>1198.7</ele>
        <time>2022-07-05T12:25:58Z</time>
      </trkpt>
      <trkpt lat="46.71624" lon="6.30375">
        <ele>1197.2</ele>
        <time>2022-07-05T12:26:02Z</time>
      </trkpt>
      <trkpt lat="46.71619" lon="6.30372">
        <ele>1196</ele>
        <time>2022-07-05T12:26:06Z</time>
      </trkpt>
      <trkpt lat="46.71616" lon="6.30369">
        <ele>1194.8</ele>
        <time>2022-07-05T12:26:11Z</time>
      </trkpt>
      <trkpt lat="46.71611" lon="6.30366">
        <ele>1193.6</ele>
        <time>2022-07-05T12:26:17Z</time>
      </trkpt>
      <trkpt lat="46.71607" lon="6.30361">
        <ele>1193.3</ele>
        <time>2022-07-05T12:26:21Z</time>
      </trkpt>
      <trkpt lat="46.71604" lon="6.30355">
        <ele>1193.4</ele>
        <time>2022-07-05T12:26:25Z</time>
      </trkpt>
      <trkpt lat="46.71603" lon="6.30348">
        <ele>1193.5</ele>
        <time>2022-07-05T12:26:30Z</time>
      </trkpt>
      <trkpt lat="46.71601" lon="6.30341">
        <ele>1193.9</ele>
        <time>2022-07-05T12:26:35Z</time>
      </trkpt>
      <trkpt lat="46.71599" lon="6.30335">
        <ele>1194.8</ele>
        <time>2022-07-05T12:26:39Z</time>
      </trkpt>
      <trkpt lat="46.71597" lon="6.30328">
        <ele>1195.3</ele>
        <time>2022-07-05T12:26:43Z</time>
      </trkpt>
      <trkpt lat="46.71594" lon="6.30321">
        <ele>1195.7</ele>
        <time>2022-07-05T12:26:49Z</time>
      </trkpt>
      <trkpt lat="46.71592" lon="6.30314">
        <ele>1196.1</ele>
        <time>2022-07-05T12:26:54Z</time>
      </trkpt>
      <trkpt lat="46.7159" lon="6.30308">
        <ele>1196.6</ele>
        <time>2022-07-05T12:26:58Z</time>
      </trkpt>
      <trkpt lat="46.71589" lon="6.30301">
        <ele>1197.5</ele>
        <time>2022-07-05T12:27:05Z</time>
      </trkpt>
      <trkpt lat="46.71587" lon="6.30294">
        <ele>1197.8</ele>
        <time>2022-07-05T12:27:11Z</time>
      </trkpt>
      <trkpt lat="46.71584" lon="6.30289">
        <ele>1197.1</ele>
        <time>2022-07-05T12:27:17Z</time>
      </trkpt>
      <trkpt lat="46.71582" lon="6.30281">
        <ele>1196.8</ele>
        <time>2022-07-05T12:27:21Z</time>
      </trkpt>
      <trkpt lat="46.7158" lon="6.30275">
        <ele>1196.8</ele>
        <time>2022-07-05T12:27:24Z</time>
      </trkpt>
      <trkpt lat="46.71579" lon="6.30268">
        <ele>1197.1</ele>
        <time>2022-07-05T12:27:27Z</time>
      </trkpt>
      <trkpt lat="46.71577" lon="6.30261">
        <ele>1197.7</ele>
        <time>2022-07-05T12:27:31Z</time>
      </trkpt>
      <trkpt lat="46.71574" lon="6.30253">
        <ele>1198.3</ele>
        <time>2022-07-05T12:27:35Z</time>
      </trkpt>
      <trkpt lat="46.71573" lon="6.30246">
        <ele>1198.5</ele>
        <time>2022-07-05T12:27:39Z</time>
      </trkpt>
      <trkpt lat="46.71571" lon="6.3024">
        <ele>1198.7</ele>
        <time>2022-07-05T12:27:43Z</time>
      </trkpt>
      <trkpt lat="46.71569" lon="6.30233">
        <ele>1197.9</ele>
        <time>2022-07-05T12:27:48Z</time>
      </trkpt>
      <trkpt lat="46.71566" lon="6.30227">
        <ele>1195.7</ele>
        <time>2022-07-05T12:27:54Z</time>
      </trkpt>
      <trkpt lat="46.71564" lon="6.3022">
        <ele>1194.1</ele>
        <time>2022-07-05T12:27:59Z</time>
      </trkpt>
      <trkpt lat="46.71563" lon="6.30214">
        <ele>1193.5</ele>
        <time>2022-07-05T12:28:04Z</time>
      </trkpt>
      <trkpt lat="46.71562" lon="6.30207">
        <ele>1194.2</ele>
        <time>2022-07-05T12:28:09Z</time>
      </trkpt>
      <trkpt lat="46.71562" lon="6.302">
        <ele>1194.2</ele>
        <time>2022-07-05T12:28:14Z</time>
      </trkpt>
      <trkpt lat="46.71561" lon="6.30192">
        <ele>1194</ele>
        <time>2022-07-05T12:28:19Z</time>
      </trkpt>
      <trkpt lat="46.71561" lon="6.30184">
        <ele>1193.4</ele>
        <time>2022-07-05T12:28:24Z</time>
      </trkpt>
      <trkpt lat="46.71561" lon="6.30177">
        <ele>1193.4</ele>
        <time>2022-07-05T12:28:28Z</time>
      </trkpt>
      <trkpt lat="46.71563" lon="6.30171">
        <ele>1193.9</ele>
        <time>2022-07-05T12:28:32Z</time>
      </trkpt>
      <trkpt lat="46.71566" lon="6.30165">
        <ele>1194.2</ele>
        <time>2022-07-05T12:28:38Z</time>
      </trkpt>
      <trkpt lat="46.71568" lon="6.30158">
        <ele>1194</ele>
        <time>2022-07-05T12:28:43Z</time>
      </trkpt>
      <trkpt lat="46.71569" lon="6.30152">
        <ele>1193.6</ele>
        <time>2022-07-05T12:28:47Z</time>
      </trkpt>
      <trkpt lat="46.71569" lon="6.30145">
        <ele>1193.4</ele>
        <time>2022-07-05T12:28:51Z</time>
      </trkpt>
      <trkpt lat="46.7157" lon="6.30138">
        <ele>1193</ele>
        <time>2022-07-05T12:28:56Z</time>
      </trkpt>
      <trkpt lat="46.71574" lon="6.30136">
        <ele>1192.6</ele>
        <time>2022-07-05T12:29:03Z</time>
      </trkpt>
      <trkpt lat="46.71579" lon="6.30139">
        <ele>1191.8</ele>
        <time>2022-07-05T12:29:11Z</time>
      </trkpt>
      <trkpt lat="46.71584" lon="6.30138">
        <ele>1191.9</ele>
        <time>2022-07-05T12:29:42Z</time>
      </trkpt>
      <trkpt lat="46.71588" lon="6.30141">
        <ele>1192.4</ele>
        <time>2022-07-05T12:29:48Z</time>
      </trkpt>
      <trkpt lat="46.71594" lon="6.30143">
        <ele>1192.8</ele>
        <time>2022-07-05T12:29:53Z</time>
      </trkpt>
      <trkpt lat="46.71598" lon="6.30141">
        <ele>1193.5</ele>
        <time>2022-07-05T12:29:57Z</time>
      </trkpt>
      <trkpt lat="46.71603" lon="6.30139">
        <ele>1193.5</ele>
        <time>2022-07-05T12:30:04Z</time>
      </trkpt>
      <trkpt lat="46.71608" lon="6.30137">
        <ele>1193.1</ele>
        <time>2022-07-05T12:30:08Z</time>
      </trkpt>
      <trkpt lat="46.71612" lon="6.30134">
        <ele>1193.1</ele>
        <time>2022-07-05T12:30:12Z</time>
      </trkpt>
      <trkpt lat="46.71617" lon="6.30131">
        <ele>1193.3</ele>
        <time>2022-07-05T12:30:16Z</time>
      </trkpt>
      <trkpt lat="46.71621" lon="6.30127">
        <ele>1193.8</ele>
        <time>2022-07-05T12:30:20Z</time>
      </trkpt>
      <trkpt lat="46.71625" lon="6.30123">
        <ele>1194.9</ele>
        <time>2022-07-05T12:30:25Z</time>
      </trkpt>
      <trkpt lat="46.7163" lon="6.30119">
        <ele>1195.9</ele>
        <time>2022-07-05T12:30:30Z</time>
      </trkpt>
      <trkpt lat="46.71634" lon="6.30116">
        <ele>1196.8</ele>
        <time>2022-07-05T12:30:36Z</time>
      </trkpt>
      <trkpt lat="46.71639" lon="6.30112">
        <ele>1197.2</ele>
        <time>2022-07-05T12:30:41Z</time>
      </trkpt>
      <trkpt lat="46.71643" lon="6.30107">
        <ele>1197.3</ele>
        <time>2022-07-05T12:30:46Z</time>
      </trkpt>
      <trkpt lat="46.71648" lon="6.30104">
        <ele>1197.4</ele>
        <time>2022-07-05T12:30:51Z</time>
      </trkpt>
      <trkpt lat="46.71651" lon="6.30099">
        <ele>1197.3</ele>
        <time>2022-07-05T12:30:55Z</time>
      </trkpt>
      <trkpt lat="46.71654" lon="6.30093">
        <ele>1197</ele>
        <time>2022-07-05T12:31:01Z</time>
      </trkpt>
      <trkpt lat="46.71659" lon="6.30089">
        <ele>1196.8</ele>
        <time>2022-07-05T12:31:06Z</time>
      </trkpt>
      <trkpt lat="46.71663" lon="6.30087">
        <ele>1196.6</ele>
        <time>2022-07-05T12:31:10Z</time>
      </trkpt>
      <trkpt lat="46.71667" lon="6.30082">
        <ele>1196.6</ele>
        <time>2022-07-05T12:31:15Z</time>
      </trkpt>
      <trkpt lat="46.71671" lon="6.30076">
        <ele>1196.5</ele>
        <time>2022-07-05T12:31:20Z</time>
      </trkpt>
      <trkpt lat="46.71675" lon="6.30071">
        <ele>1196.6</ele>
        <time>2022-07-05T12:31:24Z</time>
      </trkpt>
      <trkpt lat="46.71679" lon="6.30066">
        <ele>1196.5</ele>
        <time>2022-07-05T12:31:28Z</time>
      </trkpt>
      <trkpt lat="46.71682" lon="6.30061">
        <ele>1196.3</ele>
        <time>2022-07-05T12:31:32Z</time>
      </trkpt>
      <trkpt lat="46.71685" lon="6.30056">
        <ele>1196.2</ele>
        <time>2022-07-05T12:31:37Z</time>
      </trkpt>
      <trkpt lat="46.71687" lon="6.3005">
        <ele>1196.3</ele>
        <time>2022-07-05T12:31:54Z</time>
      </trkpt>
      <trkpt lat="46.71692" lon="6.30047">
        <ele>1194.1</ele>
        <time>2022-07-05T12:32:03Z</time>
      </trkpt>
      <trkpt lat="46.71696" lon="6.30044">
        <ele>1192.8</ele>
        <time>2022-07-05T12:32:07Z</time>
      </trkpt>
      <trkpt lat="46.71701" lon="6.3004">
        <ele>1191.3</ele>
        <time>2022-07-05T12:32:11Z</time>
      </trkpt>
      <trkpt lat="46.71704" lon="6.30035">
        <ele>1189.6</ele>
        <time>2022-07-05T12:32:16Z</time>
      </trkpt>
      <trkpt lat="46.71708" lon="6.3003">
        <ele>1188.2</ele>
        <time>2022-07-05T12:32:21Z</time>
      </trkpt>
      <trkpt lat="46.71712" lon="6.30027">
        <ele>1188.3</ele>
        <time>2022-07-05T12:32:25Z</time>
      </trkpt>
      <trkpt lat="46.71717" lon="6.30025">
        <ele>1188.9</ele>
        <time>2022-07-05T12:32:29Z</time>
      </trkpt>
      <trkpt lat="46.71722" lon="6.30024">
        <ele>1189.5</ele>
        <time>2022-07-05T12:32:34Z</time>
      </trkpt>
      <trkpt lat="46.71726" lon="6.3002">
        <ele>1191.8</ele>
        <time>2022-07-05T12:32:49Z</time>
      </trkpt>
      <trkpt lat="46.71727" lon="6.30013">
        <ele>1193.6</ele>
        <time>2022-07-05T12:32:59Z</time>
      </trkpt>
      <trkpt lat="46.71732" lon="6.30015">
        <ele>1194</ele>
        <time>2022-07-05T12:33:04Z</time>
      </trkpt>
      <trkpt lat="46.71736" lon="6.30019">
        <ele>1193.7</ele>
        <time>2022-07-05T12:33:08Z</time>
      </trkpt>
      <trkpt lat="46.71741" lon="6.30021">
        <ele>1192.6</ele>
        <time>2022-07-05T12:33:13Z</time>
      </trkpt>
      <trkpt lat="46.71746" lon="6.30021">
        <ele>1188.7</ele>
        <time>2022-07-05T12:33:35Z</time>
      </trkpt>
      <trkpt lat="46.71748" lon="6.30014">
        <ele>1188.9</ele>
        <time>2022-07-05T12:33:42Z</time>
      </trkpt>
      <trkpt lat="46.71752" lon="6.30015">
        <ele>1188.8</ele>
        <time>2022-07-05T12:33:48Z</time>
      </trkpt>
      <trkpt lat="46.71757" lon="6.30019">
        <ele>1188.7</ele>
        <time>2022-07-05T12:33:54Z</time>
      </trkpt>
      <trkpt lat="46.71761" lon="6.30023">
        <ele>1188.6</ele>
        <time>2022-07-05T12:33:58Z</time>
      </trkpt>
      <trkpt lat="46.71763" lon="6.30029">
        <ele>1188.3</ele>
        <time>2022-07-05T12:34:03Z</time>
      </trkpt>
      <trkpt lat="46.71767" lon="6.30033">
        <ele>1187.8</ele>
        <time>2022-07-05T12:34:07Z</time>
      </trkpt>
      <trkpt lat="46.71771" lon="6.30039">
        <ele>1187.4</ele>
        <time>2022-07-05T12:34:12Z</time>
      </trkpt>
      <trkpt lat="46.71773" lon="6.30044">
        <ele>1187.1</ele>
        <time>2022-07-05T12:34:16Z</time>
      </trkpt>
      <trkpt lat="46.71775" lon="6.3005">
        <ele>1186.8</ele>
        <time>2022-07-05T12:34:20Z</time>
      </trkpt>
      <trkpt lat="46.71779" lon="6.30056">
        <ele>1186.1</ele>
        <time>2022-07-05T12:34:25Z</time>
      </trkpt>
      <trkpt lat="46.71782" lon="6.30062">
        <ele>1185.6</ele>
        <time>2022-07-05T12:34:30Z</time>
      </trkpt>
      <trkpt lat="46.71784" lon="6.30068">
        <ele>1185.4</ele>
        <time>2022-07-05T12:34:35Z</time>
      </trkpt>
      <trkpt lat="46.71786" lon="6.30074">
        <ele>1185.3</ele>
        <time>2022-07-05T12:34:41Z</time>
      </trkpt>
      <trkpt lat="46.7179" lon="6.30079">
        <ele>1185.8</ele>
        <time>2022-07-05T12:34:46Z</time>
      </trkpt>
      <trkpt lat="46.71793" lon="6.30083">
        <ele>1186.3</ele>
        <time>2022-07-05T12:34:50Z</time>
      </trkpt>
      <trkpt lat="46.71792" lon="6.30089">
        <ele>1186</ele>
        <time>2022-07-05T12:34:58Z</time>
      </trkpt>
      <trkpt lat="46.71797" lon="6.30089">
        <ele>1183.2</ele>
        <time>2022-07-05T12:35:45Z</time>
      </trkpt>
      <trkpt lat="46.71802" lon="6.30089">
        <ele>1183.5</ele>
        <time>2022-07-05T12:35:48Z</time>
      </trkpt>
      <trkpt lat="46.71808" lon="6.30088">
        <ele>1184</ele>
        <time>2022-07-05T12:35:51Z</time>
      </trkpt>
      <trkpt lat="46.71813" lon="6.30087">
        <ele>1184.6</ele>
        <time>2022-07-05T12:35:54Z</time>
      </trkpt>
      <trkpt lat="46.71818" lon="6.30083">
        <ele>1185.5</ele>
        <time>2022-07-05T12:35:58Z</time>
      </trkpt>
      <trkpt lat="46.71823" lon="6.3008">
        <ele>1185.2</ele>
        <time>2022-07-05T12:36:02Z</time>
      </trkpt>
      <trkpt lat="46.71827" lon="6.30076">
        <ele>1184.2</ele>
        <time>2022-07-05T12:36:06Z</time>
      </trkpt>
      <trkpt lat="46.71829" lon="6.3007">
        <ele>1182.8</ele>
        <time>2022-07-05T12:36:10Z</time>
      </trkpt>
      <trkpt lat="46.7183" lon="6.30064">
        <ele>1181.9</ele>
        <time>2022-07-05T12:36:13Z</time>
      </trkpt>
      <trkpt lat="46.71831" lon="6.30056">
        <ele>1181.3</ele>
        <time>2022-07-05T12:36:16Z</time>
      </trkpt>
      <trkpt lat="46.71832" lon="6.30048">
        <ele>1180.9</ele>
        <time>2022-07-05T12:36:19Z</time>
      </trkpt>
      <trkpt lat="46.71834" lon="6.30042">
        <ele>1180.7</ele>
        <time>2022-07-05T12:36:22Z</time>
      </trkpt>
      <trkpt lat="46.71836" lon="6.30036">
        <ele>1181</ele>
        <time>2022-07-05T12:36:25Z</time>
      </trkpt>
      <trkpt lat="46.71839" lon="6.3003">
        <ele>1181.4</ele>
        <time>2022-07-05T12:36:29Z</time>
      </trkpt>
      <trkpt lat="46.71843" lon="6.30024">
        <ele>1181.9</ele>
        <time>2022-07-05T12:36:33Z</time>
      </trkpt>
      <trkpt lat="46.71847" lon="6.3002">
        <ele>1181.6</ele>
        <time>2022-07-05T12:36:38Z</time>
      </trkpt>
      <trkpt lat="46.71851" lon="6.30014">
        <ele>1180.5</ele>
        <time>2022-07-05T12:36:43Z</time>
      </trkpt>
      <trkpt lat="46.71852" lon="6.30008">
        <ele>1179.8</ele>
        <time>2022-07-05T12:36:47Z</time>
      </trkpt>
      <trkpt lat="46.71854" lon="6.30001">
        <ele>1179.5</ele>
        <time>2022-07-05T12:36:51Z</time>
      </trkpt>
      <trkpt lat="46.71856" lon="6.29995">
        <ele>1179.6</ele>
        <time>2022-07-05T12:36:54Z</time>
      </trkpt>
      <trkpt lat="46.71859" lon="6.29987">
        <ele>1180.3</ele>
        <time>2022-07-05T12:36:58Z</time>
      </trkpt>
      <trkpt lat="46.71861" lon="6.2998">
        <ele>1180.3</ele>
        <time>2022-07-05T12:37:02Z</time>
      </trkpt>
      <trkpt lat="46.71863" lon="6.29974">
        <ele>1180.2</ele>
        <time>2022-07-05T12:37:05Z</time>
      </trkpt>
      <trkpt lat="46.71864" lon="6.29967">
        <ele>1179.9</ele>
        <time>2022-07-05T12:37:08Z</time>
      </trkpt>
      <trkpt lat="46.71865" lon="6.2996">
        <ele>1179.7</ele>
        <time>2022-07-05T12:37:11Z</time>
      </trkpt>
      <trkpt lat="46.71868" lon="6.29953">
        <ele>1179.6</ele>
        <time>2022-07-05T12:37:15Z</time>
      </trkpt>
      <trkpt lat="46.71871" lon="6.29946">
        <ele>1179.4</ele>
        <time>2022-07-05T12:37:19Z</time>
      </trkpt>
      <trkpt lat="46.71874" lon="6.2994">
        <ele>1179.2</ele>
        <time>2022-07-05T12:37:24Z</time>
      </trkpt>
      <trkpt lat="46.71877" lon="6.29933">
        <ele>1179.2</ele>
        <time>2022-07-05T12:37:29Z</time>
      </trkpt>
      <trkpt lat="46.71881" lon="6.2993">
        <ele>1178.8</ele>
        <time>2022-07-05T12:37:33Z</time>
      </trkpt>
      <trkpt lat="46.71887" lon="6.29928">
        <ele>1179</ele>
        <time>2022-07-05T12:37:38Z</time>
      </trkpt>
      <trkpt lat="46.71892" lon="6.29926">
        <ele>1179.4</ele>
        <time>2022-07-05T12:37:43Z</time>
      </trkpt>
      <trkpt lat="46.71896" lon="6.29929">
        <ele>1180.2</ele>
        <time>2022-07-05T12:37:49Z</time>
      </trkpt>
      <trkpt lat="46.71901" lon="6.29928">
        <ele>1179.7</ele>
        <time>2022-07-05T12:37:53Z</time>
      </trkpt>
      <trkpt lat="46.71906" lon="6.29927">
        <ele>1178.7</ele>
        <time>2022-07-05T12:37:57Z</time>
      </trkpt>
      <trkpt lat="46.71911" lon="6.29928">
        <ele>1177</ele>
        <time>2022-07-05T12:38:02Z</time>
      </trkpt>
      <trkpt lat="46.71916" lon="6.29929">
        <ele>1175.5</ele>
        <time>2022-07-05T12:38:07Z</time>
      </trkpt>
      <trkpt lat="46.71921" lon="6.29931">
        <ele>1174.6</ele>
        <time>2022-07-05T12:38:11Z</time>
      </trkpt>
      <trkpt lat="46.71925" lon="6.29933">
        <ele>1173.9</ele>
        <time>2022-07-05T12:38:15Z</time>
      </trkpt>
      <trkpt lat="46.7193" lon="6.29935">
        <ele>1173.4</ele>
        <time>2022-07-05T12:38:19Z</time>
      </trkpt>
      <trkpt lat="46.71935" lon="6.29935">
        <ele>1173.3</ele>
        <time>2022-07-05T12:38:24Z</time>
      </trkpt>
      <trkpt lat="46.7194" lon="6.29935">
        <ele>1173.3</ele>
        <time>2022-07-05T12:38:29Z</time>
      </trkpt>
      <trkpt lat="46.71945" lon="6.29935">
        <ele>1173</ele>
        <time>2022-07-05T12:38:36Z</time>
      </trkpt>
      <trkpt lat="46.7195" lon="6.29934">
        <ele>1172</ele>
        <time>2022-07-05T12:38:42Z</time>
      </trkpt>
      <trkpt lat="46.71955" lon="6.29934">
        <ele>1171.1</ele>
        <time>2022-07-05T12:38:47Z</time>
      </trkpt>
      <trkpt lat="46.71959" lon="6.29935">
        <ele>1169.7</ele>
        <time>2022-07-05T12:38:53Z</time>
      </trkpt>
      <trkpt lat="46.71964" lon="6.29936">
        <ele>1168.4</ele>
        <time>2022-07-05T12:39:00Z</time>
      </trkpt>
      <trkpt lat="46.71969" lon="6.29936">
        <ele>1166.5</ele>
        <time>2022-07-05T12:39:08Z</time>
      </trkpt>
      <trkpt lat="46.71975" lon="6.29936">
        <ele>1165.3</ele>
        <time>2022-07-05T12:39:13Z</time>
      </trkpt>
      <trkpt lat="46.7198" lon="6.29936">
        <ele>1164.5</ele>
        <time>2022-07-05T12:39:18Z</time>
      </trkpt>
      <trkpt lat="46.71986" lon="6.29936">
        <ele>1163.9</ele>
        <time>2022-07-05T12:39:23Z</time>
      </trkpt>
      <trkpt lat="46.7199" lon="6.29937">
        <ele>1163.2</ele>
        <time>2022-07-05T12:39:27Z</time>
      </trkpt>
      <trkpt lat="46.71996" lon="6.29938">
        <ele>1162.6</ele>
        <time>2022-07-05T12:39:31Z</time>
      </trkpt>
      <trkpt lat="46.72001" lon="6.29939">
        <ele>1161.8</ele>
        <time>2022-07-05T12:39:37Z</time>
      </trkpt>
      <trkpt lat="46.72006" lon="6.29939">
        <ele>1161.1</ele>
        <time>2022-07-05T12:39:42Z</time>
      </trkpt>
      <trkpt lat="46.72012" lon="6.29941">
        <ele>1160.3</ele>
        <time>2022-07-05T12:39:48Z</time>
      </trkpt>
      <trkpt lat="46.72016" lon="6.29939">
        <ele>1159.6</ele>
        <time>2022-07-05T12:39:53Z</time>
      </trkpt>
      <trkpt lat="46.72022" lon="6.29939">
        <ele>1158.6</ele>
        <time>2022-07-05T12:39:59Z</time>
      </trkpt>
      <trkpt lat="46.72027" lon="6.2994">
        <ele>1157.1</ele>
        <time>2022-07-05T12:40:05Z</time>
      </trkpt>
      <trkpt lat="46.72031" lon="6.29938">
        <ele>1155.7</ele>
        <time>2022-07-05T12:40:12Z</time>
      </trkpt>
      <trkpt lat="46.72037" lon="6.29935">
        <ele>1155</ele>
        <time>2022-07-05T12:40:22Z</time>
      </trkpt>
      <trkpt lat="46.7204" lon="6.2993">
        <ele>1153.4</ele>
        <time>2022-07-05T12:41:09Z</time>
      </trkpt>
      <trkpt lat="46.72044" lon="6.29927">
        <ele>1152.9</ele>
        <time>2022-07-05T12:41:13Z</time>
      </trkpt>
      <trkpt lat="46.72049" lon="6.29927">
        <ele>1152.1</ele>
        <time>2022-07-05T12:41:18Z</time>
      </trkpt>
      <trkpt lat="46.72054" lon="6.29927">
        <ele>1151.3</ele>
        <time>2022-07-05T12:41:23Z</time>
      </trkpt>
      <trkpt lat="46.7206" lon="6.29925">
        <ele>1150.6</ele>
        <time>2022-07-05T12:41:28Z</time>
      </trkpt>
      <trkpt lat="46.72064" lon="6.29923">
        <ele>1150</ele>
        <time>2022-07-05T12:41:33Z</time>
      </trkpt>
      <trkpt lat="46.72069" lon="6.2992">
        <ele>1149.2</ele>
        <time>2022-07-05T12:41:38Z</time>
      </trkpt>
      <trkpt lat="46.72075" lon="6.29918">
        <ele>1148.8</ele>
        <time>2022-07-05T12:41:41Z</time>
      </trkpt>
      <trkpt lat="46.7208" lon="6.29916">
        <ele>1148.5</ele>
        <time>2022-07-05T12:41:44Z</time>
      </trkpt>
      <trkpt lat="46.72085" lon="6.29915">
        <ele>1148.1</ele>
        <time>2022-07-05T12:41:48Z</time>
      </trkpt>
      <trkpt lat="46.7209" lon="6.29915">
        <ele>1147.8</ele>
        <time>2022-07-05T12:41:51Z</time>
      </trkpt>
      <trkpt lat="46.72095" lon="6.29916">
        <ele>1147.1</ele>
        <time>2022-07-05T12:41:56Z</time>
      </trkpt>
      <trkpt lat="46.721" lon="6.29916">
        <ele>1146.6</ele>
        <time>2022-07-05T12:42:00Z</time>
      </trkpt>
      <trkpt lat="46.72105" lon="6.29917">
        <ele>1146.1</ele>
        <time>2022-07-05T12:42:04Z</time>
      </trkpt>
      <trkpt lat="46.72109" lon="6.29918">
        <ele>1145.2</ele>
        <time>2022-07-05T12:42:10Z</time>
      </trkpt>
      <trkpt lat="46.72115" lon="6.29918">
        <ele>1144.6</ele>
        <time>2022-07-05T12:42:15Z</time>
      </trkpt>
      <trkpt lat="46.7212" lon="6.29919">
        <ele>1144.2</ele>
        <time>2022-07-05T12:42:19Z</time>
      </trkpt>
      <trkpt lat="46.72125" lon="6.29919">
        <ele>1143.8</ele>
        <time>2022-07-05T12:42:23Z</time>
      </trkpt>
      <trkpt lat="46.7213" lon="6.29919">
        <ele>1143.5</ele>
        <time>2022-07-05T12:42:27Z</time>
      </trkpt>
      <trkpt lat="46.72135" lon="6.29919">
        <ele>1143.4</ele>
        <time>2022-07-05T12:42:32Z</time>
      </trkpt>
      <trkpt lat="46.72141" lon="6.29918">
        <ele>1143.2</ele>
        <time>2022-07-05T12:42:37Z</time>
      </trkpt>
      <trkpt lat="46.72145" lon="6.29917">
        <ele>1142.6</ele>
        <time>2022-07-05T12:42:43Z</time>
      </trkpt>
      <trkpt lat="46.7215" lon="6.29917">
        <ele>1142.5</ele>
        <time>2022-07-05T12:42:48Z</time>
      </trkpt>
      <trkpt lat="46.72155" lon="6.29917">
        <ele>1142</ele>
        <time>2022-07-05T12:42:53Z</time>
      </trkpt>
      <trkpt lat="46.7216" lon="6.29919">
        <ele>1141.5</ele>
        <time>2022-07-05T12:42:57Z</time>
      </trkpt>
      <trkpt lat="46.72165" lon="6.29921">
        <ele>1141.3</ele>
        <time>2022-07-05T12:43:01Z</time>
      </trkpt>
      <trkpt lat="46.72169" lon="6.29924">
        <ele>1141.3</ele>
        <time>2022-07-05T12:43:06Z</time>
      </trkpt>
      <trkpt lat="46.72174" lon="6.29926">
        <ele>1141.5</ele>
        <time>2022-07-05T12:43:11Z</time>
      </trkpt>
      <trkpt lat="46.72179" lon="6.29927">
        <ele>1141.7</ele>
        <time>2022-07-05T12:43:16Z</time>
      </trkpt>
      <trkpt lat="46.72185" lon="6.29926">
        <ele>1141.9</ele>
        <time>2022-07-05T12:43:20Z</time>
      </trkpt>
      <trkpt lat="46.7219" lon="6.29925">
        <ele>1142.4</ele>
        <time>2022-07-05T12:43:23Z</time>
      </trkpt>
      <trkpt lat="46.72195" lon="6.29923">
        <ele>1143.1</ele>
        <time>2022-07-05T12:43:27Z</time>
      </trkpt>
      <trkpt lat="46.72201" lon="6.29921">
        <ele>1143.9</ele>
        <time>2022-07-05T12:43:32Z</time>
      </trkpt>
      <trkpt lat="46.72205" lon="6.29921">
        <ele>1144.5</ele>
        <time>2022-07-05T12:43:36Z</time>
      </trkpt>
      <trkpt lat="46.72211" lon="6.29919">
        <ele>1144.6</ele>
        <time>2022-07-05T12:43:40Z</time>
      </trkpt>
      <trkpt lat="46.72216" lon="6.29918">
        <ele>1144.6</ele>
        <time>2022-07-05T12:43:45Z</time>
      </trkpt>
      <trkpt lat="46.7222" lon="6.29916">
        <ele>1144.9</ele>
        <time>2022-07-05T12:43:50Z</time>
      </trkpt>
      <trkpt lat="46.72225" lon="6.29913">
        <ele>1145.3</ele>
        <time>2022-07-05T12:43:55Z</time>
      </trkpt>
      <trkpt lat="46.7223" lon="6.29911">
        <ele>1145.5</ele>
        <time>2022-07-05T12:43:59Z</time>
      </trkpt>
      <trkpt lat="46.72234" lon="6.2991">
        <ele>1145.7</ele>
        <time>2022-07-05T12:44:04Z</time>
      </trkpt>
      <trkpt lat="46.72239" lon="6.29908">
        <ele>1145.6</ele>
        <time>2022-07-05T12:44:11Z</time>
      </trkpt>
      <trkpt lat="46.72244" lon="6.29906">
        <ele>1145.3</ele>
        <time>2022-07-05T12:44:22Z</time>
      </trkpt>
      <trkpt lat="46.72249" lon="6.29903">
        <ele>1145.4</ele>
        <time>2022-07-05T12:44:28Z</time>
      </trkpt>
      <trkpt lat="46.72254" lon="6.29901">
        <ele>1145.1</ele>
        <time>2022-07-05T12:44:32Z</time>
      </trkpt>
      <trkpt lat="46.72259" lon="6.29901">
        <ele>1144.5</ele>
        <time>2022-07-05T12:44:37Z</time>
      </trkpt>
      <trkpt lat="46.72264" lon="6.299">
        <ele>1144.3</ele>
        <time>2022-07-05T12:44:40Z</time>
      </trkpt>
      <trkpt lat="46.72269" lon="6.299">
        <ele>1143.9</ele>
        <time>2022-07-05T12:44:44Z</time>
      </trkpt>
      <trkpt lat="46.72274" lon="6.299">
        <ele>1143</ele>
        <time>2022-07-05T12:44:52Z</time>
      </trkpt>
      <trkpt lat="46.72279" lon="6.29899">
        <ele>1142.5</ele>
        <time>2022-07-05T12:44:56Z</time>
      </trkpt>
      <trkpt lat="46.72284" lon="6.29898">
        <ele>1141.8</ele>
        <time>2022-07-05T12:45:01Z</time>
      </trkpt>
      <trkpt lat="46.72289" lon="6.29898">
        <ele>1140.9</ele>
        <time>2022-07-05T12:45:07Z</time>
      </trkpt>
      <trkpt lat="46.72298" lon="6.29897">
        <ele>1139.8</ele>
        <time>2022-07-05T12:45:17Z</time>
      </trkpt>
      <trkpt lat="46.72304" lon="6.29897">
        <ele>1139.2</ele>
        <time>2022-07-05T12:45:20Z</time>
      </trkpt>
      <trkpt lat="46.72309" lon="6.29896">
        <ele>1138.5</ele>
        <time>2022-07-05T12:45:24Z</time>
      </trkpt>
      <trkpt lat="46.72314" lon="6.29894">
        <ele>1137.9</ele>
        <time>2022-07-05T12:45:28Z</time>
      </trkpt>
      <trkpt lat="46.72319" lon="6.29892">
        <ele>1137.3</ele>
        <time>2022-07-05T12:45:32Z</time>
      </trkpt>
      <trkpt lat="46.72324" lon="6.2989">
        <ele>1137</ele>
        <time>2022-07-05T12:45:36Z</time>
      </trkpt>
      <trkpt lat="46.72329" lon="6.29889">
        <ele>1136.6</ele>
        <time>2022-07-05T12:45:42Z</time>
      </trkpt>
      <trkpt lat="46.72334" lon="6.29886">
        <ele>1135.9</ele>
        <time>2022-07-05T12:45:49Z</time>
      </trkpt>
      <trkpt lat="46.72339" lon="6.29885">
        <ele>1135.2</ele>
        <time>2022-07-05T12:45:54Z</time>
      </trkpt>
      <trkpt lat="46.72344" lon="6.29885">
        <ele>1134.6</ele>
        <time>2022-07-05T12:45:59Z</time>
      </trkpt>
      <trkpt lat="46.72348" lon="6.29883">
        <ele>1134.6</ele>
        <time>2022-07-05T12:46:02Z</time>
      </trkpt>
      <trkpt lat="46.72353" lon="6.29881">
        <ele>1134.6</ele>
        <time>2022-07-05T12:46:05Z</time>
      </trkpt>
      <trkpt lat="46.72358" lon="6.29878">
        <ele>1134.8</ele>
        <time>2022-07-05T12:46:10Z</time>
      </trkpt>
      <trkpt lat="46.72363" lon="6.29875">
        <ele>1135</ele>
        <time>2022-07-05T12:46:15Z</time>
      </trkpt>
      <trkpt lat="46.72368" lon="6.29874">
        <ele>1135.2</ele>
        <time>2022-07-05T12:46:18Z</time>
      </trkpt>
      <trkpt lat="46.72373" lon="6.29871">
        <ele>1135.1</ele>
        <time>2022-07-05T12:46:22Z</time>
      </trkpt>
      <trkpt lat="46.72378" lon="6.29869">
        <ele>1135.2</ele>
        <time>2022-07-05T12:46:26Z</time>
      </trkpt>
      <trkpt lat="46.72384" lon="6.29867">
        <ele>1135.4</ele>
        <time>2022-07-05T12:46:30Z</time>
      </trkpt>
      <trkpt lat="46.7239" lon="6.29865">
        <ele>1135.8</ele>
        <time>2022-07-05T12:46:34Z</time>
      </trkpt>
      <trkpt lat="46.72396" lon="6.29862">
        <ele>1136.1</ele>
        <time>2022-07-05T12:46:37Z</time>
      </trkpt>
      <trkpt lat="46.724" lon="6.29861">
        <ele>1136.5</ele>
        <time>2022-07-05T12:46:41Z</time>
      </trkpt>
      <trkpt lat="46.72406" lon="6.29862">
        <ele>1136.9</ele>
        <time>2022-07-05T12:46:45Z</time>
      </trkpt>
      <trkpt lat="46.72411" lon="6.2986">
        <ele>1137.3</ele>
        <time>2022-07-05T12:46:51Z</time>
      </trkpt>
      <trkpt lat="46.72415" lon="6.29859">
        <ele>1137.6</ele>
        <time>2022-07-05T12:46:56Z</time>
      </trkpt>
      <trkpt lat="46.72421" lon="6.29857">
        <ele>1137.8</ele>
        <time>2022-07-05T12:47:01Z</time>
      </trkpt>
      <trkpt lat="46.72425" lon="6.29855">
        <ele>1137.7</ele>
        <time>2022-07-05T12:47:05Z</time>
      </trkpt>
      <trkpt lat="46.7243" lon="6.29854">
        <ele>1137.9</ele>
        <time>2022-07-05T12:47:10Z</time>
      </trkpt>
      <trkpt lat="46.72435" lon="6.29851">
        <ele>1138.1</ele>
        <time>2022-07-05T12:47:15Z</time>
      </trkpt>
      <trkpt lat="46.72439" lon="6.29847">
        <ele>1138.2</ele>
        <time>2022-07-05T12:47:21Z</time>
      </trkpt>
      <trkpt lat="46.72444" lon="6.29846">
        <ele>1138.5</ele>
        <time>2022-07-05T12:47:26Z</time>
      </trkpt>
      <trkpt lat="46.72449" lon="6.29844">
        <ele>1138.8</ele>
        <time>2022-07-05T12:47:31Z</time>
      </trkpt>
      <trkpt lat="46.72454" lon="6.29843">
        <ele>1138.9</ele>
        <time>2022-07-05T12:47:35Z</time>
      </trkpt>
      <trkpt lat="46.72459" lon="6.29844">
        <ele>1139</ele>
        <time>2022-07-05T12:47:39Z</time>
      </trkpt>
      <trkpt lat="46.72464" lon="6.29845">
        <ele>1139</ele>
        <time>2022-07-05T12:47:44Z</time>
      </trkpt>
      <trkpt lat="46.72469" lon="6.29846">
        <ele>1138.8</ele>
        <time>2022-07-05T12:47:48Z</time>
      </trkpt>
      <trkpt lat="46.72474" lon="6.29848">
        <ele>1139.1</ele>
        <time>2022-07-05T12:47:52Z</time>
      </trkpt>
      <trkpt lat="46.72478" lon="6.29852">
        <ele>1139.4</ele>
        <time>2022-07-05T12:47:55Z</time>
      </trkpt>
      <trkpt lat="46.72482" lon="6.29857">
        <ele>1139.7</ele>
        <time>2022-07-05T12:47:59Z</time>
      </trkpt>
      <trkpt lat="46.72485" lon="6.29863">
        <ele>1140.4</ele>
        <time>2022-07-05T12:48:03Z</time>
      </trkpt>
      <trkpt lat="46.72486" lon="6.2987">
        <ele>1140.9</ele>
        <time>2022-07-05T12:48:08Z</time>
      </trkpt>
      <trkpt lat="46.72485" lon="6.29878">
        <ele>1141.2</ele>
        <time>2022-07-05T12:48:13Z</time>
      </trkpt>
      <trkpt lat="46.72484" lon="6.29885">
        <ele>1141.4</ele>
        <time>2022-07-05T12:48:17Z</time>
      </trkpt>
      <trkpt lat="46.72483" lon="6.29892">
        <ele>1141.5</ele>
        <time>2022-07-05T12:48:21Z</time>
      </trkpt>
      <trkpt lat="46.72482" lon="6.29899">
        <ele>1141.1</ele>
        <time>2022-07-05T12:48:26Z</time>
      </trkpt>
      <trkpt lat="46.72481" lon="6.29907">
        <ele>1140.6</ele>
        <time>2022-07-05T12:48:31Z</time>
      </trkpt>
      <trkpt lat="46.72481" lon="6.29914">
        <ele>1140.3</ele>
        <time>2022-07-05T12:48:35Z</time>
      </trkpt>
      <trkpt lat="46.7248" lon="6.29921">
        <ele>1140</ele>
        <time>2022-07-05T12:48:40Z</time>
      </trkpt>
      <trkpt lat="46.72481" lon="6.29928">
        <ele>1139.8</ele>
        <time>2022-07-05T12:48:45Z</time>
      </trkpt>
      <trkpt lat="46.7248" lon="6.29936">
        <ele>1139.3</ele>
        <time>2022-07-05T12:48:50Z</time>
      </trkpt>
      <trkpt lat="46.7248" lon="6.29944">
        <ele>1138.4</ele>
        <time>2022-07-05T12:48:55Z</time>
      </trkpt>
      <trkpt lat="46.7248" lon="6.29951">
        <ele>1138</ele>
        <time>2022-07-05T12:49:00Z</time>
      </trkpt>
      <trkpt lat="46.7248" lon="6.29958">
        <ele>1137.6</ele>
        <time>2022-07-05T12:49:05Z</time>
      </trkpt>
      <trkpt lat="46.7248" lon="6.29966">
        <ele>1137.7</ele>
        <time>2022-07-05T12:49:10Z</time>
      </trkpt>
      <trkpt lat="46.7248" lon="6.29973">
        <ele>1137.9</ele>
        <time>2022-07-05T12:49:14Z</time>
      </trkpt>
      <trkpt lat="46.7248" lon="6.2998">
        <ele>1138.4</ele>
        <time>2022-07-05T12:49:18Z</time>
      </trkpt>
      <trkpt lat="46.72481" lon="6.29987">
        <ele>1138.8</ele>
        <time>2022-07-05T12:49:23Z</time>
      </trkpt>
      <trkpt lat="46.72481" lon="6.29995">
        <ele>1138.6</ele>
        <time>2022-07-05T12:49:28Z</time>
      </trkpt>
      <trkpt lat="46.72481" lon="6.30003">
        <ele>1138.4</ele>
        <time>2022-07-05T12:49:33Z</time>
      </trkpt>
      <trkpt lat="46.72481" lon="6.3001">
        <ele>1138.2</ele>
        <time>2022-07-05T12:49:38Z</time>
      </trkpt>
      <trkpt lat="46.72482" lon="6.30018">
        <ele>1137.8</ele>
        <time>2022-07-05T12:49:44Z</time>
      </trkpt>
      <trkpt lat="46.72484" lon="6.30024">
        <ele>1137.7</ele>
        <time>2022-07-05T12:49:49Z</time>
      </trkpt>
      <trkpt lat="46.72486" lon="6.30031">
        <ele>1137.6</ele>
        <time>2022-07-05T12:49:54Z</time>
      </trkpt>
      <trkpt lat="46.72487" lon="6.30037">
        <ele>1137.7</ele>
        <time>2022-07-05T12:49:58Z</time>
      </trkpt>
      <trkpt lat="46.72489" lon="6.30045">
        <ele>1137.7</ele>
        <time>2022-07-05T12:50:03Z</time>
      </trkpt>
      <trkpt lat="46.72491" lon="6.30051">
        <ele>1137.7</ele>
        <time>2022-07-05T12:50:08Z</time>
      </trkpt>
      <trkpt lat="46.72494" lon="6.30057">
        <ele>1137.7</ele>
        <time>2022-07-05T12:50:13Z</time>
      </trkpt>
      <trkpt lat="46.72496" lon="6.30064">
        <ele>1137.9</ele>
        <time>2022-07-05T12:50:17Z</time>
      </trkpt>
      <trkpt lat="46.72497" lon="6.3007">
        <ele>1138.4</ele>
        <time>2022-07-05T12:50:21Z</time>
      </trkpt>
      <trkpt lat="46.72499" lon="6.30078">
        <ele>1139.1</ele>
        <time>2022-07-05T12:50:26Z</time>
      </trkpt>
      <trkpt lat="46.725" lon="6.30084">
        <ele>1139.9</ele>
        <time>2022-07-05T12:50:31Z</time>
      </trkpt>
      <trkpt lat="46.72501" lon="6.30091">
        <ele>1140.2</ele>
        <time>2022-07-05T12:50:36Z</time>
      </trkpt>
      <trkpt lat="46.72504" lon="6.30097">
        <ele>1140.6</ele>
        <time>2022-07-05T12:50:41Z</time>
      </trkpt>
    </trkseg>
  </trk>
</gpx>